<?xml version="1.0" encoding="UTF-8" standalone="no" ?>
<gpx xmlns="http://www.topografix.com/GPX/1/1" xmlns:xsi="http://www.w3.org/2001/XMLSchema-instance" xsi:schemaLocation="http://www.topografix.com/GPX/1/1 http://www.topografix.com/GPX/1/1/gpx.xsd" version="1.1" creator="VisuGPX - https://www.visugpx.com">
  <metadata>
    <name>Far_West_Realisé</name>
  </metadata>
  <trk>
    <name><![CDATA[J4 - Far west - Montréjeau - Odos - superbe panorama sur les Pyrénées ☀️]]></name>
    <extensions>
      <line xmlns="http://www.topografix.com/GPX/gpx_style/0/2">
        <color>FFFF00</color>
        <width>4</width>
      </line>
    </extensions>
    <trkseg>
      <trkpt lat="43.08542" lon="0.56802">
        <ele>418</ele>
        <time>2022-09-06T07:19:48Z</time>
      </trkpt>
      <trkpt lat="43.08539" lon="0.56799">
        <ele>418</ele>
        <time>2022-09-06T07:20:01Z</time>
      </trkpt>
      <trkpt lat="43.08538" lon="0.56799">
        <ele>417.8</ele>
        <time>2022-09-06T07:20:03Z</time>
      </trkpt>
      <trkpt lat="43.08529" lon="0.56793">
        <ele>417.6</ele>
        <time>2022-09-06T07:20:09Z</time>
      </trkpt>
      <trkpt lat="43.08527" lon="0.5679">
        <ele>417.6</ele>
        <time>2022-09-06T07:20:11Z</time>
      </trkpt>
      <trkpt lat="43.08519" lon="0.56779">
        <ele>417.4</ele>
        <time>2022-09-06T07:20:15Z</time>
      </trkpt>
      <trkpt lat="43.08518" lon="0.56775">
        <ele>417.4</ele>
        <time>2022-09-06T07:20:16Z</time>
      </trkpt>
      <trkpt lat="43.08521" lon="0.56765">
        <ele>417.6</ele>
        <time>2022-09-06T07:20:20Z</time>
      </trkpt>
      <trkpt lat="43.08524" lon="0.56759">
        <ele>417.4</ele>
        <time>2022-09-06T07:20:22Z</time>
      </trkpt>
      <trkpt lat="43.08529" lon="0.56745">
        <ele>417</ele>
        <time>2022-09-06T07:20:27Z</time>
      </trkpt>
      <trkpt lat="43.08531" lon="0.56738">
        <ele>417</ele>
        <time>2022-09-06T07:20:29Z</time>
      </trkpt>
      <trkpt lat="43.08534" lon="0.56721">
        <ele>416.8</ele>
        <time>2022-09-06T07:20:34Z</time>
      </trkpt>
      <trkpt lat="43.08542" lon="0.5669">
        <ele>416.6</ele>
        <time>2022-09-06T07:20:43Z</time>
      </trkpt>
      <trkpt lat="43.08545" lon="0.56677">
        <ele>416.4</ele>
        <time>2022-09-06T07:20:48Z</time>
      </trkpt>
      <trkpt lat="43.08543" lon="0.56669">
        <ele>416.2</ele>
        <time>2022-09-06T07:20:52Z</time>
      </trkpt>
      <trkpt lat="43.08538" lon="0.56668">
        <ele>416.2</ele>
        <time>2022-09-06T07:20:54Z</time>
      </trkpt>
      <trkpt lat="43.08529" lon="0.56663">
        <ele>416</ele>
        <time>2022-09-06T07:20:57Z</time>
      </trkpt>
      <trkpt lat="43.08524" lon="0.56658">
        <ele>415.6</ele>
        <time>2022-09-06T07:20:59Z</time>
      </trkpt>
      <trkpt lat="43.08523" lon="0.56655">
        <ele>415.6</ele>
        <time>2022-09-06T07:21:00Z</time>
      </trkpt>
      <trkpt lat="43.08518" lon="0.56638">
        <ele>415</ele>
        <time>2022-09-06T07:21:06Z</time>
      </trkpt>
      <trkpt lat="43.08519" lon="0.56615">
        <ele>414.8</ele>
        <time>2022-09-06T07:21:12Z</time>
      </trkpt>
      <trkpt lat="43.0852" lon="0.56591">
        <ele>414.8</ele>
        <time>2022-09-06T07:21:18Z</time>
      </trkpt>
      <trkpt lat="43.08514" lon="0.5656">
        <ele>414.8</ele>
        <time>2022-09-06T07:21:26Z</time>
      </trkpt>
      <trkpt lat="43.08501" lon="0.56526">
        <ele>414.6</ele>
        <time>2022-09-06T07:21:35Z</time>
      </trkpt>
      <trkpt lat="43.08493" lon="0.56499">
        <ele>414.6</ele>
        <time>2022-09-06T07:21:43Z</time>
      </trkpt>
      <trkpt lat="43.08488" lon="0.56477">
        <ele>414.6</ele>
        <time>2022-09-06T07:21:51Z</time>
      </trkpt>
      <trkpt lat="43.08484" lon="0.56459">
        <ele>414.6</ele>
        <time>2022-09-06T07:21:57Z</time>
      </trkpt>
      <trkpt lat="43.08481" lon="0.56437">
        <ele>414.8</ele>
        <time>2022-09-06T07:22:04Z</time>
      </trkpt>
      <trkpt lat="43.08479" lon="0.56414">
        <ele>414.8</ele>
        <time>2022-09-06T07:22:10Z</time>
      </trkpt>
      <trkpt lat="43.08472" lon="0.56398">
        <ele>414.6</ele>
        <time>2022-09-06T07:22:16Z</time>
      </trkpt>
      <trkpt lat="43.08471" lon="0.56391">
        <ele>414.6</ele>
        <time>2022-09-06T07:22:19Z</time>
      </trkpt>
      <trkpt lat="43.08469" lon="0.56385">
        <ele>414.6</ele>
        <time>2022-09-06T07:22:21Z</time>
      </trkpt>
      <trkpt lat="43.0847" lon="0.5637">
        <ele>415.4</ele>
        <time>2022-09-06T07:22:27Z</time>
      </trkpt>
      <trkpt lat="43.08467" lon="0.56358">
        <ele>416</ele>
        <time>2022-09-06T07:22:32Z</time>
      </trkpt>
      <trkpt lat="43.08459" lon="0.5634">
        <ele>417</ele>
        <time>2022-09-06T07:22:40Z</time>
      </trkpt>
      <trkpt lat="43.08451" lon="0.5632">
        <ele>418</ele>
        <time>2022-09-06T07:22:48Z</time>
      </trkpt>
      <trkpt lat="43.08448" lon="0.56315">
        <ele>418.2</ele>
        <time>2022-09-06T07:22:50Z</time>
      </trkpt>
      <trkpt lat="43.08439" lon="0.56299">
        <ele>418.4</ele>
        <time>2022-09-06T07:22:56Z</time>
      </trkpt>
      <trkpt lat="43.08427" lon="0.56279">
        <ele>418.8</ele>
        <time>2022-09-06T07:23:04Z</time>
      </trkpt>
      <trkpt lat="43.08418" lon="0.56259">
        <ele>419.2</ele>
        <time>2022-09-06T07:23:11Z</time>
      </trkpt>
      <trkpt lat="43.08415" lon="0.56253">
        <ele>419.2</ele>
        <time>2022-09-06T07:23:13Z</time>
      </trkpt>
      <trkpt lat="43.08406" lon="0.56233">
        <ele>419.4</ele>
        <time>2022-09-06T07:23:20Z</time>
      </trkpt>
      <trkpt lat="43.08396" lon="0.56224">
        <ele>419.8</ele>
        <time>2022-09-06T07:23:26Z</time>
      </trkpt>
      <trkpt lat="43.08377" lon="0.56226">
        <ele>419.8</ele>
        <time>2022-09-06T07:23:33Z</time>
      </trkpt>
      <trkpt lat="43.08349" lon="0.56231">
        <ele>419.6</ele>
        <time>2022-09-06T07:23:42Z</time>
      </trkpt>
      <trkpt lat="43.08336" lon="0.56231">
        <ele>419.6</ele>
        <time>2022-09-06T07:23:47Z</time>
      </trkpt>
      <trkpt lat="43.08335" lon="0.56228">
        <ele>419.6</ele>
        <time>2022-09-06T07:23:48Z</time>
      </trkpt>
      <trkpt lat="43.08332" lon="0.56209">
        <ele>420.2</ele>
        <time>2022-09-06T07:23:53Z</time>
      </trkpt>
      <trkpt lat="43.08331" lon="0.56206">
        <ele>420.2</ele>
        <time>2022-09-06T07:23:54Z</time>
      </trkpt>
      <trkpt lat="43.08331" lon="0.56202">
        <ele>420.4</ele>
        <time>2022-09-06T07:23:55Z</time>
      </trkpt>
      <trkpt lat="43.08325" lon="0.56171">
        <ele>421</ele>
        <time>2022-09-06T07:24:03Z</time>
      </trkpt>
      <trkpt lat="43.08323" lon="0.56159">
        <ele>421.4</ele>
        <time>2022-09-06T07:24:06Z</time>
      </trkpt>
      <trkpt lat="43.0832" lon="0.56144">
        <ele>421.6</ele>
        <time>2022-09-06T07:24:10Z</time>
      </trkpt>
      <trkpt lat="43.08317" lon="0.56129">
        <ele>421.8</ele>
        <time>2022-09-06T07:24:17Z</time>
      </trkpt>
      <trkpt lat="43.08315" lon="0.56132">
        <ele>421.8</ele>
        <time>2022-09-06T07:24:20Z</time>
      </trkpt>
      <trkpt lat="43.08316" lon="0.5614">
        <ele>421.8</ele>
        <time>2022-09-06T07:24:23Z</time>
      </trkpt>
      <trkpt lat="43.08318" lon="0.56149">
        <ele>421.8</ele>
        <time>2022-09-06T07:24:26Z</time>
      </trkpt>
      <trkpt lat="43.08319" lon="0.56169">
        <ele>421.4</ele>
        <time>2022-09-06T07:24:31Z</time>
      </trkpt>
      <trkpt lat="43.08316" lon="0.56172">
        <ele>421.4</ele>
        <time>2022-09-06T07:24:32Z</time>
      </trkpt>
      <trkpt lat="43.08304" lon="0.56178">
        <ele>421.6</ele>
        <time>2022-09-06T07:24:36Z</time>
      </trkpt>
      <trkpt lat="43.08298" lon="0.5618">
        <ele>421.4</ele>
        <time>2022-09-06T07:24:38Z</time>
      </trkpt>
      <trkpt lat="43.0829" lon="0.56182">
        <ele>421</ele>
        <time>2022-09-06T07:24:41Z</time>
      </trkpt>
      <trkpt lat="43.08279" lon="0.56185">
        <ele>420.2</ele>
        <time>2022-09-06T07:24:45Z</time>
      </trkpt>
      <trkpt lat="43.08277" lon="0.56184">
        <ele>420</ele>
        <time>2022-09-06T07:24:46Z</time>
      </trkpt>
      <trkpt lat="43.08274" lon="0.56175">
        <ele>420</ele>
        <time>2022-09-06T07:24:49Z</time>
      </trkpt>
      <trkpt lat="43.0827" lon="0.56151">
        <ele>420.2</ele>
        <time>2022-09-06T07:24:55Z</time>
      </trkpt>
      <trkpt lat="43.08262" lon="0.56111">
        <ele>420.6</ele>
        <time>2022-09-06T07:25:04Z</time>
      </trkpt>
      <trkpt lat="43.08254" lon="0.56073">
        <ele>421.2</ele>
        <time>2022-09-06T07:25:12Z</time>
      </trkpt>
      <trkpt lat="43.08247" lon="0.56045">
        <ele>421.2</ele>
        <time>2022-09-06T07:25:18Z</time>
      </trkpt>
      <trkpt lat="43.08242" lon="0.56027">
        <ele>421.2</ele>
        <time>2022-09-06T07:25:22Z</time>
      </trkpt>
      <trkpt lat="43.08229" lon="0.55981">
        <ele>421.4</ele>
        <time>2022-09-06T07:25:32Z</time>
      </trkpt>
      <trkpt lat="43.08217" lon="0.55934">
        <ele>421.8</ele>
        <time>2022-09-06T07:25:42Z</time>
      </trkpt>
      <trkpt lat="43.08205" lon="0.55892">
        <ele>422.4</ele>
        <time>2022-09-06T07:25:51Z</time>
      </trkpt>
      <trkpt lat="43.08203" lon="0.55887">
        <ele>422.4</ele>
        <time>2022-09-06T07:25:52Z</time>
      </trkpt>
      <trkpt lat="43.08184" lon="0.55835">
        <ele>422.4</ele>
        <time>2022-09-06T07:26:04Z</time>
      </trkpt>
      <trkpt lat="43.08168" lon="0.55805">
        <ele>422.6</ele>
        <time>2022-09-06T07:26:12Z</time>
      </trkpt>
      <trkpt lat="43.08153" lon="0.55776">
        <ele>422.8</ele>
        <time>2022-09-06T07:26:20Z</time>
      </trkpt>
      <trkpt lat="43.08143" lon="0.55754">
        <ele>423</ele>
        <time>2022-09-06T07:26:26Z</time>
      </trkpt>
      <trkpt lat="43.08128" lon="0.55717">
        <ele>423.2</ele>
        <time>2022-09-06T07:26:35Z</time>
      </trkpt>
      <trkpt lat="43.08118" lon="0.55676">
        <ele>423.2</ele>
        <time>2022-09-06T07:26:44Z</time>
      </trkpt>
      <trkpt lat="43.08112" lon="0.55642">
        <ele>423.4</ele>
        <time>2022-09-06T07:26:51Z</time>
      </trkpt>
      <trkpt lat="43.0811" lon="0.55633">
        <ele>423.6</ele>
        <time>2022-09-06T07:26:53Z</time>
      </trkpt>
      <trkpt lat="43.08105" lon="0.55601">
        <ele>423.6</ele>
        <time>2022-09-06T07:27:01Z</time>
      </trkpt>
      <trkpt lat="43.081" lon="0.55578">
        <ele>423.8</ele>
        <time>2022-09-06T07:27:08Z</time>
      </trkpt>
      <trkpt lat="43.08097" lon="0.55562">
        <ele>423.6</ele>
        <time>2022-09-06T07:27:14Z</time>
      </trkpt>
      <trkpt lat="43.08098" lon="0.55547">
        <ele>423.6</ele>
        <time>2022-09-06T07:27:19Z</time>
      </trkpt>
      <trkpt lat="43.08095" lon="0.55531">
        <ele>423.6</ele>
        <time>2022-09-06T07:27:23Z</time>
      </trkpt>
      <trkpt lat="43.08094" lon="0.55523">
        <ele>423.8</ele>
        <time>2022-09-06T07:27:25Z</time>
      </trkpt>
      <trkpt lat="43.08089" lon="0.5549">
        <ele>424</ele>
        <time>2022-09-06T07:27:33Z</time>
      </trkpt>
      <trkpt lat="43.08085" lon="0.5545">
        <ele>424</ele>
        <time>2022-09-06T07:27:43Z</time>
      </trkpt>
      <trkpt lat="43.08083" lon="0.55426">
        <ele>423.8</ele>
        <time>2022-09-06T07:27:50Z</time>
      </trkpt>
      <trkpt lat="43.08081" lon="0.55412">
        <ele>423.6</ele>
        <time>2022-09-06T07:27:56Z</time>
      </trkpt>
      <trkpt lat="43.08079" lon="0.55398">
        <ele>423.6</ele>
        <time>2022-09-06T07:28:02Z</time>
      </trkpt>
      <trkpt lat="43.0808" lon="0.55374">
        <ele>423.2</ele>
        <time>2022-09-06T07:28:09Z</time>
      </trkpt>
      <trkpt lat="43.08082" lon="0.55353">
        <ele>423.4</ele>
        <time>2022-09-06T07:28:16Z</time>
      </trkpt>
      <trkpt lat="43.08085" lon="0.55325">
        <ele>423.4</ele>
        <time>2022-09-06T07:28:23Z</time>
      </trkpt>
      <trkpt lat="43.08088" lon="0.55294">
        <ele>423.4</ele>
        <time>2022-09-06T07:28:29Z</time>
      </trkpt>
      <trkpt lat="43.08092" lon="0.55262">
        <ele>423.6</ele>
        <time>2022-09-06T07:28:36Z</time>
      </trkpt>
      <trkpt lat="43.08094" lon="0.55229">
        <ele>424</ele>
        <time>2022-09-06T07:28:43Z</time>
      </trkpt>
      <trkpt lat="43.08094" lon="0.55195">
        <ele>424</ele>
        <time>2022-09-06T07:28:52Z</time>
      </trkpt>
      <trkpt lat="43.08094" lon="0.55174">
        <ele>424.2</ele>
        <time>2022-09-06T07:28:59Z</time>
      </trkpt>
      <trkpt lat="43.08094" lon="0.55165">
        <ele>424</ele>
        <time>2022-09-06T07:29:04Z</time>
      </trkpt>
      <trkpt lat="43.08094" lon="0.55157">
        <ele>424</ele>
        <time>2022-09-06T07:31:08Z</time>
      </trkpt>
      <trkpt lat="43.08095" lon="0.5515">
        <ele>424.2</ele>
        <time>2022-09-06T07:31:10Z</time>
      </trkpt>
      <trkpt lat="43.08096" lon="0.55134">
        <ele>424.4</ele>
        <time>2022-09-06T07:31:14Z</time>
      </trkpt>
      <trkpt lat="43.08097" lon="0.55124">
        <ele>424.2</ele>
        <time>2022-09-06T07:31:16Z</time>
      </trkpt>
      <trkpt lat="43.081" lon="0.55095">
        <ele>424</ele>
        <time>2022-09-06T07:31:22Z</time>
      </trkpt>
      <trkpt lat="43.08103" lon="0.55063">
        <ele>423.8</ele>
        <time>2022-09-06T07:31:29Z</time>
      </trkpt>
      <trkpt lat="43.08105" lon="0.55035">
        <ele>424.2</ele>
        <time>2022-09-06T07:31:35Z</time>
      </trkpt>
      <trkpt lat="43.08108" lon="0.55001">
        <ele>424</ele>
        <time>2022-09-06T07:31:42Z</time>
      </trkpt>
      <trkpt lat="43.08111" lon="0.5497">
        <ele>424</ele>
        <time>2022-09-06T07:31:48Z</time>
      </trkpt>
      <trkpt lat="43.08113" lon="0.54942">
        <ele>424.2</ele>
        <time>2022-09-06T07:31:54Z</time>
      </trkpt>
      <trkpt lat="43.08117" lon="0.54911">
        <ele>424.6</ele>
        <time>2022-09-06T07:32:01Z</time>
      </trkpt>
      <trkpt lat="43.08121" lon="0.54866">
        <ele>425.4</ele>
        <time>2022-09-06T07:32:10Z</time>
      </trkpt>
      <trkpt lat="43.08121" lon="0.54861">
        <ele>425.4</ele>
        <time>2022-09-06T07:32:11Z</time>
      </trkpt>
      <trkpt lat="43.08123" lon="0.54827">
        <ele>425.6</ele>
        <time>2022-09-06T07:32:18Z</time>
      </trkpt>
      <trkpt lat="43.08125" lon="0.54794">
        <ele>426</ele>
        <time>2022-09-06T07:32:26Z</time>
      </trkpt>
      <trkpt lat="43.08127" lon="0.54755">
        <ele>426</ele>
        <time>2022-09-06T07:32:34Z</time>
      </trkpt>
      <trkpt lat="43.08129" lon="0.54718">
        <ele>425.6</ele>
        <time>2022-09-06T07:32:41Z</time>
      </trkpt>
      <trkpt lat="43.08131" lon="0.54683">
        <ele>425.4</ele>
        <time>2022-09-06T07:32:48Z</time>
      </trkpt>
      <trkpt lat="43.08132" lon="0.54672">
        <ele>425.4</ele>
        <time>2022-09-06T07:32:50Z</time>
      </trkpt>
      <trkpt lat="43.08136" lon="0.54623">
        <ele>425.2</ele>
        <time>2022-09-06T07:32:59Z</time>
      </trkpt>
      <trkpt lat="43.08137" lon="0.54605">
        <ele>425</ele>
        <time>2022-09-06T07:33:02Z</time>
      </trkpt>
      <trkpt lat="43.08139" lon="0.5459">
        <ele>425</ele>
        <time>2022-09-06T07:33:05Z</time>
      </trkpt>
      <trkpt lat="43.08137" lon="0.54558">
        <ele>424.6</ele>
        <time>2022-09-06T07:33:12Z</time>
      </trkpt>
      <trkpt lat="43.08129" lon="0.5454">
        <ele>425.4</ele>
        <time>2022-09-06T07:33:17Z</time>
      </trkpt>
      <trkpt lat="43.08125" lon="0.54528">
        <ele>426.4</ele>
        <time>2022-09-06T07:33:22Z</time>
      </trkpt>
      <trkpt lat="43.08123" lon="0.54523">
        <ele>427</ele>
        <time>2022-09-06T07:33:24Z</time>
      </trkpt>
      <trkpt lat="43.08121" lon="0.54516">
        <ele>427.6</ele>
        <time>2022-09-06T07:33:27Z</time>
      </trkpt>
      <trkpt lat="43.08117" lon="0.54506">
        <ele>428.4</ele>
        <time>2022-09-06T07:33:31Z</time>
      </trkpt>
      <trkpt lat="43.08114" lon="0.54496">
        <ele>428.8</ele>
        <time>2022-09-06T07:33:35Z</time>
      </trkpt>
      <trkpt lat="43.08109" lon="0.54485">
        <ele>429.2</ele>
        <time>2022-09-06T07:33:39Z</time>
      </trkpt>
      <trkpt lat="43.08099" lon="0.54461">
        <ele>429.6</ele>
        <time>2022-09-06T07:33:48Z</time>
      </trkpt>
      <trkpt lat="43.08096" lon="0.54455">
        <ele>429.8</ele>
        <time>2022-09-06T07:33:50Z</time>
      </trkpt>
      <trkpt lat="43.08091" lon="0.54447">
        <ele>430.2</ele>
        <time>2022-09-06T07:33:54Z</time>
      </trkpt>
      <trkpt lat="43.08086" lon="0.54431">
        <ele>430.6</ele>
        <time>2022-09-06T07:34:02Z</time>
      </trkpt>
      <trkpt lat="43.08078" lon="0.54413">
        <ele>430.6</ele>
        <time>2022-09-06T07:34:09Z</time>
      </trkpt>
      <trkpt lat="43.08067" lon="0.54391">
        <ele>430.6</ele>
        <time>2022-09-06T07:34:18Z</time>
      </trkpt>
      <trkpt lat="43.08064" lon="0.54384">
        <ele>430.8</ele>
        <time>2022-09-06T07:34:21Z</time>
      </trkpt>
      <trkpt lat="43.08057" lon="0.5437">
        <ele>431</ele>
        <time>2022-09-06T07:34:26Z</time>
      </trkpt>
      <trkpt lat="43.08042" lon="0.54339">
        <ele>431.8</ele>
        <time>2022-09-06T07:34:36Z</time>
      </trkpt>
      <trkpt lat="43.08036" lon="0.54327">
        <ele>431.8</ele>
        <time>2022-09-06T07:34:40Z</time>
      </trkpt>
      <trkpt lat="43.08028" lon="0.54313">
        <ele>432.2</ele>
        <time>2022-09-06T07:34:45Z</time>
      </trkpt>
      <trkpt lat="43.08017" lon="0.5429">
        <ele>432.4</ele>
        <time>2022-09-06T07:34:53Z</time>
      </trkpt>
      <trkpt lat="43.08007" lon="0.54269">
        <ele>432.6</ele>
        <time>2022-09-06T07:35:01Z</time>
      </trkpt>
      <trkpt lat="43.08002" lon="0.54259">
        <ele>433</ele>
        <time>2022-09-06T07:35:05Z</time>
      </trkpt>
      <trkpt lat="43.07997" lon="0.54251">
        <ele>432.8</ele>
        <time>2022-09-06T07:35:09Z</time>
      </trkpt>
      <trkpt lat="43.07986" lon="0.54231">
        <ele>433</ele>
        <time>2022-09-06T07:35:17Z</time>
      </trkpt>
      <trkpt lat="43.07974" lon="0.54209">
        <ele>432.8</ele>
        <time>2022-09-06T07:35:24Z</time>
      </trkpt>
      <trkpt lat="43.07955" lon="0.54172">
        <ele>432</ele>
        <time>2022-09-06T07:35:34Z</time>
      </trkpt>
      <trkpt lat="43.07949" lon="0.54157">
        <ele>431.8</ele>
        <time>2022-09-06T07:35:38Z</time>
      </trkpt>
      <trkpt lat="43.07944" lon="0.54149">
        <ele>431.8</ele>
        <time>2022-09-06T07:35:40Z</time>
      </trkpt>
      <trkpt lat="43.07931" lon="0.54115">
        <ele>431</ele>
        <time>2022-09-06T07:35:48Z</time>
      </trkpt>
      <trkpt lat="43.07927" lon="0.54105">
        <ele>430.8</ele>
        <time>2022-09-06T07:35:50Z</time>
      </trkpt>
      <trkpt lat="43.07916" lon="0.54075">
        <ele>430</ele>
        <time>2022-09-06T07:35:56Z</time>
      </trkpt>
      <trkpt lat="43.07913" lon="0.54071">
        <ele>429.8</ele>
        <time>2022-09-06T07:35:57Z</time>
      </trkpt>
      <trkpt lat="43.07908" lon="0.54061">
        <ele>429.6</ele>
        <time>2022-09-06T07:35:59Z</time>
      </trkpt>
      <trkpt lat="43.07902" lon="0.54044">
        <ele>429.2</ele>
        <time>2022-09-06T07:36:02Z</time>
      </trkpt>
      <trkpt lat="43.07896" lon="0.54019">
        <ele>428.6</ele>
        <time>2022-09-06T07:36:06Z</time>
      </trkpt>
      <trkpt lat="43.07891" lon="0.53993">
        <ele>428.4</ele>
        <time>2022-09-06T07:36:10Z</time>
      </trkpt>
      <trkpt lat="43.07884" lon="0.53956">
        <ele>428</ele>
        <time>2022-09-06T07:36:17Z</time>
      </trkpt>
      <trkpt lat="43.07881" lon="0.5395">
        <ele>427.6</ele>
        <time>2022-09-06T07:36:19Z</time>
      </trkpt>
      <trkpt lat="43.07878" lon="0.53947">
        <ele>427.6</ele>
        <time>2022-09-06T07:36:21Z</time>
      </trkpt>
      <trkpt lat="43.07874" lon="0.53941">
        <ele>427.4</ele>
        <time>2022-09-06T07:36:47Z</time>
      </trkpt>
      <trkpt lat="43.07874" lon="0.53935">
        <ele>427.4</ele>
        <time>2022-09-06T07:36:49Z</time>
      </trkpt>
      <trkpt lat="43.07876" lon="0.5393">
        <ele>427.2</ele>
        <time>2022-09-06T07:36:51Z</time>
      </trkpt>
      <trkpt lat="43.07875" lon="0.53917">
        <ele>427.4</ele>
        <time>2022-09-06T07:36:55Z</time>
      </trkpt>
      <trkpt lat="43.0787" lon="0.53892">
        <ele>427.4</ele>
        <time>2022-09-06T07:37:02Z</time>
      </trkpt>
      <trkpt lat="43.07866" lon="0.53874">
        <ele>427</ele>
        <time>2022-09-06T07:37:09Z</time>
      </trkpt>
      <trkpt lat="43.07864" lon="0.53864">
        <ele>426.6</ele>
        <time>2022-09-06T07:37:15Z</time>
      </trkpt>
      <trkpt lat="43.07864" lon="0.53859">
        <ele>426.6</ele>
        <time>2022-09-06T07:37:53Z</time>
      </trkpt>
      <trkpt lat="43.07863" lon="0.53855">
        <ele>426.6</ele>
        <time>2022-09-06T07:37:55Z</time>
      </trkpt>
      <trkpt lat="43.07861" lon="0.53844">
        <ele>426.6</ele>
        <time>2022-09-06T07:38:00Z</time>
      </trkpt>
      <trkpt lat="43.0786" lon="0.5384">
        <ele>426.6</ele>
        <time>2022-09-06T07:38:02Z</time>
      </trkpt>
      <trkpt lat="43.0786" lon="0.53836">
        <ele>426.4</ele>
        <time>2022-09-06T07:38:04Z</time>
      </trkpt>
      <trkpt lat="43.07859" lon="0.53821">
        <ele>426.4</ele>
        <time>2022-09-06T07:38:10Z</time>
      </trkpt>
      <trkpt lat="43.07858" lon="0.53807">
        <ele>426.2</ele>
        <time>2022-09-06T07:38:16Z</time>
      </trkpt>
      <trkpt lat="43.07856" lon="0.53788">
        <ele>426</ele>
        <time>2022-09-06T07:38:23Z</time>
      </trkpt>
      <trkpt lat="43.07855" lon="0.53762">
        <ele>425.6</ele>
        <time>2022-09-06T07:38:31Z</time>
      </trkpt>
      <trkpt lat="43.07854" lon="0.53753">
        <ele>425.4</ele>
        <time>2022-09-06T07:38:34Z</time>
      </trkpt>
      <trkpt lat="43.07852" lon="0.53733">
        <ele>425.2</ele>
        <time>2022-09-06T07:38:40Z</time>
      </trkpt>
      <trkpt lat="43.07849" lon="0.537">
        <ele>424.6</ele>
        <time>2022-09-06T07:38:49Z</time>
      </trkpt>
      <trkpt lat="43.07848" lon="0.53678">
        <ele>424.4</ele>
        <time>2022-09-06T07:38:54Z</time>
      </trkpt>
      <trkpt lat="43.07848" lon="0.53666">
        <ele>424</ele>
        <time>2022-09-06T07:38:57Z</time>
      </trkpt>
      <trkpt lat="43.07848" lon="0.53661">
        <ele>424</ele>
        <time>2022-09-06T07:38:59Z</time>
      </trkpt>
      <trkpt lat="43.07849" lon="0.53653">
        <ele>423.6</ele>
        <time>2022-09-06T07:39:02Z</time>
      </trkpt>
      <trkpt lat="43.0785" lon="0.53647">
        <ele>423.2</ele>
        <time>2022-09-06T07:39:04Z</time>
      </trkpt>
      <trkpt lat="43.07852" lon="0.53639">
        <ele>423</ele>
        <time>2022-09-06T07:39:07Z</time>
      </trkpt>
      <trkpt lat="43.07857" lon="0.53626">
        <ele>422.2</ele>
        <time>2022-09-06T07:39:12Z</time>
      </trkpt>
      <trkpt lat="43.07858" lon="0.53623">
        <ele>421.6</ele>
        <time>2022-09-06T07:39:13Z</time>
      </trkpt>
      <trkpt lat="43.07859" lon="0.5362">
        <ele>421.2</ele>
        <time>2022-09-06T07:39:14Z</time>
      </trkpt>
      <trkpt lat="43.07868" lon="0.53604">
        <ele>420</ele>
        <time>2022-09-06T07:39:19Z</time>
      </trkpt>
      <trkpt lat="43.07876" lon="0.53586">
        <ele>419</ele>
        <time>2022-09-06T07:39:23Z</time>
      </trkpt>
      <trkpt lat="43.07879" lon="0.53576">
        <ele>418.2</ele>
        <time>2022-09-06T07:39:25Z</time>
      </trkpt>
      <trkpt lat="43.0788" lon="0.53572">
        <ele>417.6</ele>
        <time>2022-09-06T07:39:26Z</time>
      </trkpt>
      <trkpt lat="43.07884" lon="0.53559">
        <ele>416.8</ele>
        <time>2022-09-06T07:39:29Z</time>
      </trkpt>
      <trkpt lat="43.07887" lon="0.53556">
        <ele>416.4</ele>
        <time>2022-09-06T07:39:30Z</time>
      </trkpt>
      <trkpt lat="43.07894" lon="0.53546">
        <ele>415.2</ele>
        <time>2022-09-06T07:39:33Z</time>
      </trkpt>
      <trkpt lat="43.07896" lon="0.53542">
        <ele>414.8</ele>
        <time>2022-09-06T07:39:34Z</time>
      </trkpt>
      <trkpt lat="43.07901" lon="0.53535">
        <ele>413.8</ele>
        <time>2022-09-06T07:39:36Z</time>
      </trkpt>
      <trkpt lat="43.07909" lon="0.53523">
        <ele>412.4</ele>
        <time>2022-09-06T07:39:40Z</time>
      </trkpt>
      <trkpt lat="43.07919" lon="0.53513">
        <ele>411.4</ele>
        <time>2022-09-06T07:39:45Z</time>
      </trkpt>
      <trkpt lat="43.07919" lon="0.53511">
        <ele>411.2</ele>
        <time>2022-09-06T07:39:46Z</time>
      </trkpt>
      <trkpt lat="43.07837" lon="0.53389">
        <ele>422</ele>
        <time>2022-09-06T07:41:12Z</time>
      </trkpt>
      <trkpt lat="43.07833" lon="0.53373">
        <ele>422.2</ele>
        <time>2022-09-06T07:41:19Z</time>
      </trkpt>
      <trkpt lat="43.07831" lon="0.5337">
        <ele>422.2</ele>
        <time>2022-09-06T07:41:20Z</time>
      </trkpt>
      <trkpt lat="43.07827" lon="0.53357">
        <ele>422.4</ele>
        <time>2022-09-06T07:41:25Z</time>
      </trkpt>
      <trkpt lat="43.07823" lon="0.53347">
        <ele>422.4</ele>
        <time>2022-09-06T07:41:29Z</time>
      </trkpt>
      <trkpt lat="43.0782" lon="0.53339">
        <ele>422.4</ele>
        <time>2022-09-06T07:41:32Z</time>
      </trkpt>
      <trkpt lat="43.07816" lon="0.53318">
        <ele>422</ele>
        <time>2022-09-06T07:41:39Z</time>
      </trkpt>
      <trkpt lat="43.07813" lon="0.53297">
        <ele>421.6</ele>
        <time>2022-09-06T07:41:45Z</time>
      </trkpt>
      <trkpt lat="43.07809" lon="0.53276">
        <ele>421.4</ele>
        <time>2022-09-06T07:41:50Z</time>
      </trkpt>
      <trkpt lat="43.07806" lon="0.53254">
        <ele>421</ele>
        <time>2022-09-06T07:41:55Z</time>
      </trkpt>
      <trkpt lat="43.07803" lon="0.53224">
        <ele>420.8</ele>
        <time>2022-09-06T07:42:01Z</time>
      </trkpt>
      <trkpt lat="43.07801" lon="0.53195">
        <ele>420.2</ele>
        <time>2022-09-06T07:42:08Z</time>
      </trkpt>
      <trkpt lat="43.07799" lon="0.5318">
        <ele>419.8</ele>
        <time>2022-09-06T07:42:13Z</time>
      </trkpt>
      <trkpt lat="43.07798" lon="0.53177">
        <ele>419.6</ele>
        <time>2022-09-06T07:42:14Z</time>
      </trkpt>
      <trkpt lat="43.07793" lon="0.53172">
        <ele>419.4</ele>
        <time>2022-09-06T07:42:16Z</time>
      </trkpt>
      <trkpt lat="43.07786" lon="0.53174">
        <ele>419.2</ele>
        <time>2022-09-06T07:42:18Z</time>
      </trkpt>
      <trkpt lat="43.07779" lon="0.53177">
        <ele>418.8</ele>
        <time>2022-09-06T07:42:20Z</time>
      </trkpt>
      <trkpt lat="43.07765" lon="0.53184">
        <ele>418</ele>
        <time>2022-09-06T07:42:23Z</time>
      </trkpt>
      <trkpt lat="43.07759" lon="0.53188">
        <ele>417.6</ele>
        <time>2022-09-06T07:42:24Z</time>
      </trkpt>
      <trkpt lat="43.07746" lon="0.53193">
        <ele>416.4</ele>
        <time>2022-09-06T07:42:26Z</time>
      </trkpt>
      <trkpt lat="43.0774" lon="0.53195">
        <ele>416</ele>
        <time>2022-09-06T07:42:27Z</time>
      </trkpt>
      <trkpt lat="43.07726" lon="0.53198">
        <ele>415.2</ele>
        <time>2022-09-06T07:42:29Z</time>
      </trkpt>
      <trkpt lat="43.07712" lon="0.532">
        <ele>414</ele>
        <time>2022-09-06T07:42:31Z</time>
      </trkpt>
      <trkpt lat="43.07705" lon="0.53199">
        <ele>413.6</ele>
        <time>2022-09-06T07:42:32Z</time>
      </trkpt>
      <trkpt lat="43.07692" lon="0.53194">
        <ele>413</ele>
        <time>2022-09-06T07:42:34Z</time>
      </trkpt>
      <trkpt lat="43.07687" lon="0.53189">
        <ele>412.6</ele>
        <time>2022-09-06T07:42:35Z</time>
      </trkpt>
      <trkpt lat="43.07679" lon="0.53175">
        <ele>411.6</ele>
        <time>2022-09-06T07:42:37Z</time>
      </trkpt>
      <trkpt lat="43.07677" lon="0.53168">
        <ele>411</ele>
        <time>2022-09-06T07:42:38Z</time>
      </trkpt>
      <trkpt lat="43.07673" lon="0.53157">
        <ele>410.4</ele>
        <time>2022-09-06T07:42:40Z</time>
      </trkpt>
      <trkpt lat="43.07669" lon="0.53154">
        <ele>410.2</ele>
        <time>2022-09-06T07:42:41Z</time>
      </trkpt>
      <trkpt lat="43.07656" lon="0.53152">
        <ele>409.2</ele>
        <time>2022-09-06T07:42:44Z</time>
      </trkpt>
      <trkpt lat="43.07651" lon="0.5315">
        <ele>409</ele>
        <time>2022-09-06T07:42:45Z</time>
      </trkpt>
      <trkpt lat="43.07644" lon="0.53141">
        <ele>408</ele>
        <time>2022-09-06T07:42:47Z</time>
      </trkpt>
      <trkpt lat="43.07642" lon="0.53135">
        <ele>407.6</ele>
        <time>2022-09-06T07:42:48Z</time>
      </trkpt>
      <trkpt lat="43.0764" lon="0.53119">
        <ele>406.6</ele>
        <time>2022-09-06T07:42:50Z</time>
      </trkpt>
      <trkpt lat="43.07639" lon="0.53112">
        <ele>406.2</ele>
        <time>2022-09-06T07:42:51Z</time>
      </trkpt>
      <trkpt lat="43.07637" lon="0.53104">
        <ele>405.8</ele>
        <time>2022-09-06T07:42:52Z</time>
      </trkpt>
      <trkpt lat="43.07633" lon="0.5308">
        <ele>405.6</ele>
        <time>2022-09-06T07:42:55Z</time>
      </trkpt>
      <trkpt lat="43.07631" lon="0.53061">
        <ele>405.2</ele>
        <time>2022-09-06T07:42:57Z</time>
      </trkpt>
      <trkpt lat="43.0763" lon="0.5303">
        <ele>404.4</ele>
        <time>2022-09-06T07:43:00Z</time>
      </trkpt>
      <trkpt lat="43.07628" lon="0.52991">
        <ele>404</ele>
        <time>2022-09-06T07:43:04Z</time>
      </trkpt>
      <trkpt lat="43.07625" lon="0.52949">
        <ele>403.2</ele>
        <time>2022-09-06T07:43:08Z</time>
      </trkpt>
      <trkpt lat="43.07624" lon="0.52938">
        <ele>402.8</ele>
        <time>2022-09-06T07:43:09Z</time>
      </trkpt>
      <trkpt lat="43.07619" lon="0.52905">
        <ele>402</ele>
        <time>2022-09-06T07:43:12Z</time>
      </trkpt>
      <trkpt lat="43.07613" lon="0.52884">
        <ele>401.2</ele>
        <time>2022-09-06T07:43:14Z</time>
      </trkpt>
      <trkpt lat="43.07611" lon="0.52874">
        <ele>401</ele>
        <time>2022-09-06T07:43:15Z</time>
      </trkpt>
      <trkpt lat="43.07594" lon="0.52837">
        <ele>400</ele>
        <time>2022-09-06T07:43:19Z</time>
      </trkpt>
      <trkpt lat="43.0759" lon="0.52829">
        <ele>400</ele>
        <time>2022-09-06T07:43:20Z</time>
      </trkpt>
      <trkpt lat="43.07573" lon="0.52797">
        <ele>400</ele>
        <time>2022-09-06T07:43:24Z</time>
      </trkpt>
      <trkpt lat="43.07569" lon="0.5279">
        <ele>399.8</ele>
        <time>2022-09-06T07:43:25Z</time>
      </trkpt>
      <trkpt lat="43.07547" lon="0.52752">
        <ele>399.6</ele>
        <time>2022-09-06T07:43:31Z</time>
      </trkpt>
      <trkpt lat="43.07528" lon="0.52716">
        <ele>399.6</ele>
        <time>2022-09-06T07:43:37Z</time>
      </trkpt>
      <trkpt lat="43.07503" lon="0.52677">
        <ele>399.2</ele>
        <time>2022-09-06T07:43:45Z</time>
      </trkpt>
      <trkpt lat="43.07491" lon="0.52666">
        <ele>399.2</ele>
        <time>2022-09-06T07:43:48Z</time>
      </trkpt>
      <trkpt lat="43.07476" lon="0.5265">
        <ele>399</ele>
        <time>2022-09-06T07:43:52Z</time>
      </trkpt>
      <trkpt lat="43.07456" lon="0.52625">
        <ele>398.8</ele>
        <time>2022-09-06T07:43:58Z</time>
      </trkpt>
      <trkpt lat="43.07451" lon="0.52616">
        <ele>398.8</ele>
        <time>2022-09-06T07:44:00Z</time>
      </trkpt>
      <trkpt lat="43.07431" lon="0.52581">
        <ele>398.6</ele>
        <time>2022-09-06T07:44:08Z</time>
      </trkpt>
      <trkpt lat="43.07418" lon="0.5255">
        <ele>398.4</ele>
        <time>2022-09-06T07:44:15Z</time>
      </trkpt>
      <trkpt lat="43.07404" lon="0.52514">
        <ele>397.8</ele>
        <time>2022-09-06T07:44:23Z</time>
      </trkpt>
      <trkpt lat="43.07401" lon="0.5251">
        <ele>397.8</ele>
        <time>2022-09-06T07:44:24Z</time>
      </trkpt>
      <trkpt lat="43.07396" lon="0.52499">
        <ele>397.8</ele>
        <time>2022-09-06T07:44:27Z</time>
      </trkpt>
      <trkpt lat="43.07392" lon="0.52491">
        <ele>397.4</ele>
        <time>2022-09-06T07:44:29Z</time>
      </trkpt>
      <trkpt lat="43.07385" lon="0.52475">
        <ele>396.8</ele>
        <time>2022-09-06T07:44:32Z</time>
      </trkpt>
      <trkpt lat="43.07377" lon="0.52463">
        <ele>396.6</ele>
        <time>2022-09-06T07:44:34Z</time>
      </trkpt>
      <trkpt lat="43.07363" lon="0.52446">
        <ele>395.4</ele>
        <time>2022-09-06T07:44:37Z</time>
      </trkpt>
      <trkpt lat="43.07354" lon="0.52437">
        <ele>394.4</ele>
        <time>2022-09-06T07:44:39Z</time>
      </trkpt>
      <trkpt lat="43.0735" lon="0.52432">
        <ele>394</ele>
        <time>2022-09-06T07:44:40Z</time>
      </trkpt>
      <trkpt lat="43.07346" lon="0.52423">
        <ele>394</ele>
        <time>2022-09-06T07:44:42Z</time>
      </trkpt>
      <trkpt lat="43.07331" lon="0.52404">
        <ele>394.2</ele>
        <time>2022-09-06T07:44:48Z</time>
      </trkpt>
      <trkpt lat="43.07312" lon="0.52385">
        <ele>394.2</ele>
        <time>2022-09-06T07:44:56Z</time>
      </trkpt>
      <trkpt lat="43.07292" lon="0.52366">
        <ele>393.8</ele>
        <time>2022-09-06T07:45:04Z</time>
      </trkpt>
      <trkpt lat="43.07282" lon="0.52358">
        <ele>393.2</ele>
        <time>2022-09-06T07:45:08Z</time>
      </trkpt>
      <trkpt lat="43.07275" lon="0.52352">
        <ele>393</ele>
        <time>2022-09-06T07:45:11Z</time>
      </trkpt>
      <trkpt lat="43.07272" lon="0.52342">
        <ele>392.6</ele>
        <time>2022-09-06T07:45:15Z</time>
      </trkpt>
      <trkpt lat="43.07269" lon="0.52335">
        <ele>391.8</ele>
        <time>2022-09-06T07:45:17Z</time>
      </trkpt>
      <trkpt lat="43.07264" lon="0.52329">
        <ele>391</ele>
        <time>2022-09-06T07:45:19Z</time>
      </trkpt>
      <trkpt lat="43.07262" lon="0.52326">
        <ele>390.6</ele>
        <time>2022-09-06T07:45:20Z</time>
      </trkpt>
      <trkpt lat="43.07261" lon="0.5232">
        <ele>390</ele>
        <time>2022-09-06T07:45:23Z</time>
      </trkpt>
      <trkpt lat="43.07262" lon="0.52318">
        <ele>390</ele>
        <time>2022-09-06T07:45:24Z</time>
      </trkpt>
      <trkpt lat="43.07266" lon="0.52315">
        <ele>390</ele>
        <time>2022-09-06T07:45:27Z</time>
      </trkpt>
      <trkpt lat="43.07271" lon="0.52309">
        <ele>390.2</ele>
        <time>2022-09-06T07:45:30Z</time>
      </trkpt>
      <trkpt lat="43.07276" lon="0.52304">
        <ele>390</ele>
        <time>2022-09-06T07:45:33Z</time>
      </trkpt>
      <trkpt lat="43.07287" lon="0.52291">
        <ele>389.8</ele>
        <time>2022-09-06T07:45:40Z</time>
      </trkpt>
      <trkpt lat="43.0729" lon="0.52285">
        <ele>390.2</ele>
        <time>2022-09-06T07:45:44Z</time>
      </trkpt>
      <trkpt lat="43.0729" lon="0.52282">
        <ele>390.2</ele>
        <time>2022-09-06T07:45:45Z</time>
      </trkpt>
      <trkpt lat="43.07296" lon="0.52264">
        <ele>390.8</ele>
        <time>2022-09-06T07:45:52Z</time>
      </trkpt>
      <trkpt lat="43.07302" lon="0.52236">
        <ele>390.6</ele>
        <time>2022-09-06T07:46:00Z</time>
      </trkpt>
      <trkpt lat="43.07305" lon="0.52213">
        <ele>390.6</ele>
        <time>2022-09-06T07:46:07Z</time>
      </trkpt>
      <trkpt lat="43.07306" lon="0.52187">
        <ele>390.6</ele>
        <time>2022-09-06T07:46:15Z</time>
      </trkpt>
      <trkpt lat="43.07307" lon="0.52157">
        <ele>390.6</ele>
        <time>2022-09-06T07:46:23Z</time>
      </trkpt>
      <trkpt lat="43.07307" lon="0.52142">
        <ele>390.6</ele>
        <time>2022-09-06T07:46:28Z</time>
      </trkpt>
      <trkpt lat="43.07304" lon="0.52117">
        <ele>390.6</ele>
        <time>2022-09-06T07:46:35Z</time>
      </trkpt>
      <trkpt lat="43.07307" lon="0.5209">
        <ele>391</ele>
        <time>2022-09-06T07:46:42Z</time>
      </trkpt>
      <trkpt lat="43.07313" lon="0.52058">
        <ele>390.8</ele>
        <time>2022-09-06T07:46:50Z</time>
      </trkpt>
      <trkpt lat="43.07319" lon="0.52029">
        <ele>391</ele>
        <time>2022-09-06T07:46:59Z</time>
      </trkpt>
      <trkpt lat="43.07324" lon="0.52">
        <ele>391.6</ele>
        <time>2022-09-06T07:47:09Z</time>
      </trkpt>
      <trkpt lat="43.07324" lon="0.51986">
        <ele>392</ele>
        <time>2022-09-06T07:47:15Z</time>
      </trkpt>
      <trkpt lat="43.07325" lon="0.51975">
        <ele>391.8</ele>
        <time>2022-09-06T07:47:20Z</time>
      </trkpt>
      <trkpt lat="43.07325" lon="0.51964">
        <ele>392.2</ele>
        <time>2022-09-06T07:47:24Z</time>
      </trkpt>
      <trkpt lat="43.07327" lon="0.51958">
        <ele>392.2</ele>
        <time>2022-09-06T07:47:26Z</time>
      </trkpt>
      <trkpt lat="43.07335" lon="0.51942">
        <ele>392.4</ele>
        <time>2022-09-06T07:47:32Z</time>
      </trkpt>
      <trkpt lat="43.07341" lon="0.51921">
        <ele>392.4</ele>
        <time>2022-09-06T07:47:38Z</time>
      </trkpt>
      <trkpt lat="43.07345" lon="0.51892">
        <ele>392.4</ele>
        <time>2022-09-06T07:47:44Z</time>
      </trkpt>
      <trkpt lat="43.07346" lon="0.51863">
        <ele>392.4</ele>
        <time>2022-09-06T07:47:50Z</time>
      </trkpt>
      <trkpt lat="43.07345" lon="0.51845">
        <ele>392.2</ele>
        <time>2022-09-06T07:47:57Z</time>
      </trkpt>
      <trkpt lat="43.07345" lon="0.51827">
        <ele>392.6</ele>
        <time>2022-09-06T07:49:34Z</time>
      </trkpt>
      <trkpt lat="43.07344" lon="0.5182">
        <ele>392.6</ele>
        <time>2022-09-06T07:49:36Z</time>
      </trkpt>
      <trkpt lat="43.07345" lon="0.51811">
        <ele>392.6</ele>
        <time>2022-09-06T07:49:39Z</time>
      </trkpt>
      <trkpt lat="43.07345" lon="0.51798">
        <ele>392.8</ele>
        <time>2022-09-06T07:49:43Z</time>
      </trkpt>
      <trkpt lat="43.07349" lon="0.51776">
        <ele>393.2</ele>
        <time>2022-09-06T07:49:49Z</time>
      </trkpt>
      <trkpt lat="43.07352" lon="0.51756">
        <ele>393.2</ele>
        <time>2022-09-06T07:49:54Z</time>
      </trkpt>
      <trkpt lat="43.07354" lon="0.51733">
        <ele>393.6</ele>
        <time>2022-09-06T07:50:00Z</time>
      </trkpt>
      <trkpt lat="43.07356" lon="0.51703">
        <ele>393.6</ele>
        <time>2022-09-06T07:50:07Z</time>
      </trkpt>
      <trkpt lat="43.07358" lon="0.51675">
        <ele>393.8</ele>
        <time>2022-09-06T07:50:14Z</time>
      </trkpt>
      <trkpt lat="43.07354" lon="0.51663">
        <ele>394.2</ele>
        <time>2022-09-06T07:50:18Z</time>
      </trkpt>
      <trkpt lat="43.07335" lon="0.51646">
        <ele>394.4</ele>
        <time>2022-09-06T07:50:26Z</time>
      </trkpt>
      <trkpt lat="43.0732" lon="0.51631">
        <ele>394.6</ele>
        <time>2022-09-06T07:50:32Z</time>
      </trkpt>
      <trkpt lat="43.07304" lon="0.51623">
        <ele>394.6</ele>
        <time>2022-09-06T07:50:37Z</time>
      </trkpt>
      <trkpt lat="43.07272" lon="0.51626">
        <ele>394.6</ele>
        <time>2022-09-06T07:50:46Z</time>
      </trkpt>
      <trkpt lat="43.07251" lon="0.51631">
        <ele>394.4</ele>
        <time>2022-09-06T07:50:53Z</time>
      </trkpt>
      <trkpt lat="43.07241" lon="0.51633">
        <ele>394.8</ele>
        <time>2022-09-06T07:50:57Z</time>
      </trkpt>
      <trkpt lat="43.0723" lon="0.51634">
        <ele>394.6</ele>
        <time>2022-09-06T07:51:02Z</time>
      </trkpt>
      <trkpt lat="43.07227" lon="0.51635">
        <ele>394.6</ele>
        <time>2022-09-06T07:51:04Z</time>
      </trkpt>
      <trkpt lat="43.07223" lon="0.51642">
        <ele>394.4</ele>
        <time>2022-09-06T07:51:07Z</time>
      </trkpt>
      <trkpt lat="43.07216" lon="0.51665">
        <ele>394</ele>
        <time>2022-09-06T07:51:13Z</time>
      </trkpt>
      <trkpt lat="43.07211" lon="0.51691">
        <ele>394.2</ele>
        <time>2022-09-06T07:51:19Z</time>
      </trkpt>
      <trkpt lat="43.07198" lon="0.5171">
        <ele>394.4</ele>
        <time>2022-09-06T07:51:24Z</time>
      </trkpt>
      <trkpt lat="43.07179" lon="0.51731">
        <ele>394.2</ele>
        <time>2022-09-06T07:51:31Z</time>
      </trkpt>
      <trkpt lat="43.07165" lon="0.51748">
        <ele>394.2</ele>
        <time>2022-09-06T07:51:38Z</time>
      </trkpt>
      <trkpt lat="43.07161" lon="0.5175">
        <ele>394.2</ele>
        <time>2022-09-06T07:51:40Z</time>
      </trkpt>
      <trkpt lat="43.0716" lon="0.5175">
        <ele>394.2</ele>
        <time>2022-09-06T07:51:42Z</time>
      </trkpt>
      <trkpt lat="43.07156" lon="0.51744">
        <ele>394.4</ele>
        <time>2022-09-06T07:51:58Z</time>
      </trkpt>
      <trkpt lat="43.07152" lon="0.51739">
        <ele>394.6</ele>
        <time>2022-09-06T07:52:00Z</time>
      </trkpt>
      <trkpt lat="43.07137" lon="0.51716">
        <ele>394.6</ele>
        <time>2022-09-06T07:52:07Z</time>
      </trkpt>
      <trkpt lat="43.07112" lon="0.51687">
        <ele>394.6</ele>
        <time>2022-09-06T07:52:16Z</time>
      </trkpt>
      <trkpt lat="43.07095" lon="0.51662">
        <ele>394.8</ele>
        <time>2022-09-06T07:52:23Z</time>
      </trkpt>
      <trkpt lat="43.07078" lon="0.51631">
        <ele>395.4</ele>
        <time>2022-09-06T07:52:31Z</time>
      </trkpt>
      <trkpt lat="43.0706" lon="0.516">
        <ele>395.4</ele>
        <time>2022-09-06T07:52:39Z</time>
      </trkpt>
      <trkpt lat="43.0705" lon="0.51581">
        <ele>395.8</ele>
        <time>2022-09-06T07:52:44Z</time>
      </trkpt>
      <trkpt lat="43.07046" lon="0.5157">
        <ele>396.2</ele>
        <time>2022-09-06T07:52:47Z</time>
      </trkpt>
      <trkpt lat="43.07046" lon="0.51548">
        <ele>396.2</ele>
        <time>2022-09-06T07:52:52Z</time>
      </trkpt>
      <trkpt lat="43.0705" lon="0.51512">
        <ele>396.6</ele>
        <time>2022-09-06T07:53:00Z</time>
      </trkpt>
      <trkpt lat="43.07053" lon="0.5147">
        <ele>396.8</ele>
        <time>2022-09-06T07:53:08Z</time>
      </trkpt>
      <trkpt lat="43.07054" lon="0.5146">
        <ele>396.8</ele>
        <time>2022-09-06T07:53:10Z</time>
      </trkpt>
      <trkpt lat="43.07057" lon="0.51401">
        <ele>397</ele>
        <time>2022-09-06T07:53:22Z</time>
      </trkpt>
      <trkpt lat="43.07061" lon="0.51367">
        <ele>397.4</ele>
        <time>2022-09-06T07:53:29Z</time>
      </trkpt>
      <trkpt lat="43.07063" lon="0.51343">
        <ele>397.6</ele>
        <time>2022-09-06T07:53:34Z</time>
      </trkpt>
      <trkpt lat="43.07066" lon="0.51305">
        <ele>397.6</ele>
        <time>2022-09-06T07:53:41Z</time>
      </trkpt>
      <trkpt lat="43.07068" lon="0.51267">
        <ele>397.8</ele>
        <time>2022-09-06T07:53:48Z</time>
      </trkpt>
      <trkpt lat="43.07069" lon="0.51262">
        <ele>397.8</ele>
        <time>2022-09-06T07:53:49Z</time>
      </trkpt>
      <trkpt lat="43.07071" lon="0.51234">
        <ele>398.4</ele>
        <time>2022-09-06T07:53:54Z</time>
      </trkpt>
      <trkpt lat="43.07075" lon="0.51192">
        <ele>398.2</ele>
        <time>2022-09-06T07:54:02Z</time>
      </trkpt>
      <trkpt lat="43.07083" lon="0.51145">
        <ele>398.8</ele>
        <time>2022-09-06T07:54:11Z</time>
      </trkpt>
      <trkpt lat="43.07094" lon="0.51098">
        <ele>398.8</ele>
        <time>2022-09-06T07:54:20Z</time>
      </trkpt>
      <trkpt lat="43.07097" lon="0.51087">
        <ele>398.8</ele>
        <time>2022-09-06T07:54:22Z</time>
      </trkpt>
      <trkpt lat="43.07103" lon="0.51067">
        <ele>398.8</ele>
        <time>2022-09-06T07:54:26Z</time>
      </trkpt>
      <trkpt lat="43.07115" lon="0.51022">
        <ele>399.2</ele>
        <time>2022-09-06T07:54:35Z</time>
      </trkpt>
      <trkpt lat="43.07129" lon="0.50992">
        <ele>399.2</ele>
        <time>2022-09-06T07:54:42Z</time>
      </trkpt>
      <trkpt lat="43.07149" lon="0.50951">
        <ele>399.8</ele>
        <time>2022-09-06T07:54:51Z</time>
      </trkpt>
      <trkpt lat="43.07157" lon="0.5092">
        <ele>399.6</ele>
        <time>2022-09-06T07:54:57Z</time>
      </trkpt>
      <trkpt lat="43.07165" lon="0.50884">
        <ele>399.8</ele>
        <time>2022-09-06T07:55:04Z</time>
      </trkpt>
      <trkpt lat="43.07169" lon="0.50858">
        <ele>400</ele>
        <time>2022-09-06T07:55:09Z</time>
      </trkpt>
      <trkpt lat="43.07171" lon="0.50841">
        <ele>400</ele>
        <time>2022-09-06T07:55:12Z</time>
      </trkpt>
      <trkpt lat="43.07177" lon="0.50788">
        <ele>400</ele>
        <time>2022-09-06T07:55:22Z</time>
      </trkpt>
      <trkpt lat="43.07181" lon="0.50729">
        <ele>400.4</ele>
        <time>2022-09-06T07:55:33Z</time>
      </trkpt>
      <trkpt lat="43.0718" lon="0.50683">
        <ele>400.8</ele>
        <time>2022-09-06T07:55:42Z</time>
      </trkpt>
      <trkpt lat="43.07175" lon="0.50641">
        <ele>400.8</ele>
        <time>2022-09-06T07:55:50Z</time>
      </trkpt>
      <trkpt lat="43.07168" lon="0.506">
        <ele>400.8</ele>
        <time>2022-09-06T07:55:58Z</time>
      </trkpt>
      <trkpt lat="43.07162" lon="0.50569">
        <ele>401</ele>
        <time>2022-09-06T07:56:04Z</time>
      </trkpt>
      <trkpt lat="43.07158" lon="0.50548">
        <ele>400.8</ele>
        <time>2022-09-06T07:56:08Z</time>
      </trkpt>
      <trkpt lat="43.07148" lon="0.50486">
        <ele>400.8</ele>
        <time>2022-09-06T07:56:20Z</time>
      </trkpt>
      <trkpt lat="43.07143" lon="0.50464">
        <ele>401</ele>
        <time>2022-09-06T07:56:26Z</time>
      </trkpt>
      <trkpt lat="43.07139" lon="0.50461">
        <ele>401.4</ele>
        <time>2022-09-06T07:56:28Z</time>
      </trkpt>
      <trkpt lat="43.07133" lon="0.50461">
        <ele>401.4</ele>
        <time>2022-09-06T07:56:30Z</time>
      </trkpt>
      <trkpt lat="43.07126" lon="0.50462">
        <ele>401.2</ele>
        <time>2022-09-06T07:56:32Z</time>
      </trkpt>
      <trkpt lat="43.07113" lon="0.50466">
        <ele>401.2</ele>
        <time>2022-09-06T07:56:36Z</time>
      </trkpt>
      <trkpt lat="43.07091" lon="0.5047">
        <ele>401.4</ele>
        <time>2022-09-06T07:56:43Z</time>
      </trkpt>
      <trkpt lat="43.07078" lon="0.50465">
        <ele>402</ele>
        <time>2022-09-06T07:56:48Z</time>
      </trkpt>
      <trkpt lat="43.07076" lon="0.50463">
        <ele>402.2</ele>
        <time>2022-09-06T07:56:49Z</time>
      </trkpt>
      <trkpt lat="43.07071" lon="0.50453">
        <ele>403.2</ele>
        <time>2022-09-06T07:56:54Z</time>
      </trkpt>
      <trkpt lat="43.07066" lon="0.50439">
        <ele>404.2</ele>
        <time>2022-09-06T07:57:00Z</time>
      </trkpt>
      <trkpt lat="43.07065" lon="0.50436">
        <ele>404.4</ele>
        <time>2022-09-06T07:57:01Z</time>
      </trkpt>
      <trkpt lat="43.0706" lon="0.50422">
        <ele>405.4</ele>
        <time>2022-09-06T07:57:07Z</time>
      </trkpt>
      <trkpt lat="43.07059" lon="0.50419">
        <ele>405.6</ele>
        <time>2022-09-06T07:57:08Z</time>
      </trkpt>
      <trkpt lat="43.07052" lon="0.50397">
        <ele>405.8</ele>
        <time>2022-09-06T07:57:15Z</time>
      </trkpt>
      <trkpt lat="43.07045" lon="0.50375">
        <ele>405.6</ele>
        <time>2022-09-06T07:57:22Z</time>
      </trkpt>
      <trkpt lat="43.07039" lon="0.5034">
        <ele>405.8</ele>
        <time>2022-09-06T07:57:30Z</time>
      </trkpt>
      <trkpt lat="43.07034" lon="0.50308">
        <ele>405.8</ele>
        <time>2022-09-06T07:57:37Z</time>
      </trkpt>
      <trkpt lat="43.07028" lon="0.50277">
        <ele>405.6</ele>
        <time>2022-09-06T07:57:44Z</time>
      </trkpt>
      <trkpt lat="43.07021" lon="0.50244">
        <ele>405.6</ele>
        <time>2022-09-06T07:57:51Z</time>
      </trkpt>
      <trkpt lat="43.07011" lon="0.5021">
        <ele>405.4</ele>
        <time>2022-09-06T07:57:58Z</time>
      </trkpt>
      <trkpt lat="43.07004" lon="0.50182">
        <ele>405.2</ele>
        <time>2022-09-06T07:58:04Z</time>
      </trkpt>
      <trkpt lat="43.06994" lon="0.50144">
        <ele>405.2</ele>
        <time>2022-09-06T07:58:11Z</time>
      </trkpt>
      <trkpt lat="43.06991" lon="0.50113">
        <ele>405.6</ele>
        <time>2022-09-06T07:58:17Z</time>
      </trkpt>
      <trkpt lat="43.06993" lon="0.50086">
        <ele>406.4</ele>
        <time>2022-09-06T07:58:24Z</time>
      </trkpt>
      <trkpt lat="43.06993" lon="0.50083">
        <ele>406.6</ele>
        <time>2022-09-06T07:58:25Z</time>
      </trkpt>
      <trkpt lat="43.06994" lon="0.50072">
        <ele>407.6</ele>
        <time>2022-09-06T07:58:30Z</time>
      </trkpt>
      <trkpt lat="43.07002" lon="0.50061">
        <ele>407.4</ele>
        <time>2022-09-06T07:58:35Z</time>
      </trkpt>
      <trkpt lat="43.07018" lon="0.50053">
        <ele>406.6</ele>
        <time>2022-09-06T07:58:39Z</time>
      </trkpt>
      <trkpt lat="43.07046" lon="0.50046">
        <ele>405.4</ele>
        <time>2022-09-06T07:58:44Z</time>
      </trkpt>
      <trkpt lat="43.07051" lon="0.50044">
        <ele>405.2</ele>
        <time>2022-09-06T07:58:45Z</time>
      </trkpt>
      <trkpt lat="43.07072" lon="0.50024">
        <ele>405</ele>
        <time>2022-09-06T07:58:50Z</time>
      </trkpt>
      <trkpt lat="43.07083" lon="0.49997">
        <ele>404.8</ele>
        <time>2022-09-06T07:58:55Z</time>
      </trkpt>
      <trkpt lat="43.07084" lon="0.49987">
        <ele>404.6</ele>
        <time>2022-09-06T07:58:57Z</time>
      </trkpt>
      <trkpt lat="43.07085" lon="0.49968">
        <ele>404.8</ele>
        <time>2022-09-06T07:59:01Z</time>
      </trkpt>
      <trkpt lat="43.07082" lon="0.49924">
        <ele>405.4</ele>
        <time>2022-09-06T07:59:09Z</time>
      </trkpt>
      <trkpt lat="43.07074" lon="0.49874">
        <ele>405.4</ele>
        <time>2022-09-06T07:59:18Z</time>
      </trkpt>
      <trkpt lat="43.07065" lon="0.49829">
        <ele>405.6</ele>
        <time>2022-09-06T07:59:26Z</time>
      </trkpt>
      <trkpt lat="43.07059" lon="0.4979">
        <ele>405.6</ele>
        <time>2022-09-06T07:59:34Z</time>
      </trkpt>
      <trkpt lat="43.07056" lon="0.49783">
        <ele>405.4</ele>
        <time>2022-09-06T07:59:38Z</time>
      </trkpt>
      <trkpt lat="43.07055" lon="0.49786">
        <ele>405.4</ele>
        <time>2022-09-06T07:59:43Z</time>
      </trkpt>
      <trkpt lat="43.07056" lon="0.49787">
        <ele>405.4</ele>
        <time>2022-09-06T07:59:44Z</time>
      </trkpt>
      <trkpt lat="43.07059" lon="0.49796">
        <ele>405.4</ele>
        <time>2022-09-06T07:59:48Z</time>
      </trkpt>
      <trkpt lat="43.07059" lon="0.49803">
        <ele>405.4</ele>
        <time>2022-09-06T07:59:53Z</time>
      </trkpt>
      <trkpt lat="43.0705" lon="0.49793">
        <ele>407</ele>
        <time>2022-09-06T08:00:30Z</time>
      </trkpt>
      <trkpt lat="43.0704" lon="0.49768">
        <ele>406</ele>
        <time>2022-09-06T08:00:35Z</time>
      </trkpt>
      <trkpt lat="43.07036" lon="0.49762">
        <ele>405.8</ele>
        <time>2022-09-06T08:00:37Z</time>
      </trkpt>
      <trkpt lat="43.07034" lon="0.49763">
        <ele>405.6</ele>
        <time>2022-09-06T08:00:38Z</time>
      </trkpt>
      <trkpt lat="43.07031" lon="0.4977">
        <ele>405.4</ele>
        <time>2022-09-06T08:00:41Z</time>
      </trkpt>
      <trkpt lat="43.0703" lon="0.49773">
        <ele>405.4</ele>
        <time>2022-09-06T08:00:42Z</time>
      </trkpt>
      <trkpt lat="43.07021" lon="0.49788">
        <ele>405.6</ele>
        <time>2022-09-06T08:00:48Z</time>
      </trkpt>
      <trkpt lat="43.07001" lon="0.49794">
        <ele>405.6</ele>
        <time>2022-09-06T08:00:55Z</time>
      </trkpt>
      <trkpt lat="43.06982" lon="0.49788">
        <ele>406</ele>
        <time>2022-09-06T08:01:01Z</time>
      </trkpt>
      <trkpt lat="43.06961" lon="0.49778">
        <ele>405.8</ele>
        <time>2022-09-06T08:01:08Z</time>
      </trkpt>
      <trkpt lat="43.06936" lon="0.49765">
        <ele>406.2</ele>
        <time>2022-09-06T08:01:16Z</time>
      </trkpt>
      <trkpt lat="43.0691" lon="0.49739">
        <ele>406.2</ele>
        <time>2022-09-06T08:01:25Z</time>
      </trkpt>
      <trkpt lat="43.0689" lon="0.4972">
        <ele>406.2</ele>
        <time>2022-09-06T08:01:32Z</time>
      </trkpt>
      <trkpt lat="43.06877" lon="0.49706">
        <ele>406.2</ele>
        <time>2022-09-06T08:01:37Z</time>
      </trkpt>
      <trkpt lat="43.0686" lon="0.49683">
        <ele>406.6</ele>
        <time>2022-09-06T08:01:44Z</time>
      </trkpt>
      <trkpt lat="43.06849" lon="0.49661">
        <ele>406.6</ele>
        <time>2022-09-06T08:01:50Z</time>
      </trkpt>
      <trkpt lat="43.06842" lon="0.49631">
        <ele>406.8</ele>
        <time>2022-09-06T08:01:56Z</time>
      </trkpt>
      <trkpt lat="43.06841" lon="0.49625">
        <ele>407</ele>
        <time>2022-09-06T08:01:57Z</time>
      </trkpt>
      <trkpt lat="43.06838" lon="0.49596">
        <ele>407</ele>
        <time>2022-09-06T08:02:03Z</time>
      </trkpt>
      <trkpt lat="43.06827" lon="0.49551">
        <ele>407.4</ele>
        <time>2022-09-06T08:02:12Z</time>
      </trkpt>
      <trkpt lat="43.06818" lon="0.49513">
        <ele>407.6</ele>
        <time>2022-09-06T08:02:19Z</time>
      </trkpt>
      <trkpt lat="43.06811" lon="0.49481">
        <ele>408</ele>
        <time>2022-09-06T08:02:25Z</time>
      </trkpt>
      <trkpt lat="43.06809" lon="0.49465">
        <ele>408</ele>
        <time>2022-09-06T08:02:28Z</time>
      </trkpt>
      <trkpt lat="43.06805" lon="0.49425">
        <ele>408</ele>
        <time>2022-09-06T08:02:35Z</time>
      </trkpt>
      <trkpt lat="43.06803" lon="0.49386">
        <ele>408</ele>
        <time>2022-09-06T08:02:42Z</time>
      </trkpt>
      <trkpt lat="43.06801" lon="0.4934">
        <ele>408.4</ele>
        <time>2022-09-06T08:02:51Z</time>
      </trkpt>
      <trkpt lat="43.06801" lon="0.4931">
        <ele>409</ele>
        <time>2022-09-06T08:02:57Z</time>
      </trkpt>
      <trkpt lat="43.06801" lon="0.4929">
        <ele>408.8</ele>
        <time>2022-09-06T08:03:01Z</time>
      </trkpt>
      <trkpt lat="43.06805" lon="0.49247">
        <ele>408.2</ele>
        <time>2022-09-06T08:03:10Z</time>
      </trkpt>
      <trkpt lat="43.06805" lon="0.49219">
        <ele>408.2</ele>
        <time>2022-09-06T08:03:16Z</time>
      </trkpt>
      <trkpt lat="43.06796" lon="0.49192">
        <ele>408.4</ele>
        <time>2022-09-06T08:03:22Z</time>
      </trkpt>
      <trkpt lat="43.0678" lon="0.49163">
        <ele>409.2</ele>
        <time>2022-09-06T08:03:30Z</time>
      </trkpt>
      <trkpt lat="43.06775" lon="0.49142">
        <ele>409.4</ele>
        <time>2022-09-06T08:03:35Z</time>
      </trkpt>
      <trkpt lat="43.06779" lon="0.49122">
        <ele>409.6</ele>
        <time>2022-09-06T08:03:40Z</time>
      </trkpt>
      <trkpt lat="43.06791" lon="0.49103">
        <ele>409.4</ele>
        <time>2022-09-06T08:03:46Z</time>
      </trkpt>
      <trkpt lat="43.06812" lon="0.49074">
        <ele>409.2</ele>
        <time>2022-09-06T08:03:54Z</time>
      </trkpt>
      <trkpt lat="43.06822" lon="0.49057">
        <ele>410.4</ele>
        <time>2022-09-06T08:03:59Z</time>
      </trkpt>
      <trkpt lat="43.06825" lon="0.49047">
        <ele>411.4</ele>
        <time>2022-09-06T08:04:03Z</time>
      </trkpt>
      <trkpt lat="43.06826" lon="0.49044">
        <ele>411.8</ele>
        <time>2022-09-06T08:04:04Z</time>
      </trkpt>
      <trkpt lat="43.0683" lon="0.49025">
        <ele>412.2</ele>
        <time>2022-09-06T08:04:11Z</time>
      </trkpt>
      <trkpt lat="43.06835" lon="0.48996">
        <ele>411.8</ele>
        <time>2022-09-06T08:04:17Z</time>
      </trkpt>
      <trkpt lat="43.06836" lon="0.48969">
        <ele>412.2</ele>
        <time>2022-09-06T08:04:23Z</time>
      </trkpt>
      <trkpt lat="43.06836" lon="0.48962">
        <ele>412.4</ele>
        <time>2022-09-06T08:04:25Z</time>
      </trkpt>
      <trkpt lat="43.06835" lon="0.4895">
        <ele>412.6</ele>
        <time>2022-09-06T08:04:28Z</time>
      </trkpt>
      <trkpt lat="43.06833" lon="0.48929">
        <ele>412.8</ele>
        <time>2022-09-06T08:04:33Z</time>
      </trkpt>
      <trkpt lat="43.0683" lon="0.48914">
        <ele>413</ele>
        <time>2022-09-06T08:04:37Z</time>
      </trkpt>
      <trkpt lat="43.0683" lon="0.4891">
        <ele>413</ele>
        <time>2022-09-06T08:04:38Z</time>
      </trkpt>
      <trkpt lat="43.06828" lon="0.48886">
        <ele>412.8</ele>
        <time>2022-09-06T08:04:44Z</time>
      </trkpt>
      <trkpt lat="43.06839" lon="0.48874">
        <ele>412.2</ele>
        <time>2022-09-06T08:04:48Z</time>
      </trkpt>
      <trkpt lat="43.0685" lon="0.48869">
        <ele>412.2</ele>
        <time>2022-09-06T08:04:51Z</time>
      </trkpt>
      <trkpt lat="43.06859" lon="0.48864">
        <ele>412</ele>
        <time>2022-09-06T08:04:53Z</time>
      </trkpt>
      <trkpt lat="43.06872" lon="0.48856">
        <ele>411.8</ele>
        <time>2022-09-06T08:04:56Z</time>
      </trkpt>
      <trkpt lat="43.06883" lon="0.48849">
        <ele>411.6</ele>
        <time>2022-09-06T08:04:59Z</time>
      </trkpt>
      <trkpt lat="43.06886" lon="0.48848">
        <ele>411.6</ele>
        <time>2022-09-06T08:05:00Z</time>
      </trkpt>
      <trkpt lat="43.06903" lon="0.48841">
        <ele>411.4</ele>
        <time>2022-09-06T08:05:05Z</time>
      </trkpt>
      <trkpt lat="43.06914" lon="0.48834">
        <ele>411.4</ele>
        <time>2022-09-06T08:05:09Z</time>
      </trkpt>
      <trkpt lat="43.06919" lon="0.48832">
        <ele>411.2</ele>
        <time>2022-09-06T08:05:11Z</time>
      </trkpt>
      <trkpt lat="43.06925" lon="0.48827">
        <ele>411.2</ele>
        <time>2022-09-06T08:05:14Z</time>
      </trkpt>
      <trkpt lat="43.06925" lon="0.48822">
        <ele>411.2</ele>
        <time>2022-09-06T08:05:16Z</time>
      </trkpt>
      <trkpt lat="43.06924" lon="0.48815">
        <ele>411</ele>
        <time>2022-09-06T08:05:20Z</time>
      </trkpt>
      <trkpt lat="43.06929" lon="0.48805">
        <ele>411.4</ele>
        <time>2022-09-06T08:05:25Z</time>
      </trkpt>
      <trkpt lat="43.06931" lon="0.48784">
        <ele>411.4</ele>
        <time>2022-09-06T08:05:30Z</time>
      </trkpt>
      <trkpt lat="43.06937" lon="0.48736">
        <ele>411.6</ele>
        <time>2022-09-06T08:05:40Z</time>
      </trkpt>
      <trkpt lat="43.06948" lon="0.48693">
        <ele>412</ele>
        <time>2022-09-06T08:05:48Z</time>
      </trkpt>
      <trkpt lat="43.06962" lon="0.48652">
        <ele>412</ele>
        <time>2022-09-06T08:05:56Z</time>
      </trkpt>
      <trkpt lat="43.06979" lon="0.48612">
        <ele>412.4</ele>
        <time>2022-09-06T08:06:05Z</time>
      </trkpt>
      <trkpt lat="43.06981" lon="0.4861">
        <ele>412.4</ele>
        <time>2022-09-06T08:06:06Z</time>
      </trkpt>
      <trkpt lat="43.06993" lon="0.48605">
        <ele>412.6</ele>
        <time>2022-09-06T08:06:10Z</time>
      </trkpt>
      <trkpt lat="43.0702" lon="0.48609">
        <ele>413</ele>
        <time>2022-09-06T08:06:17Z</time>
      </trkpt>
      <trkpt lat="43.0704" lon="0.48613">
        <ele>413.4</ele>
        <time>2022-09-06T08:06:22Z</time>
      </trkpt>
      <trkpt lat="43.07053" lon="0.48615">
        <ele>413.4</ele>
        <time>2022-09-06T08:06:25Z</time>
      </trkpt>
      <trkpt lat="43.07107" lon="0.48616">
        <ele>413.2</ele>
        <time>2022-09-06T08:06:36Z</time>
      </trkpt>
      <trkpt lat="43.07152" lon="0.48612">
        <ele>414.2</ele>
        <time>2022-09-06T08:06:46Z</time>
      </trkpt>
      <trkpt lat="43.0716" lon="0.48611">
        <ele>414.6</ele>
        <time>2022-09-06T08:06:48Z</time>
      </trkpt>
      <trkpt lat="43.07172" lon="0.48609">
        <ele>415.6</ele>
        <time>2022-09-06T08:06:52Z</time>
      </trkpt>
      <trkpt lat="43.07175" lon="0.48608">
        <ele>415.8</ele>
        <time>2022-09-06T08:06:53Z</time>
      </trkpt>
      <trkpt lat="43.07197" lon="0.48599">
        <ele>416.2</ele>
        <time>2022-09-06T08:07:01Z</time>
      </trkpt>
      <trkpt lat="43.07227" lon="0.48585">
        <ele>415.8</ele>
        <time>2022-09-06T08:07:10Z</time>
      </trkpt>
      <trkpt lat="43.0726" lon="0.48566">
        <ele>415</ele>
        <time>2022-09-06T08:07:18Z</time>
      </trkpt>
      <trkpt lat="43.07269" lon="0.48559">
        <ele>414.6</ele>
        <time>2022-09-06T08:07:20Z</time>
      </trkpt>
      <trkpt lat="43.07295" lon="0.48543">
        <ele>414.2</ele>
        <time>2022-09-06T08:07:25Z</time>
      </trkpt>
      <trkpt lat="43.0731" lon="0.48533">
        <ele>413.6</ele>
        <time>2022-09-06T08:07:28Z</time>
      </trkpt>
      <trkpt lat="43.07345" lon="0.48511">
        <ele>413.6</ele>
        <time>2022-09-06T08:07:35Z</time>
      </trkpt>
      <trkpt lat="43.07375" lon="0.48489">
        <ele>413</ele>
        <time>2022-09-06T08:07:42Z</time>
      </trkpt>
      <trkpt lat="43.07382" lon="0.48482">
        <ele>413</ele>
        <time>2022-09-06T08:07:44Z</time>
      </trkpt>
      <trkpt lat="43.07382" lon="0.48471">
        <ele>413.4</ele>
        <time>2022-09-06T08:07:46Z</time>
      </trkpt>
      <trkpt lat="43.07378" lon="0.48456">
        <ele>413</ele>
        <time>2022-09-06T08:07:49Z</time>
      </trkpt>
      <trkpt lat="43.07375" lon="0.48445">
        <ele>413</ele>
        <time>2022-09-06T08:07:51Z</time>
      </trkpt>
      <trkpt lat="43.07364" lon="0.48408">
        <ele>413.4</ele>
        <time>2022-09-06T08:07:58Z</time>
      </trkpt>
      <trkpt lat="43.07352" lon="0.48354">
        <ele>413.8</ele>
        <time>2022-09-06T08:08:08Z</time>
      </trkpt>
      <trkpt lat="43.07343" lon="0.48314">
        <ele>414.4</ele>
        <time>2022-09-06T08:08:16Z</time>
      </trkpt>
      <trkpt lat="43.07335" lon="0.4828">
        <ele>414.4</ele>
        <time>2022-09-06T08:08:23Z</time>
      </trkpt>
      <trkpt lat="43.07332" lon="0.48262">
        <ele>414.6</ele>
        <time>2022-09-06T08:08:27Z</time>
      </trkpt>
      <trkpt lat="43.07329" lon="0.48248">
        <ele>414.8</ele>
        <time>2022-09-06T08:08:30Z</time>
      </trkpt>
      <trkpt lat="43.07323" lon="0.48208">
        <ele>415</ele>
        <time>2022-09-06T08:08:38Z</time>
      </trkpt>
      <trkpt lat="43.07321" lon="0.4816">
        <ele>415.2</ele>
        <time>2022-09-06T08:08:47Z</time>
      </trkpt>
      <trkpt lat="43.0732" lon="0.48117">
        <ele>415.6</ele>
        <time>2022-09-06T08:08:55Z</time>
      </trkpt>
      <trkpt lat="43.0732" lon="0.48106">
        <ele>415.8</ele>
        <time>2022-09-06T08:08:57Z</time>
      </trkpt>
      <trkpt lat="43.07322" lon="0.48057">
        <ele>416.2</ele>
        <time>2022-09-06T08:09:06Z</time>
      </trkpt>
      <trkpt lat="43.07327" lon="0.48009">
        <ele>416.6</ele>
        <time>2022-09-06T08:09:15Z</time>
      </trkpt>
      <trkpt lat="43.07331" lon="0.47975">
        <ele>416.6</ele>
        <time>2022-09-06T08:09:21Z</time>
      </trkpt>
      <trkpt lat="43.07332" lon="0.47951">
        <ele>417.2</ele>
        <time>2022-09-06T08:09:25Z</time>
      </trkpt>
      <trkpt lat="43.07334" lon="0.47904">
        <ele>417.8</ele>
        <time>2022-09-06T08:09:33Z</time>
      </trkpt>
      <trkpt lat="43.07333" lon="0.47892">
        <ele>417.8</ele>
        <time>2022-09-06T08:09:35Z</time>
      </trkpt>
      <trkpt lat="43.07327" lon="0.47859">
        <ele>417.8</ele>
        <time>2022-09-06T08:09:41Z</time>
      </trkpt>
      <trkpt lat="43.07319" lon="0.47809">
        <ele>418</ele>
        <time>2022-09-06T08:09:50Z</time>
      </trkpt>
      <trkpt lat="43.07311" lon="0.47764">
        <ele>418</ele>
        <time>2022-09-06T08:09:59Z</time>
      </trkpt>
      <trkpt lat="43.07303" lon="0.47717">
        <ele>418.2</ele>
        <time>2022-09-06T08:10:08Z</time>
      </trkpt>
      <trkpt lat="43.07302" lon="0.47706">
        <ele>418</ele>
        <time>2022-09-06T08:10:10Z</time>
      </trkpt>
      <trkpt lat="43.073" lon="0.47672">
        <ele>418.4</ele>
        <time>2022-09-06T08:10:16Z</time>
      </trkpt>
      <trkpt lat="43.07299" lon="0.47633">
        <ele>418.6</ele>
        <time>2022-09-06T08:10:23Z</time>
      </trkpt>
      <trkpt lat="43.07299" lon="0.4762">
        <ele>418.8</ele>
        <time>2022-09-06T08:10:25Z</time>
      </trkpt>
      <trkpt lat="43.073" lon="0.47597">
        <ele>420</ele>
        <time>2022-09-06T08:10:29Z</time>
      </trkpt>
      <trkpt lat="43.073" lon="0.47592">
        <ele>420.4</ele>
        <time>2022-09-06T08:10:30Z</time>
      </trkpt>
      <trkpt lat="43.073" lon="0.47585">
        <ele>421.2</ele>
        <time>2022-09-06T08:10:32Z</time>
      </trkpt>
      <trkpt lat="43.073" lon="0.47576">
        <ele>422.2</ele>
        <time>2022-09-06T08:10:35Z</time>
      </trkpt>
      <trkpt lat="43.073" lon="0.47563">
        <ele>423.2</ele>
        <time>2022-09-06T08:10:38Z</time>
      </trkpt>
      <trkpt lat="43.07301" lon="0.47551">
        <ele>424</ele>
        <time>2022-09-06T08:10:41Z</time>
      </trkpt>
      <trkpt lat="43.07301" lon="0.47546">
        <ele>424.4</ele>
        <time>2022-09-06T08:10:42Z</time>
      </trkpt>
      <trkpt lat="43.073" lon="0.47525">
        <ele>424.6</ele>
        <time>2022-09-06T08:10:46Z</time>
      </trkpt>
      <trkpt lat="43.07297" lon="0.47475">
        <ele>425.4</ele>
        <time>2022-09-06T08:10:56Z</time>
      </trkpt>
      <trkpt lat="43.07296" lon="0.47471">
        <ele>425.4</ele>
        <time>2022-09-06T08:10:57Z</time>
      </trkpt>
      <trkpt lat="43.07295" lon="0.47454">
        <ele>425.8</ele>
        <time>2022-09-06T08:11:02Z</time>
      </trkpt>
      <trkpt lat="43.07293" lon="0.47438">
        <ele>425.8</ele>
        <time>2022-09-06T08:11:09Z</time>
      </trkpt>
      <trkpt lat="43.07296" lon="0.47427">
        <ele>425.6</ele>
        <time>2022-09-06T08:11:13Z</time>
      </trkpt>
      <trkpt lat="43.07292" lon="0.47413">
        <ele>426</ele>
        <time>2022-09-06T08:11:17Z</time>
      </trkpt>
      <trkpt lat="43.0729" lon="0.47409">
        <ele>425.8</ele>
        <time>2022-09-06T08:11:18Z</time>
      </trkpt>
      <trkpt lat="43.07272" lon="0.47371">
        <ele>426.2</ele>
        <time>2022-09-06T08:11:27Z</time>
      </trkpt>
      <trkpt lat="43.0726" lon="0.47351">
        <ele>426.6</ele>
        <time>2022-09-06T08:11:32Z</time>
      </trkpt>
      <trkpt lat="43.07258" lon="0.47347">
        <ele>426.6</ele>
        <time>2022-09-06T08:11:33Z</time>
      </trkpt>
      <trkpt lat="43.07253" lon="0.47323">
        <ele>426.8</ele>
        <time>2022-09-06T08:11:38Z</time>
      </trkpt>
      <trkpt lat="43.07248" lon="0.4729">
        <ele>427.6</ele>
        <time>2022-09-06T08:11:45Z</time>
      </trkpt>
      <trkpt lat="43.07244" lon="0.47261">
        <ele>428.6</ele>
        <time>2022-09-06T08:11:52Z</time>
      </trkpt>
      <trkpt lat="43.07244" lon="0.47258">
        <ele>428.6</ele>
        <time>2022-09-06T08:11:53Z</time>
      </trkpt>
      <trkpt lat="43.07239" lon="0.47239">
        <ele>429.8</ele>
        <time>2022-09-06T08:11:59Z</time>
      </trkpt>
      <trkpt lat="43.07234" lon="0.47224">
        <ele>430.8</ele>
        <time>2022-09-06T08:12:04Z</time>
      </trkpt>
      <trkpt lat="43.07232" lon="0.47219">
        <ele>431.2</ele>
        <time>2022-09-06T08:12:06Z</time>
      </trkpt>
      <trkpt lat="43.0723" lon="0.47208">
        <ele>432</ele>
        <time>2022-09-06T08:12:10Z</time>
      </trkpt>
      <trkpt lat="43.07228" lon="0.47202">
        <ele>432.4</ele>
        <time>2022-09-06T08:12:12Z</time>
      </trkpt>
      <trkpt lat="43.07228" lon="0.47187">
        <ele>433.2</ele>
        <time>2022-09-06T08:12:18Z</time>
      </trkpt>
      <trkpt lat="43.07226" lon="0.47169">
        <ele>434.2</ele>
        <time>2022-09-06T08:12:24Z</time>
      </trkpt>
      <trkpt lat="43.07228" lon="0.47149">
        <ele>434.8</ele>
        <time>2022-09-06T08:12:30Z</time>
      </trkpt>
      <trkpt lat="43.07229" lon="0.47133">
        <ele>435.2</ele>
        <time>2022-09-06T08:12:35Z</time>
      </trkpt>
      <trkpt lat="43.0723" lon="0.47118">
        <ele>435.6</ele>
        <time>2022-09-06T08:12:39Z</time>
      </trkpt>
      <trkpt lat="43.07234" lon="0.47074">
        <ele>435.8</ele>
        <time>2022-09-06T08:12:49Z</time>
      </trkpt>
      <trkpt lat="43.07238" lon="0.47041">
        <ele>436</ele>
        <time>2022-09-06T08:12:56Z</time>
      </trkpt>
      <trkpt lat="43.07242" lon="0.47002">
        <ele>436.2</ele>
        <time>2022-09-06T08:13:03Z</time>
      </trkpt>
      <trkpt lat="43.07242" lon="0.46991">
        <ele>436.4</ele>
        <time>2022-09-06T08:13:05Z</time>
      </trkpt>
      <trkpt lat="43.07245" lon="0.46934">
        <ele>436.4</ele>
        <time>2022-09-06T08:13:15Z</time>
      </trkpt>
      <trkpt lat="43.07248" lon="0.46881">
        <ele>436.6</ele>
        <time>2022-09-06T08:13:24Z</time>
      </trkpt>
      <trkpt lat="43.07249" lon="0.46816">
        <ele>437</ele>
        <time>2022-09-06T08:13:35Z</time>
      </trkpt>
      <trkpt lat="43.0725" lon="0.46787">
        <ele>437.4</ele>
        <time>2022-09-06T08:13:40Z</time>
      </trkpt>
      <trkpt lat="43.07251" lon="0.46752">
        <ele>437.8</ele>
        <time>2022-09-06T08:13:46Z</time>
      </trkpt>
      <trkpt lat="43.07253" lon="0.46698">
        <ele>438</ele>
        <time>2022-09-06T08:13:55Z</time>
      </trkpt>
      <trkpt lat="43.07253" lon="0.4664">
        <ele>438.4</ele>
        <time>2022-09-06T08:14:05Z</time>
      </trkpt>
      <trkpt lat="43.07253" lon="0.46618">
        <ele>438.4</ele>
        <time>2022-09-06T08:14:09Z</time>
      </trkpt>
      <trkpt lat="43.07252" lon="0.46604">
        <ele>438.4</ele>
        <time>2022-09-06T08:14:12Z</time>
      </trkpt>
      <trkpt lat="43.07252" lon="0.46561">
        <ele>438.8</ele>
        <time>2022-09-06T08:14:20Z</time>
      </trkpt>
      <trkpt lat="43.07255" lon="0.46523">
        <ele>438.8</ele>
        <time>2022-09-06T08:14:27Z</time>
      </trkpt>
      <trkpt lat="43.07259" lon="0.46481">
        <ele>439.4</ele>
        <time>2022-09-06T08:14:35Z</time>
      </trkpt>
      <trkpt lat="43.07259" lon="0.46477">
        <ele>439.6</ele>
        <time>2022-09-06T08:14:36Z</time>
      </trkpt>
      <trkpt lat="43.07261" lon="0.46468">
        <ele>439.2</ele>
        <time>2022-09-06T08:14:39Z</time>
      </trkpt>
      <trkpt lat="43.07261" lon="0.46468">
        <ele>439.2</ele>
        <time>2022-09-06T08:14:40Z</time>
      </trkpt>
      <trkpt lat="43.07261" lon="0.46457">
        <ele>439.4</ele>
        <time>2022-09-06T08:14:56Z</time>
      </trkpt>
      <trkpt lat="43.07262" lon="0.46454">
        <ele>439.6</ele>
        <time>2022-09-06T08:14:57Z</time>
      </trkpt>
      <trkpt lat="43.07265" lon="0.46442">
        <ele>439.6</ele>
        <time>2022-09-06T08:15:00Z</time>
      </trkpt>
      <trkpt lat="43.07267" lon="0.46426">
        <ele>440</ele>
        <time>2022-09-06T08:15:03Z</time>
      </trkpt>
      <trkpt lat="43.07271" lon="0.46386">
        <ele>440</ele>
        <time>2022-09-06T08:15:10Z</time>
      </trkpt>
      <trkpt lat="43.07274" lon="0.46346">
        <ele>440.6</ele>
        <time>2022-09-06T08:15:17Z</time>
      </trkpt>
      <trkpt lat="43.07277" lon="0.46307">
        <ele>440.6</ele>
        <time>2022-09-06T08:15:24Z</time>
      </trkpt>
      <trkpt lat="43.0728" lon="0.46247">
        <ele>441</ele>
        <time>2022-09-06T08:15:34Z</time>
      </trkpt>
      <trkpt lat="43.07281" lon="0.46193">
        <ele>440.2</ele>
        <time>2022-09-06T08:15:42Z</time>
      </trkpt>
      <trkpt lat="43.07278" lon="0.46148">
        <ele>440.4</ele>
        <time>2022-09-06T08:15:49Z</time>
      </trkpt>
      <trkpt lat="43.0727" lon="0.46109">
        <ele>440.4</ele>
        <time>2022-09-06T08:15:56Z</time>
      </trkpt>
      <trkpt lat="43.0726" lon="0.46052">
        <ele>441</ele>
        <time>2022-09-06T08:16:06Z</time>
      </trkpt>
      <trkpt lat="43.07253" lon="0.46008">
        <ele>441.2</ele>
        <time>2022-09-06T08:16:14Z</time>
      </trkpt>
      <trkpt lat="43.07247" lon="0.45958">
        <ele>441.2</ele>
        <time>2022-09-06T08:16:23Z</time>
      </trkpt>
      <trkpt lat="43.07245" lon="0.45924">
        <ele>441.2</ele>
        <time>2022-09-06T08:16:30Z</time>
      </trkpt>
      <trkpt lat="43.07244" lon="0.45887">
        <ele>441.6</ele>
        <time>2022-09-06T08:16:37Z</time>
      </trkpt>
      <trkpt lat="43.07243" lon="0.45871">
        <ele>441.8</ele>
        <time>2022-09-06T08:16:40Z</time>
      </trkpt>
      <trkpt lat="43.07239" lon="0.45832">
        <ele>442.4</ele>
        <time>2022-09-06T08:16:47Z</time>
      </trkpt>
      <trkpt lat="43.07231" lon="0.45776">
        <ele>442.2</ele>
        <time>2022-09-06T08:16:57Z</time>
      </trkpt>
      <trkpt lat="43.07221" lon="0.45719">
        <ele>442.8</ele>
        <time>2022-09-06T08:17:07Z</time>
      </trkpt>
      <trkpt lat="43.0722" lon="0.45714">
        <ele>442.8</ele>
        <time>2022-09-06T08:17:08Z</time>
      </trkpt>
      <trkpt lat="43.07219" lon="0.45666">
        <ele>443.4</ele>
        <time>2022-09-06T08:17:17Z</time>
      </trkpt>
      <trkpt lat="43.0722" lon="0.45655">
        <ele>443.8</ele>
        <time>2022-09-06T08:17:19Z</time>
      </trkpt>
      <trkpt lat="43.07224" lon="0.45608">
        <ele>444.4</ele>
        <time>2022-09-06T08:17:28Z</time>
      </trkpt>
      <trkpt lat="43.07234" lon="0.45561">
        <ele>443.8</ele>
        <time>2022-09-06T08:17:37Z</time>
      </trkpt>
      <trkpt lat="43.07244" lon="0.45515">
        <ele>443</ele>
        <time>2022-09-06T08:17:44Z</time>
      </trkpt>
      <trkpt lat="43.07246" lon="0.45508">
        <ele>442.8</ele>
        <time>2022-09-06T08:17:45Z</time>
      </trkpt>
      <trkpt lat="43.07256" lon="0.45468">
        <ele>442.2</ele>
        <time>2022-09-06T08:17:51Z</time>
      </trkpt>
      <trkpt lat="43.07276" lon="0.454">
        <ele>442</ele>
        <time>2022-09-06T08:18:01Z</time>
      </trkpt>
      <trkpt lat="43.07289" lon="0.45354">
        <ele>441.8</ele>
        <time>2022-09-06T08:18:08Z</time>
      </trkpt>
      <trkpt lat="43.07291" lon="0.45348">
        <ele>441.8</ele>
        <time>2022-09-06T08:18:09Z</time>
      </trkpt>
      <trkpt lat="43.07303" lon="0.45303">
        <ele>441.8</ele>
        <time>2022-09-06T08:18:16Z</time>
      </trkpt>
      <trkpt lat="43.07315" lon="0.45251">
        <ele>442</ele>
        <time>2022-09-06T08:18:24Z</time>
      </trkpt>
      <trkpt lat="43.07329" lon="0.45193">
        <ele>442.2</ele>
        <time>2022-09-06T08:18:33Z</time>
      </trkpt>
      <trkpt lat="43.07349" lon="0.45133">
        <ele>442.6</ele>
        <time>2022-09-06T08:18:43Z</time>
      </trkpt>
      <trkpt lat="43.07366" lon="0.45084">
        <ele>442.8</ele>
        <time>2022-09-06T08:18:51Z</time>
      </trkpt>
      <trkpt lat="43.07372" lon="0.45065">
        <ele>443</ele>
        <time>2022-09-06T08:18:54Z</time>
      </trkpt>
      <trkpt lat="43.07395" lon="0.44999">
        <ele>443.6</ele>
        <time>2022-09-06T08:19:05Z</time>
      </trkpt>
      <trkpt lat="43.07411" lon="0.44951">
        <ele>443.2</ele>
        <time>2022-09-06T08:19:13Z</time>
      </trkpt>
      <trkpt lat="43.07431" lon="0.44892">
        <ele>443.6</ele>
        <time>2022-09-06T08:19:23Z</time>
      </trkpt>
      <trkpt lat="43.07435" lon="0.44879">
        <ele>443.8</ele>
        <time>2022-09-06T08:19:25Z</time>
      </trkpt>
      <trkpt lat="43.07451" lon="0.44825">
        <ele>444.2</ele>
        <time>2022-09-06T08:19:34Z</time>
      </trkpt>
      <trkpt lat="43.07467" lon="0.44768">
        <ele>444.4</ele>
        <time>2022-09-06T08:19:44Z</time>
      </trkpt>
      <trkpt lat="43.07479" lon="0.4471">
        <ele>444.4</ele>
        <time>2022-09-06T08:19:55Z</time>
      </trkpt>
      <trkpt lat="43.07487" lon="0.44683">
        <ele>444.2</ele>
        <time>2022-09-06T08:20:01Z</time>
      </trkpt>
      <trkpt lat="43.07488" lon="0.44674">
        <ele>444.2</ele>
        <time>2022-09-06T08:20:04Z</time>
      </trkpt>
      <trkpt lat="43.07486" lon="0.44672">
        <ele>444.2</ele>
        <time>2022-09-06T08:20:05Z</time>
      </trkpt>
      <trkpt lat="43.0747" lon="0.44665">
        <ele>443.2</ele>
        <time>2022-09-06T08:20:09Z</time>
      </trkpt>
      <trkpt lat="43.07459" lon="0.44659">
        <ele>442.8</ele>
        <time>2022-09-06T08:20:11Z</time>
      </trkpt>
      <trkpt lat="43.07442" lon="0.4465">
        <ele>442.2</ele>
        <time>2022-09-06T08:20:14Z</time>
      </trkpt>
      <trkpt lat="43.0743" lon="0.44644">
        <ele>441.6</ele>
        <time>2022-09-06T08:20:16Z</time>
      </trkpt>
      <trkpt lat="43.07392" lon="0.44624">
        <ele>441.2</ele>
        <time>2022-09-06T08:20:23Z</time>
      </trkpt>
      <trkpt lat="43.07358" lon="0.44607">
        <ele>441</ele>
        <time>2022-09-06T08:20:30Z</time>
      </trkpt>
      <trkpt lat="43.07319" lon="0.44585">
        <ele>440.4</ele>
        <time>2022-09-06T08:20:38Z</time>
      </trkpt>
      <trkpt lat="43.07315" lon="0.44583">
        <ele>440.4</ele>
        <time>2022-09-06T08:20:39Z</time>
      </trkpt>
      <trkpt lat="43.07278" lon="0.44564">
        <ele>439.6</ele>
        <time>2022-09-06T08:20:47Z</time>
      </trkpt>
      <trkpt lat="43.07258" lon="0.44554">
        <ele>439.4</ele>
        <time>2022-09-06T08:20:52Z</time>
      </trkpt>
      <trkpt lat="43.07238" lon="0.44543">
        <ele>439.4</ele>
        <time>2022-09-06T08:20:57Z</time>
      </trkpt>
      <trkpt lat="43.072" lon="0.44523">
        <ele>439</ele>
        <time>2022-09-06T08:21:07Z</time>
      </trkpt>
      <trkpt lat="43.07184" lon="0.44515">
        <ele>438.6</ele>
        <time>2022-09-06T08:21:13Z</time>
      </trkpt>
      <trkpt lat="43.07174" lon="0.44506">
        <ele>438.4</ele>
        <time>2022-09-06T08:21:17Z</time>
      </trkpt>
      <trkpt lat="43.07174" lon="0.44501">
        <ele>438.2</ele>
        <time>2022-09-06T08:21:18Z</time>
      </trkpt>
      <trkpt lat="43.07178" lon="0.44485">
        <ele>438</ele>
        <time>2022-09-06T08:21:21Z</time>
      </trkpt>
      <trkpt lat="43.0718" lon="0.44474">
        <ele>438</ele>
        <time>2022-09-06T08:21:23Z</time>
      </trkpt>
      <trkpt lat="43.0719" lon="0.44438">
        <ele>438.4</ele>
        <time>2022-09-06T08:21:29Z</time>
      </trkpt>
      <trkpt lat="43.0721" lon="0.44389">
        <ele>438.8</ele>
        <time>2022-09-06T08:21:38Z</time>
      </trkpt>
      <trkpt lat="43.07226" lon="0.44359">
        <ele>439.2</ele>
        <time>2022-09-06T08:21:44Z</time>
      </trkpt>
      <trkpt lat="43.07234" lon="0.44345">
        <ele>439.2</ele>
        <time>2022-09-06T08:21:47Z</time>
      </trkpt>
      <trkpt lat="43.07269" lon="0.4429">
        <ele>439.8</ele>
        <time>2022-09-06T08:21:59Z</time>
      </trkpt>
      <trkpt lat="43.07288" lon="0.44259">
        <ele>439.8</ele>
        <time>2022-09-06T08:22:06Z</time>
      </trkpt>
      <trkpt lat="43.07297" lon="0.44245">
        <ele>440.4</ele>
        <time>2022-09-06T08:22:09Z</time>
      </trkpt>
      <trkpt lat="43.07323" lon="0.44204">
        <ele>440.4</ele>
        <time>2022-09-06T08:22:18Z</time>
      </trkpt>
      <trkpt lat="43.07349" lon="0.44164">
        <ele>440.6</ele>
        <time>2022-09-06T08:22:27Z</time>
      </trkpt>
      <trkpt lat="43.07378" lon="0.44128">
        <ele>441.4</ele>
        <time>2022-09-06T08:22:36Z</time>
      </trkpt>
      <trkpt lat="43.07384" lon="0.44121">
        <ele>441.4</ele>
        <time>2022-09-06T08:22:38Z</time>
      </trkpt>
      <trkpt lat="43.07407" lon="0.44096">
        <ele>442</ele>
        <time>2022-09-06T08:22:45Z</time>
      </trkpt>
      <trkpt lat="43.07423" lon="0.44072">
        <ele>442.2</ele>
        <time>2022-09-06T08:22:51Z</time>
      </trkpt>
      <trkpt lat="43.0743" lon="0.4406">
        <ele>442.6</ele>
        <time>2022-09-06T08:22:54Z</time>
      </trkpt>
      <trkpt lat="43.07432" lon="0.44051">
        <ele>442.6</ele>
        <time>2022-09-06T08:22:56Z</time>
      </trkpt>
      <trkpt lat="43.07433" lon="0.44025">
        <ele>442.6</ele>
        <time>2022-09-06T08:23:02Z</time>
      </trkpt>
      <trkpt lat="43.07431" lon="0.44022">
        <ele>442.6</ele>
        <time>2022-09-06T08:23:03Z</time>
      </trkpt>
      <trkpt lat="43.07425" lon="0.4402">
        <ele>442.6</ele>
        <time>2022-09-06T08:23:05Z</time>
      </trkpt>
      <trkpt lat="43.07418" lon="0.44019">
        <ele>442.6</ele>
        <time>2022-09-06T08:23:07Z</time>
      </trkpt>
      <trkpt lat="43.07402" lon="0.44019">
        <ele>442.6</ele>
        <time>2022-09-06T08:23:11Z</time>
      </trkpt>
      <trkpt lat="43.07365" lon="0.44016">
        <ele>442</ele>
        <time>2022-09-06T08:23:19Z</time>
      </trkpt>
      <trkpt lat="43.07345" lon="0.44011">
        <ele>441.6</ele>
        <time>2022-09-06T08:23:23Z</time>
      </trkpt>
      <trkpt lat="43.0733" lon="0.44008">
        <ele>441.2</ele>
        <time>2022-09-06T08:23:26Z</time>
      </trkpt>
      <trkpt lat="43.07293" lon="0.44001">
        <ele>440.8</ele>
        <time>2022-09-06T08:23:34Z</time>
      </trkpt>
      <trkpt lat="43.07283" lon="0.44001">
        <ele>440.6</ele>
        <time>2022-09-06T08:23:36Z</time>
      </trkpt>
      <trkpt lat="43.07278" lon="0.44003">
        <ele>440.6</ele>
        <time>2022-09-06T08:23:37Z</time>
      </trkpt>
      <trkpt lat="43.07268" lon="0.44006">
        <ele>440.4</ele>
        <time>2022-09-06T08:23:39Z</time>
      </trkpt>
      <trkpt lat="43.07263" lon="0.44008">
        <ele>440.4</ele>
        <time>2022-09-06T08:23:40Z</time>
      </trkpt>
      <trkpt lat="43.07258" lon="0.4401">
        <ele>440.4</ele>
        <time>2022-09-06T08:23:41Z</time>
      </trkpt>
      <trkpt lat="43.07229" lon="0.44023">
        <ele>439.8</ele>
        <time>2022-09-06T08:23:47Z</time>
      </trkpt>
      <trkpt lat="43.0718" lon="0.44044">
        <ele>439.8</ele>
        <time>2022-09-06T08:23:57Z</time>
      </trkpt>
      <trkpt lat="43.07166" lon="0.4405">
        <ele>439.4</ele>
        <time>2022-09-06T08:24:00Z</time>
      </trkpt>
      <trkpt lat="43.07154" lon="0.44055">
        <ele>440</ele>
        <time>2022-09-06T08:24:03Z</time>
      </trkpt>
      <trkpt lat="43.07143" lon="0.44061">
        <ele>440.8</ele>
        <time>2022-09-06T08:24:06Z</time>
      </trkpt>
      <trkpt lat="43.07126" lon="0.44068">
        <ele>441.2</ele>
        <time>2022-09-06T08:24:11Z</time>
      </trkpt>
      <trkpt lat="43.07099" lon="0.44077">
        <ele>441</ele>
        <time>2022-09-06T08:24:18Z</time>
      </trkpt>
      <trkpt lat="43.0707" lon="0.44091">
        <ele>440.6</ele>
        <time>2022-09-06T08:24:25Z</time>
      </trkpt>
      <trkpt lat="43.07037" lon="0.44115">
        <ele>439.4</ele>
        <time>2022-09-06T08:24:32Z</time>
      </trkpt>
      <trkpt lat="43.07023" lon="0.44128">
        <ele>438.6</ele>
        <time>2022-09-06T08:24:37Z</time>
      </trkpt>
      <trkpt lat="43.07021" lon="0.44128">
        <ele>438.4</ele>
        <time>2022-09-06T08:24:38Z</time>
      </trkpt>
      <trkpt lat="43.07016" lon="0.44137">
        <ele>437.6</ele>
        <time>2022-09-06T08:27:01Z</time>
      </trkpt>
      <trkpt lat="43.07011" lon="0.44142">
        <ele>437.6</ele>
        <time>2022-09-06T08:27:03Z</time>
      </trkpt>
      <trkpt lat="43.07006" lon="0.44146">
        <ele>437.4</ele>
        <time>2022-09-06T08:27:05Z</time>
      </trkpt>
      <trkpt lat="43.06993" lon="0.44161">
        <ele>437.2</ele>
        <time>2022-09-06T08:27:10Z</time>
      </trkpt>
      <trkpt lat="43.06969" lon="0.44186">
        <ele>436.8</ele>
        <time>2022-09-06T08:27:19Z</time>
      </trkpt>
      <trkpt lat="43.06954" lon="0.44204">
        <ele>436.6</ele>
        <time>2022-09-06T08:27:25Z</time>
      </trkpt>
      <trkpt lat="43.06938" lon="0.4421">
        <ele>436.2</ele>
        <time>2022-09-06T08:27:30Z</time>
      </trkpt>
      <trkpt lat="43.06935" lon="0.4421">
        <ele>436.2</ele>
        <time>2022-09-06T08:27:31Z</time>
      </trkpt>
      <trkpt lat="43.06916" lon="0.44202">
        <ele>436.6</ele>
        <time>2022-09-06T08:27:38Z</time>
      </trkpt>
      <trkpt lat="43.069" lon="0.44195">
        <ele>436.6</ele>
        <time>2022-09-06T08:27:45Z</time>
      </trkpt>
      <trkpt lat="43.06895" lon="0.44192">
        <ele>437</ele>
        <time>2022-09-06T08:27:48Z</time>
      </trkpt>
      <trkpt lat="43.06895" lon="0.44189">
        <ele>437</ele>
        <time>2022-09-06T08:27:49Z</time>
      </trkpt>
      <trkpt lat="43.06898" lon="0.4417">
        <ele>437.2</ele>
        <time>2022-09-06T08:27:54Z</time>
      </trkpt>
      <trkpt lat="43.06901" lon="0.44163">
        <ele>437.4</ele>
        <time>2022-09-06T08:27:56Z</time>
      </trkpt>
      <trkpt lat="43.06908" lon="0.4415">
        <ele>437.8</ele>
        <time>2022-09-06T08:28:00Z</time>
      </trkpt>
      <trkpt lat="43.06924" lon="0.44125">
        <ele>437.8</ele>
        <time>2022-09-06T08:28:08Z</time>
      </trkpt>
      <trkpt lat="43.06944" lon="0.44109">
        <ele>437.6</ele>
        <time>2022-09-06T08:28:15Z</time>
      </trkpt>
      <trkpt lat="43.06964" lon="0.44094">
        <ele>437.6</ele>
        <time>2022-09-06T08:28:22Z</time>
      </trkpt>
      <trkpt lat="43.06977" lon="0.44073">
        <ele>438</ele>
        <time>2022-09-06T08:28:28Z</time>
      </trkpt>
      <trkpt lat="43.06982" lon="0.44061">
        <ele>438.4</ele>
        <time>2022-09-06T08:28:31Z</time>
      </trkpt>
      <trkpt lat="43.06987" lon="0.44045">
        <ele>438.6</ele>
        <time>2022-09-06T08:28:35Z</time>
      </trkpt>
      <trkpt lat="43.06995" lon="0.44021">
        <ele>439</ele>
        <time>2022-09-06T08:28:41Z</time>
      </trkpt>
      <trkpt lat="43.07" lon="0.44">
        <ele>439.4</ele>
        <time>2022-09-06T08:28:46Z</time>
      </trkpt>
      <trkpt lat="43.07" lon="0.43991">
        <ele>439.6</ele>
        <time>2022-09-06T08:28:48Z</time>
      </trkpt>
      <trkpt lat="43.06997" lon="0.43965">
        <ele>439.8</ele>
        <time>2022-09-06T08:28:53Z</time>
      </trkpt>
      <trkpt lat="43.06992" lon="0.43941">
        <ele>439.6</ele>
        <time>2022-09-06T08:28:57Z</time>
      </trkpt>
      <trkpt lat="43.06992" lon="0.43936">
        <ele>439.6</ele>
        <time>2022-09-06T08:28:58Z</time>
      </trkpt>
      <trkpt lat="43.0699" lon="0.43919">
        <ele>439.8</ele>
        <time>2022-09-06T08:29:01Z</time>
      </trkpt>
      <trkpt lat="43.06989" lon="0.43906">
        <ele>439.8</ele>
        <time>2022-09-06T08:29:03Z</time>
      </trkpt>
      <trkpt lat="43.06988" lon="0.43866">
        <ele>440</ele>
        <time>2022-09-06T08:29:10Z</time>
      </trkpt>
      <trkpt lat="43.06985" lon="0.43832">
        <ele>440.4</ele>
        <time>2022-09-06T08:29:16Z</time>
      </trkpt>
      <trkpt lat="43.06988" lon="0.43798">
        <ele>440.2</ele>
        <time>2022-09-06T08:29:22Z</time>
      </trkpt>
      <trkpt lat="43.0699" lon="0.43788">
        <ele>440.6</ele>
        <time>2022-09-06T08:29:24Z</time>
      </trkpt>
      <trkpt lat="43.06993" lon="0.43755">
        <ele>440.8</ele>
        <time>2022-09-06T08:29:30Z</time>
      </trkpt>
      <trkpt lat="43.07001" lon="0.43727">
        <ele>441</ele>
        <time>2022-09-06T08:29:36Z</time>
      </trkpt>
      <trkpt lat="43.07012" lon="0.43701">
        <ele>441.4</ele>
        <time>2022-09-06T08:29:43Z</time>
      </trkpt>
      <trkpt lat="43.07014" lon="0.4369">
        <ele>441.6</ele>
        <time>2022-09-06T08:29:46Z</time>
      </trkpt>
      <trkpt lat="43.07013" lon="0.43684">
        <ele>441.8</ele>
        <time>2022-09-06T08:29:48Z</time>
      </trkpt>
      <trkpt lat="43.07009" lon="0.4368">
        <ele>442.2</ele>
        <time>2022-09-06T08:29:50Z</time>
      </trkpt>
      <trkpt lat="43.07003" lon="0.4367">
        <ele>442.2</ele>
        <time>2022-09-06T08:29:53Z</time>
      </trkpt>
      <trkpt lat="43.06981" lon="0.4364">
        <ele>442.2</ele>
        <time>2022-09-06T08:30:02Z</time>
      </trkpt>
      <trkpt lat="43.06959" lon="0.43604">
        <ele>442.6</ele>
        <time>2022-09-06T08:30:11Z</time>
      </trkpt>
      <trkpt lat="43.06957" lon="0.43599">
        <ele>442.6</ele>
        <time>2022-09-06T08:30:12Z</time>
      </trkpt>
      <trkpt lat="43.06941" lon="0.43564">
        <ele>442.8</ele>
        <time>2022-09-06T08:30:20Z</time>
      </trkpt>
      <trkpt lat="43.06931" lon="0.43524">
        <ele>443.6</ele>
        <time>2022-09-06T08:30:29Z</time>
      </trkpt>
      <trkpt lat="43.0693" lon="0.4352">
        <ele>443.8</ele>
        <time>2022-09-06T08:30:30Z</time>
      </trkpt>
      <trkpt lat="43.06928" lon="0.43503">
        <ele>444.4</ele>
        <time>2022-09-06T08:30:35Z</time>
      </trkpt>
      <trkpt lat="43.06926" lon="0.43489">
        <ele>445</ele>
        <time>2022-09-06T08:30:39Z</time>
      </trkpt>
      <trkpt lat="43.06924" lon="0.43482">
        <ele>445.2</ele>
        <time>2022-09-06T08:30:41Z</time>
      </trkpt>
      <trkpt lat="43.06922" lon="0.43466">
        <ele>446</ele>
        <time>2022-09-06T08:30:45Z</time>
      </trkpt>
      <trkpt lat="43.06919" lon="0.43443">
        <ele>447.2</ele>
        <time>2022-09-06T08:30:51Z</time>
      </trkpt>
      <trkpt lat="43.06919" lon="0.43439">
        <ele>447.4</ele>
        <time>2022-09-06T08:30:52Z</time>
      </trkpt>
      <trkpt lat="43.06918" lon="0.43428">
        <ele>448.2</ele>
        <time>2022-09-06T08:30:55Z</time>
      </trkpt>
      <trkpt lat="43.06917" lon="0.43411">
        <ele>449.2</ele>
        <time>2022-09-06T08:31:00Z</time>
      </trkpt>
      <trkpt lat="43.06916" lon="0.43407">
        <ele>449.4</ele>
        <time>2022-09-06T08:31:01Z</time>
      </trkpt>
      <trkpt lat="43.06916" lon="0.43386">
        <ele>450.4</ele>
        <time>2022-09-06T08:31:07Z</time>
      </trkpt>
      <trkpt lat="43.06916" lon="0.43382">
        <ele>450.6</ele>
        <time>2022-09-06T08:31:08Z</time>
      </trkpt>
      <trkpt lat="43.06917" lon="0.43363">
        <ele>451.4</ele>
        <time>2022-09-06T08:31:14Z</time>
      </trkpt>
      <trkpt lat="43.06917" lon="0.43361">
        <ele>451.6</ele>
        <time>2022-09-06T08:31:15Z</time>
      </trkpt>
      <trkpt lat="43.06917" lon="0.43346">
        <ele>452.6</ele>
        <time>2022-09-06T08:31:20Z</time>
      </trkpt>
      <trkpt lat="43.06917" lon="0.43344">
        <ele>452.8</ele>
        <time>2022-09-06T08:31:21Z</time>
      </trkpt>
      <trkpt lat="43.06917" lon="0.43332">
        <ele>453.6</ele>
        <time>2022-09-06T08:31:26Z</time>
      </trkpt>
      <trkpt lat="43.06917" lon="0.4333">
        <ele>454</ele>
        <time>2022-09-06T08:31:27Z</time>
      </trkpt>
      <trkpt lat="43.06918" lon="0.43317">
        <ele>454.6</ele>
        <time>2022-09-06T08:31:32Z</time>
      </trkpt>
      <trkpt lat="43.06918" lon="0.43309">
        <ele>455.4</ele>
        <time>2022-09-06T08:31:35Z</time>
      </trkpt>
      <trkpt lat="43.06919" lon="0.43304">
        <ele>455.8</ele>
        <time>2022-09-06T08:31:37Z</time>
      </trkpt>
      <trkpt lat="43.06918" lon="0.43292">
        <ele>457.2</ele>
        <time>2022-09-06T08:31:42Z</time>
      </trkpt>
      <trkpt lat="43.06915" lon="0.43279">
        <ele>458.2</ele>
        <time>2022-09-06T08:31:47Z</time>
      </trkpt>
      <trkpt lat="43.06915" lon="0.43275">
        <ele>458.6</ele>
        <time>2022-09-06T08:31:49Z</time>
      </trkpt>
      <trkpt lat="43.06914" lon="0.43269">
        <ele>459.4</ele>
        <time>2022-09-06T08:31:52Z</time>
      </trkpt>
      <trkpt lat="43.0691" lon="0.43256">
        <ele>460.4</ele>
        <time>2022-09-06T08:31:57Z</time>
      </trkpt>
      <trkpt lat="43.06908" lon="0.43251">
        <ele>460.8</ele>
        <time>2022-09-06T08:31:59Z</time>
      </trkpt>
      <trkpt lat="43.06905" lon="0.43242">
        <ele>461.4</ele>
        <time>2022-09-06T08:32:03Z</time>
      </trkpt>
      <trkpt lat="43.069" lon="0.43233">
        <ele>462.2</ele>
        <time>2022-09-06T08:32:07Z</time>
      </trkpt>
      <trkpt lat="43.069" lon="0.4323">
        <ele>462.4</ele>
        <time>2022-09-06T08:32:08Z</time>
      </trkpt>
      <trkpt lat="43.06894" lon="0.43217">
        <ele>463.6</ele>
        <time>2022-09-06T08:32:14Z</time>
      </trkpt>
      <trkpt lat="43.06891" lon="0.43213">
        <ele>464</ele>
        <time>2022-09-06T08:32:16Z</time>
      </trkpt>
      <trkpt lat="43.06888" lon="0.43206">
        <ele>464.6</ele>
        <time>2022-09-06T08:32:19Z</time>
      </trkpt>
      <trkpt lat="43.06882" lon="0.43196">
        <ele>465.8</ele>
        <time>2022-09-06T08:32:24Z</time>
      </trkpt>
      <trkpt lat="43.06881" lon="0.43194">
        <ele>465.8</ele>
        <time>2022-09-06T08:32:25Z</time>
      </trkpt>
      <trkpt lat="43.06876" lon="0.43186">
        <ele>467</ele>
        <time>2022-09-06T08:32:29Z</time>
      </trkpt>
      <trkpt lat="43.06872" lon="0.4318">
        <ele>467.6</ele>
        <time>2022-09-06T08:32:32Z</time>
      </trkpt>
      <trkpt lat="43.06869" lon="0.43174">
        <ele>468</ele>
        <time>2022-09-06T08:32:36Z</time>
      </trkpt>
      <trkpt lat="43.06865" lon="0.4317">
        <ele>468.2</ele>
        <time>2022-09-06T08:32:40Z</time>
      </trkpt>
      <trkpt lat="43.06862" lon="0.43163">
        <ele>468.4</ele>
        <time>2022-09-06T08:32:44Z</time>
      </trkpt>
      <trkpt lat="43.06862" lon="0.43161">
        <ele>468.4</ele>
        <time>2022-09-06T08:32:45Z</time>
      </trkpt>
      <trkpt lat="43.06853" lon="0.43148">
        <ele>469</ele>
        <time>2022-09-06T08:32:52Z</time>
      </trkpt>
      <trkpt lat="43.0685" lon="0.43143">
        <ele>469.2</ele>
        <time>2022-09-06T08:32:54Z</time>
      </trkpt>
      <trkpt lat="43.06841" lon="0.43126">
        <ele>469.4</ele>
        <time>2022-09-06T08:33:02Z</time>
      </trkpt>
      <trkpt lat="43.06831" lon="0.43109">
        <ele>469.8</ele>
        <time>2022-09-06T08:33:10Z</time>
      </trkpt>
      <trkpt lat="43.0682" lon="0.4309">
        <ele>470.2</ele>
        <time>2022-09-06T08:33:18Z</time>
      </trkpt>
      <trkpt lat="43.0681" lon="0.43073">
        <ele>470.2</ele>
        <time>2022-09-06T08:33:26Z</time>
      </trkpt>
      <trkpt lat="43.06803" lon="0.4306">
        <ele>470.2</ele>
        <time>2022-09-06T08:33:33Z</time>
      </trkpt>
      <trkpt lat="43.06796" lon="0.43046">
        <ele>470.2</ele>
        <time>2022-09-06T08:33:42Z</time>
      </trkpt>
      <trkpt lat="43.06793" lon="0.43045">
        <ele>469.8</ele>
        <time>2022-09-06T08:36:25Z</time>
      </trkpt>
      <trkpt lat="43.06785" lon="0.43033">
        <ele>470</ele>
        <time>2022-09-06T08:36:30Z</time>
      </trkpt>
      <trkpt lat="43.0677" lon="0.43007">
        <ele>470.2</ele>
        <time>2022-09-06T08:36:38Z</time>
      </trkpt>
      <trkpt lat="43.0674" lon="0.42957">
        <ele>470.4</ele>
        <time>2022-09-06T08:36:52Z</time>
      </trkpt>
      <trkpt lat="43.06716" lon="0.42915">
        <ele>470.6</ele>
        <time>2022-09-06T08:37:02Z</time>
      </trkpt>
      <trkpt lat="43.06695" lon="0.4288">
        <ele>470.8</ele>
        <time>2022-09-06T08:37:10Z</time>
      </trkpt>
      <trkpt lat="43.06672" lon="0.4284">
        <ele>470.4</ele>
        <time>2022-09-06T08:37:20Z</time>
      </trkpt>
      <trkpt lat="43.06647" lon="0.42796">
        <ele>470.4</ele>
        <time>2022-09-06T08:37:30Z</time>
      </trkpt>
      <trkpt lat="43.06625" lon="0.42757">
        <ele>470.4</ele>
        <time>2022-09-06T08:37:38Z</time>
      </trkpt>
      <trkpt lat="43.06606" lon="0.42723">
        <ele>470.4</ele>
        <time>2022-09-06T08:37:45Z</time>
      </trkpt>
      <trkpt lat="43.06593" lon="0.42691">
        <ele>470.4</ele>
        <time>2022-09-06T08:37:52Z</time>
      </trkpt>
      <trkpt lat="43.06596" lon="0.42671">
        <ele>470.4</ele>
        <time>2022-09-06T08:37:56Z</time>
      </trkpt>
      <trkpt lat="43.066" lon="0.4264">
        <ele>470.2</ele>
        <time>2022-09-06T08:38:02Z</time>
      </trkpt>
      <trkpt lat="43.06601" lon="0.42635">
        <ele>470.2</ele>
        <time>2022-09-06T08:38:03Z</time>
      </trkpt>
      <trkpt lat="43.06606" lon="0.42581">
        <ele>470.4</ele>
        <time>2022-09-06T08:38:13Z</time>
      </trkpt>
      <trkpt lat="43.06609" lon="0.42546">
        <ele>470.6</ele>
        <time>2022-09-06T08:38:20Z</time>
      </trkpt>
      <trkpt lat="43.06607" lon="0.42512">
        <ele>471</ele>
        <time>2022-09-06T08:38:27Z</time>
      </trkpt>
      <trkpt lat="43.06607" lon="0.42507">
        <ele>471.2</ele>
        <time>2022-09-06T08:38:28Z</time>
      </trkpt>
      <trkpt lat="43.06604" lon="0.42485">
        <ele>471.4</ele>
        <time>2022-09-06T08:38:34Z</time>
      </trkpt>
      <trkpt lat="43.066" lon="0.4246">
        <ele>471.8</ele>
        <time>2022-09-06T08:38:41Z</time>
      </trkpt>
      <trkpt lat="43.06597" lon="0.42437">
        <ele>471.8</ele>
        <time>2022-09-06T08:38:48Z</time>
      </trkpt>
      <trkpt lat="43.06592" lon="0.42422">
        <ele>472</ele>
        <time>2022-09-06T08:38:54Z</time>
      </trkpt>
      <trkpt lat="43.06589" lon="0.42415">
        <ele>472.2</ele>
        <time>2022-09-06T08:38:57Z</time>
      </trkpt>
      <trkpt lat="43.06587" lon="0.42406">
        <ele>472.6</ele>
        <time>2022-09-06T08:39:00Z</time>
      </trkpt>
      <trkpt lat="43.06584" lon="0.4239">
        <ele>473</ele>
        <time>2022-09-06T08:39:07Z</time>
      </trkpt>
      <trkpt lat="43.06584" lon="0.42388">
        <ele>473.2</ele>
        <time>2022-09-06T08:39:08Z</time>
      </trkpt>
      <trkpt lat="43.06585" lon="0.42386">
        <ele>473.2</ele>
        <time>2022-09-06T08:39:09Z</time>
      </trkpt>
      <trkpt lat="43.06586" lon="0.42382">
        <ele>473.6</ele>
        <time>2022-09-06T08:39:11Z</time>
      </trkpt>
      <trkpt lat="43.06587" lon="0.4238">
        <ele>473.6</ele>
        <time>2022-09-06T08:39:12Z</time>
      </trkpt>
      <trkpt lat="43.06594" lon="0.42363">
        <ele>473.6</ele>
        <time>2022-09-06T08:39:19Z</time>
      </trkpt>
      <trkpt lat="43.066" lon="0.4234">
        <ele>473.6</ele>
        <time>2022-09-06T08:39:27Z</time>
      </trkpt>
      <trkpt lat="43.06607" lon="0.42313">
        <ele>473.8</ele>
        <time>2022-09-06T08:39:36Z</time>
      </trkpt>
      <trkpt lat="43.06615" lon="0.4228">
        <ele>474</ele>
        <time>2022-09-06T08:39:46Z</time>
      </trkpt>
      <trkpt lat="43.06621" lon="0.42258">
        <ele>474</ele>
        <time>2022-09-06T08:39:53Z</time>
      </trkpt>
      <trkpt lat="43.06625" lon="0.42235">
        <ele>474.4</ele>
        <time>2022-09-06T08:40:00Z</time>
      </trkpt>
      <trkpt lat="43.06629" lon="0.42221">
        <ele>474.4</ele>
        <time>2022-09-06T08:40:04Z</time>
      </trkpt>
      <trkpt lat="43.06635" lon="0.42187">
        <ele>474.8</ele>
        <time>2022-09-06T08:40:13Z</time>
      </trkpt>
      <trkpt lat="43.06643" lon="0.42147">
        <ele>475.2</ele>
        <time>2022-09-06T08:40:23Z</time>
      </trkpt>
      <trkpt lat="43.06644" lon="0.42143">
        <ele>475.4</ele>
        <time>2022-09-06T08:40:24Z</time>
      </trkpt>
      <trkpt lat="43.0665" lon="0.42114">
        <ele>475.6</ele>
        <time>2022-09-06T08:40:31Z</time>
      </trkpt>
      <trkpt lat="43.06652" lon="0.42106">
        <ele>475.8</ele>
        <time>2022-09-06T08:40:33Z</time>
      </trkpt>
      <trkpt lat="43.06659" lon="0.42071">
        <ele>476.2</ele>
        <time>2022-09-06T08:40:42Z</time>
      </trkpt>
      <trkpt lat="43.06661" lon="0.42059">
        <ele>476.6</ele>
        <time>2022-09-06T08:40:45Z</time>
      </trkpt>
      <trkpt lat="43.06666" lon="0.42029">
        <ele>477.4</ele>
        <time>2022-09-06T08:40:53Z</time>
      </trkpt>
      <trkpt lat="43.06668" lon="0.42021">
        <ele>477.8</ele>
        <time>2022-09-06T08:40:55Z</time>
      </trkpt>
      <trkpt lat="43.06671" lon="0.41992">
        <ele>478.2</ele>
        <time>2022-09-06T08:41:03Z</time>
      </trkpt>
      <trkpt lat="43.06672" lon="0.41973">
        <ele>478.8</ele>
        <time>2022-09-06T08:41:09Z</time>
      </trkpt>
      <trkpt lat="43.06672" lon="0.41965">
        <ele>479.4</ele>
        <time>2022-09-06T08:41:12Z</time>
      </trkpt>
      <trkpt lat="43.06672" lon="0.41957">
        <ele>479.8</ele>
        <time>2022-09-06T08:41:15Z</time>
      </trkpt>
      <trkpt lat="43.06672" lon="0.41946">
        <ele>480.6</ele>
        <time>2022-09-06T08:41:19Z</time>
      </trkpt>
      <trkpt lat="43.06673" lon="0.41938">
        <ele>481</ele>
        <time>2022-09-06T08:41:22Z</time>
      </trkpt>
      <trkpt lat="43.06674" lon="0.41927">
        <ele>481.6</ele>
        <time>2022-09-06T08:41:26Z</time>
      </trkpt>
      <trkpt lat="43.06675" lon="0.41913">
        <ele>482.2</ele>
        <time>2022-09-06T08:41:31Z</time>
      </trkpt>
      <trkpt lat="43.06676" lon="0.41908">
        <ele>482.4</ele>
        <time>2022-09-06T08:41:33Z</time>
      </trkpt>
      <trkpt lat="43.06678" lon="0.41894">
        <ele>483.4</ele>
        <time>2022-09-06T08:41:39Z</time>
      </trkpt>
      <trkpt lat="43.06679" lon="0.41892">
        <ele>483.4</ele>
        <time>2022-09-06T08:41:40Z</time>
      </trkpt>
      <trkpt lat="43.06681" lon="0.41881">
        <ele>484.4</ele>
        <time>2022-09-06T08:41:46Z</time>
      </trkpt>
      <trkpt lat="43.06682" lon="0.41879">
        <ele>484.4</ele>
        <time>2022-09-06T08:41:47Z</time>
      </trkpt>
      <trkpt lat="43.06687" lon="0.41868">
        <ele>485</ele>
        <time>2022-09-06T08:41:53Z</time>
      </trkpt>
      <trkpt lat="43.06694" lon="0.41856">
        <ele>485.4</ele>
        <time>2022-09-06T08:41:59Z</time>
      </trkpt>
      <trkpt lat="43.06698" lon="0.41848">
        <ele>485.4</ele>
        <time>2022-09-06T08:42:02Z</time>
      </trkpt>
      <trkpt lat="43.06702" lon="0.4184">
        <ele>485.6</ele>
        <time>2022-09-06T08:42:05Z</time>
      </trkpt>
      <trkpt lat="43.06706" lon="0.41828">
        <ele>485.8</ele>
        <time>2022-09-06T08:42:09Z</time>
      </trkpt>
      <trkpt lat="43.06708" lon="0.41823">
        <ele>486</ele>
        <time>2022-09-06T08:42:11Z</time>
      </trkpt>
      <trkpt lat="43.0672" lon="0.41805">
        <ele>486.2</ele>
        <time>2022-09-06T08:42:18Z</time>
      </trkpt>
      <trkpt lat="43.06724" lon="0.418">
        <ele>486.4</ele>
        <time>2022-09-06T08:42:20Z</time>
      </trkpt>
      <trkpt lat="43.06728" lon="0.41792">
        <ele>486.4</ele>
        <time>2022-09-06T08:42:23Z</time>
      </trkpt>
      <trkpt lat="43.06739" lon="0.41774">
        <ele>486.6</ele>
        <time>2022-09-06T08:42:30Z</time>
      </trkpt>
      <trkpt lat="43.06747" lon="0.41759">
        <ele>486.8</ele>
        <time>2022-09-06T08:42:36Z</time>
      </trkpt>
      <trkpt lat="43.06758" lon="0.41735">
        <ele>486.4</ele>
        <time>2022-09-06T08:42:45Z</time>
      </trkpt>
      <trkpt lat="43.06763" lon="0.41717">
        <ele>486.4</ele>
        <time>2022-09-06T08:42:51Z</time>
      </trkpt>
      <trkpt lat="43.06763" lon="0.41692">
        <ele>487.4</ele>
        <time>2022-09-06T08:42:59Z</time>
      </trkpt>
      <trkpt lat="43.06762" lon="0.41688">
        <ele>487.6</ele>
        <time>2022-09-06T08:43:00Z</time>
      </trkpt>
      <trkpt lat="43.06764" lon="0.4167">
        <ele>488.6</ele>
        <time>2022-09-06T08:43:06Z</time>
      </trkpt>
      <trkpt lat="43.06764" lon="0.4166">
        <ele>489</ele>
        <time>2022-09-06T08:43:09Z</time>
      </trkpt>
      <trkpt lat="43.06766" lon="0.41651">
        <ele>489.6</ele>
        <time>2022-09-06T08:43:13Z</time>
      </trkpt>
      <trkpt lat="43.06768" lon="0.41643">
        <ele>490</ele>
        <time>2022-09-06T08:43:16Z</time>
      </trkpt>
      <trkpt lat="43.06768" lon="0.41635">
        <ele>490.8</ele>
        <time>2022-09-06T08:43:19Z</time>
      </trkpt>
      <trkpt lat="43.06767" lon="0.41616">
        <ele>491.6</ele>
        <time>2022-09-06T08:43:26Z</time>
      </trkpt>
      <trkpt lat="43.06767" lon="0.41613">
        <ele>491.8</ele>
        <time>2022-09-06T08:43:27Z</time>
      </trkpt>
      <trkpt lat="43.06768" lon="0.41599">
        <ele>492.8</ele>
        <time>2022-09-06T08:43:32Z</time>
      </trkpt>
      <trkpt lat="43.06768" lon="0.41593">
        <ele>493.2</ele>
        <time>2022-09-06T08:43:34Z</time>
      </trkpt>
      <trkpt lat="43.06768" lon="0.41586">
        <ele>493.8</ele>
        <time>2022-09-06T08:43:37Z</time>
      </trkpt>
      <trkpt lat="43.06769" lon="0.41583">
        <ele>494.2</ele>
        <time>2022-09-06T08:43:38Z</time>
      </trkpt>
      <trkpt lat="43.0677" lon="0.41578">
        <ele>494.6</ele>
        <time>2022-09-06T08:43:40Z</time>
      </trkpt>
      <trkpt lat="43.0677" lon="0.41576">
        <ele>494.8</ele>
        <time>2022-09-06T08:43:41Z</time>
      </trkpt>
      <trkpt lat="43.06771" lon="0.41569">
        <ele>496</ele>
        <time>2022-09-06T08:43:44Z</time>
      </trkpt>
      <trkpt lat="43.06771" lon="0.41565">
        <ele>496.4</ele>
        <time>2022-09-06T08:43:46Z</time>
      </trkpt>
      <trkpt lat="43.06771" lon="0.41563">
        <ele>496.6</ele>
        <time>2022-09-06T08:43:47Z</time>
      </trkpt>
      <trkpt lat="43.06772" lon="0.41558">
        <ele>497</ele>
        <time>2022-09-06T08:43:49Z</time>
      </trkpt>
      <trkpt lat="43.06774" lon="0.41546">
        <ele>498</ele>
        <time>2022-09-06T08:43:54Z</time>
      </trkpt>
      <trkpt lat="43.06781" lon="0.41525">
        <ele>497.6</ele>
        <time>2022-09-06T08:44:02Z</time>
      </trkpt>
      <trkpt lat="43.06794" lon="0.415">
        <ele>496.6</ele>
        <time>2022-09-06T08:44:08Z</time>
      </trkpt>
      <trkpt lat="43.06797" lon="0.41494">
        <ele>496.4</ele>
        <time>2022-09-06T08:44:09Z</time>
      </trkpt>
      <trkpt lat="43.06805" lon="0.41482">
        <ele>496</ele>
        <time>2022-09-06T08:44:11Z</time>
      </trkpt>
      <trkpt lat="43.06809" lon="0.41476">
        <ele>495.6</ele>
        <time>2022-09-06T08:44:12Z</time>
      </trkpt>
      <trkpt lat="43.06822" lon="0.41452">
        <ele>494.6</ele>
        <time>2022-09-06T08:44:15Z</time>
      </trkpt>
      <trkpt lat="43.06832" lon="0.41435">
        <ele>493.6</ele>
        <time>2022-09-06T08:44:17Z</time>
      </trkpt>
      <trkpt lat="43.06837" lon="0.41426">
        <ele>493.4</ele>
        <time>2022-09-06T08:44:18Z</time>
      </trkpt>
      <trkpt lat="43.06854" lon="0.41399">
        <ele>492</ele>
        <time>2022-09-06T08:44:21Z</time>
      </trkpt>
      <trkpt lat="43.0687" lon="0.4137">
        <ele>491.6</ele>
        <time>2022-09-06T08:44:24Z</time>
      </trkpt>
      <trkpt lat="43.0689" lon="0.41338">
        <ele>490.4</ele>
        <time>2022-09-06T08:44:27Z</time>
      </trkpt>
      <trkpt lat="43.06904" lon="0.41317">
        <ele>488.6</ele>
        <time>2022-09-06T08:44:29Z</time>
      </trkpt>
      <trkpt lat="43.06911" lon="0.41307">
        <ele>488</ele>
        <time>2022-09-06T08:44:30Z</time>
      </trkpt>
      <trkpt lat="43.06918" lon="0.41296">
        <ele>487</ele>
        <time>2022-09-06T08:44:31Z</time>
      </trkpt>
      <trkpt lat="43.06929" lon="0.41275">
        <ele>485.4</ele>
        <time>2022-09-06T08:44:33Z</time>
      </trkpt>
      <trkpt lat="43.06934" lon="0.41264">
        <ele>484.6</ele>
        <time>2022-09-06T08:44:34Z</time>
      </trkpt>
      <trkpt lat="43.06936" lon="0.41252">
        <ele>484.2</ele>
        <time>2022-09-06T08:44:35Z</time>
      </trkpt>
      <trkpt lat="43.06936" lon="0.41229">
        <ele>483.8</ele>
        <time>2022-09-06T08:44:37Z</time>
      </trkpt>
      <trkpt lat="43.06938" lon="0.41179">
        <ele>483.8</ele>
        <time>2022-09-06T08:44:42Z</time>
      </trkpt>
      <trkpt lat="43.06938" lon="0.41123">
        <ele>484.2</ele>
        <time>2022-09-06T08:44:49Z</time>
      </trkpt>
      <trkpt lat="43.06937" lon="0.41068">
        <ele>485</ele>
        <time>2022-09-06T08:44:57Z</time>
      </trkpt>
      <trkpt lat="43.06937" lon="0.41061">
        <ele>485.2</ele>
        <time>2022-09-06T08:44:58Z</time>
      </trkpt>
      <trkpt lat="43.06933" lon="0.41027">
        <ele>485.4</ele>
        <time>2022-09-06T08:45:04Z</time>
      </trkpt>
      <trkpt lat="43.06928" lon="0.40993">
        <ele>486.2</ele>
        <time>2022-09-06T08:45:11Z</time>
      </trkpt>
      <trkpt lat="43.06927" lon="0.40988">
        <ele>486.4</ele>
        <time>2022-09-06T08:45:12Z</time>
      </trkpt>
      <trkpt lat="43.06924" lon="0.40968">
        <ele>487</ele>
        <time>2022-09-06T08:45:17Z</time>
      </trkpt>
      <trkpt lat="43.06922" lon="0.40959">
        <ele>487.2</ele>
        <time>2022-09-06T08:45:19Z</time>
      </trkpt>
      <trkpt lat="43.06917" lon="0.40925">
        <ele>488</ele>
        <time>2022-09-06T08:45:27Z</time>
      </trkpt>
      <trkpt lat="43.06916" lon="0.40917">
        <ele>488.2</ele>
        <time>2022-09-06T08:45:29Z</time>
      </trkpt>
      <trkpt lat="43.06914" lon="0.40895">
        <ele>489.2</ele>
        <time>2022-09-06T08:45:35Z</time>
      </trkpt>
      <trkpt lat="43.06913" lon="0.40892">
        <ele>489.2</ele>
        <time>2022-09-06T08:45:36Z</time>
      </trkpt>
      <trkpt lat="43.06913" lon="0.40872">
        <ele>490.4</ele>
        <time>2022-09-06T08:45:42Z</time>
      </trkpt>
      <trkpt lat="43.06912" lon="0.40865">
        <ele>491</ele>
        <time>2022-09-06T08:45:44Z</time>
      </trkpt>
      <trkpt lat="43.06912" lon="0.40849">
        <ele>491.6</ele>
        <time>2022-09-06T08:45:49Z</time>
      </trkpt>
      <trkpt lat="43.06912" lon="0.40838">
        <ele>492.4</ele>
        <time>2022-09-06T08:45:53Z</time>
      </trkpt>
      <trkpt lat="43.06912" lon="0.40834">
        <ele>492.6</ele>
        <time>2022-09-06T08:45:54Z</time>
      </trkpt>
      <trkpt lat="43.06916" lon="0.4081">
        <ele>493</ele>
        <time>2022-09-06T08:46:01Z</time>
      </trkpt>
      <trkpt lat="43.06922" lon="0.40789">
        <ele>493.6</ele>
        <time>2022-09-06T08:46:07Z</time>
      </trkpt>
      <trkpt lat="43.06925" lon="0.40782">
        <ele>493.8</ele>
        <time>2022-09-06T08:46:09Z</time>
      </trkpt>
      <trkpt lat="43.06934" lon="0.40754">
        <ele>493.8</ele>
        <time>2022-09-06T08:46:17Z</time>
      </trkpt>
      <trkpt lat="43.06942" lon="0.40718">
        <ele>493.2</ele>
        <time>2022-09-06T08:46:24Z</time>
      </trkpt>
      <trkpt lat="43.06945" lon="0.4069">
        <ele>492.8</ele>
        <time>2022-09-06T08:46:29Z</time>
      </trkpt>
      <trkpt lat="43.06945" lon="0.40678">
        <ele>492.8</ele>
        <time>2022-09-06T08:46:31Z</time>
      </trkpt>
      <trkpt lat="43.06945" lon="0.40645">
        <ele>493.6</ele>
        <time>2022-09-06T08:46:37Z</time>
      </trkpt>
      <trkpt lat="43.06946" lon="0.40608">
        <ele>494.4</ele>
        <time>2022-09-06T08:46:44Z</time>
      </trkpt>
      <trkpt lat="43.06944" lon="0.40587">
        <ele>494.6</ele>
        <time>2022-09-06T08:46:48Z</time>
      </trkpt>
      <trkpt lat="43.06944" lon="0.40578">
        <ele>494.8</ele>
        <time>2022-09-06T08:46:50Z</time>
      </trkpt>
      <trkpt lat="43.06943" lon="0.40545">
        <ele>494</ele>
        <time>2022-09-06T08:46:56Z</time>
      </trkpt>
      <trkpt lat="43.06942" lon="0.40531">
        <ele>493.6</ele>
        <time>2022-09-06T08:46:58Z</time>
      </trkpt>
      <trkpt lat="43.06941" lon="0.40507">
        <ele>493.4</ele>
        <time>2022-09-06T08:47:01Z</time>
      </trkpt>
      <trkpt lat="43.06941" lon="0.40481">
        <ele>492.6</ele>
        <time>2022-09-06T08:47:04Z</time>
      </trkpt>
      <trkpt lat="43.06941" lon="0.40443">
        <ele>491.4</ele>
        <time>2022-09-06T08:47:08Z</time>
      </trkpt>
      <trkpt lat="43.06942" lon="0.40433">
        <ele>491.2</ele>
        <time>2022-09-06T08:47:09Z</time>
      </trkpt>
      <trkpt lat="43.06946" lon="0.40381">
        <ele>490.4</ele>
        <time>2022-09-06T08:47:14Z</time>
      </trkpt>
      <trkpt lat="43.0695" lon="0.40335">
        <ele>490</ele>
        <time>2022-09-06T08:47:19Z</time>
      </trkpt>
      <trkpt lat="43.06954" lon="0.40303">
        <ele>490.6</ele>
        <time>2022-09-06T08:47:24Z</time>
      </trkpt>
      <trkpt lat="43.06961" lon="0.40266">
        <ele>490.2</ele>
        <time>2022-09-06T08:47:30Z</time>
      </trkpt>
      <trkpt lat="43.06962" lon="0.40259">
        <ele>490</ele>
        <time>2022-09-06T08:47:31Z</time>
      </trkpt>
      <trkpt lat="43.06963" lon="0.40238">
        <ele>489.8</ele>
        <time>2022-09-06T08:47:34Z</time>
      </trkpt>
      <trkpt lat="43.06962" lon="0.40231">
        <ele>489.8</ele>
        <time>2022-09-06T08:47:35Z</time>
      </trkpt>
      <trkpt lat="43.06961" lon="0.40217">
        <ele>489.4</ele>
        <time>2022-09-06T08:47:37Z</time>
      </trkpt>
      <trkpt lat="43.06959" lon="0.40182">
        <ele>488.6</ele>
        <time>2022-09-06T08:47:42Z</time>
      </trkpt>
      <trkpt lat="43.0696" lon="0.40176">
        <ele>488.8</ele>
        <time>2022-09-06T08:47:43Z</time>
      </trkpt>
      <trkpt lat="43.06962" lon="0.40165">
        <ele>489</ele>
        <time>2022-09-06T08:47:45Z</time>
      </trkpt>
      <trkpt lat="43.06968" lon="0.40151">
        <ele>488.8</ele>
        <time>2022-09-06T08:47:48Z</time>
      </trkpt>
      <trkpt lat="43.06986" lon="0.40117">
        <ele>488.8</ele>
        <time>2022-09-06T08:47:57Z</time>
      </trkpt>
      <trkpt lat="43.07" lon="0.40095">
        <ele>488.2</ele>
        <time>2022-09-06T08:48:02Z</time>
      </trkpt>
      <trkpt lat="43.07004" lon="0.4009">
        <ele>488</ele>
        <time>2022-09-06T08:48:03Z</time>
      </trkpt>
      <trkpt lat="43.07014" lon="0.40074">
        <ele>487.4</ele>
        <time>2022-09-06T08:48:06Z</time>
      </trkpt>
      <trkpt lat="43.07018" lon="0.40069">
        <ele>486.4</ele>
        <time>2022-09-06T08:48:07Z</time>
      </trkpt>
      <trkpt lat="43.07028" lon="0.40059">
        <ele>485.6</ele>
        <time>2022-09-06T08:48:09Z</time>
      </trkpt>
      <trkpt lat="43.07034" lon="0.40054">
        <ele>485.6</ele>
        <time>2022-09-06T08:48:10Z</time>
      </trkpt>
      <trkpt lat="43.0704" lon="0.4005">
        <ele>485.2</ele>
        <time>2022-09-06T08:48:11Z</time>
      </trkpt>
      <trkpt lat="43.07052" lon="0.40041">
        <ele>484</ele>
        <time>2022-09-06T08:48:13Z</time>
      </trkpt>
      <trkpt lat="43.07065" lon="0.40032">
        <ele>483</ele>
        <time>2022-09-06T08:48:15Z</time>
      </trkpt>
      <trkpt lat="43.07083" lon="0.40009">
        <ele>481.6</ele>
        <time>2022-09-06T08:48:18Z</time>
      </trkpt>
      <trkpt lat="43.07089" lon="0.4">
        <ele>481.2</ele>
        <time>2022-09-06T08:48:19Z</time>
      </trkpt>
      <trkpt lat="43.07093" lon="0.3999">
        <ele>480.6</ele>
        <time>2022-09-06T08:48:20Z</time>
      </trkpt>
      <trkpt lat="43.07101" lon="0.39967">
        <ele>479.6</ele>
        <time>2022-09-06T08:48:22Z</time>
      </trkpt>
      <trkpt lat="43.07105" lon="0.39954">
        <ele>479.2</ele>
        <time>2022-09-06T08:48:23Z</time>
      </trkpt>
      <trkpt lat="43.07112" lon="0.39927">
        <ele>478.2</ele>
        <time>2022-09-06T08:48:25Z</time>
      </trkpt>
      <trkpt lat="43.07117" lon="0.399">
        <ele>476.8</ele>
        <time>2022-09-06T08:48:27Z</time>
      </trkpt>
      <trkpt lat="43.07119" lon="0.39886">
        <ele>476</ele>
        <time>2022-09-06T08:48:28Z</time>
      </trkpt>
      <trkpt lat="43.07119" lon="0.39872">
        <ele>475.2</ele>
        <time>2022-09-06T08:48:29Z</time>
      </trkpt>
      <trkpt lat="43.07119" lon="0.39843">
        <ele>474</ele>
        <time>2022-09-06T08:48:31Z</time>
      </trkpt>
      <trkpt lat="43.07118" lon="0.3983">
        <ele>473.6</ele>
        <time>2022-09-06T08:48:32Z</time>
      </trkpt>
      <trkpt lat="43.07117" lon="0.39817">
        <ele>473</ele>
        <time>2022-09-06T08:48:33Z</time>
      </trkpt>
      <trkpt lat="43.07118" lon="0.39805">
        <ele>472.2</ele>
        <time>2022-09-06T08:48:34Z</time>
      </trkpt>
      <trkpt lat="43.0712" lon="0.39794">
        <ele>471.6</ele>
        <time>2022-09-06T08:48:35Z</time>
      </trkpt>
      <trkpt lat="43.07133" lon="0.39779">
        <ele>470.8</ele>
        <time>2022-09-06T08:48:37Z</time>
      </trkpt>
      <trkpt lat="43.07141" lon="0.39774">
        <ele>470.4</ele>
        <time>2022-09-06T08:48:38Z</time>
      </trkpt>
      <trkpt lat="43.07149" lon="0.3977">
        <ele>470.2</ele>
        <time>2022-09-06T08:48:39Z</time>
      </trkpt>
      <trkpt lat="43.07179" lon="0.39753">
        <ele>469.8</ele>
        <time>2022-09-06T08:48:43Z</time>
      </trkpt>
      <trkpt lat="43.07221" lon="0.39728">
        <ele>469.4</ele>
        <time>2022-09-06T08:48:49Z</time>
      </trkpt>
      <trkpt lat="43.07241" lon="0.39716">
        <ele>469.2</ele>
        <time>2022-09-06T08:48:52Z</time>
      </trkpt>
      <trkpt lat="43.07253" lon="0.39707">
        <ele>469.4</ele>
        <time>2022-09-06T08:48:54Z</time>
      </trkpt>
      <trkpt lat="43.07262" lon="0.39696">
        <ele>469.4</ele>
        <time>2022-09-06T08:48:56Z</time>
      </trkpt>
      <trkpt lat="43.07274" lon="0.39669">
        <ele>470.4</ele>
        <time>2022-09-06T08:49:01Z</time>
      </trkpt>
      <trkpt lat="43.07288" lon="0.39639">
        <ele>469.8</ele>
        <time>2022-09-06T08:49:08Z</time>
      </trkpt>
      <trkpt lat="43.07302" lon="0.39612">
        <ele>470</ele>
        <time>2022-09-06T08:49:15Z</time>
      </trkpt>
      <trkpt lat="43.07322" lon="0.39582">
        <ele>470.6</ele>
        <time>2022-09-06T08:49:23Z</time>
      </trkpt>
      <trkpt lat="43.07332" lon="0.39562">
        <ele>471.6</ele>
        <time>2022-09-06T08:49:29Z</time>
      </trkpt>
      <trkpt lat="43.07333" lon="0.39558">
        <ele>471.6</ele>
        <time>2022-09-06T08:49:30Z</time>
      </trkpt>
      <trkpt lat="43.07337" lon="0.39539">
        <ele>472.4</ele>
        <time>2022-09-06T08:49:36Z</time>
      </trkpt>
      <trkpt lat="43.07338" lon="0.39532">
        <ele>472.8</ele>
        <time>2022-09-06T08:49:38Z</time>
      </trkpt>
      <trkpt lat="43.07339" lon="0.39518">
        <ele>473.8</ele>
        <time>2022-09-06T08:49:43Z</time>
      </trkpt>
      <trkpt lat="43.0734" lon="0.39512">
        <ele>474.2</ele>
        <time>2022-09-06T08:49:45Z</time>
      </trkpt>
      <trkpt lat="43.07342" lon="0.395">
        <ele>474.8</ele>
        <time>2022-09-06T08:49:49Z</time>
      </trkpt>
      <trkpt lat="43.07343" lon="0.39481">
        <ele>475.8</ele>
        <time>2022-09-06T08:49:55Z</time>
      </trkpt>
      <trkpt lat="43.07344" lon="0.39462">
        <ele>476.8</ele>
        <time>2022-09-06T08:50:01Z</time>
      </trkpt>
      <trkpt lat="43.07344" lon="0.39459">
        <ele>476.8</ele>
        <time>2022-09-06T08:50:02Z</time>
      </trkpt>
      <trkpt lat="43.07344" lon="0.39444">
        <ele>478</ele>
        <time>2022-09-06T08:50:07Z</time>
      </trkpt>
      <trkpt lat="43.07343" lon="0.39441">
        <ele>478</ele>
        <time>2022-09-06T08:50:08Z</time>
      </trkpt>
      <trkpt lat="43.07341" lon="0.39421">
        <ele>479.2</ele>
        <time>2022-09-06T08:50:15Z</time>
      </trkpt>
      <trkpt lat="43.0734" lon="0.39415">
        <ele>479.6</ele>
        <time>2022-09-06T08:50:17Z</time>
      </trkpt>
      <trkpt lat="43.07337" lon="0.39402">
        <ele>480.4</ele>
        <time>2022-09-06T08:50:22Z</time>
      </trkpt>
      <trkpt lat="43.07337" lon="0.39393">
        <ele>480.6</ele>
        <time>2022-09-06T08:50:25Z</time>
      </trkpt>
      <trkpt lat="43.07339" lon="0.3937">
        <ele>481.4</ele>
        <time>2022-09-06T08:50:33Z</time>
      </trkpt>
      <trkpt lat="43.07339" lon="0.39367">
        <ele>481.4</ele>
        <time>2022-09-06T08:50:34Z</time>
      </trkpt>
      <trkpt lat="43.07345" lon="0.39345">
        <ele>482.4</ele>
        <time>2022-09-06T08:50:42Z</time>
      </trkpt>
      <trkpt lat="43.07353" lon="0.39324">
        <ele>483</ele>
        <time>2022-09-06T08:50:49Z</time>
      </trkpt>
      <trkpt lat="43.07367" lon="0.3929">
        <ele>483.2</ele>
        <time>2022-09-06T08:50:59Z</time>
      </trkpt>
      <trkpt lat="43.0737" lon="0.39278">
        <ele>483.4</ele>
        <time>2022-09-06T08:51:02Z</time>
      </trkpt>
      <trkpt lat="43.07377" lon="0.39253">
        <ele>483.6</ele>
        <time>2022-09-06T08:51:08Z</time>
      </trkpt>
      <trkpt lat="43.07388" lon="0.39207">
        <ele>483.6</ele>
        <time>2022-09-06T08:51:18Z</time>
      </trkpt>
      <trkpt lat="43.07391" lon="0.39166">
        <ele>484</ele>
        <time>2022-09-06T08:51:26Z</time>
      </trkpt>
      <trkpt lat="43.07391" lon="0.39119">
        <ele>484.2</ele>
        <time>2022-09-06T08:51:35Z</time>
      </trkpt>
      <trkpt lat="43.07392" lon="0.39094">
        <ele>484.4</ele>
        <time>2022-09-06T08:51:40Z</time>
      </trkpt>
      <trkpt lat="43.07393" lon="0.39068">
        <ele>484.8</ele>
        <time>2022-09-06T08:51:45Z</time>
      </trkpt>
      <trkpt lat="43.07399" lon="0.39034">
        <ele>485.6</ele>
        <time>2022-09-06T08:51:52Z</time>
      </trkpt>
      <trkpt lat="43.074" lon="0.39029">
        <ele>485.6</ele>
        <time>2022-09-06T08:51:53Z</time>
      </trkpt>
      <trkpt lat="43.07412" lon="0.38987">
        <ele>486.4</ele>
        <time>2022-09-06T08:52:02Z</time>
      </trkpt>
      <trkpt lat="43.07418" lon="0.38974">
        <ele>486.6</ele>
        <time>2022-09-06T08:52:05Z</time>
      </trkpt>
      <trkpt lat="43.0743" lon="0.3895">
        <ele>487.8</ele>
        <time>2022-09-06T08:52:11Z</time>
      </trkpt>
      <trkpt lat="43.07444" lon="0.38926">
        <ele>488.8</ele>
        <time>2022-09-06T08:52:18Z</time>
      </trkpt>
      <trkpt lat="43.07445" lon="0.38923">
        <ele>489</ele>
        <time>2022-09-06T08:52:19Z</time>
      </trkpt>
      <trkpt lat="43.07464" lon="0.38897">
        <ele>490</ele>
        <time>2022-09-06T08:52:28Z</time>
      </trkpt>
      <trkpt lat="43.07466" lon="0.38894">
        <ele>490</ele>
        <time>2022-09-06T08:52:29Z</time>
      </trkpt>
      <trkpt lat="43.07481" lon="0.38873">
        <ele>491</ele>
        <time>2022-09-06T08:52:36Z</time>
      </trkpt>
      <trkpt lat="43.07483" lon="0.3887">
        <ele>491</ele>
        <time>2022-09-06T08:52:37Z</time>
      </trkpt>
      <trkpt lat="43.075" lon="0.38844">
        <ele>492</ele>
        <time>2022-09-06T08:52:46Z</time>
      </trkpt>
      <trkpt lat="43.07509" lon="0.38828">
        <ele>493</ele>
        <time>2022-09-06T08:52:52Z</time>
      </trkpt>
      <trkpt lat="43.07512" lon="0.38823">
        <ele>493.4</ele>
        <time>2022-09-06T08:52:54Z</time>
      </trkpt>
      <trkpt lat="43.07516" lon="0.38813">
        <ele>494.2</ele>
        <time>2022-09-06T08:52:58Z</time>
      </trkpt>
      <trkpt lat="43.07523" lon="0.38797">
        <ele>495</ele>
        <time>2022-09-06T08:53:04Z</time>
      </trkpt>
      <trkpt lat="43.07525" lon="0.38792">
        <ele>495.2</ele>
        <time>2022-09-06T08:53:06Z</time>
      </trkpt>
      <trkpt lat="43.07531" lon="0.38777">
        <ele>496</ele>
        <time>2022-09-06T08:53:12Z</time>
      </trkpt>
      <trkpt lat="43.07531" lon="0.38775">
        <ele>496.2</ele>
        <time>2022-09-06T08:53:13Z</time>
      </trkpt>
      <trkpt lat="43.07534" lon="0.38759">
        <ele>497.6</ele>
        <time>2022-09-06T08:53:20Z</time>
      </trkpt>
      <trkpt lat="43.07532" lon="0.38746">
        <ele>498.2</ele>
        <time>2022-09-06T08:53:25Z</time>
      </trkpt>
      <trkpt lat="43.07532" lon="0.38744">
        <ele>498.4</ele>
        <time>2022-09-06T08:53:26Z</time>
      </trkpt>
      <trkpt lat="43.07533" lon="0.38739">
        <ele>498.8</ele>
        <time>2022-09-06T08:53:28Z</time>
      </trkpt>
      <trkpt lat="43.07533" lon="0.38737">
        <ele>498.8</ele>
        <time>2022-09-06T08:53:29Z</time>
      </trkpt>
      <trkpt lat="43.07533" lon="0.3873">
        <ele>499.2</ele>
        <time>2022-09-06T08:53:32Z</time>
      </trkpt>
      <trkpt lat="43.07531" lon="0.38721">
        <ele>499.8</ele>
        <time>2022-09-06T08:53:36Z</time>
      </trkpt>
      <trkpt lat="43.07529" lon="0.38717">
        <ele>499.8</ele>
        <time>2022-09-06T08:53:38Z</time>
      </trkpt>
      <trkpt lat="43.07529" lon="0.38704">
        <ele>500.8</ele>
        <time>2022-09-06T08:53:44Z</time>
      </trkpt>
      <trkpt lat="43.07529" lon="0.38703">
        <ele>501</ele>
        <time>2022-09-06T08:53:45Z</time>
      </trkpt>
      <trkpt lat="43.07533" lon="0.38691">
        <ele>502</ele>
        <time>2022-09-06T08:53:51Z</time>
      </trkpt>
      <trkpt lat="43.07533" lon="0.38689">
        <ele>502.2</ele>
        <time>2022-09-06T08:53:52Z</time>
      </trkpt>
      <trkpt lat="43.07536" lon="0.38678">
        <ele>503.2</ele>
        <time>2022-09-06T08:53:57Z</time>
      </trkpt>
      <trkpt lat="43.0754" lon="0.38668">
        <ele>504.2</ele>
        <time>2022-09-06T08:54:02Z</time>
      </trkpt>
      <trkpt lat="43.0754" lon="0.38667">
        <ele>504.4</ele>
        <time>2022-09-06T08:54:03Z</time>
      </trkpt>
      <trkpt lat="43.07543" lon="0.38655">
        <ele>505.6</ele>
        <time>2022-09-06T08:54:09Z</time>
      </trkpt>
      <trkpt lat="43.07544" lon="0.38643">
        <ele>506.6</ele>
        <time>2022-09-06T08:54:15Z</time>
      </trkpt>
      <trkpt lat="43.07545" lon="0.38642">
        <ele>506.8</ele>
        <time>2022-09-06T08:54:16Z</time>
      </trkpt>
      <trkpt lat="43.07549" lon="0.38636">
        <ele>507.6</ele>
        <time>2022-09-06T08:54:20Z</time>
      </trkpt>
      <trkpt lat="43.0755" lon="0.38632">
        <ele>508</ele>
        <time>2022-09-06T08:54:22Z</time>
      </trkpt>
      <trkpt lat="43.0755" lon="0.3863">
        <ele>508.2</ele>
        <time>2022-09-06T08:54:23Z</time>
      </trkpt>
      <trkpt lat="43.0755" lon="0.38628">
        <ele>508.2</ele>
        <time>2022-09-06T08:54:24Z</time>
      </trkpt>
      <trkpt lat="43.07553" lon="0.38624">
        <ele>508.6</ele>
        <time>2022-09-06T08:54:27Z</time>
      </trkpt>
      <trkpt lat="43.07555" lon="0.38621">
        <ele>509</ele>
        <time>2022-09-06T08:54:29Z</time>
      </trkpt>
      <trkpt lat="43.07559" lon="0.38608">
        <ele>510</ele>
        <time>2022-09-06T08:54:35Z</time>
      </trkpt>
      <trkpt lat="43.0756" lon="0.38606">
        <ele>510</ele>
        <time>2022-09-06T08:54:36Z</time>
      </trkpt>
      <trkpt lat="43.07561" lon="0.38593">
        <ele>511.2</ele>
        <time>2022-09-06T08:54:42Z</time>
      </trkpt>
      <trkpt lat="43.07561" lon="0.38591">
        <ele>511.4</ele>
        <time>2022-09-06T08:54:43Z</time>
      </trkpt>
      <trkpt lat="43.07561" lon="0.38587">
        <ele>511.6</ele>
        <time>2022-09-06T08:54:45Z</time>
      </trkpt>
      <trkpt lat="43.07564" lon="0.38579">
        <ele>512</ele>
        <time>2022-09-06T08:54:49Z</time>
      </trkpt>
      <trkpt lat="43.07564" lon="0.38577">
        <ele>512.2</ele>
        <time>2022-09-06T08:54:50Z</time>
      </trkpt>
      <trkpt lat="43.07565" lon="0.38573">
        <ele>512.4</ele>
        <time>2022-09-06T08:54:52Z</time>
      </trkpt>
      <trkpt lat="43.07567" lon="0.38564">
        <ele>513.2</ele>
        <time>2022-09-06T08:54:56Z</time>
      </trkpt>
      <trkpt lat="43.07568" lon="0.38551">
        <ele>514.2</ele>
        <time>2022-09-06T08:55:02Z</time>
      </trkpt>
      <trkpt lat="43.07568" lon="0.38549">
        <ele>514.4</ele>
        <time>2022-09-06T08:55:03Z</time>
      </trkpt>
      <trkpt lat="43.0757" lon="0.38535">
        <ele>515.4</ele>
        <time>2022-09-06T08:55:09Z</time>
      </trkpt>
      <trkpt lat="43.07571" lon="0.38533">
        <ele>515.4</ele>
        <time>2022-09-06T08:55:10Z</time>
      </trkpt>
      <trkpt lat="43.07568" lon="0.38522">
        <ele>516.2</ele>
        <time>2022-09-06T08:55:15Z</time>
      </trkpt>
      <trkpt lat="43.07569" lon="0.3852">
        <ele>516.2</ele>
        <time>2022-09-06T08:55:16Z</time>
      </trkpt>
      <trkpt lat="43.0757" lon="0.38519">
        <ele>516.4</ele>
        <time>2022-09-06T08:55:17Z</time>
      </trkpt>
      <trkpt lat="43.07572" lon="0.38515">
        <ele>516.8</ele>
        <time>2022-09-06T08:55:19Z</time>
      </trkpt>
      <trkpt lat="43.07571" lon="0.38508">
        <ele>517</ele>
        <time>2022-09-06T08:55:22Z</time>
      </trkpt>
      <trkpt lat="43.07572" lon="0.38501">
        <ele>517.4</ele>
        <time>2022-09-06T08:55:25Z</time>
      </trkpt>
      <trkpt lat="43.0758" lon="0.38493">
        <ele>518.2</ele>
        <time>2022-09-06T08:55:31Z</time>
      </trkpt>
      <trkpt lat="43.07584" lon="0.38494">
        <ele>518.4</ele>
        <time>2022-09-06T08:55:33Z</time>
      </trkpt>
      <trkpt lat="43.07586" lon="0.38495">
        <ele>518.4</ele>
        <time>2022-09-06T08:55:34Z</time>
      </trkpt>
      <trkpt lat="43.0759" lon="0.38498">
        <ele>518.6</ele>
        <time>2022-09-06T08:55:36Z</time>
      </trkpt>
      <trkpt lat="43.07608" lon="0.3851">
        <ele>519.4</ele>
        <time>2022-09-06T08:55:44Z</time>
      </trkpt>
      <trkpt lat="43.0761" lon="0.38513">
        <ele>519.6</ele>
        <time>2022-09-06T08:55:45Z</time>
      </trkpt>
      <trkpt lat="43.07627" lon="0.38525">
        <ele>520.6</ele>
        <time>2022-09-06T08:55:52Z</time>
      </trkpt>
      <trkpt lat="43.0764" lon="0.38533">
        <ele>521</ele>
        <time>2022-09-06T08:55:58Z</time>
      </trkpt>
      <trkpt lat="43.07653" lon="0.38546">
        <ele>521.6</ele>
        <time>2022-09-06T08:56:04Z</time>
      </trkpt>
      <trkpt lat="43.07677" lon="0.38565">
        <ele>522.4</ele>
        <time>2022-09-06T08:56:14Z</time>
      </trkpt>
      <trkpt lat="43.07688" lon="0.38573">
        <ele>522.6</ele>
        <time>2022-09-06T08:56:18Z</time>
      </trkpt>
      <trkpt lat="43.07703" lon="0.38583">
        <ele>522.8</ele>
        <time>2022-09-06T08:56:24Z</time>
      </trkpt>
      <trkpt lat="43.07725" lon="0.3859">
        <ele>523.6</ele>
        <time>2022-09-06T08:56:32Z</time>
      </trkpt>
      <trkpt lat="43.07744" lon="0.38583">
        <ele>524</ele>
        <time>2022-09-06T08:56:39Z</time>
      </trkpt>
      <trkpt lat="43.07765" lon="0.38564">
        <ele>524.6</ele>
        <time>2022-09-06T08:56:47Z</time>
      </trkpt>
      <trkpt lat="43.0777" lon="0.38559">
        <ele>524.8</ele>
        <time>2022-09-06T08:56:49Z</time>
      </trkpt>
      <trkpt lat="43.07789" lon="0.38546">
        <ele>525.2</ele>
        <time>2022-09-06T08:56:56Z</time>
      </trkpt>
      <trkpt lat="43.07807" lon="0.38536">
        <ele>525.4</ele>
        <time>2022-09-06T08:57:02Z</time>
      </trkpt>
      <trkpt lat="43.07829" lon="0.38538">
        <ele>525</ele>
        <time>2022-09-06T08:57:09Z</time>
      </trkpt>
      <trkpt lat="43.07848" lon="0.38549">
        <ele>524.2</ele>
        <time>2022-09-06T08:57:16Z</time>
      </trkpt>
      <trkpt lat="43.07859" lon="0.38548">
        <ele>523.6</ele>
        <time>2022-09-06T08:58:52Z</time>
      </trkpt>
      <trkpt lat="43.07865" lon="0.38536">
        <ele>523.6</ele>
        <time>2022-09-06T08:58:56Z</time>
      </trkpt>
      <trkpt lat="43.07866" lon="0.38532">
        <ele>523.8</ele>
        <time>2022-09-06T08:58:57Z</time>
      </trkpt>
      <trkpt lat="43.07877" lon="0.38517">
        <ele>523.8</ele>
        <time>2022-09-06T08:59:02Z</time>
      </trkpt>
      <trkpt lat="43.07892" lon="0.38499">
        <ele>523.8</ele>
        <time>2022-09-06T08:59:08Z</time>
      </trkpt>
      <trkpt lat="43.07909" lon="0.38486">
        <ele>523.6</ele>
        <time>2022-09-06T08:59:14Z</time>
      </trkpt>
      <trkpt lat="43.07934" lon="0.3847">
        <ele>523.2</ele>
        <time>2022-09-06T08:59:22Z</time>
      </trkpt>
      <trkpt lat="43.07961" lon="0.38452">
        <ele>522.8</ele>
        <time>2022-09-06T08:59:31Z</time>
      </trkpt>
      <trkpt lat="43.07984" lon="0.38437">
        <ele>523</ele>
        <time>2022-09-06T08:59:39Z</time>
      </trkpt>
      <trkpt lat="43.08007" lon="0.3842">
        <ele>522.8</ele>
        <time>2022-09-06T08:59:46Z</time>
      </trkpt>
      <trkpt lat="43.08033" lon="0.38403">
        <ele>522.4</ele>
        <time>2022-09-06T08:59:53Z</time>
      </trkpt>
      <trkpt lat="43.08042" lon="0.38397">
        <ele>522.4</ele>
        <time>2022-09-06T08:59:56Z</time>
      </trkpt>
      <trkpt lat="43.08071" lon="0.38377">
        <ele>522.2</ele>
        <time>2022-09-06T09:00:05Z</time>
      </trkpt>
      <trkpt lat="43.08103" lon="0.38353">
        <ele>521.8</ele>
        <time>2022-09-06T09:00:16Z</time>
      </trkpt>
      <trkpt lat="43.08111" lon="0.38349">
        <ele>521.4</ele>
        <time>2022-09-06T09:00:21Z</time>
      </trkpt>
      <trkpt lat="43.08112" lon="0.3835">
        <ele>521.4</ele>
        <time>2022-09-06T09:00:22Z</time>
      </trkpt>
      <trkpt lat="43.08116" lon="0.38359">
        <ele>521.4</ele>
        <time>2022-09-06T09:00:25Z</time>
      </trkpt>
      <trkpt lat="43.08129" lon="0.38394">
        <ele>521.2</ele>
        <time>2022-09-06T09:00:35Z</time>
      </trkpt>
      <trkpt lat="43.08132" lon="0.38403">
        <ele>521.2</ele>
        <time>2022-09-06T09:00:38Z</time>
      </trkpt>
      <trkpt lat="43.08132" lon="0.38406">
        <ele>521.2</ele>
        <time>2022-09-06T09:00:39Z</time>
      </trkpt>
      <trkpt lat="43.0813" lon="0.38412">
        <ele>521</ele>
        <time>2022-09-06T09:00:44Z</time>
      </trkpt>
      <trkpt lat="43.08137" lon="0.3841">
        <ele>520.4</ele>
        <time>2022-09-06T09:12:04Z</time>
      </trkpt>
      <trkpt lat="43.08137" lon="0.38405">
        <ele>520.4</ele>
        <time>2022-09-06T09:12:06Z</time>
      </trkpt>
      <trkpt lat="43.08138" lon="0.384">
        <ele>520.4</ele>
        <time>2022-09-06T09:12:08Z</time>
      </trkpt>
      <trkpt lat="43.08137" lon="0.3839">
        <ele>520.6</ele>
        <time>2022-09-06T09:12:11Z</time>
      </trkpt>
      <trkpt lat="43.08136" lon="0.38387">
        <ele>520.6</ele>
        <time>2022-09-06T09:12:12Z</time>
      </trkpt>
      <trkpt lat="43.08125" lon="0.3837">
        <ele>520.8</ele>
        <time>2022-09-06T09:12:17Z</time>
      </trkpt>
      <trkpt lat="43.08123" lon="0.38366">
        <ele>521</ele>
        <time>2022-09-06T09:12:18Z</time>
      </trkpt>
      <trkpt lat="43.08105" lon="0.3832">
        <ele>520.8</ele>
        <time>2022-09-06T09:12:29Z</time>
      </trkpt>
      <trkpt lat="43.08096" lon="0.38295">
        <ele>521.4</ele>
        <time>2022-09-06T09:12:35Z</time>
      </trkpt>
      <trkpt lat="43.08093" lon="0.38287">
        <ele>521.4</ele>
        <time>2022-09-06T09:12:37Z</time>
      </trkpt>
      <trkpt lat="43.08075" lon="0.38247">
        <ele>521.6</ele>
        <time>2022-09-06T09:12:47Z</time>
      </trkpt>
      <trkpt lat="43.08062" lon="0.38221">
        <ele>521.8</ele>
        <time>2022-09-06T09:12:54Z</time>
      </trkpt>
      <trkpt lat="43.08044" lon="0.38187">
        <ele>521.8</ele>
        <time>2022-09-06T09:13:03Z</time>
      </trkpt>
      <trkpt lat="43.08027" lon="0.3816">
        <ele>521.8</ele>
        <time>2022-09-06T09:13:11Z</time>
      </trkpt>
      <trkpt lat="43.08013" lon="0.38147">
        <ele>522.2</ele>
        <time>2022-09-06T09:13:17Z</time>
      </trkpt>
      <trkpt lat="43.07997" lon="0.38131">
        <ele>522.4</ele>
        <time>2022-09-06T09:13:23Z</time>
      </trkpt>
      <trkpt lat="43.07994" lon="0.38129">
        <ele>522.6</ele>
        <time>2022-09-06T09:13:24Z</time>
      </trkpt>
      <trkpt lat="43.07967" lon="0.38108">
        <ele>523</ele>
        <time>2022-09-06T09:13:33Z</time>
      </trkpt>
      <trkpt lat="43.07946" lon="0.38094">
        <ele>523</ele>
        <time>2022-09-06T09:13:40Z</time>
      </trkpt>
      <trkpt lat="43.07934" lon="0.38085">
        <ele>523.2</ele>
        <time>2022-09-06T09:13:44Z</time>
      </trkpt>
      <trkpt lat="43.07926" lon="0.38078">
        <ele>523.2</ele>
        <time>2022-09-06T09:13:47Z</time>
      </trkpt>
      <trkpt lat="43.07919" lon="0.38065">
        <ele>523.4</ele>
        <time>2022-09-06T09:13:52Z</time>
      </trkpt>
      <trkpt lat="43.07919" lon="0.38047">
        <ele>523.4</ele>
        <time>2022-09-06T09:13:56Z</time>
      </trkpt>
      <trkpt lat="43.07924" lon="0.38027">
        <ele>523.6</ele>
        <time>2022-09-06T09:14:00Z</time>
      </trkpt>
      <trkpt lat="43.07926" lon="0.38022">
        <ele>523.6</ele>
        <time>2022-09-06T09:14:01Z</time>
      </trkpt>
      <trkpt lat="43.07946" lon="0.37984">
        <ele>523.4</ele>
        <time>2022-09-06T09:14:09Z</time>
      </trkpt>
      <trkpt lat="43.07965" lon="0.37955">
        <ele>523.4</ele>
        <time>2022-09-06T09:14:16Z</time>
      </trkpt>
      <trkpt lat="43.07969" lon="0.37951">
        <ele>523.4</ele>
        <time>2022-09-06T09:14:17Z</time>
      </trkpt>
      <trkpt lat="43.07983" lon="0.37928">
        <ele>523.4</ele>
        <time>2022-09-06T09:14:22Z</time>
      </trkpt>
      <trkpt lat="43.08009" lon="0.37887">
        <ele>524</ele>
        <time>2022-09-06T09:14:31Z</time>
      </trkpt>
      <trkpt lat="43.08033" lon="0.3785">
        <ele>524.2</ele>
        <time>2022-09-06T09:14:39Z</time>
      </trkpt>
      <trkpt lat="43.08054" lon="0.37817">
        <ele>524.4</ele>
        <time>2022-09-06T09:14:46Z</time>
      </trkpt>
      <trkpt lat="43.08071" lon="0.37788">
        <ele>524.6</ele>
        <time>2022-09-06T09:14:52Z</time>
      </trkpt>
      <trkpt lat="43.08077" lon="0.37779">
        <ele>524.4</ele>
        <time>2022-09-06T09:14:54Z</time>
      </trkpt>
      <trkpt lat="43.08096" lon="0.3775">
        <ele>525.6</ele>
        <time>2022-09-06T09:15:02Z</time>
      </trkpt>
      <trkpt lat="43.08114" lon="0.37721">
        <ele>526.8</ele>
        <time>2022-09-06T09:15:10Z</time>
      </trkpt>
      <trkpt lat="43.08118" lon="0.37715">
        <ele>527.2</ele>
        <time>2022-09-06T09:15:12Z</time>
      </trkpt>
      <trkpt lat="43.08127" lon="0.37701">
        <ele>527.8</ele>
        <time>2022-09-06T09:15:17Z</time>
      </trkpt>
      <trkpt lat="43.08133" lon="0.3769">
        <ele>528.4</ele>
        <time>2022-09-06T09:15:21Z</time>
      </trkpt>
      <trkpt lat="43.08137" lon="0.37684">
        <ele>528.8</ele>
        <time>2022-09-06T09:15:23Z</time>
      </trkpt>
      <trkpt lat="43.08148" lon="0.37664">
        <ele>529.6</ele>
        <time>2022-09-06T09:15:30Z</time>
      </trkpt>
      <trkpt lat="43.08149" lon="0.37662">
        <ele>529.8</ele>
        <time>2022-09-06T09:15:31Z</time>
      </trkpt>
      <trkpt lat="43.08161" lon="0.37644">
        <ele>531</ele>
        <time>2022-09-06T09:15:38Z</time>
      </trkpt>
      <trkpt lat="43.08171" lon="0.37627">
        <ele>532</ele>
        <time>2022-09-06T09:15:45Z</time>
      </trkpt>
      <trkpt lat="43.08174" lon="0.37622">
        <ele>532.2</ele>
        <time>2022-09-06T09:15:47Z</time>
      </trkpt>
      <trkpt lat="43.08184" lon="0.37607">
        <ele>533</ele>
        <time>2022-09-06T09:15:53Z</time>
      </trkpt>
      <trkpt lat="43.08187" lon="0.37602">
        <ele>533.4</ele>
        <time>2022-09-06T09:15:55Z</time>
      </trkpt>
      <trkpt lat="43.08196" lon="0.37587">
        <ele>534</ele>
        <time>2022-09-06T09:16:01Z</time>
      </trkpt>
      <trkpt lat="43.08199" lon="0.37582">
        <ele>534.4</ele>
        <time>2022-09-06T09:16:03Z</time>
      </trkpt>
      <trkpt lat="43.08208" lon="0.37568">
        <ele>535.2</ele>
        <time>2022-09-06T09:16:09Z</time>
      </trkpt>
      <trkpt lat="43.08213" lon="0.3756">
        <ele>535.8</ele>
        <time>2022-09-06T09:16:12Z</time>
      </trkpt>
      <trkpt lat="43.08217" lon="0.37552">
        <ele>536.2</ele>
        <time>2022-09-06T09:16:15Z</time>
      </trkpt>
      <trkpt lat="43.08223" lon="0.37537">
        <ele>536.8</ele>
        <time>2022-09-06T09:16:20Z</time>
      </trkpt>
      <trkpt lat="43.08227" lon="0.37528">
        <ele>537.4</ele>
        <time>2022-09-06T09:16:23Z</time>
      </trkpt>
      <trkpt lat="43.08232" lon="0.37513">
        <ele>537.8</ele>
        <time>2022-09-06T09:16:28Z</time>
      </trkpt>
      <trkpt lat="43.08236" lon="0.37497">
        <ele>538.4</ele>
        <time>2022-09-06T09:16:33Z</time>
      </trkpt>
      <trkpt lat="43.0824" lon="0.37481">
        <ele>538.8</ele>
        <time>2022-09-06T09:16:38Z</time>
      </trkpt>
      <trkpt lat="43.08241" lon="0.37467">
        <ele>539.6</ele>
        <time>2022-09-06T09:16:42Z</time>
      </trkpt>
      <trkpt lat="43.08245" lon="0.37452">
        <ele>540</ele>
        <time>2022-09-06T09:16:47Z</time>
      </trkpt>
      <trkpt lat="43.08247" lon="0.37434">
        <ele>540.6</ele>
        <time>2022-09-06T09:16:52Z</time>
      </trkpt>
      <trkpt lat="43.0825" lon="0.37415">
        <ele>541.4</ele>
        <time>2022-09-06T09:16:57Z</time>
      </trkpt>
      <trkpt lat="43.08253" lon="0.37399">
        <ele>541.8</ele>
        <time>2022-09-06T09:17:01Z</time>
      </trkpt>
      <trkpt lat="43.08255" lon="0.3738">
        <ele>542.2</ele>
        <time>2022-09-06T09:17:06Z</time>
      </trkpt>
      <trkpt lat="43.08259" lon="0.37352">
        <ele>542.8</ele>
        <time>2022-09-06T09:17:13Z</time>
      </trkpt>
      <trkpt lat="43.08259" lon="0.37343">
        <ele>543.2</ele>
        <time>2022-09-06T09:17:15Z</time>
      </trkpt>
      <trkpt lat="43.08263" lon="0.37312">
        <ele>543.4</ele>
        <time>2022-09-06T09:17:23Z</time>
      </trkpt>
      <trkpt lat="43.08268" lon="0.37286">
        <ele>544</ele>
        <time>2022-09-06T09:17:30Z</time>
      </trkpt>
      <trkpt lat="43.08271" lon="0.37279">
        <ele>544</ele>
        <time>2022-09-06T09:17:32Z</time>
      </trkpt>
      <trkpt lat="43.08286" lon="0.37267">
        <ele>544.8</ele>
        <time>2022-09-06T09:17:38Z</time>
      </trkpt>
      <trkpt lat="43.08288" lon="0.37267">
        <ele>545</ele>
        <time>2022-09-06T09:17:39Z</time>
      </trkpt>
      <trkpt lat="43.08304" lon="0.37269">
        <ele>545.4</ele>
        <time>2022-09-06T09:17:44Z</time>
      </trkpt>
      <trkpt lat="43.08318" lon="0.37261">
        <ele>545.4</ele>
        <time>2022-09-06T09:17:48Z</time>
      </trkpt>
      <trkpt lat="43.08323" lon="0.37252">
        <ele>545.4</ele>
        <time>2022-09-06T09:17:50Z</time>
      </trkpt>
      <trkpt lat="43.08325" lon="0.37242">
        <ele>545.6</ele>
        <time>2022-09-06T09:17:52Z</time>
      </trkpt>
      <trkpt lat="43.08322" lon="0.37223">
        <ele>545.8</ele>
        <time>2022-09-06T09:17:56Z</time>
      </trkpt>
      <trkpt lat="43.08315" lon="0.37213">
        <ele>546.2</ele>
        <time>2022-09-06T09:17:59Z</time>
      </trkpt>
      <trkpt lat="43.08309" lon="0.37208">
        <ele>546.2</ele>
        <time>2022-09-06T09:18:01Z</time>
      </trkpt>
      <trkpt lat="43.08296" lon="0.37187">
        <ele>547.2</ele>
        <time>2022-09-06T09:18:08Z</time>
      </trkpt>
      <trkpt lat="43.0829" lon="0.3717">
        <ele>548.2</ele>
        <time>2022-09-06T09:18:13Z</time>
      </trkpt>
      <trkpt lat="43.08287" lon="0.37163">
        <ele>548.4</ele>
        <time>2022-09-06T09:18:15Z</time>
      </trkpt>
      <trkpt lat="43.08279" lon="0.37132">
        <ele>549</ele>
        <time>2022-09-06T09:18:24Z</time>
      </trkpt>
      <trkpt lat="43.08278" lon="0.37126">
        <ele>549.4</ele>
        <time>2022-09-06T09:18:26Z</time>
      </trkpt>
      <trkpt lat="43.08273" lon="0.37104">
        <ele>550.2</ele>
        <time>2022-09-06T09:18:33Z</time>
      </trkpt>
      <trkpt lat="43.08272" lon="0.37101">
        <ele>550.6</ele>
        <time>2022-09-06T09:18:34Z</time>
      </trkpt>
      <trkpt lat="43.0827" lon="0.37091">
        <ele>551.6</ele>
        <time>2022-09-06T09:18:37Z</time>
      </trkpt>
      <trkpt lat="43.08267" lon="0.37076">
        <ele>552.2</ele>
        <time>2022-09-06T09:18:42Z</time>
      </trkpt>
      <trkpt lat="43.08266" lon="0.37068">
        <ele>552.8</ele>
        <time>2022-09-06T09:18:45Z</time>
      </trkpt>
      <trkpt lat="43.08263" lon="0.37051">
        <ele>554</ele>
        <time>2022-09-06T09:18:51Z</time>
      </trkpt>
      <trkpt lat="43.08263" lon="0.37048">
        <ele>554.2</ele>
        <time>2022-09-06T09:18:52Z</time>
      </trkpt>
      <trkpt lat="43.08261" lon="0.37032">
        <ele>555.2</ele>
        <time>2022-09-06T09:18:58Z</time>
      </trkpt>
      <trkpt lat="43.0826" lon="0.37024">
        <ele>555.4</ele>
        <time>2022-09-06T09:19:01Z</time>
      </trkpt>
      <trkpt lat="43.08257" lon="0.37009">
        <ele>556.2</ele>
        <time>2022-09-06T09:19:06Z</time>
      </trkpt>
      <trkpt lat="43.08255" lon="0.36998">
        <ele>556.6</ele>
        <time>2022-09-06T09:19:10Z</time>
      </trkpt>
      <trkpt lat="43.08254" lon="0.36989">
        <ele>557.2</ele>
        <time>2022-09-06T09:19:13Z</time>
      </trkpt>
      <trkpt lat="43.08252" lon="0.36969">
        <ele>558.2</ele>
        <time>2022-09-06T09:19:20Z</time>
      </trkpt>
      <trkpt lat="43.08251" lon="0.36966">
        <ele>558.4</ele>
        <time>2022-09-06T09:19:21Z</time>
      </trkpt>
      <trkpt lat="43.0825" lon="0.36958">
        <ele>558.8</ele>
        <time>2022-09-06T09:19:24Z</time>
      </trkpt>
      <trkpt lat="43.08249" lon="0.36947">
        <ele>559.4</ele>
        <time>2022-09-06T09:19:28Z</time>
      </trkpt>
      <trkpt lat="43.08248" lon="0.36938">
        <ele>559.8</ele>
        <time>2022-09-06T09:19:31Z</time>
      </trkpt>
      <trkpt lat="43.08245" lon="0.36918">
        <ele>560.6</ele>
        <time>2022-09-06T09:19:38Z</time>
      </trkpt>
      <trkpt lat="43.08244" lon="0.3691">
        <ele>561</ele>
        <time>2022-09-06T09:19:41Z</time>
      </trkpt>
      <trkpt lat="43.08242" lon="0.36901">
        <ele>561.6</ele>
        <time>2022-09-06T09:19:44Z</time>
      </trkpt>
      <trkpt lat="43.0824" lon="0.36883">
        <ele>562.2</ele>
        <time>2022-09-06T09:19:50Z</time>
      </trkpt>
      <trkpt lat="43.08236" lon="0.36863">
        <ele>562.6</ele>
        <time>2022-09-06T09:19:57Z</time>
      </trkpt>
      <trkpt lat="43.08235" lon="0.36854">
        <ele>562.8</ele>
        <time>2022-09-06T09:20:00Z</time>
      </trkpt>
      <trkpt lat="43.08231" lon="0.3683">
        <ele>563.6</ele>
        <time>2022-09-06T09:20:07Z</time>
      </trkpt>
      <trkpt lat="43.08231" lon="0.36826">
        <ele>563.6</ele>
        <time>2022-09-06T09:20:08Z</time>
      </trkpt>
      <trkpt lat="43.08227" lon="0.36796">
        <ele>564.8</ele>
        <time>2022-09-06T09:20:16Z</time>
      </trkpt>
      <trkpt lat="43.08227" lon="0.36792">
        <ele>565</ele>
        <time>2022-09-06T09:20:17Z</time>
      </trkpt>
      <trkpt lat="43.08221" lon="0.36765">
        <ele>565.6</ele>
        <time>2022-09-06T09:20:24Z</time>
      </trkpt>
      <trkpt lat="43.08219" lon="0.36757">
        <ele>566</ele>
        <time>2022-09-06T09:20:26Z</time>
      </trkpt>
      <trkpt lat="43.08211" lon="0.3673">
        <ele>566.4</ele>
        <time>2022-09-06T09:20:33Z</time>
      </trkpt>
      <trkpt lat="43.08204" lon="0.36711">
        <ele>567</ele>
        <time>2022-09-06T09:20:38Z</time>
      </trkpt>
      <trkpt lat="43.08199" lon="0.36701">
        <ele>567.2</ele>
        <time>2022-09-06T09:20:41Z</time>
      </trkpt>
      <trkpt lat="43.08188" lon="0.36679">
        <ele>568</ele>
        <time>2022-09-06T09:20:47Z</time>
      </trkpt>
      <trkpt lat="43.0818" lon="0.36665">
        <ele>568.2</ele>
        <time>2022-09-06T09:20:51Z</time>
      </trkpt>
      <trkpt lat="43.08166" lon="0.36642">
        <ele>569</ele>
        <time>2022-09-06T09:20:58Z</time>
      </trkpt>
      <trkpt lat="43.08149" lon="0.36615">
        <ele>569.8</ele>
        <time>2022-09-06T09:21:06Z</time>
      </trkpt>
      <trkpt lat="43.08142" lon="0.36605">
        <ele>570.4</ele>
        <time>2022-09-06T09:21:09Z</time>
      </trkpt>
      <trkpt lat="43.08126" lon="0.3658">
        <ele>570.8</ele>
        <time>2022-09-06T09:21:16Z</time>
      </trkpt>
      <trkpt lat="43.08117" lon="0.36566">
        <ele>571.4</ele>
        <time>2022-09-06T09:21:20Z</time>
      </trkpt>
      <trkpt lat="43.08107" lon="0.36548">
        <ele>572.2</ele>
        <time>2022-09-06T09:21:25Z</time>
      </trkpt>
      <trkpt lat="43.08102" lon="0.36542">
        <ele>572.6</ele>
        <time>2022-09-06T09:21:27Z</time>
      </trkpt>
      <trkpt lat="43.08086" lon="0.36515">
        <ele>572.8</ele>
        <time>2022-09-06T09:21:35Z</time>
      </trkpt>
      <trkpt lat="43.08074" lon="0.36495">
        <ele>573.6</ele>
        <time>2022-09-06T09:21:41Z</time>
      </trkpt>
      <trkpt lat="43.08073" lon="0.36492">
        <ele>573.6</ele>
        <time>2022-09-06T09:21:42Z</time>
      </trkpt>
      <trkpt lat="43.08063" lon="0.36467">
        <ele>574.6</ele>
        <time>2022-09-06T09:21:49Z</time>
      </trkpt>
      <trkpt lat="43.08061" lon="0.36464">
        <ele>574.4</ele>
        <time>2022-09-06T09:21:50Z</time>
      </trkpt>
      <trkpt lat="43.08059" lon="0.36456">
        <ele>574.6</ele>
        <time>2022-09-06T09:21:52Z</time>
      </trkpt>
      <trkpt lat="43.08054" lon="0.36434">
        <ele>575.4</ele>
        <time>2022-09-06T09:21:58Z</time>
      </trkpt>
      <trkpt lat="43.08051" lon="0.36427">
        <ele>575.6</ele>
        <time>2022-09-06T09:22:00Z</time>
      </trkpt>
      <trkpt lat="43.08047" lon="0.36401">
        <ele>576.8</ele>
        <time>2022-09-06T09:22:07Z</time>
      </trkpt>
      <trkpt lat="43.08043" lon="0.3638">
        <ele>577.8</ele>
        <time>2022-09-06T09:22:13Z</time>
      </trkpt>
      <trkpt lat="43.08043" lon="0.36369">
        <ele>578.8</ele>
        <time>2022-09-06T09:22:16Z</time>
      </trkpt>
      <trkpt lat="43.08043" lon="0.36366">
        <ele>579.2</ele>
        <time>2022-09-06T09:22:17Z</time>
      </trkpt>
      <trkpt lat="43.08044" lon="0.36338">
        <ele>578.8</ele>
        <time>2022-09-06T09:22:25Z</time>
      </trkpt>
      <trkpt lat="43.08053" lon="0.36321">
        <ele>579.4</ele>
        <time>2022-09-06T09:22:31Z</time>
      </trkpt>
      <trkpt lat="43.08066" lon="0.36307">
        <ele>579.8</ele>
        <time>2022-09-06T09:22:37Z</time>
      </trkpt>
      <trkpt lat="43.08067" lon="0.36304">
        <ele>579.8</ele>
        <time>2022-09-06T09:22:38Z</time>
      </trkpt>
      <trkpt lat="43.08069" lon="0.36288">
        <ele>580</ele>
        <time>2022-09-06T09:22:42Z</time>
      </trkpt>
      <trkpt lat="43.08063" lon="0.36267">
        <ele>580</ele>
        <time>2022-09-06T09:22:47Z</time>
      </trkpt>
      <trkpt lat="43.08052" lon="0.36258">
        <ele>580.2</ele>
        <time>2022-09-06T09:22:51Z</time>
      </trkpt>
      <trkpt lat="43.08032" lon="0.36239">
        <ele>580.6</ele>
        <time>2022-09-06T09:22:58Z</time>
      </trkpt>
      <trkpt lat="43.08025" lon="0.36223">
        <ele>581</ele>
        <time>2022-09-06T09:23:02Z</time>
      </trkpt>
      <trkpt lat="43.08023" lon="0.36213">
        <ele>581.6</ele>
        <time>2022-09-06T09:23:05Z</time>
      </trkpt>
      <trkpt lat="43.08022" lon="0.36195">
        <ele>582.2</ele>
        <time>2022-09-06T09:23:10Z</time>
      </trkpt>
      <trkpt lat="43.08021" lon="0.36188">
        <ele>582.6</ele>
        <time>2022-09-06T09:23:12Z</time>
      </trkpt>
      <trkpt lat="43.0802" lon="0.36171">
        <ele>583.4</ele>
        <time>2022-09-06T09:23:17Z</time>
      </trkpt>
      <trkpt lat="43.08021" lon="0.36161">
        <ele>583.4</ele>
        <time>2022-09-06T09:23:20Z</time>
      </trkpt>
      <trkpt lat="43.08025" lon="0.36141">
        <ele>584.4</ele>
        <time>2022-09-06T09:23:26Z</time>
      </trkpt>
      <trkpt lat="43.08026" lon="0.36135">
        <ele>584.4</ele>
        <time>2022-09-06T09:23:28Z</time>
      </trkpt>
      <trkpt lat="43.08029" lon="0.36119">
        <ele>585.4</ele>
        <time>2022-09-06T09:23:33Z</time>
      </trkpt>
      <trkpt lat="43.08032" lon="0.36108">
        <ele>586</ele>
        <time>2022-09-06T09:23:37Z</time>
      </trkpt>
      <trkpt lat="43.08038" lon="0.361">
        <ele>586.6</ele>
        <time>2022-09-06T09:23:41Z</time>
      </trkpt>
      <trkpt lat="43.08043" lon="0.3609">
        <ele>587</ele>
        <time>2022-09-06T09:23:45Z</time>
      </trkpt>
      <trkpt lat="43.08049" lon="0.36083">
        <ele>587.6</ele>
        <time>2022-09-06T09:23:49Z</time>
      </trkpt>
      <trkpt lat="43.08054" lon="0.3608">
        <ele>588.2</ele>
        <time>2022-09-06T09:23:52Z</time>
      </trkpt>
      <trkpt lat="43.08058" lon="0.36082">
        <ele>588.2</ele>
        <time>2022-09-06T09:23:57Z</time>
      </trkpt>
      <trkpt lat="43.08062" lon="0.36076">
        <ele>588.6</ele>
        <time>2022-09-06T09:25:01Z</time>
      </trkpt>
      <trkpt lat="43.08063" lon="0.36071">
        <ele>589</ele>
        <time>2022-09-06T09:25:03Z</time>
      </trkpt>
      <trkpt lat="43.08068" lon="0.36056">
        <ele>589.2</ele>
        <time>2022-09-06T09:25:07Z</time>
      </trkpt>
      <trkpt lat="43.08069" lon="0.36052">
        <ele>589.2</ele>
        <time>2022-09-06T09:25:08Z</time>
      </trkpt>
      <trkpt lat="43.0808" lon="0.36019">
        <ele>589.8</ele>
        <time>2022-09-06T09:25:16Z</time>
      </trkpt>
      <trkpt lat="43.08083" lon="0.35984">
        <ele>590.6</ele>
        <time>2022-09-06T09:25:23Z</time>
      </trkpt>
      <trkpt lat="43.08081" lon="0.35958">
        <ele>590.8</ele>
        <time>2022-09-06T09:25:28Z</time>
      </trkpt>
      <trkpt lat="43.08076" lon="0.35943">
        <ele>591</ele>
        <time>2022-09-06T09:25:31Z</time>
      </trkpt>
      <trkpt lat="43.08062" lon="0.35909">
        <ele>591.8</ele>
        <time>2022-09-06T09:25:39Z</time>
      </trkpt>
      <trkpt lat="43.0806" lon="0.35905">
        <ele>592</ele>
        <time>2022-09-06T09:25:40Z</time>
      </trkpt>
      <trkpt lat="43.08042" lon="0.35875">
        <ele>592.8</ele>
        <time>2022-09-06T09:25:48Z</time>
      </trkpt>
      <trkpt lat="43.0804" lon="0.35872">
        <ele>593</ele>
        <time>2022-09-06T09:25:49Z</time>
      </trkpt>
      <trkpt lat="43.08028" lon="0.35843">
        <ele>593.4</ele>
        <time>2022-09-06T09:25:56Z</time>
      </trkpt>
      <trkpt lat="43.08021" lon="0.358">
        <ele>593.8</ele>
        <time>2022-09-06T09:26:05Z</time>
      </trkpt>
      <trkpt lat="43.08021" lon="0.35785">
        <ele>594</ele>
        <time>2022-09-06T09:26:08Z</time>
      </trkpt>
      <trkpt lat="43.08021" lon="0.35764">
        <ele>595</ele>
        <time>2022-09-06T09:26:12Z</time>
      </trkpt>
      <trkpt lat="43.08023" lon="0.35716">
        <ele>596</ele>
        <time>2022-09-06T09:26:22Z</time>
      </trkpt>
      <trkpt lat="43.08023" lon="0.35711">
        <ele>596.2</ele>
        <time>2022-09-06T09:26:23Z</time>
      </trkpt>
      <trkpt lat="43.08024" lon="0.35674">
        <ele>597</ele>
        <time>2022-09-06T09:26:31Z</time>
      </trkpt>
      <trkpt lat="43.08024" lon="0.35669">
        <ele>597.2</ele>
        <time>2022-09-06T09:26:32Z</time>
      </trkpt>
      <trkpt lat="43.08025" lon="0.35637">
        <ele>597.8</ele>
        <time>2022-09-06T09:26:39Z</time>
      </trkpt>
      <trkpt lat="43.08025" lon="0.35598">
        <ele>598.2</ele>
        <time>2022-09-06T09:26:47Z</time>
      </trkpt>
      <trkpt lat="43.08025" lon="0.35589">
        <ele>598.6</ele>
        <time>2022-09-06T09:26:49Z</time>
      </trkpt>
      <trkpt lat="43.08026" lon="0.35556">
        <ele>599.4</ele>
        <time>2022-09-06T09:26:56Z</time>
      </trkpt>
      <trkpt lat="43.08025" lon="0.35536">
        <ele>599.2</ele>
        <time>2022-09-06T09:27:00Z</time>
      </trkpt>
      <trkpt lat="43.08027" lon="0.35496">
        <ele>599.8</ele>
        <time>2022-09-06T09:27:08Z</time>
      </trkpt>
      <trkpt lat="43.08032" lon="0.35446">
        <ele>600.2</ele>
        <time>2022-09-06T09:27:18Z</time>
      </trkpt>
      <trkpt lat="43.08033" lon="0.35421">
        <ele>600.4</ele>
        <time>2022-09-06T09:27:24Z</time>
      </trkpt>
      <trkpt lat="43.08032" lon="0.35412">
        <ele>600.6</ele>
        <time>2022-09-06T09:27:26Z</time>
      </trkpt>
      <trkpt lat="43.08025" lon="0.35387">
        <ele>600.8</ele>
        <time>2022-09-06T09:27:33Z</time>
      </trkpt>
      <trkpt lat="43.08019" lon="0.35363">
        <ele>600.2</ele>
        <time>2022-09-06T09:27:40Z</time>
      </trkpt>
      <trkpt lat="43.08012" lon="0.35332">
        <ele>600.2</ele>
        <time>2022-09-06T09:27:48Z</time>
      </trkpt>
      <trkpt lat="43.08008" lon="0.35309">
        <ele>599.8</ele>
        <time>2022-09-06T09:27:54Z</time>
      </trkpt>
      <trkpt lat="43.08001" lon="0.35277">
        <ele>599.6</ele>
        <time>2022-09-06T09:28:01Z</time>
      </trkpt>
      <trkpt lat="43.07998" lon="0.35264">
        <ele>599.4</ele>
        <time>2022-09-06T09:28:04Z</time>
      </trkpt>
      <trkpt lat="43.07996" lon="0.35248">
        <ele>599.4</ele>
        <time>2022-09-06T09:28:07Z</time>
      </trkpt>
      <trkpt lat="43.07987" lon="0.35207">
        <ele>598.8</ele>
        <time>2022-09-06T09:28:15Z</time>
      </trkpt>
      <trkpt lat="43.0798" lon="0.35175">
        <ele>598.4</ele>
        <time>2022-09-06T09:28:21Z</time>
      </trkpt>
      <trkpt lat="43.07971" lon="0.35133">
        <ele>598</ele>
        <time>2022-09-06T09:28:28Z</time>
      </trkpt>
      <trkpt lat="43.07962" lon="0.35086">
        <ele>597</ele>
        <time>2022-09-06T09:28:35Z</time>
      </trkpt>
      <trkpt lat="43.07956" lon="0.35057">
        <ele>596</ele>
        <time>2022-09-06T09:28:40Z</time>
      </trkpt>
      <trkpt lat="43.07955" lon="0.3505">
        <ele>595.8</ele>
        <time>2022-09-06T09:28:41Z</time>
      </trkpt>
      <trkpt lat="43.07945" lon="0.35016">
        <ele>595</ele>
        <time>2022-09-06T09:28:46Z</time>
      </trkpt>
      <trkpt lat="43.07943" lon="0.35007">
        <ele>594.8</ele>
        <time>2022-09-06T09:28:47Z</time>
      </trkpt>
      <trkpt lat="43.07938" lon="0.34983">
        <ele>594</ele>
        <time>2022-09-06T09:28:50Z</time>
      </trkpt>
      <trkpt lat="43.0793" lon="0.34949">
        <ele>592.8</ele>
        <time>2022-09-06T09:28:54Z</time>
      </trkpt>
      <trkpt lat="43.07922" lon="0.34909">
        <ele>591.8</ele>
        <time>2022-09-06T09:28:58Z</time>
      </trkpt>
      <trkpt lat="43.07918" lon="0.34888">
        <ele>591</ele>
        <time>2022-09-06T09:29:00Z</time>
      </trkpt>
      <trkpt lat="43.07916" lon="0.34877">
        <ele>590.4</ele>
        <time>2022-09-06T09:29:01Z</time>
      </trkpt>
      <trkpt lat="43.07911" lon="0.3485">
        <ele>589.4</ele>
        <time>2022-09-06T09:29:04Z</time>
      </trkpt>
      <trkpt lat="43.0791" lon="0.34843">
        <ele>588.8</ele>
        <time>2022-09-06T09:29:05Z</time>
      </trkpt>
      <trkpt lat="43.07909" lon="0.34831">
        <ele>588.2</ele>
        <time>2022-09-06T09:29:07Z</time>
      </trkpt>
      <trkpt lat="43.07909" lon="0.3482">
        <ele>587.4</ele>
        <time>2022-09-06T09:29:09Z</time>
      </trkpt>
      <trkpt lat="43.0791" lon="0.3481">
        <ele>587</ele>
        <time>2022-09-06T09:29:11Z</time>
      </trkpt>
      <trkpt lat="43.0791" lon="0.34795">
        <ele>586.2</ele>
        <time>2022-09-06T09:29:14Z</time>
      </trkpt>
      <trkpt lat="43.0791" lon="0.34792">
        <ele>586</ele>
        <time>2022-09-06T09:29:15Z</time>
      </trkpt>
      <trkpt lat="43.0791" lon="0.34786">
        <ele>585.8</ele>
        <time>2022-09-06T09:29:16Z</time>
      </trkpt>
      <trkpt lat="43.07911" lon="0.3477">
        <ele>584.8</ele>
        <time>2022-09-06T09:29:21Z</time>
      </trkpt>
      <trkpt lat="43.0791" lon="0.34767">
        <ele>585</ele>
        <time>2022-09-06T09:30:18Z</time>
      </trkpt>
      <trkpt lat="43.07909" lon="0.34771">
        <ele>585.2</ele>
        <time>2022-09-06T09:30:20Z</time>
      </trkpt>
      <trkpt lat="43.07908" lon="0.34782">
        <ele>585.8</ele>
        <time>2022-09-06T09:30:25Z</time>
      </trkpt>
      <trkpt lat="43.07908" lon="0.34792">
        <ele>586.2</ele>
        <time>2022-09-06T09:30:29Z</time>
      </trkpt>
      <trkpt lat="43.07908" lon="0.34805">
        <ele>587</ele>
        <time>2022-09-06T09:30:35Z</time>
      </trkpt>
      <trkpt lat="43.07909" lon="0.34806">
        <ele>587</ele>
        <time>2022-09-06T09:30:36Z</time>
      </trkpt>
      <trkpt lat="43.07909" lon="0.34808">
        <ele>587.2</ele>
        <time>2022-09-06T09:30:37Z</time>
      </trkpt>
      <trkpt lat="43.07912" lon="0.34808">
        <ele>587</ele>
        <time>2022-09-06T09:30:40Z</time>
      </trkpt>
      <trkpt lat="43.07913" lon="0.34808">
        <ele>586.8</ele>
        <time>2022-09-06T09:30:41Z</time>
      </trkpt>
      <trkpt lat="43.07916" lon="0.34805">
        <ele>586.8</ele>
        <time>2022-09-06T09:30:44Z</time>
      </trkpt>
      <trkpt lat="43.07919" lon="0.34803">
        <ele>586.6</ele>
        <time>2022-09-06T09:30:46Z</time>
      </trkpt>
      <trkpt lat="43.0792" lon="0.34801">
        <ele>586.4</ele>
        <time>2022-09-06T09:30:47Z</time>
      </trkpt>
      <trkpt lat="43.07922" lon="0.34794">
        <ele>586.2</ele>
        <time>2022-09-06T09:30:50Z</time>
      </trkpt>
      <trkpt lat="43.07923" lon="0.34789">
        <ele>585.8</ele>
        <time>2022-09-06T09:30:52Z</time>
      </trkpt>
      <trkpt lat="43.07924" lon="0.34787">
        <ele>585.6</ele>
        <time>2022-09-06T09:30:53Z</time>
      </trkpt>
      <trkpt lat="43.07929" lon="0.34773">
        <ele>584.6</ele>
        <time>2022-09-06T09:30:58Z</time>
      </trkpt>
      <trkpt lat="43.07932" lon="0.34767">
        <ele>584</ele>
        <time>2022-09-06T09:31:00Z</time>
      </trkpt>
      <trkpt lat="43.07938" lon="0.3476">
        <ele>583.6</ele>
        <time>2022-09-06T09:31:03Z</time>
      </trkpt>
      <trkpt lat="43.07941" lon="0.34753">
        <ele>583.2</ele>
        <time>2022-09-06T09:31:05Z</time>
      </trkpt>
      <trkpt lat="43.07949" lon="0.34737">
        <ele>582.8</ele>
        <time>2022-09-06T09:31:09Z</time>
      </trkpt>
      <trkpt lat="43.07954" lon="0.3473">
        <ele>582.2</ele>
        <time>2022-09-06T09:31:11Z</time>
      </trkpt>
      <trkpt lat="43.07963" lon="0.34717">
        <ele>581.2</ele>
        <time>2022-09-06T09:31:15Z</time>
      </trkpt>
      <trkpt lat="43.07971" lon="0.34705">
        <ele>580.2</ele>
        <time>2022-09-06T09:31:19Z</time>
      </trkpt>
      <trkpt lat="43.07973" lon="0.34702">
        <ele>580</ele>
        <time>2022-09-06T09:31:20Z</time>
      </trkpt>
      <trkpt lat="43.07982" lon="0.34694">
        <ele>578.8</ele>
        <time>2022-09-06T09:31:26Z</time>
      </trkpt>
      <trkpt lat="43.07984" lon="0.34691">
        <ele>578.4</ele>
        <time>2022-09-06T09:31:27Z</time>
      </trkpt>
      <trkpt lat="43.07994" lon="0.34683">
        <ele>578</ele>
        <time>2022-09-06T09:31:32Z</time>
      </trkpt>
      <trkpt lat="43.07999" lon="0.34677">
        <ele>577.6</ele>
        <time>2022-09-06T09:31:36Z</time>
      </trkpt>
      <trkpt lat="43.08" lon="0.34675">
        <ele>577.6</ele>
        <time>2022-09-06T09:31:37Z</time>
      </trkpt>
      <trkpt lat="43.08008" lon="0.34659">
        <ele>576.6</ele>
        <time>2022-09-06T09:31:43Z</time>
      </trkpt>
      <trkpt lat="43.08009" lon="0.34657">
        <ele>576.2</ele>
        <time>2022-09-06T09:31:44Z</time>
      </trkpt>
      <trkpt lat="43.08011" lon="0.34646">
        <ele>575.4</ele>
        <time>2022-09-06T09:31:47Z</time>
      </trkpt>
      <trkpt lat="43.08012" lon="0.34639">
        <ele>574.2</ele>
        <time>2022-09-06T09:31:49Z</time>
      </trkpt>
      <trkpt lat="43.08014" lon="0.34631">
        <ele>573.4</ele>
        <time>2022-09-06T09:31:51Z</time>
      </trkpt>
      <trkpt lat="43.08015" lon="0.34626">
        <ele>572.8</ele>
        <time>2022-09-06T09:31:52Z</time>
      </trkpt>
      <trkpt lat="43.08016" lon="0.34617">
        <ele>571.4</ele>
        <time>2022-09-06T09:31:55Z</time>
      </trkpt>
      <trkpt lat="43.08017" lon="0.34614">
        <ele>571</ele>
        <time>2022-09-06T09:31:56Z</time>
      </trkpt>
      <trkpt lat="43.08018" lon="0.34611">
        <ele>570.4</ele>
        <time>2022-09-06T09:31:57Z</time>
      </trkpt>
      <trkpt lat="43.08019" lon="0.34604">
        <ele>569.4</ele>
        <time>2022-09-06T09:31:59Z</time>
      </trkpt>
      <trkpt lat="43.08019" lon="0.34601">
        <ele>569.2</ele>
        <time>2022-09-06T09:32:00Z</time>
      </trkpt>
      <trkpt lat="43.08019" lon="0.34598">
        <ele>568.6</ele>
        <time>2022-09-06T09:32:01Z</time>
      </trkpt>
      <trkpt lat="43.08019" lon="0.34592">
        <ele>567.8</ele>
        <time>2022-09-06T09:32:03Z</time>
      </trkpt>
      <trkpt lat="43.0802" lon="0.34584">
        <ele>566.8</ele>
        <time>2022-09-06T09:32:05Z</time>
      </trkpt>
      <trkpt lat="43.0802" lon="0.34576">
        <ele>566</ele>
        <time>2022-09-06T09:32:07Z</time>
      </trkpt>
      <trkpt lat="43.0802" lon="0.34573">
        <ele>565.6</ele>
        <time>2022-09-06T09:32:08Z</time>
      </trkpt>
      <trkpt lat="43.08021" lon="0.34564">
        <ele>564.4</ele>
        <time>2022-09-06T09:32:10Z</time>
      </trkpt>
      <trkpt lat="43.08023" lon="0.34558">
        <ele>563</ele>
        <time>2022-09-06T09:32:12Z</time>
      </trkpt>
      <trkpt lat="43.08024" lon="0.34556">
        <ele>562.6</ele>
        <time>2022-09-06T09:32:13Z</time>
      </trkpt>
      <trkpt lat="43.08043" lon="0.34536">
        <ele>562.8</ele>
        <time>2022-09-06T09:32:21Z</time>
      </trkpt>
      <trkpt lat="43.0806" lon="0.34528">
        <ele>562.8</ele>
        <time>2022-09-06T09:32:28Z</time>
      </trkpt>
      <trkpt lat="43.08073" lon="0.34523">
        <ele>563</ele>
        <time>2022-09-06T09:32:34Z</time>
      </trkpt>
      <trkpt lat="43.08086" lon="0.34521">
        <ele>563.4</ele>
        <time>2022-09-06T09:32:41Z</time>
      </trkpt>
      <trkpt lat="43.0809" lon="0.3452">
        <ele>564</ele>
        <time>2022-09-06T09:32:45Z</time>
      </trkpt>
      <trkpt lat="43.08091" lon="0.34528">
        <ele>564.6</ele>
        <time>2022-09-06T09:33:26Z</time>
      </trkpt>
      <trkpt lat="43.08091" lon="0.34534">
        <ele>565.2</ele>
        <time>2022-09-06T09:33:29Z</time>
      </trkpt>
      <trkpt lat="43.08091" lon="0.34541">
        <ele>565.6</ele>
        <time>2022-09-06T09:33:32Z</time>
      </trkpt>
      <trkpt lat="43.08092" lon="0.34546">
        <ele>566.2</ele>
        <time>2022-09-06T09:33:35Z</time>
      </trkpt>
      <trkpt lat="43.08092" lon="0.3455">
        <ele>566.6</ele>
        <time>2022-09-06T09:33:38Z</time>
      </trkpt>
      <trkpt lat="43.08092" lon="0.34554">
        <ele>567.2</ele>
        <time>2022-09-06T09:33:42Z</time>
      </trkpt>
      <trkpt lat="43.08152" lon="0.34646">
        <ele>578</ele>
        <time>2022-09-06T09:43:35Z</time>
      </trkpt>
      <trkpt lat="43.0816" lon="0.34654">
        <ele>578.8</ele>
        <time>2022-09-06T09:43:42Z</time>
      </trkpt>
      <trkpt lat="43.08162" lon="0.34658">
        <ele>579</ele>
        <time>2022-09-06T09:43:44Z</time>
      </trkpt>
      <trkpt lat="43.08167" lon="0.34664">
        <ele>579.8</ele>
        <time>2022-09-06T09:43:49Z</time>
      </trkpt>
      <trkpt lat="43.0817" lon="0.34669">
        <ele>580.2</ele>
        <time>2022-09-06T09:43:53Z</time>
      </trkpt>
      <trkpt lat="43.08174" lon="0.34674">
        <ele>580.6</ele>
        <time>2022-09-06T09:43:57Z</time>
      </trkpt>
      <trkpt lat="43.08177" lon="0.34684">
        <ele>581.2</ele>
        <time>2022-09-06T09:44:03Z</time>
      </trkpt>
      <trkpt lat="43.08178" lon="0.34686">
        <ele>581.4</ele>
        <time>2022-09-06T09:44:04Z</time>
      </trkpt>
      <trkpt lat="43.08185" lon="0.34697">
        <ele>582</ele>
        <time>2022-09-06T09:44:11Z</time>
      </trkpt>
      <trkpt lat="43.08187" lon="0.34698">
        <ele>582.2</ele>
        <time>2022-09-06T09:44:12Z</time>
      </trkpt>
      <trkpt lat="43.08194" lon="0.3471">
        <ele>582.8</ele>
        <time>2022-09-06T09:44:18Z</time>
      </trkpt>
      <trkpt lat="43.082" lon="0.34719">
        <ele>583.4</ele>
        <time>2022-09-06T09:44:22Z</time>
      </trkpt>
      <trkpt lat="43.08202" lon="0.34722">
        <ele>583.6</ele>
        <time>2022-09-06T09:44:24Z</time>
      </trkpt>
      <trkpt lat="43.08213" lon="0.3473">
        <ele>584.2</ele>
        <time>2022-09-06T09:44:31Z</time>
      </trkpt>
      <trkpt lat="43.08216" lon="0.34733">
        <ele>584.4</ele>
        <time>2022-09-06T09:44:33Z</time>
      </trkpt>
      <trkpt lat="43.08224" lon="0.34738">
        <ele>585.2</ele>
        <time>2022-09-06T09:44:38Z</time>
      </trkpt>
      <trkpt lat="43.08225" lon="0.34738">
        <ele>585.4</ele>
        <time>2022-09-06T09:44:39Z</time>
      </trkpt>
      <trkpt lat="43.08236" lon="0.34746">
        <ele>586.4</ele>
        <time>2022-09-06T09:44:46Z</time>
      </trkpt>
      <trkpt lat="43.08237" lon="0.34746">
        <ele>586.6</ele>
        <time>2022-09-06T09:44:47Z</time>
      </trkpt>
      <trkpt lat="43.08247" lon="0.34751">
        <ele>587.4</ele>
        <time>2022-09-06T09:44:53Z</time>
      </trkpt>
      <trkpt lat="43.08248" lon="0.34752">
        <ele>587.6</ele>
        <time>2022-09-06T09:44:54Z</time>
      </trkpt>
      <trkpt lat="43.08257" lon="0.34756">
        <ele>588.4</ele>
        <time>2022-09-06T09:45:00Z</time>
      </trkpt>
      <trkpt lat="43.0826" lon="0.34756">
        <ele>588.8</ele>
        <time>2022-09-06T09:45:03Z</time>
      </trkpt>
      <trkpt lat="43.08268" lon="0.34755">
        <ele>589.2</ele>
        <time>2022-09-06T09:45:08Z</time>
      </trkpt>
      <trkpt lat="43.08275" lon="0.34751">
        <ele>589.6</ele>
        <time>2022-09-06T09:45:13Z</time>
      </trkpt>
      <trkpt lat="43.08275" lon="0.34749">
        <ele>589.6</ele>
        <time>2022-09-06T09:45:14Z</time>
      </trkpt>
      <trkpt lat="43.08279" lon="0.34745">
        <ele>589.8</ele>
        <time>2022-09-06T09:45:17Z</time>
      </trkpt>
      <trkpt lat="43.0828" lon="0.34744">
        <ele>589.6</ele>
        <time>2022-09-06T09:45:18Z</time>
      </trkpt>
      <trkpt lat="43.08283" lon="0.34738">
        <ele>589.6</ele>
        <time>2022-09-06T09:45:20Z</time>
      </trkpt>
      <trkpt lat="43.08293" lon="0.34721">
        <ele>590.2</ele>
        <time>2022-09-06T09:45:26Z</time>
      </trkpt>
      <trkpt lat="43.08303" lon="0.34702">
        <ele>590.2</ele>
        <time>2022-09-06T09:45:32Z</time>
      </trkpt>
      <trkpt lat="43.0831" lon="0.34684">
        <ele>590.6</ele>
        <time>2022-09-06T09:45:37Z</time>
      </trkpt>
      <trkpt lat="43.08312" lon="0.34679">
        <ele>590.8</ele>
        <time>2022-09-06T09:45:39Z</time>
      </trkpt>
      <trkpt lat="43.08318" lon="0.34663">
        <ele>591</ele>
        <time>2022-09-06T09:45:44Z</time>
      </trkpt>
      <trkpt lat="43.08327" lon="0.34641">
        <ele>591.4</ele>
        <time>2022-09-06T09:45:50Z</time>
      </trkpt>
      <trkpt lat="43.08337" lon="0.3462">
        <ele>591.6</ele>
        <time>2022-09-06T09:45:56Z</time>
      </trkpt>
      <trkpt lat="43.08344" lon="0.34604">
        <ele>591.6</ele>
        <time>2022-09-06T09:46:03Z</time>
      </trkpt>
      <trkpt lat="43.08355" lon="0.34576">
        <ele>592</ele>
        <time>2022-09-06T09:47:10Z</time>
      </trkpt>
      <trkpt lat="43.08357" lon="0.34573">
        <ele>592</ele>
        <time>2022-09-06T09:47:11Z</time>
      </trkpt>
      <trkpt lat="43.08365" lon="0.34546">
        <ele>592</ele>
        <time>2022-09-06T09:47:18Z</time>
      </trkpt>
      <trkpt lat="43.08374" lon="0.34515">
        <ele>592.2</ele>
        <time>2022-09-06T09:47:25Z</time>
      </trkpt>
      <trkpt lat="43.08385" lon="0.34483">
        <ele>592.2</ele>
        <time>2022-09-06T09:47:32Z</time>
      </trkpt>
      <trkpt lat="43.084" lon="0.34442">
        <ele>592.2</ele>
        <time>2022-09-06T09:47:41Z</time>
      </trkpt>
      <trkpt lat="43.08409" lon="0.3441">
        <ele>591.8</ele>
        <time>2022-09-06T09:47:49Z</time>
      </trkpt>
      <trkpt lat="43.08411" lon="0.34396">
        <ele>591.4</ele>
        <time>2022-09-06T09:47:53Z</time>
      </trkpt>
      <trkpt lat="43.08418" lon="0.34378">
        <ele>591.6</ele>
        <time>2022-09-06T09:47:59Z</time>
      </trkpt>
      <trkpt lat="43.08431" lon="0.3435">
        <ele>591.4</ele>
        <time>2022-09-06T09:48:06Z</time>
      </trkpt>
      <trkpt lat="43.08443" lon="0.34326">
        <ele>591</ele>
        <time>2022-09-06T09:48:12Z</time>
      </trkpt>
      <trkpt lat="43.08451" lon="0.34314">
        <ele>590.8</ele>
        <time>2022-09-06T09:48:15Z</time>
      </trkpt>
      <trkpt lat="43.08464" lon="0.34293">
        <ele>590.4</ele>
        <time>2022-09-06T09:48:20Z</time>
      </trkpt>
      <trkpt lat="43.08467" lon="0.34289">
        <ele>590.4</ele>
        <time>2022-09-06T09:48:21Z</time>
      </trkpt>
      <trkpt lat="43.08479" lon="0.3427">
        <ele>590</ele>
        <time>2022-09-06T09:48:25Z</time>
      </trkpt>
      <trkpt lat="43.08495" lon="0.3424">
        <ele>589.8</ele>
        <time>2022-09-06T09:48:31Z</time>
      </trkpt>
      <trkpt lat="43.08498" lon="0.34236">
        <ele>589.6</ele>
        <time>2022-09-06T09:48:32Z</time>
      </trkpt>
      <trkpt lat="43.08515" lon="0.34208">
        <ele>588.8</ele>
        <time>2022-09-06T09:48:38Z</time>
      </trkpt>
      <trkpt lat="43.08517" lon="0.34203">
        <ele>588.4</ele>
        <time>2022-09-06T09:48:39Z</time>
      </trkpt>
      <trkpt lat="43.08535" lon="0.3417">
        <ele>588</ele>
        <time>2022-09-06T09:48:46Z</time>
      </trkpt>
      <trkpt lat="43.08549" lon="0.34133">
        <ele>588.4</ele>
        <time>2022-09-06T09:48:54Z</time>
      </trkpt>
      <trkpt lat="43.08562" lon="0.34102">
        <ele>588</ele>
        <time>2022-09-06T09:49:01Z</time>
      </trkpt>
      <trkpt lat="43.08565" lon="0.34093">
        <ele>587.8</ele>
        <time>2022-09-06T09:49:03Z</time>
      </trkpt>
      <trkpt lat="43.08572" lon="0.34075">
        <ele>587.8</ele>
        <time>2022-09-06T09:49:07Z</time>
      </trkpt>
      <trkpt lat="43.08576" lon="0.34052">
        <ele>587.8</ele>
        <time>2022-09-06T09:49:12Z</time>
      </trkpt>
      <trkpt lat="43.08585" lon="0.34029">
        <ele>588.4</ele>
        <time>2022-09-06T09:49:17Z</time>
      </trkpt>
      <trkpt lat="43.08594" lon="0.33993">
        <ele>588</ele>
        <time>2022-09-06T09:49:24Z</time>
      </trkpt>
      <trkpt lat="43.08603" lon="0.33955">
        <ele>588.2</ele>
        <time>2022-09-06T09:49:31Z</time>
      </trkpt>
      <trkpt lat="43.08613" lon="0.33924">
        <ele>587.8</ele>
        <time>2022-09-06T09:49:37Z</time>
      </trkpt>
      <trkpt lat="43.08614" lon="0.33918">
        <ele>587.6</ele>
        <time>2022-09-06T09:49:38Z</time>
      </trkpt>
      <trkpt lat="43.08621" lon="0.33886">
        <ele>587.4</ele>
        <time>2022-09-06T09:49:44Z</time>
      </trkpt>
      <trkpt lat="43.08622" lon="0.3388">
        <ele>587.4</ele>
        <time>2022-09-06T09:49:45Z</time>
      </trkpt>
      <trkpt lat="43.08632" lon="0.33838">
        <ele>586.8</ele>
        <time>2022-09-06T09:49:53Z</time>
      </trkpt>
      <trkpt lat="43.08639" lon="0.33812">
        <ele>586.6</ele>
        <time>2022-09-06T09:49:58Z</time>
      </trkpt>
      <trkpt lat="43.08644" lon="0.3379">
        <ele>585.6</ele>
        <time>2022-09-06T09:50:02Z</time>
      </trkpt>
      <trkpt lat="43.08647" lon="0.33771">
        <ele>585.4</ele>
        <time>2022-09-06T09:50:05Z</time>
      </trkpt>
      <trkpt lat="43.08654" lon="0.33734">
        <ele>584.8</ele>
        <time>2022-09-06T09:50:11Z</time>
      </trkpt>
      <trkpt lat="43.08655" lon="0.33728">
        <ele>584.6</ele>
        <time>2022-09-06T09:50:12Z</time>
      </trkpt>
      <trkpt lat="43.08664" lon="0.33686">
        <ele>583.8</ele>
        <time>2022-09-06T09:50:18Z</time>
      </trkpt>
      <trkpt lat="43.08667" lon="0.33671">
        <ele>583.4</ele>
        <time>2022-09-06T09:50:20Z</time>
      </trkpt>
      <trkpt lat="43.08675" lon="0.33623">
        <ele>582.4</ele>
        <time>2022-09-06T09:50:26Z</time>
      </trkpt>
      <trkpt lat="43.08684" lon="0.33574">
        <ele>581.4</ele>
        <time>2022-09-06T09:50:32Z</time>
      </trkpt>
      <trkpt lat="43.08688" lon="0.33548">
        <ele>580.6</ele>
        <time>2022-09-06T09:50:35Z</time>
      </trkpt>
      <trkpt lat="43.0869" lon="0.33531">
        <ele>580.2</ele>
        <time>2022-09-06T09:50:37Z</time>
      </trkpt>
      <trkpt lat="43.08696" lon="0.33503">
        <ele>579.2</ele>
        <time>2022-09-06T09:50:41Z</time>
      </trkpt>
      <trkpt lat="43.08711" lon="0.3349">
        <ele>578.8</ele>
        <time>2022-09-06T09:50:45Z</time>
      </trkpt>
      <trkpt lat="43.08719" lon="0.3349">
        <ele>578.8</ele>
        <time>2022-09-06T09:50:47Z</time>
      </trkpt>
      <trkpt lat="43.0873" lon="0.33492">
        <ele>579</ele>
        <time>2022-09-06T09:50:50Z</time>
      </trkpt>
      <trkpt lat="43.08747" lon="0.33495">
        <ele>579.2</ele>
        <time>2022-09-06T09:50:56Z</time>
      </trkpt>
      <trkpt lat="43.08754" lon="0.3349">
        <ele>579.4</ele>
        <time>2022-09-06T09:51:00Z</time>
      </trkpt>
      <trkpt lat="43.08755" lon="0.33487">
        <ele>579.4</ele>
        <time>2022-09-06T09:51:01Z</time>
      </trkpt>
      <trkpt lat="43.08757" lon="0.33467">
        <ele>579</ele>
        <time>2022-09-06T09:51:06Z</time>
      </trkpt>
      <trkpt lat="43.08758" lon="0.33427">
        <ele>578.6</ele>
        <time>2022-09-06T09:51:13Z</time>
      </trkpt>
      <trkpt lat="43.08759" lon="0.33399">
        <ele>578.2</ele>
        <time>2022-09-06T09:51:17Z</time>
      </trkpt>
      <trkpt lat="43.08759" lon="0.33376">
        <ele>577.4</ele>
        <time>2022-09-06T09:51:20Z</time>
      </trkpt>
      <trkpt lat="43.0876" lon="0.33351">
        <ele>577</ele>
        <time>2022-09-06T09:51:23Z</time>
      </trkpt>
      <trkpt lat="43.08761" lon="0.33316">
        <ele>575.8</ele>
        <time>2022-09-06T09:51:27Z</time>
      </trkpt>
      <trkpt lat="43.08761" lon="0.33299">
        <ele>575.2</ele>
        <time>2022-09-06T09:51:29Z</time>
      </trkpt>
      <trkpt lat="43.08762" lon="0.33271">
        <ele>574.6</ele>
        <time>2022-09-06T09:51:32Z</time>
      </trkpt>
      <trkpt lat="43.08763" lon="0.33213">
        <ele>573.4</ele>
        <time>2022-09-06T09:51:38Z</time>
      </trkpt>
      <trkpt lat="43.08766" lon="0.33149">
        <ele>572.6</ele>
        <time>2022-09-06T09:51:46Z</time>
      </trkpt>
      <trkpt lat="43.08768" lon="0.33108">
        <ele>572.4</ele>
        <time>2022-09-06T09:51:51Z</time>
      </trkpt>
      <trkpt lat="43.0877" lon="0.33094">
        <ele>572.2</ele>
        <time>2022-09-06T09:51:53Z</time>
      </trkpt>
      <trkpt lat="43.08772" lon="0.33057">
        <ele>572.2</ele>
        <time>2022-09-06T09:51:59Z</time>
      </trkpt>
      <trkpt lat="43.08775" lon="0.33024">
        <ele>571.8</ele>
        <time>2022-09-06T09:52:05Z</time>
      </trkpt>
      <trkpt lat="43.08775" lon="0.33019">
        <ele>571.8</ele>
        <time>2022-09-06T09:52:06Z</time>
      </trkpt>
      <trkpt lat="43.08777" lon="0.32989">
        <ele>571.4</ele>
        <time>2022-09-06T09:52:11Z</time>
      </trkpt>
      <trkpt lat="43.08777" lon="0.32983">
        <ele>571.2</ele>
        <time>2022-09-06T09:52:12Z</time>
      </trkpt>
      <trkpt lat="43.0878" lon="0.32942">
        <ele>571</ele>
        <time>2022-09-06T09:52:19Z</time>
      </trkpt>
      <trkpt lat="43.08782" lon="0.32912">
        <ele>570.2</ele>
        <time>2022-09-06T09:52:24Z</time>
      </trkpt>
      <trkpt lat="43.08785" lon="0.32893">
        <ele>569.8</ele>
        <time>2022-09-06T09:52:27Z</time>
      </trkpt>
      <trkpt lat="43.0879" lon="0.32848">
        <ele>569.2</ele>
        <time>2022-09-06T09:52:33Z</time>
      </trkpt>
      <trkpt lat="43.08791" lon="0.32825">
        <ele>568.8</ele>
        <time>2022-09-06T09:52:36Z</time>
      </trkpt>
      <trkpt lat="43.08792" lon="0.32804">
        <ele>568.6</ele>
        <time>2022-09-06T09:52:39Z</time>
      </trkpt>
      <trkpt lat="43.08791" lon="0.32782">
        <ele>568.2</ele>
        <time>2022-09-06T09:52:42Z</time>
      </trkpt>
      <trkpt lat="43.0879" lon="0.32774">
        <ele>568</ele>
        <time>2022-09-06T09:52:43Z</time>
      </trkpt>
      <trkpt lat="43.08786" lon="0.32721">
        <ele>567.4</ele>
        <time>2022-09-06T09:52:51Z</time>
      </trkpt>
      <trkpt lat="43.08783" lon="0.32696">
        <ele>567</ele>
        <time>2022-09-06T09:52:55Z</time>
      </trkpt>
      <trkpt lat="43.08782" lon="0.32674">
        <ele>566.8</ele>
        <time>2022-09-06T09:52:59Z</time>
      </trkpt>
      <trkpt lat="43.08784" lon="0.32644">
        <ele>566.6</ele>
        <time>2022-09-06T09:53:05Z</time>
      </trkpt>
      <trkpt lat="43.08788" lon="0.32602">
        <ele>566</ele>
        <time>2022-09-06T09:53:14Z</time>
      </trkpt>
      <trkpt lat="43.0879" lon="0.32591">
        <ele>566</ele>
        <time>2022-09-06T09:53:16Z</time>
      </trkpt>
      <trkpt lat="43.08796" lon="0.32564">
        <ele>565.2</ele>
        <time>2022-09-06T09:53:21Z</time>
      </trkpt>
      <trkpt lat="43.08802" lon="0.32539">
        <ele>565</ele>
        <time>2022-09-06T09:53:25Z</time>
      </trkpt>
      <trkpt lat="43.08807" lon="0.32519">
        <ele>564.6</ele>
        <time>2022-09-06T09:53:28Z</time>
      </trkpt>
      <trkpt lat="43.08811" lon="0.32507">
        <ele>563.6</ele>
        <time>2022-09-06T09:53:31Z</time>
      </trkpt>
      <trkpt lat="43.08811" lon="0.32504">
        <ele>563.2</ele>
        <time>2022-09-06T09:53:32Z</time>
      </trkpt>
      <trkpt lat="43.08813" lon="0.32492">
        <ele>562.8</ele>
        <time>2022-09-06T09:54:23Z</time>
      </trkpt>
      <trkpt lat="43.08815" lon="0.32486">
        <ele>562.8</ele>
        <time>2022-09-06T09:54:25Z</time>
      </trkpt>
      <trkpt lat="43.08816" lon="0.32482">
        <ele>562.6</ele>
        <time>2022-09-06T09:54:26Z</time>
      </trkpt>
      <trkpt lat="43.08819" lon="0.32462">
        <ele>562.2</ele>
        <time>2022-09-06T09:54:30Z</time>
      </trkpt>
      <trkpt lat="43.08823" lon="0.32448">
        <ele>561.4</ele>
        <time>2022-09-06T09:54:34Z</time>
      </trkpt>
      <trkpt lat="43.08823" lon="0.32446">
        <ele>561.2</ele>
        <time>2022-09-06T09:54:35Z</time>
      </trkpt>
      <trkpt lat="43.08823" lon="0.3244">
        <ele>560.6</ele>
        <time>2022-09-06T09:56:44Z</time>
      </trkpt>
      <trkpt lat="43.08825" lon="0.32427">
        <ele>560.2</ele>
        <time>2022-09-06T09:56:47Z</time>
      </trkpt>
      <trkpt lat="43.08825" lon="0.32422">
        <ele>560</ele>
        <time>2022-09-06T09:56:48Z</time>
      </trkpt>
      <trkpt lat="43.08828" lon="0.32391">
        <ele>559.4</ele>
        <time>2022-09-06T09:56:52Z</time>
      </trkpt>
      <trkpt lat="43.08828" lon="0.32382">
        <ele>559</ele>
        <time>2022-09-06T09:56:53Z</time>
      </trkpt>
      <trkpt lat="43.08828" lon="0.32353">
        <ele>557.8</ele>
        <time>2022-09-06T09:56:56Z</time>
      </trkpt>
      <trkpt lat="43.08828" lon="0.32343">
        <ele>557.6</ele>
        <time>2022-09-06T09:56:57Z</time>
      </trkpt>
      <trkpt lat="43.08828" lon="0.32321">
        <ele>556.6</ele>
        <time>2022-09-06T09:56:59Z</time>
      </trkpt>
      <trkpt lat="43.08825" lon="0.32286">
        <ele>555.4</ele>
        <time>2022-09-06T09:57:02Z</time>
      </trkpt>
      <trkpt lat="43.08825" lon="0.32274">
        <ele>554.2</ele>
        <time>2022-09-06T09:57:03Z</time>
      </trkpt>
      <trkpt lat="43.08823" lon="0.32237">
        <ele>553</ele>
        <time>2022-09-06T09:57:06Z</time>
      </trkpt>
      <trkpt lat="43.08822" lon="0.32198">
        <ele>552</ele>
        <time>2022-09-06T09:57:09Z</time>
      </trkpt>
      <trkpt lat="43.08822" lon="0.32185">
        <ele>551.6</ele>
        <time>2022-09-06T09:57:10Z</time>
      </trkpt>
      <trkpt lat="43.08822" lon="0.32159">
        <ele>550.6</ele>
        <time>2022-09-06T09:57:12Z</time>
      </trkpt>
      <trkpt lat="43.08821" lon="0.32108">
        <ele>549.4</ele>
        <time>2022-09-06T09:57:16Z</time>
      </trkpt>
      <trkpt lat="43.08822" lon="0.32082">
        <ele>549</ele>
        <time>2022-09-06T09:57:18Z</time>
      </trkpt>
      <trkpt lat="43.08821" lon="0.32043">
        <ele>548</ele>
        <time>2022-09-06T09:57:21Z</time>
      </trkpt>
      <trkpt lat="43.08821" lon="0.31992">
        <ele>546.8</ele>
        <time>2022-09-06T09:57:25Z</time>
      </trkpt>
      <trkpt lat="43.08821" lon="0.31979">
        <ele>546.2</ele>
        <time>2022-09-06T09:57:26Z</time>
      </trkpt>
      <trkpt lat="43.08821" lon="0.31966">
        <ele>545</ele>
        <time>2022-09-06T09:57:27Z</time>
      </trkpt>
      <trkpt lat="43.08821" lon="0.3194">
        <ele>544</ele>
        <time>2022-09-06T09:57:29Z</time>
      </trkpt>
      <trkpt lat="43.08821" lon="0.31889">
        <ele>542.8</ele>
        <time>2022-09-06T09:57:33Z</time>
      </trkpt>
      <trkpt lat="43.0882" lon="0.31849">
        <ele>541</ele>
        <time>2022-09-06T09:57:36Z</time>
      </trkpt>
      <trkpt lat="43.0882" lon="0.31823">
        <ele>539.6</ele>
        <time>2022-09-06T09:57:38Z</time>
      </trkpt>
      <trkpt lat="43.08822" lon="0.31798">
        <ele>538.2</ele>
        <time>2022-09-06T09:57:40Z</time>
      </trkpt>
      <trkpt lat="43.08827" lon="0.31773">
        <ele>536.8</ele>
        <time>2022-09-06T09:57:42Z</time>
      </trkpt>
      <trkpt lat="43.08833" lon="0.31748">
        <ele>535.4</ele>
        <time>2022-09-06T09:57:44Z</time>
      </trkpt>
      <trkpt lat="43.08839" lon="0.31723">
        <ele>534</ele>
        <time>2022-09-06T09:57:46Z</time>
      </trkpt>
      <trkpt lat="43.08843" lon="0.31696">
        <ele>532.6</ele>
        <time>2022-09-06T09:57:48Z</time>
      </trkpt>
      <trkpt lat="43.08843" lon="0.31683">
        <ele>531.4</ele>
        <time>2022-09-06T09:57:49Z</time>
      </trkpt>
      <trkpt lat="43.08841" lon="0.31657">
        <ele>529</ele>
        <time>2022-09-06T09:57:51Z</time>
      </trkpt>
      <trkpt lat="43.08837" lon="0.31632">
        <ele>527.6</ele>
        <time>2022-09-06T09:57:53Z</time>
      </trkpt>
      <trkpt lat="43.08833" lon="0.31608">
        <ele>526.2</ele>
        <time>2022-09-06T09:57:55Z</time>
      </trkpt>
      <trkpt lat="43.08831" lon="0.31584">
        <ele>525</ele>
        <time>2022-09-06T09:57:57Z</time>
      </trkpt>
      <trkpt lat="43.0883" lon="0.31563">
        <ele>523.4</ele>
        <time>2022-09-06T09:57:59Z</time>
      </trkpt>
      <trkpt lat="43.0883" lon="0.3153">
        <ele>522.2</ele>
        <time>2022-09-06T09:58:02Z</time>
      </trkpt>
      <trkpt lat="43.08831" lon="0.31506">
        <ele>521.2</ele>
        <time>2022-09-06T09:58:04Z</time>
      </trkpt>
      <trkpt lat="43.08833" lon="0.31471">
        <ele>520.2</ele>
        <time>2022-09-06T09:58:07Z</time>
      </trkpt>
      <trkpt lat="43.08834" lon="0.31459">
        <ele>519.6</ele>
        <time>2022-09-06T09:58:08Z</time>
      </trkpt>
      <trkpt lat="43.08836" lon="0.31435">
        <ele>519.2</ele>
        <time>2022-09-06T09:58:10Z</time>
      </trkpt>
      <trkpt lat="43.08838" lon="0.31386">
        <ele>517.6</ele>
        <time>2022-09-06T09:58:14Z</time>
      </trkpt>
      <trkpt lat="43.08837" lon="0.3135">
        <ele>516.6</ele>
        <time>2022-09-06T09:58:17Z</time>
      </trkpt>
      <trkpt lat="43.08834" lon="0.31329">
        <ele>516</ele>
        <time>2022-09-06T09:58:19Z</time>
      </trkpt>
      <trkpt lat="43.08832" lon="0.31313">
        <ele>515.4</ele>
        <time>2022-09-06T09:58:21Z</time>
      </trkpt>
      <trkpt lat="43.08831" lon="0.313">
        <ele>515</ele>
        <time>2022-09-06T09:58:23Z</time>
      </trkpt>
      <trkpt lat="43.08833" lon="0.3129">
        <ele>514.8</ele>
        <time>2022-09-06T09:58:26Z</time>
      </trkpt>
      <trkpt lat="43.08835" lon="0.3129">
        <ele>514.8</ele>
        <time>2022-09-06T09:58:27Z</time>
      </trkpt>
      <trkpt lat="43.08843" lon="0.31289">
        <ele>514.4</ele>
        <time>2022-09-06T09:58:31Z</time>
      </trkpt>
      <trkpt lat="43.08848" lon="0.3129">
        <ele>514.4</ele>
        <time>2022-09-06T09:58:33Z</time>
      </trkpt>
      <trkpt lat="43.08853" lon="0.31294">
        <ele>514.2</ele>
        <time>2022-09-06T09:58:35Z</time>
      </trkpt>
      <trkpt lat="43.08863" lon="0.31303">
        <ele>513.6</ele>
        <time>2022-09-06T09:58:38Z</time>
      </trkpt>
      <trkpt lat="43.08866" lon="0.31306">
        <ele>513</ele>
        <time>2022-09-06T09:58:39Z</time>
      </trkpt>
      <trkpt lat="43.08878" lon="0.31318">
        <ele>511.8</ele>
        <time>2022-09-06T09:58:42Z</time>
      </trkpt>
      <trkpt lat="43.08881" lon="0.31324">
        <ele>511.2</ele>
        <time>2022-09-06T09:58:43Z</time>
      </trkpt>
      <trkpt lat="43.08884" lon="0.31332">
        <ele>510.8</ele>
        <time>2022-09-06T09:58:44Z</time>
      </trkpt>
      <trkpt lat="43.08886" lon="0.31341">
        <ele>510.6</ele>
        <time>2022-09-06T09:58:45Z</time>
      </trkpt>
      <trkpt lat="43.08892" lon="0.31369">
        <ele>510.2</ele>
        <time>2022-09-06T09:58:48Z</time>
      </trkpt>
      <trkpt lat="43.08901" lon="0.31394">
        <ele>509.4</ele>
        <time>2022-09-06T09:58:51Z</time>
      </trkpt>
      <trkpt lat="43.08906" lon="0.31411">
        <ele>509</ele>
        <time>2022-09-06T09:58:53Z</time>
      </trkpt>
      <trkpt lat="43.08914" lon="0.31441">
        <ele>508.2</ele>
        <time>2022-09-06T09:58:56Z</time>
      </trkpt>
      <trkpt lat="43.0892" lon="0.31463">
        <ele>507.2</ele>
        <time>2022-09-06T09:58:58Z</time>
      </trkpt>
      <trkpt lat="43.08925" lon="0.31487">
        <ele>505.8</ele>
        <time>2022-09-06T09:59:00Z</time>
      </trkpt>
      <trkpt lat="43.08928" lon="0.31513">
        <ele>504.8</ele>
        <time>2022-09-06T09:59:02Z</time>
      </trkpt>
      <trkpt lat="43.0893" lon="0.31527">
        <ele>503.2</ele>
        <time>2022-09-06T09:59:03Z</time>
      </trkpt>
      <trkpt lat="43.08936" lon="0.31554">
        <ele>501.8</ele>
        <time>2022-09-06T09:59:05Z</time>
      </trkpt>
      <trkpt lat="43.08942" lon="0.31583">
        <ele>500.8</ele>
        <time>2022-09-06T09:59:07Z</time>
      </trkpt>
      <trkpt lat="43.08951" lon="0.31611">
        <ele>499</ele>
        <time>2022-09-06T09:59:09Z</time>
      </trkpt>
      <trkpt lat="43.08962" lon="0.31638">
        <ele>497.6</ele>
        <time>2022-09-06T09:59:11Z</time>
      </trkpt>
      <trkpt lat="43.0898" lon="0.31678">
        <ele>496</ele>
        <time>2022-09-06T09:59:14Z</time>
      </trkpt>
      <trkpt lat="43.08996" lon="0.31715">
        <ele>494.8</ele>
        <time>2022-09-06T09:59:17Z</time>
      </trkpt>
      <trkpt lat="43.09007" lon="0.31735">
        <ele>493</ele>
        <time>2022-09-06T09:59:19Z</time>
      </trkpt>
      <trkpt lat="43.09011" lon="0.31744">
        <ele>491.8</ele>
        <time>2022-09-06T09:59:20Z</time>
      </trkpt>
      <trkpt lat="43.09015" lon="0.31752">
        <ele>491</ele>
        <time>2022-09-06T09:59:21Z</time>
      </trkpt>
      <trkpt lat="43.09019" lon="0.31759">
        <ele>490.2</ele>
        <time>2022-09-06T09:59:22Z</time>
      </trkpt>
      <trkpt lat="43.09023" lon="0.31765">
        <ele>489.6</ele>
        <time>2022-09-06T09:59:23Z</time>
      </trkpt>
      <trkpt lat="43.09028" lon="0.31767">
        <ele>489</ele>
        <time>2022-09-06T09:59:24Z</time>
      </trkpt>
      <trkpt lat="43.09037" lon="0.31761">
        <ele>488.4</ele>
        <time>2022-09-06T09:59:26Z</time>
      </trkpt>
      <trkpt lat="43.09042" lon="0.31749">
        <ele>488.8</ele>
        <time>2022-09-06T09:59:29Z</time>
      </trkpt>
      <trkpt lat="43.09046" lon="0.31735">
        <ele>489.8</ele>
        <time>2022-09-06T09:59:34Z</time>
      </trkpt>
      <trkpt lat="43.09049" lon="0.31728">
        <ele>490.2</ele>
        <time>2022-09-06T09:59:37Z</time>
      </trkpt>
      <trkpt lat="43.09053" lon="0.31718">
        <ele>490.8</ele>
        <time>2022-09-06T09:59:41Z</time>
      </trkpt>
      <trkpt lat="43.09055" lon="0.31713">
        <ele>491.4</ele>
        <time>2022-09-06T09:59:43Z</time>
      </trkpt>
      <trkpt lat="43.09063" lon="0.31698">
        <ele>492.4</ele>
        <time>2022-09-06T09:59:49Z</time>
      </trkpt>
      <trkpt lat="43.09066" lon="0.31693">
        <ele>493</ele>
        <time>2022-09-06T09:59:51Z</time>
      </trkpt>
      <trkpt lat="43.0907" lon="0.31687">
        <ele>493.6</ele>
        <time>2022-09-06T09:59:54Z</time>
      </trkpt>
      <trkpt lat="43.09076" lon="0.3168">
        <ele>494</ele>
        <time>2022-09-06T09:59:58Z</time>
      </trkpt>
      <trkpt lat="43.09087" lon="0.31659">
        <ele>494.4</ele>
        <time>2022-09-06T10:00:06Z</time>
      </trkpt>
      <trkpt lat="43.09094" lon="0.31649">
        <ele>494.6</ele>
        <time>2022-09-06T10:00:10Z</time>
      </trkpt>
      <trkpt lat="43.09105" lon="0.31632">
        <ele>495.2</ele>
        <time>2022-09-06T10:00:17Z</time>
      </trkpt>
      <trkpt lat="43.09114" lon="0.31617">
        <ele>495.8</ele>
        <time>2022-09-06T10:00:23Z</time>
      </trkpt>
      <trkpt lat="43.09118" lon="0.3161">
        <ele>495.8</ele>
        <time>2022-09-06T10:00:26Z</time>
      </trkpt>
      <trkpt lat="43.09131" lon="0.31592">
        <ele>496.8</ele>
        <time>2022-09-06T10:00:33Z</time>
      </trkpt>
      <trkpt lat="43.09147" lon="0.31575">
        <ele>497.4</ele>
        <time>2022-09-06T10:00:40Z</time>
      </trkpt>
      <trkpt lat="43.09168" lon="0.31554">
        <ele>497.6</ele>
        <time>2022-09-06T10:00:47Z</time>
      </trkpt>
      <trkpt lat="43.09179" lon="0.3154">
        <ele>497.8</ele>
        <time>2022-09-06T10:00:51Z</time>
      </trkpt>
      <trkpt lat="43.09186" lon="0.31528">
        <ele>498</ele>
        <time>2022-09-06T10:00:54Z</time>
      </trkpt>
      <trkpt lat="43.09198" lon="0.31495">
        <ele>498.6</ele>
        <time>2022-09-06T10:01:02Z</time>
      </trkpt>
      <trkpt lat="43.09199" lon="0.31485">
        <ele>498.8</ele>
        <time>2022-09-06T10:01:04Z</time>
      </trkpt>
      <trkpt lat="43.09203" lon="0.31462">
        <ele>499.2</ele>
        <time>2022-09-06T10:01:09Z</time>
      </trkpt>
      <trkpt lat="43.09208" lon="0.31429">
        <ele>500</ele>
        <time>2022-09-06T10:01:16Z</time>
      </trkpt>
      <trkpt lat="43.09209" lon="0.31416">
        <ele>500</ele>
        <time>2022-09-06T10:01:19Z</time>
      </trkpt>
      <trkpt lat="43.09216" lon="0.31383">
        <ele>500</ele>
        <time>2022-09-06T10:01:26Z</time>
      </trkpt>
      <trkpt lat="43.09225" lon="0.31353">
        <ele>499.6</ele>
        <time>2022-09-06T10:01:33Z</time>
      </trkpt>
      <trkpt lat="43.09237" lon="0.3132">
        <ele>498.8</ele>
        <time>2022-09-06T10:01:39Z</time>
      </trkpt>
      <trkpt lat="43.0924" lon="0.31313">
        <ele>498.6</ele>
        <time>2022-09-06T10:01:40Z</time>
      </trkpt>
      <trkpt lat="43.09254" lon="0.31277">
        <ele>497.6</ele>
        <time>2022-09-06T10:01:45Z</time>
      </trkpt>
      <trkpt lat="43.09258" lon="0.3127">
        <ele>497.4</ele>
        <time>2022-09-06T10:01:46Z</time>
      </trkpt>
      <trkpt lat="43.09272" lon="0.31246">
        <ele>496.4</ele>
        <time>2022-09-06T10:01:49Z</time>
      </trkpt>
      <trkpt lat="43.09284" lon="0.31223">
        <ele>495.8</ele>
        <time>2022-09-06T10:01:52Z</time>
      </trkpt>
      <trkpt lat="43.09302" lon="0.31191">
        <ele>495.2</ele>
        <time>2022-09-06T10:01:57Z</time>
      </trkpt>
      <trkpt lat="43.09306" lon="0.31185">
        <ele>495</ele>
        <time>2022-09-06T10:01:58Z</time>
      </trkpt>
      <trkpt lat="43.09315" lon="0.31174">
        <ele>494.6</ele>
        <time>2022-09-06T10:02:00Z</time>
      </trkpt>
      <trkpt lat="43.09334" lon="0.31148">
        <ele>493.8</ele>
        <time>2022-09-06T10:02:04Z</time>
      </trkpt>
      <trkpt lat="43.09338" lon="0.31141">
        <ele>493.4</ele>
        <time>2022-09-06T10:02:05Z</time>
      </trkpt>
      <trkpt lat="43.09351" lon="0.31116">
        <ele>492.8</ele>
        <time>2022-09-06T10:02:08Z</time>
      </trkpt>
      <trkpt lat="43.09355" lon="0.31107">
        <ele>492.2</ele>
        <time>2022-09-06T10:02:09Z</time>
      </trkpt>
      <trkpt lat="43.09363" lon="0.31087">
        <ele>491.2</ele>
        <time>2022-09-06T10:02:11Z</time>
      </trkpt>
      <trkpt lat="43.09372" lon="0.31067">
        <ele>490</ele>
        <time>2022-09-06T10:02:13Z</time>
      </trkpt>
      <trkpt lat="43.09377" lon="0.31057">
        <ele>489.8</ele>
        <time>2022-09-06T10:02:14Z</time>
      </trkpt>
      <trkpt lat="43.09388" lon="0.31039">
        <ele>489</ele>
        <time>2022-09-06T10:02:16Z</time>
      </trkpt>
      <trkpt lat="43.09402" lon="0.31012">
        <ele>488.6</ele>
        <time>2022-09-06T10:02:19Z</time>
      </trkpt>
      <trkpt lat="43.0942" lon="0.30973">
        <ele>488.4</ele>
        <time>2022-09-06T10:02:24Z</time>
      </trkpt>
      <trkpt lat="43.09428" lon="0.30952">
        <ele>489.2</ele>
        <time>2022-09-06T10:02:28Z</time>
      </trkpt>
      <trkpt lat="43.09437" lon="0.30929">
        <ele>490</ele>
        <time>2022-09-06T10:02:33Z</time>
      </trkpt>
      <trkpt lat="43.09439" lon="0.30919">
        <ele>490.2</ele>
        <time>2022-09-06T10:02:35Z</time>
      </trkpt>
      <trkpt lat="43.09446" lon="0.30896">
        <ele>491</ele>
        <time>2022-09-06T10:02:40Z</time>
      </trkpt>
      <trkpt lat="43.0945" lon="0.30888">
        <ele>491.2</ele>
        <time>2022-09-06T10:02:42Z</time>
      </trkpt>
      <trkpt lat="43.09457" lon="0.30868">
        <ele>491.6</ele>
        <time>2022-09-06T10:02:47Z</time>
      </trkpt>
      <trkpt lat="43.09464" lon="0.30851">
        <ele>492</ele>
        <time>2022-09-06T10:02:52Z</time>
      </trkpt>
      <trkpt lat="43.09465" lon="0.30847">
        <ele>492.2</ele>
        <time>2022-09-06T10:02:53Z</time>
      </trkpt>
      <trkpt lat="43.09473" lon="0.30825">
        <ele>492.6</ele>
        <time>2022-09-06T10:02:59Z</time>
      </trkpt>
      <trkpt lat="43.09484" lon="0.30792">
        <ele>492.6</ele>
        <time>2022-09-06T10:03:06Z</time>
      </trkpt>
      <trkpt lat="43.09495" lon="0.30769">
        <ele>492.4</ele>
        <time>2022-09-06T10:03:11Z</time>
      </trkpt>
      <trkpt lat="43.09511" lon="0.3074">
        <ele>492.6</ele>
        <time>2022-09-06T10:03:17Z</time>
      </trkpt>
      <trkpt lat="43.09526" lon="0.30715">
        <ele>492.6</ele>
        <time>2022-09-06T10:03:22Z</time>
      </trkpt>
      <trkpt lat="43.09535" lon="0.307">
        <ele>492.6</ele>
        <time>2022-09-06T10:03:25Z</time>
      </trkpt>
      <trkpt lat="43.09542" lon="0.30689">
        <ele>492.4</ele>
        <time>2022-09-06T10:03:27Z</time>
      </trkpt>
      <trkpt lat="43.09555" lon="0.30668">
        <ele>492.2</ele>
        <time>2022-09-06T10:03:31Z</time>
      </trkpt>
      <trkpt lat="43.09567" lon="0.30646">
        <ele>492</ele>
        <time>2022-09-06T10:03:35Z</time>
      </trkpt>
      <trkpt lat="43.09572" lon="0.30635">
        <ele>491.8</ele>
        <time>2022-09-06T10:03:37Z</time>
      </trkpt>
      <trkpt lat="43.09587" lon="0.30606">
        <ele>491.4</ele>
        <time>2022-09-06T10:03:43Z</time>
      </trkpt>
      <trkpt lat="43.09604" lon="0.30576">
        <ele>491.4</ele>
        <time>2022-09-06T10:03:49Z</time>
      </trkpt>
      <trkpt lat="43.09622" lon="0.3056">
        <ele>491.2</ele>
        <time>2022-09-06T10:03:54Z</time>
      </trkpt>
      <trkpt lat="43.09631" lon="0.30553">
        <ele>490.8</ele>
        <time>2022-09-06T10:03:56Z</time>
      </trkpt>
      <trkpt lat="43.0964" lon="0.30546">
        <ele>489.6</ele>
        <time>2022-09-06T10:03:58Z</time>
      </trkpt>
      <trkpt lat="43.09643" lon="0.30542">
        <ele>489</ele>
        <time>2022-09-06T10:03:59Z</time>
      </trkpt>
      <trkpt lat="43.09646" lon="0.30539">
        <ele>488.2</ele>
        <time>2022-09-06T10:04:00Z</time>
      </trkpt>
      <trkpt lat="43.0965" lon="0.30535">
        <ele>487.6</ele>
        <time>2022-09-06T10:04:01Z</time>
      </trkpt>
      <trkpt lat="43.09652" lon="0.30532">
        <ele>486.8</ele>
        <time>2022-09-06T10:04:02Z</time>
      </trkpt>
      <trkpt lat="43.09656" lon="0.30526">
        <ele>486</ele>
        <time>2022-09-06T10:04:04Z</time>
      </trkpt>
      <trkpt lat="43.09658" lon="0.30523">
        <ele>485.4</ele>
        <time>2022-09-06T10:04:05Z</time>
      </trkpt>
      <trkpt lat="43.09659" lon="0.30518">
        <ele>484.2</ele>
        <time>2022-09-06T10:04:07Z</time>
      </trkpt>
      <trkpt lat="43.0966" lon="0.30516">
        <ele>483.8</ele>
        <time>2022-09-06T10:04:08Z</time>
      </trkpt>
      <trkpt lat="43.09662" lon="0.30511">
        <ele>483.2</ele>
        <time>2022-09-06T10:04:10Z</time>
      </trkpt>
      <trkpt lat="43.09664" lon="0.30498">
        <ele>481.8</ele>
        <time>2022-09-06T10:06:11Z</time>
      </trkpt>
      <trkpt lat="43.09672" lon="0.30479">
        <ele>481.4</ele>
        <time>2022-09-06T10:06:14Z</time>
      </trkpt>
      <trkpt lat="43.09673" lon="0.3047">
        <ele>480.8</ele>
        <time>2022-09-06T10:06:15Z</time>
      </trkpt>
      <trkpt lat="43.09677" lon="0.30452">
        <ele>480.4</ele>
        <time>2022-09-06T10:06:17Z</time>
      </trkpt>
      <trkpt lat="43.09683" lon="0.30414">
        <ele>479.6</ele>
        <time>2022-09-06T10:06:21Z</time>
      </trkpt>
      <trkpt lat="43.09686" lon="0.30396">
        <ele>479.4</ele>
        <time>2022-09-06T10:06:23Z</time>
      </trkpt>
      <trkpt lat="43.0969" lon="0.30365">
        <ele>478.6</ele>
        <time>2022-09-06T10:06:26Z</time>
      </trkpt>
      <trkpt lat="43.09691" lon="0.30342">
        <ele>477.8</ele>
        <time>2022-09-06T10:06:28Z</time>
      </trkpt>
      <trkpt lat="43.09691" lon="0.30331">
        <ele>477.4</ele>
        <time>2022-09-06T10:06:29Z</time>
      </trkpt>
      <trkpt lat="43.09688" lon="0.30303">
        <ele>476.4</ele>
        <time>2022-09-06T10:06:32Z</time>
      </trkpt>
      <trkpt lat="43.09686" lon="0.30273">
        <ele>476.2</ele>
        <time>2022-09-06T10:06:35Z</time>
      </trkpt>
      <trkpt lat="43.09685" lon="0.3025">
        <ele>475.2</ele>
        <time>2022-09-06T10:06:37Z</time>
      </trkpt>
      <trkpt lat="43.09686" lon="0.30239">
        <ele>474.6</ele>
        <time>2022-09-06T10:06:38Z</time>
      </trkpt>
      <trkpt lat="43.09687" lon="0.30191">
        <ele>473.6</ele>
        <time>2022-09-06T10:06:42Z</time>
      </trkpt>
      <trkpt lat="43.09688" lon="0.30166">
        <ele>471.8</ele>
        <time>2022-09-06T10:06:44Z</time>
      </trkpt>
      <trkpt lat="43.09689" lon="0.30142">
        <ele>470.2</ele>
        <time>2022-09-06T10:06:46Z</time>
      </trkpt>
      <trkpt lat="43.0969" lon="0.30118">
        <ele>468.8</ele>
        <time>2022-09-06T10:06:48Z</time>
      </trkpt>
      <trkpt lat="43.09688" lon="0.30081">
        <ele>467.2</ele>
        <time>2022-09-06T10:06:51Z</time>
      </trkpt>
      <trkpt lat="43.09687" lon="0.30069">
        <ele>466</ele>
        <time>2022-09-06T10:06:52Z</time>
      </trkpt>
      <trkpt lat="43.09686" lon="0.30057">
        <ele>464.6</ele>
        <time>2022-09-06T10:06:53Z</time>
      </trkpt>
      <trkpt lat="43.09686" lon="0.30045">
        <ele>463.6</ele>
        <time>2022-09-06T10:06:54Z</time>
      </trkpt>
      <trkpt lat="43.09687" lon="0.30021">
        <ele>461.6</ele>
        <time>2022-09-06T10:06:56Z</time>
      </trkpt>
      <trkpt lat="43.09688" lon="0.3001">
        <ele>460.6</ele>
        <time>2022-09-06T10:06:57Z</time>
      </trkpt>
      <trkpt lat="43.09691" lon="0.29999">
        <ele>460.2</ele>
        <time>2022-09-06T10:06:58Z</time>
      </trkpt>
      <trkpt lat="43.09698" lon="0.29978">
        <ele>459</ele>
        <time>2022-09-06T10:07:00Z</time>
      </trkpt>
      <trkpt lat="43.09702" lon="0.29969">
        <ele>458.4</ele>
        <time>2022-09-06T10:07:01Z</time>
      </trkpt>
      <trkpt lat="43.09706" lon="0.2996">
        <ele>458</ele>
        <time>2022-09-06T10:07:02Z</time>
      </trkpt>
      <trkpt lat="43.09712" lon="0.29943">
        <ele>456.8</ele>
        <time>2022-09-06T10:07:04Z</time>
      </trkpt>
      <trkpt lat="43.0972" lon="0.29918">
        <ele>456.4</ele>
        <time>2022-09-06T10:07:07Z</time>
      </trkpt>
      <trkpt lat="43.09722" lon="0.29911">
        <ele>455.8</ele>
        <time>2022-09-06T10:07:08Z</time>
      </trkpt>
      <trkpt lat="43.09734" lon="0.29877">
        <ele>454.4</ele>
        <time>2022-09-06T10:07:13Z</time>
      </trkpt>
      <trkpt lat="43.09739" lon="0.29862">
        <ele>453.2</ele>
        <time>2022-09-06T10:07:15Z</time>
      </trkpt>
      <trkpt lat="43.09747" lon="0.29838">
        <ele>452</ele>
        <time>2022-09-06T10:07:18Z</time>
      </trkpt>
      <trkpt lat="43.09752" lon="0.29822">
        <ele>451</ele>
        <time>2022-09-06T10:07:20Z</time>
      </trkpt>
      <trkpt lat="43.09755" lon="0.29813">
        <ele>450.6</ele>
        <time>2022-09-06T10:07:21Z</time>
      </trkpt>
      <trkpt lat="43.0976" lon="0.29795">
        <ele>449.6</ele>
        <time>2022-09-06T10:07:23Z</time>
      </trkpt>
      <trkpt lat="43.09762" lon="0.29785">
        <ele>449.2</ele>
        <time>2022-09-06T10:07:24Z</time>
      </trkpt>
      <trkpt lat="43.09764" lon="0.29769">
        <ele>448.6</ele>
        <time>2022-09-06T10:07:26Z</time>
      </trkpt>
      <trkpt lat="43.09764" lon="0.29763">
        <ele>448.2</ele>
        <time>2022-09-06T10:07:27Z</time>
      </trkpt>
      <trkpt lat="43.09763" lon="0.29755">
        <ele>447.8</ele>
        <time>2022-09-06T10:07:29Z</time>
      </trkpt>
      <trkpt lat="43.09763" lon="0.29753">
        <ele>447.6</ele>
        <time>2022-09-06T10:07:32Z</time>
      </trkpt>
      <trkpt lat="43.09759" lon="0.29744">
        <ele>447.6</ele>
        <time>2022-09-06T10:07:52Z</time>
      </trkpt>
      <trkpt lat="43.09757" lon="0.29741">
        <ele>447.6</ele>
        <time>2022-09-06T10:07:53Z</time>
      </trkpt>
      <trkpt lat="43.09756" lon="0.29738">
        <ele>447.6</ele>
        <time>2022-09-06T10:07:54Z</time>
      </trkpt>
      <trkpt lat="43.09744" lon="0.29709">
        <ele>447.4</ele>
        <time>2022-09-06T10:08:02Z</time>
      </trkpt>
      <trkpt lat="43.09733" lon="0.29687">
        <ele>447.4</ele>
        <time>2022-09-06T10:08:07Z</time>
      </trkpt>
      <trkpt lat="43.09729" lon="0.29678">
        <ele>447.2</ele>
        <time>2022-09-06T10:08:09Z</time>
      </trkpt>
      <trkpt lat="43.09715" lon="0.2965">
        <ele>447.4</ele>
        <time>2022-09-06T10:08:16Z</time>
      </trkpt>
      <trkpt lat="43.09708" lon="0.29625">
        <ele>447.2</ele>
        <time>2022-09-06T10:08:22Z</time>
      </trkpt>
      <trkpt lat="43.09709" lon="0.29602">
        <ele>447</ele>
        <time>2022-09-06T10:08:27Z</time>
      </trkpt>
      <trkpt lat="43.09709" lon="0.29588">
        <ele>446.6</ele>
        <time>2022-09-06T10:08:32Z</time>
      </trkpt>
      <trkpt lat="43.0971" lon="0.29577">
        <ele>446.4</ele>
        <time>2022-09-06T10:10:24Z</time>
      </trkpt>
      <trkpt lat="43.09711" lon="0.29573">
        <ele>446.4</ele>
        <time>2022-09-06T10:10:25Z</time>
      </trkpt>
      <trkpt lat="43.09721" lon="0.29545">
        <ele>446.6</ele>
        <time>2022-09-06T10:10:32Z</time>
      </trkpt>
      <trkpt lat="43.09733" lon="0.29502">
        <ele>446</ele>
        <time>2022-09-06T10:10:40Z</time>
      </trkpt>
      <trkpt lat="43.09739" lon="0.29477">
        <ele>445.6</ele>
        <time>2022-09-06T10:10:44Z</time>
      </trkpt>
      <trkpt lat="43.09741" lon="0.29464">
        <ele>445.6</ele>
        <time>2022-09-06T10:10:46Z</time>
      </trkpt>
      <trkpt lat="43.09741" lon="0.29458">
        <ele>445.4</ele>
        <time>2022-09-06T10:10:47Z</time>
      </trkpt>
      <trkpt lat="43.09739" lon="0.29425">
        <ele>445</ele>
        <time>2022-09-06T10:10:52Z</time>
      </trkpt>
      <trkpt lat="43.09737" lon="0.29389">
        <ele>444.4</ele>
        <time>2022-09-06T10:10:57Z</time>
      </trkpt>
      <trkpt lat="43.09738" lon="0.29382">
        <ele>444.2</ele>
        <time>2022-09-06T10:10:58Z</time>
      </trkpt>
      <trkpt lat="43.09741" lon="0.29367">
        <ele>444.2</ele>
        <time>2022-09-06T10:11:00Z</time>
      </trkpt>
      <trkpt lat="43.09742" lon="0.2936">
        <ele>444.4</ele>
        <time>2022-09-06T10:11:01Z</time>
      </trkpt>
      <trkpt lat="43.09748" lon="0.29339">
        <ele>443</ele>
        <time>2022-09-06T10:11:04Z</time>
      </trkpt>
      <trkpt lat="43.09757" lon="0.29309">
        <ele>442.4</ele>
        <time>2022-09-06T10:11:08Z</time>
      </trkpt>
      <trkpt lat="43.0976" lon="0.29302">
        <ele>442</ele>
        <time>2022-09-06T10:11:09Z</time>
      </trkpt>
      <trkpt lat="43.09773" lon="0.29278">
        <ele>441</ele>
        <time>2022-09-06T10:11:12Z</time>
      </trkpt>
      <trkpt lat="43.09779" lon="0.2927">
        <ele>440.2</ele>
        <time>2022-09-06T10:11:13Z</time>
      </trkpt>
      <trkpt lat="43.09784" lon="0.29262">
        <ele>439.6</ele>
        <time>2022-09-06T10:11:14Z</time>
      </trkpt>
      <trkpt lat="43.09796" lon="0.29245">
        <ele>438.6</ele>
        <time>2022-09-06T10:11:16Z</time>
      </trkpt>
      <trkpt lat="43.0981" lon="0.29231">
        <ele>438</ele>
        <time>2022-09-06T10:11:18Z</time>
      </trkpt>
      <trkpt lat="43.09825" lon="0.29218">
        <ele>437.4</ele>
        <time>2022-09-06T10:11:20Z</time>
      </trkpt>
      <trkpt lat="43.09846" lon="0.29197">
        <ele>436.2</ele>
        <time>2022-09-06T10:11:23Z</time>
      </trkpt>
      <trkpt lat="43.09853" lon="0.29189">
        <ele>435.8</ele>
        <time>2022-09-06T10:11:24Z</time>
      </trkpt>
      <trkpt lat="43.09865" lon="0.29173">
        <ele>435.2</ele>
        <time>2022-09-06T10:11:26Z</time>
      </trkpt>
      <trkpt lat="43.09869" lon="0.29163">
        <ele>435</ele>
        <time>2022-09-06T10:11:27Z</time>
      </trkpt>
      <trkpt lat="43.09873" lon="0.29151">
        <ele>434.4</ele>
        <time>2022-09-06T10:11:28Z</time>
      </trkpt>
      <trkpt lat="43.09875" lon="0.29139">
        <ele>434</ele>
        <time>2022-09-06T10:11:29Z</time>
      </trkpt>
      <trkpt lat="43.09876" lon="0.29114">
        <ele>433.6</ele>
        <time>2022-09-06T10:11:31Z</time>
      </trkpt>
      <trkpt lat="43.09876" lon="0.29102">
        <ele>433.4</ele>
        <time>2022-09-06T10:11:32Z</time>
      </trkpt>
      <trkpt lat="43.09874" lon="0.2908">
        <ele>432.8</ele>
        <time>2022-09-06T10:11:34Z</time>
      </trkpt>
      <trkpt lat="43.09872" lon="0.29069">
        <ele>432.6</ele>
        <time>2022-09-06T10:11:35Z</time>
      </trkpt>
      <trkpt lat="43.09866" lon="0.29043">
        <ele>431.4</ele>
        <time>2022-09-06T10:11:38Z</time>
      </trkpt>
      <trkpt lat="43.09863" lon="0.2903">
        <ele>430.6</ele>
        <time>2022-09-06T10:11:40Z</time>
      </trkpt>
      <trkpt lat="43.0986" lon="0.29026">
        <ele>430.2</ele>
        <time>2022-09-06T10:11:41Z</time>
      </trkpt>
      <trkpt lat="43.09857" lon="0.29019">
        <ele>429.6</ele>
        <time>2022-09-06T10:11:43Z</time>
      </trkpt>
      <trkpt lat="43.09857" lon="0.29019">
        <ele>429</ele>
        <time>2022-09-06T10:11:45Z</time>
      </trkpt>
      <trkpt lat="43.09854" lon="0.29004">
        <ele>429</ele>
        <time>2022-09-06T10:13:13Z</time>
      </trkpt>
      <trkpt lat="43.09855" lon="0.28981">
        <ele>428.8</ele>
        <time>2022-09-06T10:13:18Z</time>
      </trkpt>
      <trkpt lat="43.09863" lon="0.28951">
        <ele>428</ele>
        <time>2022-09-06T10:13:23Z</time>
      </trkpt>
      <trkpt lat="43.09876" lon="0.28922">
        <ele>427</ele>
        <time>2022-09-06T10:13:27Z</time>
      </trkpt>
      <trkpt lat="43.09883" lon="0.28905">
        <ele>426</ele>
        <time>2022-09-06T10:13:29Z</time>
      </trkpt>
      <trkpt lat="43.09886" lon="0.28896">
        <ele>425.8</ele>
        <time>2022-09-06T10:13:30Z</time>
      </trkpt>
      <trkpt lat="43.09895" lon="0.28868">
        <ele>425.2</ele>
        <time>2022-09-06T10:13:33Z</time>
      </trkpt>
      <trkpt lat="43.09899" lon="0.28849">
        <ele>424.8</ele>
        <time>2022-09-06T10:13:35Z</time>
      </trkpt>
      <trkpt lat="43.09897" lon="0.2883">
        <ele>424.4</ele>
        <time>2022-09-06T10:13:37Z</time>
      </trkpt>
      <trkpt lat="43.09895" lon="0.28821">
        <ele>424.6</ele>
        <time>2022-09-06T10:13:38Z</time>
      </trkpt>
      <trkpt lat="43.09891" lon="0.28805">
        <ele>424.6</ele>
        <time>2022-09-06T10:13:40Z</time>
      </trkpt>
      <trkpt lat="43.09885" lon="0.28785">
        <ele>425</ele>
        <time>2022-09-06T10:13:43Z</time>
      </trkpt>
      <trkpt lat="43.09876" lon="0.28759">
        <ele>424.6</ele>
        <time>2022-09-06T10:13:48Z</time>
      </trkpt>
      <trkpt lat="43.09875" lon="0.28753">
        <ele>424.6</ele>
        <time>2022-09-06T10:13:49Z</time>
      </trkpt>
      <trkpt lat="43.09872" lon="0.28741">
        <ele>424</ele>
        <time>2022-09-06T10:13:51Z</time>
      </trkpt>
      <trkpt lat="43.09861" lon="0.28732">
        <ele>423.8</ele>
        <time>2022-09-06T10:13:54Z</time>
      </trkpt>
      <trkpt lat="43.0985" lon="0.28729">
        <ele>423.2</ele>
        <time>2022-09-06T10:13:56Z</time>
      </trkpt>
      <trkpt lat="43.09838" lon="0.28725">
        <ele>422.6</ele>
        <time>2022-09-06T10:13:58Z</time>
      </trkpt>
      <trkpt lat="43.09818" lon="0.28715">
        <ele>422.2</ele>
        <time>2022-09-06T10:14:01Z</time>
      </trkpt>
      <trkpt lat="43.09803" lon="0.2871">
        <ele>421.8</ele>
        <time>2022-09-06T10:14:03Z</time>
      </trkpt>
      <trkpt lat="43.09788" lon="0.28707">
        <ele>420.8</ele>
        <time>2022-09-06T10:14:05Z</time>
      </trkpt>
      <trkpt lat="43.09771" lon="0.28705">
        <ele>419.8</ele>
        <time>2022-09-06T10:14:07Z</time>
      </trkpt>
      <trkpt lat="43.09764" lon="0.28705">
        <ele>419.4</ele>
        <time>2022-09-06T10:14:08Z</time>
      </trkpt>
      <trkpt lat="43.0975" lon="0.28706">
        <ele>418.8</ele>
        <time>2022-09-06T10:14:10Z</time>
      </trkpt>
      <trkpt lat="43.09731" lon="0.28709">
        <ele>418</ele>
        <time>2022-09-06T10:14:13Z</time>
      </trkpt>
      <trkpt lat="43.09726" lon="0.28707">
        <ele>417.4</ele>
        <time>2022-09-06T10:14:14Z</time>
      </trkpt>
      <trkpt lat="43.09716" lon="0.28702">
        <ele>416.2</ele>
        <time>2022-09-06T10:14:16Z</time>
      </trkpt>
      <trkpt lat="43.09712" lon="0.28698">
        <ele>416</ele>
        <time>2022-09-06T10:14:17Z</time>
      </trkpt>
      <trkpt lat="43.09702" lon="0.28683">
        <ele>415.2</ele>
        <time>2022-09-06T10:14:20Z</time>
      </trkpt>
      <trkpt lat="43.097" lon="0.28679">
        <ele>414.6</ele>
        <time>2022-09-06T10:14:21Z</time>
      </trkpt>
      <trkpt lat="43.09697" lon="0.28675">
        <ele>414</ele>
        <time>2022-09-06T10:14:22Z</time>
      </trkpt>
      <trkpt lat="43.09686" lon="0.28664">
        <ele>412.6</ele>
        <time>2022-09-06T10:14:25Z</time>
      </trkpt>
      <trkpt lat="43.09683" lon="0.28658">
        <ele>412.2</ele>
        <time>2022-09-06T10:14:26Z</time>
      </trkpt>
      <trkpt lat="43.09677" lon="0.28644">
        <ele>411.6</ele>
        <time>2022-09-06T10:14:28Z</time>
      </trkpt>
      <trkpt lat="43.09674" lon="0.28637">
        <ele>411.2</ele>
        <time>2022-09-06T10:14:29Z</time>
      </trkpt>
      <trkpt lat="43.0967" lon="0.28622">
        <ele>410.4</ele>
        <time>2022-09-06T10:14:31Z</time>
      </trkpt>
      <trkpt lat="43.09663" lon="0.28605">
        <ele>409.2</ele>
        <time>2022-09-06T10:14:34Z</time>
      </trkpt>
      <trkpt lat="43.09664" lon="0.286">
        <ele>408.8</ele>
        <time>2022-09-06T10:14:35Z</time>
      </trkpt>
      <trkpt lat="43.09673" lon="0.28584">
        <ele>408</ele>
        <time>2022-09-06T10:14:38Z</time>
      </trkpt>
      <trkpt lat="43.09684" lon="0.28573">
        <ele>407</ele>
        <time>2022-09-06T10:14:40Z</time>
      </trkpt>
      <trkpt lat="43.09691" lon="0.28567">
        <ele>406.6</ele>
        <time>2022-09-06T10:14:41Z</time>
      </trkpt>
      <trkpt lat="43.09698" lon="0.28561">
        <ele>406.2</ele>
        <time>2022-09-06T10:14:42Z</time>
      </trkpt>
      <trkpt lat="43.09712" lon="0.28547">
        <ele>405.4</ele>
        <time>2022-09-06T10:14:44Z</time>
      </trkpt>
      <trkpt lat="43.09726" lon="0.28531">
        <ele>404</ele>
        <time>2022-09-06T10:14:46Z</time>
      </trkpt>
      <trkpt lat="43.09733" lon="0.28523">
        <ele>403</ele>
        <time>2022-09-06T10:14:47Z</time>
      </trkpt>
      <trkpt lat="43.09741" lon="0.28514">
        <ele>402.2</ele>
        <time>2022-09-06T10:14:48Z</time>
      </trkpt>
      <trkpt lat="43.09757" lon="0.28496">
        <ele>400.8</ele>
        <time>2022-09-06T10:14:50Z</time>
      </trkpt>
      <trkpt lat="43.09773" lon="0.28478">
        <ele>399.2</ele>
        <time>2022-09-06T10:14:52Z</time>
      </trkpt>
      <trkpt lat="43.09797" lon="0.28454">
        <ele>397.6</ele>
        <time>2022-09-06T10:14:55Z</time>
      </trkpt>
      <trkpt lat="43.09812" lon="0.28435">
        <ele>396</ele>
        <time>2022-09-06T10:14:57Z</time>
      </trkpt>
      <trkpt lat="43.09819" lon="0.28424">
        <ele>395</ele>
        <time>2022-09-06T10:14:58Z</time>
      </trkpt>
      <trkpt lat="43.09826" lon="0.28412">
        <ele>393.8</ele>
        <time>2022-09-06T10:14:59Z</time>
      </trkpt>
      <trkpt lat="43.09839" lon="0.28386">
        <ele>392.4</ele>
        <time>2022-09-06T10:15:01Z</time>
      </trkpt>
      <trkpt lat="43.09852" lon="0.28361">
        <ele>390.8</ele>
        <time>2022-09-06T10:15:03Z</time>
      </trkpt>
      <trkpt lat="43.09859" lon="0.28348">
        <ele>389</ele>
        <time>2022-09-06T10:15:04Z</time>
      </trkpt>
      <trkpt lat="43.09866" lon="0.28336">
        <ele>388</ele>
        <time>2022-09-06T10:15:05Z</time>
      </trkpt>
      <trkpt lat="43.09872" lon="0.28323">
        <ele>386.8</ele>
        <time>2022-09-06T10:15:06Z</time>
      </trkpt>
      <trkpt lat="43.09877" lon="0.2831">
        <ele>385.6</ele>
        <time>2022-09-06T10:15:07Z</time>
      </trkpt>
      <trkpt lat="43.09881" lon="0.28297">
        <ele>384.6</ele>
        <time>2022-09-06T10:15:08Z</time>
      </trkpt>
      <trkpt lat="43.09885" lon="0.28285">
        <ele>383.6</ele>
        <time>2022-09-06T10:15:09Z</time>
      </trkpt>
      <trkpt lat="43.09887" lon="0.28271">
        <ele>382.8</ele>
        <time>2022-09-06T10:15:10Z</time>
      </trkpt>
      <trkpt lat="43.0989" lon="0.28259">
        <ele>381.6</ele>
        <time>2022-09-06T10:15:11Z</time>
      </trkpt>
      <trkpt lat="43.09893" lon="0.28248">
        <ele>380.6</ele>
        <time>2022-09-06T10:15:12Z</time>
      </trkpt>
      <trkpt lat="43.09895" lon="0.28236">
        <ele>379.8</ele>
        <time>2022-09-06T10:15:13Z</time>
      </trkpt>
      <trkpt lat="43.09902" lon="0.28211">
        <ele>378.4</ele>
        <time>2022-09-06T10:15:15Z</time>
      </trkpt>
      <trkpt lat="43.09911" lon="0.28187">
        <ele>376.6</ele>
        <time>2022-09-06T10:15:17Z</time>
      </trkpt>
      <trkpt lat="43.09916" lon="0.28176">
        <ele>375.4</ele>
        <time>2022-09-06T10:15:18Z</time>
      </trkpt>
      <trkpt lat="43.0992" lon="0.28164">
        <ele>374.4</ele>
        <time>2022-09-06T10:15:19Z</time>
      </trkpt>
      <trkpt lat="43.09925" lon="0.28154">
        <ele>373.4</ele>
        <time>2022-09-06T10:15:20Z</time>
      </trkpt>
      <trkpt lat="43.09929" lon="0.28144">
        <ele>372.2</ele>
        <time>2022-09-06T10:15:21Z</time>
      </trkpt>
      <trkpt lat="43.09932" lon="0.28135">
        <ele>371.2</ele>
        <time>2022-09-06T10:15:22Z</time>
      </trkpt>
      <trkpt lat="43.09934" lon="0.28125">
        <ele>370.4</ele>
        <time>2022-09-06T10:15:23Z</time>
      </trkpt>
      <trkpt lat="43.09935" lon="0.28113">
        <ele>369.8</ele>
        <time>2022-09-06T10:15:24Z</time>
      </trkpt>
      <trkpt lat="43.09935" lon="0.28089">
        <ele>368.4</ele>
        <time>2022-09-06T10:15:26Z</time>
      </trkpt>
      <trkpt lat="43.09934" lon="0.28063">
        <ele>366.4</ele>
        <time>2022-09-06T10:15:28Z</time>
      </trkpt>
      <trkpt lat="43.09932" lon="0.28037">
        <ele>364.6</ele>
        <time>2022-09-06T10:15:30Z</time>
      </trkpt>
      <trkpt lat="43.09931" lon="0.28024">
        <ele>363.6</ele>
        <time>2022-09-06T10:15:31Z</time>
      </trkpt>
      <trkpt lat="43.0993" lon="0.2801">
        <ele>362.6</ele>
        <time>2022-09-06T10:15:32Z</time>
      </trkpt>
      <trkpt lat="43.09927" lon="0.27983">
        <ele>360.8</ele>
        <time>2022-09-06T10:15:34Z</time>
      </trkpt>
      <trkpt lat="43.09921" lon="0.27958">
        <ele>359.2</ele>
        <time>2022-09-06T10:15:36Z</time>
      </trkpt>
      <trkpt lat="43.09916" lon="0.27946">
        <ele>358</ele>
        <time>2022-09-06T10:15:37Z</time>
      </trkpt>
      <trkpt lat="43.09912" lon="0.27935">
        <ele>357</ele>
        <time>2022-09-06T10:15:38Z</time>
      </trkpt>
      <trkpt lat="43.09902" lon="0.2791">
        <ele>355.2</ele>
        <time>2022-09-06T10:15:40Z</time>
      </trkpt>
      <trkpt lat="43.099" lon="0.27898">
        <ele>354</ele>
        <time>2022-09-06T10:15:41Z</time>
      </trkpt>
      <trkpt lat="43.09897" lon="0.27887">
        <ele>352.8</ele>
        <time>2022-09-06T10:15:42Z</time>
      </trkpt>
      <trkpt lat="43.09896" lon="0.27876">
        <ele>351.8</ele>
        <time>2022-09-06T10:15:43Z</time>
      </trkpt>
      <trkpt lat="43.09893" lon="0.27853">
        <ele>350.2</ele>
        <time>2022-09-06T10:15:45Z</time>
      </trkpt>
      <trkpt lat="43.09894" lon="0.27827">
        <ele>348.8</ele>
        <time>2022-09-06T10:15:47Z</time>
      </trkpt>
      <trkpt lat="43.09898" lon="0.27802">
        <ele>347.4</ele>
        <time>2022-09-06T10:15:49Z</time>
      </trkpt>
      <trkpt lat="43.09903" lon="0.27777">
        <ele>345.6</ele>
        <time>2022-09-06T10:15:51Z</time>
      </trkpt>
      <trkpt lat="43.09908" lon="0.27766">
        <ele>344.4</ele>
        <time>2022-09-06T10:15:52Z</time>
      </trkpt>
      <trkpt lat="43.09921" lon="0.27742">
        <ele>343</ele>
        <time>2022-09-06T10:15:54Z</time>
      </trkpt>
      <trkpt lat="43.09935" lon="0.27718">
        <ele>341.2</ele>
        <time>2022-09-06T10:15:56Z</time>
      </trkpt>
      <trkpt lat="43.09942" lon="0.27708">
        <ele>339.8</ele>
        <time>2022-09-06T10:15:57Z</time>
      </trkpt>
      <trkpt lat="43.09948" lon="0.27699">
        <ele>338.6</ele>
        <time>2022-09-06T10:15:58Z</time>
      </trkpt>
      <trkpt lat="43.09953" lon="0.27692">
        <ele>337.2</ele>
        <time>2022-09-06T10:15:59Z</time>
      </trkpt>
      <trkpt lat="43.09958" lon="0.27686">
        <ele>336.2</ele>
        <time>2022-09-06T10:16:00Z</time>
      </trkpt>
      <trkpt lat="43.09966" lon="0.27677">
        <ele>334.8</ele>
        <time>2022-09-06T10:16:02Z</time>
      </trkpt>
      <trkpt lat="43.09979" lon="0.27668">
        <ele>333.6</ele>
        <time>2022-09-06T10:16:05Z</time>
      </trkpt>
      <trkpt lat="43.09982" lon="0.27666">
        <ele>333</ele>
        <time>2022-09-06T10:16:06Z</time>
      </trkpt>
      <trkpt lat="43.09985" lon="0.27663">
        <ele>332.4</ele>
        <time>2022-09-06T10:16:07Z</time>
      </trkpt>
      <trkpt lat="43.09985" lon="0.27661">
        <ele>331.8</ele>
        <time>2022-09-06T10:16:08Z</time>
      </trkpt>
      <trkpt lat="43.09983" lon="0.27656">
        <ele>331.2</ele>
        <time>2022-09-06T10:16:09Z</time>
      </trkpt>
      <trkpt lat="43.09978" lon="0.27649">
        <ele>330</ele>
        <time>2022-09-06T10:16:12Z</time>
      </trkpt>
      <trkpt lat="43.09977" lon="0.27648">
        <ele>329.4</ele>
        <time>2022-09-06T10:16:13Z</time>
      </trkpt>
      <trkpt lat="43.09972" lon="0.27649">
        <ele>329</ele>
        <time>2022-09-06T10:16:23Z</time>
      </trkpt>
      <trkpt lat="43.09969" lon="0.27652">
        <ele>328.8</ele>
        <time>2022-09-06T10:16:24Z</time>
      </trkpt>
      <trkpt lat="43.09949" lon="0.2767">
        <ele>327.6</ele>
        <time>2022-09-06T10:16:29Z</time>
      </trkpt>
      <trkpt lat="43.09939" lon="0.27677">
        <ele>327</ele>
        <time>2022-09-06T10:16:31Z</time>
      </trkpt>
      <trkpt lat="43.0993" lon="0.27682">
        <ele>326.2</ele>
        <time>2022-09-06T10:16:33Z</time>
      </trkpt>
      <trkpt lat="43.09926" lon="0.27683">
        <ele>325.6</ele>
        <time>2022-09-06T10:16:34Z</time>
      </trkpt>
      <trkpt lat="43.09923" lon="0.27683">
        <ele>324.8</ele>
        <time>2022-09-06T10:16:35Z</time>
      </trkpt>
      <trkpt lat="43.0992" lon="0.2768">
        <ele>324.2</ele>
        <time>2022-09-06T10:16:36Z</time>
      </trkpt>
      <trkpt lat="43.0992" lon="0.27679">
        <ele>323.6</ele>
        <time>2022-09-06T10:16:37Z</time>
      </trkpt>
      <trkpt lat="43.09921" lon="0.27668">
        <ele>322.4</ele>
        <time>2022-09-06T10:16:39Z</time>
      </trkpt>
      <trkpt lat="43.09927" lon="0.27662">
        <ele>321.2</ele>
        <time>2022-09-06T10:16:41Z</time>
      </trkpt>
      <trkpt lat="43.09931" lon="0.27656">
        <ele>320.8</ele>
        <time>2022-09-06T10:16:42Z</time>
      </trkpt>
      <trkpt lat="43.09935" lon="0.2765">
        <ele>320.2</ele>
        <time>2022-09-06T10:16:43Z</time>
      </trkpt>
      <trkpt lat="43.09939" lon="0.27643">
        <ele>320</ele>
        <time>2022-09-06T10:16:44Z</time>
      </trkpt>
      <trkpt lat="43.09957" lon="0.27622">
        <ele>318.4</ele>
        <time>2022-09-06T10:16:47Z</time>
      </trkpt>
      <trkpt lat="43.0997" lon="0.27609">
        <ele>316.8</ele>
        <time>2022-09-06T10:16:49Z</time>
      </trkpt>
      <trkpt lat="43.09987" lon="0.27594">
        <ele>314.8</ele>
        <time>2022-09-06T10:16:51Z</time>
      </trkpt>
      <trkpt lat="43.09997" lon="0.27585">
        <ele>314</ele>
        <time>2022-09-06T10:16:52Z</time>
      </trkpt>
      <trkpt lat="43.10006" lon="0.27577">
        <ele>313.2</ele>
        <time>2022-09-06T10:16:53Z</time>
      </trkpt>
      <trkpt lat="43.10025" lon="0.27561">
        <ele>311.2</ele>
        <time>2022-09-06T10:16:55Z</time>
      </trkpt>
      <trkpt lat="43.10033" lon="0.27555">
        <ele>310</ele>
        <time>2022-09-06T10:16:56Z</time>
      </trkpt>
      <trkpt lat="43.10041" lon="0.27548">
        <ele>309</ele>
        <time>2022-09-06T10:16:57Z</time>
      </trkpt>
      <trkpt lat="43.10049" lon="0.27541">
        <ele>308</ele>
        <time>2022-09-06T10:16:58Z</time>
      </trkpt>
      <trkpt lat="43.10057" lon="0.27535">
        <ele>307</ele>
        <time>2022-09-06T10:16:59Z</time>
      </trkpt>
      <trkpt lat="43.10072" lon="0.27523">
        <ele>305.4</ele>
        <time>2022-09-06T10:17:01Z</time>
      </trkpt>
      <trkpt lat="43.1008" lon="0.27517">
        <ele>304.8</ele>
        <time>2022-09-06T10:17:02Z</time>
      </trkpt>
      <trkpt lat="43.10088" lon="0.27512">
        <ele>304</ele>
        <time>2022-09-06T10:17:03Z</time>
      </trkpt>
      <trkpt lat="43.10096" lon="0.27508">
        <ele>301.8</ele>
        <time>2022-09-06T10:17:04Z</time>
      </trkpt>
      <trkpt lat="43.10112" lon="0.27501">
        <ele>300</ele>
        <time>2022-09-06T10:17:06Z</time>
      </trkpt>
      <trkpt lat="43.10119" lon="0.27497">
        <ele>299.2</ele>
        <time>2022-09-06T10:17:07Z</time>
      </trkpt>
      <trkpt lat="43.10126" lon="0.27495">
        <ele>298</ele>
        <time>2022-09-06T10:17:08Z</time>
      </trkpt>
      <trkpt lat="43.10142" lon="0.27483">
        <ele>296.2</ele>
        <time>2022-09-06T10:17:10Z</time>
      </trkpt>
      <trkpt lat="43.1015" lon="0.27473">
        <ele>295.6</ele>
        <time>2022-09-06T10:17:11Z</time>
      </trkpt>
      <trkpt lat="43.10158" lon="0.27465">
        <ele>294.8</ele>
        <time>2022-09-06T10:17:12Z</time>
      </trkpt>
      <trkpt lat="43.10172" lon="0.27449">
        <ele>292.8</ele>
        <time>2022-09-06T10:17:14Z</time>
      </trkpt>
      <trkpt lat="43.10179" lon="0.27442">
        <ele>291.6</ele>
        <time>2022-09-06T10:17:15Z</time>
      </trkpt>
      <trkpt lat="43.10185" lon="0.27436">
        <ele>290.8</ele>
        <time>2022-09-06T10:17:16Z</time>
      </trkpt>
      <trkpt lat="43.1019" lon="0.2743">
        <ele>290</ele>
        <time>2022-09-06T10:17:17Z</time>
      </trkpt>
      <trkpt lat="43.10199" lon="0.2742">
        <ele>288.4</ele>
        <time>2022-09-06T10:17:19Z</time>
      </trkpt>
      <trkpt lat="43.10205" lon="0.27414">
        <ele>287.6</ele>
        <time>2022-09-06T10:17:20Z</time>
      </trkpt>
      <trkpt lat="43.10211" lon="0.27408">
        <ele>287</ele>
        <time>2022-09-06T10:17:21Z</time>
      </trkpt>
      <trkpt lat="43.10225" lon="0.27395">
        <ele>285.6</ele>
        <time>2022-09-06T10:17:23Z</time>
      </trkpt>
      <trkpt lat="43.10237" lon="0.27381">
        <ele>284.4</ele>
        <time>2022-09-06T10:17:25Z</time>
      </trkpt>
      <trkpt lat="43.10241" lon="0.27375">
        <ele>283.8</ele>
        <time>2022-09-06T10:17:26Z</time>
      </trkpt>
      <trkpt lat="43.10244" lon="0.27368">
        <ele>283</ele>
        <time>2022-09-06T10:17:27Z</time>
      </trkpt>
      <trkpt lat="43.10246" lon="0.27362">
        <ele>282.2</ele>
        <time>2022-09-06T10:17:28Z</time>
      </trkpt>
      <trkpt lat="43.10246" lon="0.27355">
        <ele>281.8</ele>
        <time>2022-09-06T10:17:29Z</time>
      </trkpt>
      <trkpt lat="43.10244" lon="0.27342">
        <ele>281.4</ele>
        <time>2022-09-06T10:17:31Z</time>
      </trkpt>
      <trkpt lat="43.10239" lon="0.27331">
        <ele>281.6</ele>
        <time>2022-09-06T10:17:33Z</time>
      </trkpt>
      <trkpt lat="43.10236" lon="0.27323">
        <ele>282</ele>
        <time>2022-09-06T10:17:35Z</time>
      </trkpt>
      <trkpt lat="43.10232" lon="0.27309">
        <ele>282.6</ele>
        <time>2022-09-06T10:17:40Z</time>
      </trkpt>
      <trkpt lat="43.10233" lon="0.27302">
        <ele>282.8</ele>
        <time>2022-09-06T10:17:43Z</time>
      </trkpt>
      <trkpt lat="43.10233" lon="0.27295">
        <ele>283</ele>
        <time>2022-09-06T10:17:46Z</time>
      </trkpt>
      <trkpt lat="43.10232" lon="0.27293">
        <ele>282.8</ele>
        <time>2022-09-06T10:17:48Z</time>
      </trkpt>
      <trkpt lat="43.1023" lon="0.27293">
        <ele>282.8</ele>
        <time>2022-09-06T10:17:50Z</time>
      </trkpt>
      <trkpt lat="43.10235" lon="0.27287">
        <ele>283</ele>
        <time>2022-09-06T10:18:46Z</time>
      </trkpt>
      <trkpt lat="43.10236" lon="0.27284">
        <ele>283</ele>
        <time>2022-09-06T10:18:47Z</time>
      </trkpt>
      <trkpt lat="43.10246" lon="0.27266">
        <ele>283.2</ele>
        <time>2022-09-06T10:18:54Z</time>
      </trkpt>
      <trkpt lat="43.10255" lon="0.27246">
        <ele>282.8</ele>
        <time>2022-09-06T10:18:59Z</time>
      </trkpt>
      <trkpt lat="43.10266" lon="0.27221">
        <ele>282.2</ele>
        <time>2022-09-06T10:19:04Z</time>
      </trkpt>
      <trkpt lat="43.10271" lon="0.27213">
        <ele>282.2</ele>
        <time>2022-09-06T10:19:06Z</time>
      </trkpt>
      <trkpt lat="43.10295" lon="0.27179">
        <ele>282.4</ele>
        <time>2022-09-06T10:19:15Z</time>
      </trkpt>
      <trkpt lat="43.10323" lon="0.27155">
        <ele>282.6</ele>
        <time>2022-09-06T10:19:24Z</time>
      </trkpt>
      <trkpt lat="43.10342" lon="0.27138">
        <ele>283.2</ele>
        <time>2022-09-06T10:19:31Z</time>
      </trkpt>
      <trkpt lat="43.10348" lon="0.27125">
        <ele>283.8</ele>
        <time>2022-09-06T10:19:35Z</time>
      </trkpt>
      <trkpt lat="43.10348" lon="0.27121">
        <ele>284</ele>
        <time>2022-09-06T10:19:36Z</time>
      </trkpt>
      <trkpt lat="43.10343" lon="0.27095">
        <ele>285</ele>
        <time>2022-09-06T10:19:43Z</time>
      </trkpt>
      <trkpt lat="43.10342" lon="0.27091">
        <ele>285.2</ele>
        <time>2022-09-06T10:19:44Z</time>
      </trkpt>
      <trkpt lat="43.10338" lon="0.27068">
        <ele>286.2</ele>
        <time>2022-09-06T10:19:51Z</time>
      </trkpt>
      <trkpt lat="43.10337" lon="0.27065">
        <ele>286.4</ele>
        <time>2022-09-06T10:19:52Z</time>
      </trkpt>
      <trkpt lat="43.10335" lon="0.27038">
        <ele>287.2</ele>
        <time>2022-09-06T10:20:01Z</time>
      </trkpt>
      <trkpt lat="43.10335" lon="0.27017">
        <ele>287.6</ele>
        <time>2022-09-06T10:20:08Z</time>
      </trkpt>
      <trkpt lat="43.10335" lon="0.27009">
        <ele>287.8</ele>
        <time>2022-09-06T10:20:11Z</time>
      </trkpt>
      <trkpt lat="43.10332" lon="0.26994">
        <ele>288.6</ele>
        <time>2022-09-06T10:20:17Z</time>
      </trkpt>
      <trkpt lat="43.10329" lon="0.26981">
        <ele>289</ele>
        <time>2022-09-06T10:20:22Z</time>
      </trkpt>
      <trkpt lat="43.10329" lon="0.26979">
        <ele>289</ele>
        <time>2022-09-06T10:20:23Z</time>
      </trkpt>
      <trkpt lat="43.10333" lon="0.26975">
        <ele>289.4</ele>
        <time>2022-09-06T10:20:26Z</time>
      </trkpt>
      <trkpt lat="43.10338" lon="0.26972">
        <ele>289.8</ele>
        <time>2022-09-06T10:20:29Z</time>
      </trkpt>
      <trkpt lat="43.10343" lon="0.26969">
        <ele>290</ele>
        <time>2022-09-06T10:20:32Z</time>
      </trkpt>
      <trkpt lat="43.10359" lon="0.26963">
        <ele>289.8</ele>
        <time>2022-09-06T10:20:39Z</time>
      </trkpt>
      <trkpt lat="43.10381" lon="0.26954">
        <ele>289.6</ele>
        <time>2022-09-06T10:20:45Z</time>
      </trkpt>
      <trkpt lat="43.10392" lon="0.26949">
        <ele>288.2</ele>
        <time>2022-09-06T10:20:48Z</time>
      </trkpt>
      <trkpt lat="43.10397" lon="0.26947">
        <ele>287.4</ele>
        <time>2022-09-06T10:20:50Z</time>
      </trkpt>
      <trkpt lat="43.10399" lon="0.26946">
        <ele>287.2</ele>
        <time>2022-09-06T10:20:51Z</time>
      </trkpt>
      <trkpt lat="43.10403" lon="0.26945">
        <ele>286.4</ele>
        <time>2022-09-06T10:21:26Z</time>
      </trkpt>
      <trkpt lat="43.10416" lon="0.26936">
        <ele>286</ele>
        <time>2022-09-06T10:21:31Z</time>
      </trkpt>
      <trkpt lat="43.1044" lon="0.26924">
        <ele>285</ele>
        <time>2022-09-06T10:21:36Z</time>
      </trkpt>
      <trkpt lat="43.10446" lon="0.26922">
        <ele>285</ele>
        <time>2022-09-06T10:21:37Z</time>
      </trkpt>
      <trkpt lat="43.10476" lon="0.2691">
        <ele>283.8</ele>
        <time>2022-09-06T10:21:41Z</time>
      </trkpt>
      <trkpt lat="43.105" lon="0.26899">
        <ele>282.6</ele>
        <time>2022-09-06T10:21:44Z</time>
      </trkpt>
      <trkpt lat="43.10518" lon="0.26888">
        <ele>281.8</ele>
        <time>2022-09-06T10:21:46Z</time>
      </trkpt>
      <trkpt lat="43.10527" lon="0.26882">
        <ele>281.4</ele>
        <time>2022-09-06T10:21:47Z</time>
      </trkpt>
      <trkpt lat="43.10544" lon="0.26866">
        <ele>280.2</ele>
        <time>2022-09-06T10:21:49Z</time>
      </trkpt>
      <trkpt lat="43.10551" lon="0.26855">
        <ele>279.4</ele>
        <time>2022-09-06T10:21:50Z</time>
      </trkpt>
      <trkpt lat="43.10563" lon="0.26832">
        <ele>278.6</ele>
        <time>2022-09-06T10:21:52Z</time>
      </trkpt>
      <trkpt lat="43.10566" lon="0.26821">
        <ele>278.2</ele>
        <time>2022-09-06T10:21:53Z</time>
      </trkpt>
      <trkpt lat="43.10569" lon="0.26809">
        <ele>278</ele>
        <time>2022-09-06T10:21:54Z</time>
      </trkpt>
      <trkpt lat="43.10573" lon="0.26783">
        <ele>277.2</ele>
        <time>2022-09-06T10:21:56Z</time>
      </trkpt>
      <trkpt lat="43.10576" lon="0.26757">
        <ele>276.4</ele>
        <time>2022-09-06T10:21:58Z</time>
      </trkpt>
      <trkpt lat="43.10578" lon="0.26744">
        <ele>276</ele>
        <time>2022-09-06T10:21:59Z</time>
      </trkpt>
      <trkpt lat="43.10589" lon="0.26689">
        <ele>276.2</ele>
        <time>2022-09-06T10:22:04Z</time>
      </trkpt>
      <trkpt lat="43.10598" lon="0.26644">
        <ele>276</ele>
        <time>2022-09-06T10:22:09Z</time>
      </trkpt>
      <trkpt lat="43.10607" lon="0.26603">
        <ele>275.8</ele>
        <time>2022-09-06T10:22:15Z</time>
      </trkpt>
      <trkpt lat="43.1062" lon="0.26544">
        <ele>276</ele>
        <time>2022-09-06T10:22:24Z</time>
      </trkpt>
      <trkpt lat="43.1063" lon="0.26504">
        <ele>276.8</ele>
        <time>2022-09-06T10:22:32Z</time>
      </trkpt>
      <trkpt lat="43.10632" lon="0.26495">
        <ele>277</ele>
        <time>2022-09-06T10:22:34Z</time>
      </trkpt>
      <trkpt lat="43.10643" lon="0.26476">
        <ele>277.6</ele>
        <time>2022-09-06T10:22:40Z</time>
      </trkpt>
      <trkpt lat="43.10648" lon="0.26471">
        <ele>278.2</ele>
        <time>2022-09-06T10:22:42Z</time>
      </trkpt>
      <trkpt lat="43.10658" lon="0.26464">
        <ele>279.2</ele>
        <time>2022-09-06T10:22:46Z</time>
      </trkpt>
      <trkpt lat="43.1066" lon="0.26462">
        <ele>279.4</ele>
        <time>2022-09-06T10:22:47Z</time>
      </trkpt>
      <trkpt lat="43.10676" lon="0.26454">
        <ele>280.4</ele>
        <time>2022-09-06T10:22:55Z</time>
      </trkpt>
      <trkpt lat="43.10678" lon="0.26453">
        <ele>280.6</ele>
        <time>2022-09-06T10:22:56Z</time>
      </trkpt>
      <trkpt lat="43.10689" lon="0.26446">
        <ele>281.4</ele>
        <time>2022-09-06T10:23:02Z</time>
      </trkpt>
      <trkpt lat="43.10691" lon="0.26445">
        <ele>281.6</ele>
        <time>2022-09-06T10:23:03Z</time>
      </trkpt>
      <trkpt lat="43.10703" lon="0.26439">
        <ele>282.6</ele>
        <time>2022-09-06T10:23:09Z</time>
      </trkpt>
      <trkpt lat="43.10705" lon="0.26438">
        <ele>282.8</ele>
        <time>2022-09-06T10:23:10Z</time>
      </trkpt>
      <trkpt lat="43.10723" lon="0.26427">
        <ele>283.8</ele>
        <time>2022-09-06T10:23:19Z</time>
      </trkpt>
      <trkpt lat="43.10726" lon="0.26426">
        <ele>283.8</ele>
        <time>2022-09-06T10:23:20Z</time>
      </trkpt>
      <trkpt lat="43.10737" lon="0.26421">
        <ele>284.4</ele>
        <time>2022-09-06T10:23:25Z</time>
      </trkpt>
      <trkpt lat="43.10751" lon="0.26415">
        <ele>285</ele>
        <time>2022-09-06T10:23:31Z</time>
      </trkpt>
      <trkpt lat="43.10756" lon="0.26413">
        <ele>285</ele>
        <time>2022-09-06T10:23:33Z</time>
      </trkpt>
      <trkpt lat="43.1078" lon="0.26409">
        <ele>285.6</ele>
        <time>2022-09-06T10:23:42Z</time>
      </trkpt>
      <trkpt lat="43.10799" lon="0.26408">
        <ele>286</ele>
        <time>2022-09-06T10:23:49Z</time>
      </trkpt>
      <trkpt lat="43.10819" lon="0.26407">
        <ele>286.6</ele>
        <time>2022-09-06T10:23:56Z</time>
      </trkpt>
      <trkpt lat="43.10833" lon="0.26406">
        <ele>287</ele>
        <time>2022-09-06T10:24:01Z</time>
      </trkpt>
      <trkpt lat="43.10839" lon="0.26406">
        <ele>287.2</ele>
        <time>2022-09-06T10:24:03Z</time>
      </trkpt>
      <trkpt lat="43.10856" lon="0.26404">
        <ele>287.6</ele>
        <time>2022-09-06T10:24:10Z</time>
      </trkpt>
      <trkpt lat="43.10871" lon="0.26401">
        <ele>288.2</ele>
        <time>2022-09-06T10:24:17Z</time>
      </trkpt>
      <trkpt lat="43.10872" lon="0.26401">
        <ele>288.2</ele>
        <time>2022-09-06T10:24:18Z</time>
      </trkpt>
      <trkpt lat="43.1088" lon="0.26403">
        <ele>288.6</ele>
        <time>2022-09-06T10:24:32Z</time>
      </trkpt>
      <trkpt lat="43.10883" lon="0.26403">
        <ele>288.6</ele>
        <time>2022-09-06T10:24:33Z</time>
      </trkpt>
      <trkpt lat="43.10885" lon="0.26402">
        <ele>288.8</ele>
        <time>2022-09-06T10:24:34Z</time>
      </trkpt>
      <trkpt lat="43.10896" lon="0.26396">
        <ele>288.6</ele>
        <time>2022-09-06T10:24:38Z</time>
      </trkpt>
      <trkpt lat="43.10921" lon="0.26381">
        <ele>288.2</ele>
        <time>2022-09-06T10:24:45Z</time>
      </trkpt>
      <trkpt lat="43.10952" lon="0.26364">
        <ele>287.4</ele>
        <time>2022-09-06T10:24:52Z</time>
      </trkpt>
      <trkpt lat="43.10968" lon="0.26357">
        <ele>287</ele>
        <time>2022-09-06T10:24:55Z</time>
      </trkpt>
      <trkpt lat="43.10989" lon="0.26346">
        <ele>286.4</ele>
        <time>2022-09-06T10:24:59Z</time>
      </trkpt>
      <trkpt lat="43.10993" lon="0.26343">
        <ele>286.4</ele>
        <time>2022-09-06T10:25:00Z</time>
      </trkpt>
      <trkpt lat="43.10999" lon="0.2633">
        <ele>286</ele>
        <time>2022-09-06T10:25:02Z</time>
      </trkpt>
      <trkpt lat="43.11002" lon="0.26303">
        <ele>284.6</ele>
        <time>2022-09-06T10:25:05Z</time>
      </trkpt>
      <trkpt lat="43.11002" lon="0.26292">
        <ele>284.2</ele>
        <time>2022-09-06T10:25:06Z</time>
      </trkpt>
      <trkpt lat="43.11001" lon="0.26268">
        <ele>283.4</ele>
        <time>2022-09-06T10:25:08Z</time>
      </trkpt>
      <trkpt lat="43.11" lon="0.26244">
        <ele>282.2</ele>
        <time>2022-09-06T10:25:10Z</time>
      </trkpt>
      <trkpt lat="43.10999" lon="0.2622">
        <ele>281.2</ele>
        <time>2022-09-06T10:25:12Z</time>
      </trkpt>
      <trkpt lat="43.10998" lon="0.26208">
        <ele>280.8</ele>
        <time>2022-09-06T10:25:13Z</time>
      </trkpt>
      <trkpt lat="43.10995" lon="0.26181">
        <ele>279.6</ele>
        <time>2022-09-06T10:25:15Z</time>
      </trkpt>
      <trkpt lat="43.10993" lon="0.26154">
        <ele>278.2</ele>
        <time>2022-09-06T10:25:17Z</time>
      </trkpt>
      <trkpt lat="43.10992" lon="0.2614">
        <ele>277.6</ele>
        <time>2022-09-06T10:25:18Z</time>
      </trkpt>
      <trkpt lat="43.1099" lon="0.26125">
        <ele>276.8</ele>
        <time>2022-09-06T10:25:19Z</time>
      </trkpt>
      <trkpt lat="43.10988" lon="0.26095">
        <ele>275.6</ele>
        <time>2022-09-06T10:25:21Z</time>
      </trkpt>
      <trkpt lat="43.10985" lon="0.26064">
        <ele>274.4</ele>
        <time>2022-09-06T10:25:23Z</time>
      </trkpt>
      <trkpt lat="43.10984" lon="0.26049">
        <ele>273.6</ele>
        <time>2022-09-06T10:25:24Z</time>
      </trkpt>
      <trkpt lat="43.10983" lon="0.26034">
        <ele>272.6</ele>
        <time>2022-09-06T10:25:25Z</time>
      </trkpt>
      <trkpt lat="43.10979" lon="0.25979">
        <ele>271.2</ele>
        <time>2022-09-06T10:25:29Z</time>
      </trkpt>
      <trkpt lat="43.10978" lon="0.25965">
        <ele>271.2</ele>
        <time>2022-09-06T10:25:30Z</time>
      </trkpt>
      <trkpt lat="43.10972" lon="0.25897">
        <ele>271</ele>
        <time>2022-09-06T10:25:36Z</time>
      </trkpt>
      <trkpt lat="43.10967" lon="0.25854">
        <ele>270.6</ele>
        <time>2022-09-06T10:25:41Z</time>
      </trkpt>
      <trkpt lat="43.10964" lon="0.25809">
        <ele>270.8</ele>
        <time>2022-09-06T10:25:48Z</time>
      </trkpt>
      <trkpt lat="43.10964" lon="0.25769">
        <ele>270.8</ele>
        <time>2022-09-06T10:25:56Z</time>
      </trkpt>
      <trkpt lat="43.10964" lon="0.25744">
        <ele>270.8</ele>
        <time>2022-09-06T10:26:02Z</time>
      </trkpt>
      <trkpt lat="43.10964" lon="0.25731">
        <ele>270.8</ele>
        <time>2022-09-06T10:26:05Z</time>
      </trkpt>
      <trkpt lat="43.10966" lon="0.25695">
        <ele>271.2</ele>
        <time>2022-09-06T10:26:13Z</time>
      </trkpt>
      <trkpt lat="43.10967" lon="0.2566">
        <ele>271.4</ele>
        <time>2022-09-06T10:26:22Z</time>
      </trkpt>
      <trkpt lat="43.10971" lon="0.25644">
        <ele>271.6</ele>
        <time>2022-09-06T10:26:29Z</time>
      </trkpt>
      <trkpt lat="43.10979" lon="0.25643">
        <ele>271.2</ele>
        <time>2022-09-06T10:26:34Z</time>
      </trkpt>
      <trkpt lat="43.10993" lon="0.25644">
        <ele>271</ele>
        <time>2022-09-06T10:26:41Z</time>
      </trkpt>
      <trkpt lat="43.11009" lon="0.25646">
        <ele>270.6</ele>
        <time>2022-09-06T10:26:49Z</time>
      </trkpt>
      <trkpt lat="43.11002" lon="0.25644">
        <ele>271.4</ele>
        <time>2022-09-06T10:32:05Z</time>
      </trkpt>
      <trkpt lat="43.11" lon="0.25644">
        <ele>271.4</ele>
        <time>2022-09-06T10:32:06Z</time>
      </trkpt>
      <trkpt lat="43.10994" lon="0.25644">
        <ele>271.6</ele>
        <time>2022-09-06T10:32:09Z</time>
      </trkpt>
      <trkpt lat="43.10987" lon="0.25645">
        <ele>271.6</ele>
        <time>2022-09-06T10:32:14Z</time>
      </trkpt>
      <trkpt lat="43.10981" lon="0.25643">
        <ele>272</ele>
        <time>2022-09-06T10:32:41Z</time>
      </trkpt>
      <trkpt lat="43.10979" lon="0.25643">
        <ele>272</ele>
        <time>2022-09-06T10:32:42Z</time>
      </trkpt>
      <trkpt lat="43.10977" lon="0.25642">
        <ele>272.2</ele>
        <time>2022-09-06T10:32:44Z</time>
      </trkpt>
      <trkpt lat="43.1097" lon="0.25645">
        <ele>272.4</ele>
        <time>2022-09-06T10:32:49Z</time>
      </trkpt>
      <trkpt lat="43.10965" lon="0.25657">
        <ele>272.6</ele>
        <time>2022-09-06T10:32:55Z</time>
      </trkpt>
      <trkpt lat="43.10964" lon="0.25682">
        <ele>272.4</ele>
        <time>2022-09-06T10:33:03Z</time>
      </trkpt>
      <trkpt lat="43.10964" lon="0.25711">
        <ele>272</ele>
        <time>2022-09-06T10:33:11Z</time>
      </trkpt>
      <trkpt lat="43.10963" lon="0.25744">
        <ele>272.2</ele>
        <time>2022-09-06T10:33:19Z</time>
      </trkpt>
      <trkpt lat="43.10965" lon="0.25767">
        <ele>272</ele>
        <time>2022-09-06T10:33:26Z</time>
      </trkpt>
      <trkpt lat="43.10968" lon="0.25777">
        <ele>271.4</ele>
        <time>2022-09-06T10:33:31Z</time>
      </trkpt>
      <trkpt lat="43.10964" lon="0.25784">
        <ele>272</ele>
        <time>2022-09-06T10:34:49Z</time>
      </trkpt>
      <trkpt lat="43.10962" lon="0.2579">
        <ele>272</ele>
        <time>2022-09-06T10:34:51Z</time>
      </trkpt>
      <trkpt lat="43.10961" lon="0.25807">
        <ele>272</ele>
        <time>2022-09-06T10:34:56Z</time>
      </trkpt>
      <trkpt lat="43.10963" lon="0.25842">
        <ele>272.2</ele>
        <time>2022-09-06T10:35:06Z</time>
      </trkpt>
      <trkpt lat="43.10966" lon="0.25876">
        <ele>271.6</ele>
        <time>2022-09-06T10:35:14Z</time>
      </trkpt>
      <trkpt lat="43.10967" lon="0.25886">
        <ele>271.4</ele>
        <time>2022-09-06T10:35:16Z</time>
      </trkpt>
      <trkpt lat="43.10969" lon="0.25904">
        <ele>271.2</ele>
        <time>2022-09-06T10:35:19Z</time>
      </trkpt>
      <trkpt lat="43.1097" lon="0.2591">
        <ele>271</ele>
        <time>2022-09-06T10:35:20Z</time>
      </trkpt>
      <trkpt lat="43.10975" lon="0.25957">
        <ele>270.8</ele>
        <time>2022-09-06T10:35:28Z</time>
      </trkpt>
      <trkpt lat="43.10978" lon="0.25994">
        <ele>271</ele>
        <time>2022-09-06T10:35:35Z</time>
      </trkpt>
      <trkpt lat="43.10981" lon="0.26034">
        <ele>271.8</ele>
        <time>2022-09-06T10:35:43Z</time>
      </trkpt>
      <trkpt lat="43.10983" lon="0.26071">
        <ele>272</ele>
        <time>2022-09-06T10:35:51Z</time>
      </trkpt>
      <trkpt lat="43.10984" lon="0.26079">
        <ele>272.2</ele>
        <time>2022-09-06T10:35:53Z</time>
      </trkpt>
      <trkpt lat="43.10986" lon="0.26104">
        <ele>273.2</ele>
        <time>2022-09-06T10:36:00Z</time>
      </trkpt>
      <trkpt lat="43.10988" lon="0.26125">
        <ele>274.4</ele>
        <time>2022-09-06T10:36:07Z</time>
      </trkpt>
      <trkpt lat="43.10989" lon="0.2613">
        <ele>274.8</ele>
        <time>2022-09-06T10:36:09Z</time>
      </trkpt>
      <trkpt lat="43.1099" lon="0.26138">
        <ele>275.4</ele>
        <time>2022-09-06T10:36:12Z</time>
      </trkpt>
      <trkpt lat="43.1099" lon="0.26152">
        <ele>276.2</ele>
        <time>2022-09-06T10:36:17Z</time>
      </trkpt>
      <trkpt lat="43.1099" lon="0.26155">
        <ele>276.4</ele>
        <time>2022-09-06T10:36:18Z</time>
      </trkpt>
      <trkpt lat="43.10992" lon="0.26173">
        <ele>277.4</ele>
        <time>2022-09-06T10:36:25Z</time>
      </trkpt>
      <trkpt lat="43.10992" lon="0.26175">
        <ele>277.8</ele>
        <time>2022-09-06T10:36:26Z</time>
      </trkpt>
      <trkpt lat="43.10994" lon="0.26191">
        <ele>278.6</ele>
        <time>2022-09-06T10:36:32Z</time>
      </trkpt>
      <trkpt lat="43.10994" lon="0.26196">
        <ele>278.8</ele>
        <time>2022-09-06T10:36:34Z</time>
      </trkpt>
      <trkpt lat="43.10996" lon="0.26214">
        <ele>279.8</ele>
        <time>2022-09-06T10:36:41Z</time>
      </trkpt>
      <trkpt lat="43.10996" lon="0.26216">
        <ele>280</ele>
        <time>2022-09-06T10:36:42Z</time>
      </trkpt>
      <trkpt lat="43.10997" lon="0.2623">
        <ele>281</ele>
        <time>2022-09-06T10:36:47Z</time>
      </trkpt>
      <trkpt lat="43.10998" lon="0.26242">
        <ele>281.4</ele>
        <time>2022-09-06T10:36:51Z</time>
      </trkpt>
      <trkpt lat="43.10999" lon="0.26256">
        <ele>282</ele>
        <time>2022-09-06T10:36:56Z</time>
      </trkpt>
      <trkpt lat="43.10999" lon="0.26268">
        <ele>282.4</ele>
        <time>2022-09-06T10:37:00Z</time>
      </trkpt>
      <trkpt lat="43.10999" lon="0.26282">
        <ele>283.2</ele>
        <time>2022-09-06T10:37:05Z</time>
      </trkpt>
      <trkpt lat="43.10999" lon="0.26292">
        <ele>283.8</ele>
        <time>2022-09-06T10:37:09Z</time>
      </trkpt>
      <trkpt lat="43.10999" lon="0.26304">
        <ele>284.2</ele>
        <time>2022-09-06T10:37:13Z</time>
      </trkpt>
      <trkpt lat="43.10999" lon="0.26316">
        <ele>284.8</ele>
        <time>2022-09-06T10:37:18Z</time>
      </trkpt>
      <trkpt lat="43.10999" lon="0.26323">
        <ele>285.2</ele>
        <time>2022-09-06T10:37:21Z</time>
      </trkpt>
      <trkpt lat="43.11" lon="0.26329">
        <ele>286</ele>
        <time>2022-09-06T10:37:24Z</time>
      </trkpt>
      <trkpt lat="43.11002" lon="0.26333">
        <ele>286.2</ele>
        <time>2022-09-06T10:37:26Z</time>
      </trkpt>
      <trkpt lat="43.11009" lon="0.26338">
        <ele>287</ele>
        <time>2022-09-06T10:37:30Z</time>
      </trkpt>
      <trkpt lat="43.11018" lon="0.26335">
        <ele>287</ele>
        <time>2022-09-06T10:37:35Z</time>
      </trkpt>
      <trkpt lat="43.11038" lon="0.26326">
        <ele>286.8</ele>
        <time>2022-09-06T10:37:42Z</time>
      </trkpt>
      <trkpt lat="43.11041" lon="0.26324">
        <ele>286.8</ele>
        <time>2022-09-06T10:37:43Z</time>
      </trkpt>
      <trkpt lat="43.11062" lon="0.26314">
        <ele>286.6</ele>
        <time>2022-09-06T10:37:49Z</time>
      </trkpt>
      <trkpt lat="43.11084" lon="0.26299">
        <ele>287</ele>
        <time>2022-09-06T10:37:56Z</time>
      </trkpt>
      <trkpt lat="43.11092" lon="0.26295">
        <ele>287.4</ele>
        <time>2022-09-06T10:37:58Z</time>
      </trkpt>
      <trkpt lat="43.11117" lon="0.26278">
        <ele>287.6</ele>
        <time>2022-09-06T10:38:05Z</time>
      </trkpt>
      <trkpt lat="43.11144" lon="0.26256">
        <ele>287.4</ele>
        <time>2022-09-06T10:38:12Z</time>
      </trkpt>
      <trkpt lat="43.11171" lon="0.26235">
        <ele>286.4</ele>
        <time>2022-09-06T10:38:18Z</time>
      </trkpt>
      <trkpt lat="43.11175" lon="0.26232">
        <ele>286.2</ele>
        <time>2022-09-06T10:38:19Z</time>
      </trkpt>
      <trkpt lat="43.1122" lon="0.26197">
        <ele>285.8</ele>
        <time>2022-09-06T10:38:28Z</time>
      </trkpt>
      <trkpt lat="43.1124" lon="0.26181">
        <ele>285.8</ele>
        <time>2022-09-06T10:38:32Z</time>
      </trkpt>
      <trkpt lat="43.11256" lon="0.26169">
        <ele>285.2</ele>
        <time>2022-09-06T10:38:35Z</time>
      </trkpt>
      <trkpt lat="43.11293" lon="0.26151">
        <ele>284</ele>
        <time>2022-09-06T10:38:41Z</time>
      </trkpt>
      <trkpt lat="43.11307" lon="0.26147">
        <ele>283</ele>
        <time>2022-09-06T10:38:43Z</time>
      </trkpt>
      <trkpt lat="43.11337" lon="0.26138">
        <ele>282</ele>
        <time>2022-09-06T10:38:47Z</time>
      </trkpt>
      <trkpt lat="43.11354" lon="0.26133">
        <ele>281.2</ele>
        <time>2022-09-06T10:38:49Z</time>
      </trkpt>
      <trkpt lat="43.11362" lon="0.26131">
        <ele>280.8</ele>
        <time>2022-09-06T10:38:50Z</time>
      </trkpt>
      <trkpt lat="43.11388" lon="0.26124">
        <ele>279.6</ele>
        <time>2022-09-06T10:38:53Z</time>
      </trkpt>
      <trkpt lat="43.11415" lon="0.26115">
        <ele>278.2</ele>
        <time>2022-09-06T10:38:56Z</time>
      </trkpt>
      <trkpt lat="43.11424" lon="0.26112">
        <ele>277.8</ele>
        <time>2022-09-06T10:38:57Z</time>
      </trkpt>
      <trkpt lat="43.11442" lon="0.26106">
        <ele>277.2</ele>
        <time>2022-09-06T10:38:59Z</time>
      </trkpt>
      <trkpt lat="43.11486" lon="0.26085">
        <ele>276.2</ele>
        <time>2022-09-06T10:39:04Z</time>
      </trkpt>
      <trkpt lat="43.11503" lon="0.26074">
        <ele>274.4</ele>
        <time>2022-09-06T10:39:06Z</time>
      </trkpt>
      <trkpt lat="43.11542" lon="0.26048">
        <ele>273.4</ele>
        <time>2022-09-06T10:39:11Z</time>
      </trkpt>
      <trkpt lat="43.11583" lon="0.26022">
        <ele>272.6</ele>
        <time>2022-09-06T10:39:17Z</time>
      </trkpt>
      <trkpt lat="43.11616" lon="0.26">
        <ele>273.4</ele>
        <time>2022-09-06T10:39:23Z</time>
      </trkpt>
      <trkpt lat="43.11633" lon="0.25988">
        <ele>274.6</ele>
        <time>2022-09-06T10:39:27Z</time>
      </trkpt>
      <trkpt lat="43.11637" lon="0.25986">
        <ele>274.8</ele>
        <time>2022-09-06T10:39:28Z</time>
      </trkpt>
      <trkpt lat="43.11657" lon="0.25974">
        <ele>275</ele>
        <time>2022-09-06T10:39:34Z</time>
      </trkpt>
      <trkpt lat="43.1166" lon="0.25972">
        <ele>275</ele>
        <time>2022-09-06T10:39:35Z</time>
      </trkpt>
      <trkpt lat="43.11672" lon="0.25964">
        <ele>274.4</ele>
        <time>2022-09-06T10:39:39Z</time>
      </trkpt>
      <trkpt lat="43.11699" lon="0.25952">
        <ele>273.8</ele>
        <time>2022-09-06T10:39:44Z</time>
      </trkpt>
      <trkpt lat="43.11706" lon="0.25949">
        <ele>273.2</ele>
        <time>2022-09-06T10:39:45Z</time>
      </trkpt>
      <trkpt lat="43.1172" lon="0.25944">
        <ele>272</ele>
        <time>2022-09-06T10:39:47Z</time>
      </trkpt>
      <trkpt lat="43.11742" lon="0.25935">
        <ele>271.6</ele>
        <time>2022-09-06T10:39:50Z</time>
      </trkpt>
      <trkpt lat="43.11764" lon="0.25925">
        <ele>270.6</ele>
        <time>2022-09-06T10:39:53Z</time>
      </trkpt>
      <trkpt lat="43.11799" lon="0.25912">
        <ele>269.4</ele>
        <time>2022-09-06T10:39:58Z</time>
      </trkpt>
      <trkpt lat="43.11836" lon="0.25904">
        <ele>268.6</ele>
        <time>2022-09-06T10:40:04Z</time>
      </trkpt>
      <trkpt lat="43.11842" lon="0.25903">
        <ele>268.6</ele>
        <time>2022-09-06T10:40:05Z</time>
      </trkpt>
      <trkpt lat="43.11848" lon="0.25903">
        <ele>268.4</ele>
        <time>2022-09-06T10:40:06Z</time>
      </trkpt>
      <trkpt lat="43.11889" lon="0.25902">
        <ele>268</ele>
        <time>2022-09-06T10:40:13Z</time>
      </trkpt>
      <trkpt lat="43.11927" lon="0.25902">
        <ele>268.2</ele>
        <time>2022-09-06T10:40:20Z</time>
      </trkpt>
      <trkpt lat="43.11969" lon="0.25903">
        <ele>267.8</ele>
        <time>2022-09-06T10:40:28Z</time>
      </trkpt>
      <trkpt lat="43.11997" lon="0.25906">
        <ele>267.8</ele>
        <time>2022-09-06T10:40:34Z</time>
      </trkpt>
      <trkpt lat="43.12006" lon="0.25909">
        <ele>268</ele>
        <time>2022-09-06T10:40:36Z</time>
      </trkpt>
      <trkpt lat="43.12021" lon="0.25914">
        <ele>268.2</ele>
        <time>2022-09-06T10:40:39Z</time>
      </trkpt>
      <trkpt lat="43.12036" lon="0.25924">
        <ele>268.4</ele>
        <time>2022-09-06T10:40:42Z</time>
      </trkpt>
      <trkpt lat="43.12059" lon="0.25948">
        <ele>268.8</ele>
        <time>2022-09-06T10:40:48Z</time>
      </trkpt>
      <trkpt lat="43.12062" lon="0.25953">
        <ele>269</ele>
        <time>2022-09-06T10:40:49Z</time>
      </trkpt>
      <trkpt lat="43.12074" lon="0.25974">
        <ele>269.4</ele>
        <time>2022-09-06T10:40:54Z</time>
      </trkpt>
      <trkpt lat="43.12078" lon="0.25983">
        <ele>269.6</ele>
        <time>2022-09-06T10:40:56Z</time>
      </trkpt>
      <trkpt lat="43.12087" lon="0.26008">
        <ele>270.2</ele>
        <time>2022-09-06T10:41:02Z</time>
      </trkpt>
      <trkpt lat="43.1209" lon="0.26017">
        <ele>270.6</ele>
        <time>2022-09-06T10:41:04Z</time>
      </trkpt>
      <trkpt lat="43.12093" lon="0.26029">
        <ele>271</ele>
        <time>2022-09-06T10:41:07Z</time>
      </trkpt>
      <trkpt lat="43.12096" lon="0.26046">
        <ele>271.6</ele>
        <time>2022-09-06T10:41:11Z</time>
      </trkpt>
      <trkpt lat="43.12099" lon="0.26059">
        <ele>272</ele>
        <time>2022-09-06T10:41:14Z</time>
      </trkpt>
      <trkpt lat="43.12106" lon="0.26078">
        <ele>272.6</ele>
        <time>2022-09-06T10:41:19Z</time>
      </trkpt>
      <trkpt lat="43.12111" lon="0.26085">
        <ele>272.8</ele>
        <time>2022-09-06T10:41:21Z</time>
      </trkpt>
      <trkpt lat="43.12129" lon="0.26103">
        <ele>272.6</ele>
        <time>2022-09-06T10:41:27Z</time>
      </trkpt>
      <trkpt lat="43.12164" lon="0.26122">
        <ele>272.2</ele>
        <time>2022-09-06T10:41:34Z</time>
      </trkpt>
      <trkpt lat="43.12209" lon="0.26145">
        <ele>272.2</ele>
        <time>2022-09-06T10:41:43Z</time>
      </trkpt>
      <trkpt lat="43.1223" lon="0.26157">
        <ele>271.6</ele>
        <time>2022-09-06T10:41:47Z</time>
      </trkpt>
      <trkpt lat="43.12241" lon="0.26163">
        <ele>271.4</ele>
        <time>2022-09-06T10:41:49Z</time>
      </trkpt>
      <trkpt lat="43.12279" lon="0.26184">
        <ele>270.6</ele>
        <time>2022-09-06T10:41:56Z</time>
      </trkpt>
      <trkpt lat="43.1232" lon="0.26207">
        <ele>270</ele>
        <time>2022-09-06T10:42:04Z</time>
      </trkpt>
      <trkpt lat="43.12353" lon="0.26226">
        <ele>270.2</ele>
        <time>2022-09-06T10:42:11Z</time>
      </trkpt>
      <trkpt lat="43.12382" lon="0.26243">
        <ele>270.6</ele>
        <time>2022-09-06T10:42:18Z</time>
      </trkpt>
      <trkpt lat="43.12394" lon="0.26251">
        <ele>270.8</ele>
        <time>2022-09-06T10:42:21Z</time>
      </trkpt>
      <trkpt lat="43.12406" lon="0.26259">
        <ele>271</ele>
        <time>2022-09-06T10:42:24Z</time>
      </trkpt>
      <trkpt lat="43.12423" lon="0.26268">
        <ele>271.8</ele>
        <time>2022-09-06T10:42:29Z</time>
      </trkpt>
      <trkpt lat="43.12427" lon="0.2627">
        <ele>272.2</ele>
        <time>2022-09-06T10:42:30Z</time>
      </trkpt>
      <trkpt lat="43.12444" lon="0.26274">
        <ele>273</ele>
        <time>2022-09-06T10:42:35Z</time>
      </trkpt>
      <trkpt lat="43.12451" lon="0.26274">
        <ele>273.2</ele>
        <time>2022-09-06T10:42:37Z</time>
      </trkpt>
      <trkpt lat="43.12468" lon="0.26272">
        <ele>274</ele>
        <time>2022-09-06T10:42:42Z</time>
      </trkpt>
      <trkpt lat="43.12475" lon="0.2627">
        <ele>274.2</ele>
        <time>2022-09-06T10:42:44Z</time>
      </trkpt>
      <trkpt lat="43.12496" lon="0.2626">
        <ele>274.8</ele>
        <time>2022-09-06T10:42:52Z</time>
      </trkpt>
      <trkpt lat="43.12502" lon="0.26258">
        <ele>274.8</ele>
        <time>2022-09-06T10:42:54Z</time>
      </trkpt>
      <trkpt lat="43.12509" lon="0.26255">
        <ele>274.8</ele>
        <time>2022-09-06T10:42:56Z</time>
      </trkpt>
      <trkpt lat="43.12538" lon="0.26234">
        <ele>274.4</ele>
        <time>2022-09-06T10:43:04Z</time>
      </trkpt>
      <trkpt lat="43.12566" lon="0.26215">
        <ele>273.4</ele>
        <time>2022-09-06T10:43:11Z</time>
      </trkpt>
      <trkpt lat="43.12571" lon="0.26212">
        <ele>273.4</ele>
        <time>2022-09-06T10:43:12Z</time>
      </trkpt>
      <trkpt lat="43.12581" lon="0.26206">
        <ele>273</ele>
        <time>2022-09-06T10:43:14Z</time>
      </trkpt>
      <trkpt lat="43.12591" lon="0.26202">
        <ele>272.4</ele>
        <time>2022-09-06T10:43:16Z</time>
      </trkpt>
      <trkpt lat="43.12602" lon="0.26199">
        <ele>272</ele>
        <time>2022-09-06T10:43:18Z</time>
      </trkpt>
      <trkpt lat="43.12634" lon="0.26191">
        <ele>271</ele>
        <time>2022-09-06T10:43:23Z</time>
      </trkpt>
      <trkpt lat="43.1264" lon="0.2619">
        <ele>270.8</ele>
        <time>2022-09-06T10:43:24Z</time>
      </trkpt>
      <trkpt lat="43.1267" lon="0.26184">
        <ele>269.8</ele>
        <time>2022-09-06T10:43:28Z</time>
      </trkpt>
      <trkpt lat="43.12678" lon="0.26182">
        <ele>269.4</ele>
        <time>2022-09-06T10:43:29Z</time>
      </trkpt>
      <trkpt lat="43.12686" lon="0.26181">
        <ele>269.2</ele>
        <time>2022-09-06T10:43:30Z</time>
      </trkpt>
      <trkpt lat="43.12709" lon="0.26178">
        <ele>268.2</ele>
        <time>2022-09-06T10:43:33Z</time>
      </trkpt>
      <trkpt lat="43.12739" lon="0.26173">
        <ele>267.2</ele>
        <time>2022-09-06T10:43:37Z</time>
      </trkpt>
      <trkpt lat="43.1276" lon="0.26171">
        <ele>267</ele>
        <time>2022-09-06T10:43:40Z</time>
      </trkpt>
      <trkpt lat="43.12806" lon="0.26168">
        <ele>266.4</ele>
        <time>2022-09-06T10:43:47Z</time>
      </trkpt>
      <trkpt lat="43.12817" lon="0.26166">
        <ele>266</ele>
        <time>2022-09-06T10:43:49Z</time>
      </trkpt>
      <trkpt lat="43.12848" lon="0.26165">
        <ele>265.2</ele>
        <time>2022-09-06T10:43:54Z</time>
      </trkpt>
      <trkpt lat="43.12896" lon="0.2616">
        <ele>265.4</ele>
        <time>2022-09-06T10:44:02Z</time>
      </trkpt>
      <trkpt lat="43.1292" lon="0.26156">
        <ele>265.2</ele>
        <time>2022-09-06T10:44:06Z</time>
      </trkpt>
      <trkpt lat="43.12932" lon="0.26155">
        <ele>265.2</ele>
        <time>2022-09-06T10:44:08Z</time>
      </trkpt>
      <trkpt lat="43.12948" lon="0.26155">
        <ele>265</ele>
        <time>2022-09-06T10:44:11Z</time>
      </trkpt>
      <trkpt lat="43.12966" lon="0.26158">
        <ele>264.8</ele>
        <time>2022-09-06T10:44:14Z</time>
      </trkpt>
      <trkpt lat="43.13007" lon="0.26161">
        <ele>264</ele>
        <time>2022-09-06T10:44:21Z</time>
      </trkpt>
      <trkpt lat="43.13022" lon="0.26161">
        <ele>263.6</ele>
        <time>2022-09-06T10:44:24Z</time>
      </trkpt>
      <trkpt lat="43.13033" lon="0.26161">
        <ele>263.4</ele>
        <time>2022-09-06T10:44:26Z</time>
      </trkpt>
      <trkpt lat="43.13075" lon="0.26165">
        <ele>263.6</ele>
        <time>2022-09-06T10:44:33Z</time>
      </trkpt>
      <trkpt lat="43.13107" lon="0.26175">
        <ele>264.2</ele>
        <time>2022-09-06T10:44:39Z</time>
      </trkpt>
      <trkpt lat="43.13144" lon="0.26194">
        <ele>264.8</ele>
        <time>2022-09-06T10:44:46Z</time>
      </trkpt>
      <trkpt lat="43.13176" lon="0.26208">
        <ele>265</ele>
        <time>2022-09-06T10:44:52Z</time>
      </trkpt>
      <trkpt lat="43.13182" lon="0.2621">
        <ele>265</ele>
        <time>2022-09-06T10:44:53Z</time>
      </trkpt>
      <trkpt lat="43.1321" lon="0.26218">
        <ele>265</ele>
        <time>2022-09-06T10:44:58Z</time>
      </trkpt>
      <trkpt lat="43.13249" lon="0.26221">
        <ele>265</ele>
        <time>2022-09-06T10:45:05Z</time>
      </trkpt>
      <trkpt lat="43.13281" lon="0.26222">
        <ele>266.2</ele>
        <time>2022-09-06T10:45:12Z</time>
      </trkpt>
      <trkpt lat="43.13298" lon="0.26219">
        <ele>266.6</ele>
        <time>2022-09-06T10:45:17Z</time>
      </trkpt>
      <trkpt lat="43.13315" lon="0.26215">
        <ele>267.2</ele>
        <time>2022-09-06T10:45:23Z</time>
      </trkpt>
      <trkpt lat="43.13321" lon="0.26214">
        <ele>267.4</ele>
        <time>2022-09-06T10:45:25Z</time>
      </trkpt>
      <trkpt lat="43.13339" lon="0.26211">
        <ele>268.2</ele>
        <time>2022-09-06T10:45:31Z</time>
      </trkpt>
      <trkpt lat="43.13345" lon="0.26209">
        <ele>268.8</ele>
        <time>2022-09-06T10:45:33Z</time>
      </trkpt>
      <trkpt lat="43.13359" lon="0.26206">
        <ele>269.4</ele>
        <time>2022-09-06T10:45:38Z</time>
      </trkpt>
      <trkpt lat="43.13374" lon="0.26204">
        <ele>270</ele>
        <time>2022-09-06T10:45:43Z</time>
      </trkpt>
      <trkpt lat="43.13382" lon="0.26201">
        <ele>270.4</ele>
        <time>2022-09-06T10:45:46Z</time>
      </trkpt>
      <trkpt lat="43.13398" lon="0.26198">
        <ele>271</ele>
        <time>2022-09-06T10:45:52Z</time>
      </trkpt>
      <trkpt lat="43.13403" lon="0.26197">
        <ele>271.6</ele>
        <time>2022-09-06T10:45:54Z</time>
      </trkpt>
      <trkpt lat="43.13417" lon="0.26193">
        <ele>272.4</ele>
        <time>2022-09-06T10:46:00Z</time>
      </trkpt>
      <trkpt lat="43.13424" lon="0.26191">
        <ele>272.8</ele>
        <time>2022-09-06T10:46:03Z</time>
      </trkpt>
      <trkpt lat="43.13435" lon="0.26185">
        <ele>273.4</ele>
        <time>2022-09-06T10:46:08Z</time>
      </trkpt>
      <trkpt lat="43.13439" lon="0.26183">
        <ele>273.8</ele>
        <time>2022-09-06T10:46:10Z</time>
      </trkpt>
      <trkpt lat="43.13446" lon="0.26179">
        <ele>274.6</ele>
        <time>2022-09-06T10:46:15Z</time>
      </trkpt>
      <trkpt lat="43.13449" lon="0.26176">
        <ele>275</ele>
        <time>2022-09-06T10:46:17Z</time>
      </trkpt>
      <trkpt lat="43.13456" lon="0.26171">
        <ele>275.6</ele>
        <time>2022-09-06T10:46:22Z</time>
      </trkpt>
      <trkpt lat="43.13459" lon="0.26171">
        <ele>276</ele>
        <time>2022-09-06T10:46:24Z</time>
      </trkpt>
      <trkpt lat="43.13468" lon="0.26167">
        <ele>276.4</ele>
        <time>2022-09-06T10:46:29Z</time>
      </trkpt>
      <trkpt lat="43.13477" lon="0.26164">
        <ele>277</ele>
        <time>2022-09-06T10:46:34Z</time>
      </trkpt>
      <trkpt lat="43.13485" lon="0.26164">
        <ele>277.8</ele>
        <time>2022-09-06T10:46:38Z</time>
      </trkpt>
      <trkpt lat="43.13496" lon="0.26162">
        <ele>278.2</ele>
        <time>2022-09-06T10:46:44Z</time>
      </trkpt>
      <trkpt lat="43.135" lon="0.26162">
        <ele>278.4</ele>
        <time>2022-09-06T10:46:46Z</time>
      </trkpt>
      <trkpt lat="43.13508" lon="0.26162">
        <ele>279.2</ele>
        <time>2022-09-06T10:46:50Z</time>
      </trkpt>
      <trkpt lat="43.13514" lon="0.26161">
        <ele>279.2</ele>
        <time>2022-09-06T10:46:53Z</time>
      </trkpt>
      <trkpt lat="43.13526" lon="0.26161">
        <ele>280.4</ele>
        <time>2022-09-06T10:46:59Z</time>
      </trkpt>
      <trkpt lat="43.1353" lon="0.2616">
        <ele>280.6</ele>
        <time>2022-09-06T10:47:01Z</time>
      </trkpt>
      <trkpt lat="43.13544" lon="0.26158">
        <ele>281.4</ele>
        <time>2022-09-06T10:47:08Z</time>
      </trkpt>
      <trkpt lat="43.13548" lon="0.26157">
        <ele>281.4</ele>
        <time>2022-09-06T10:47:10Z</time>
      </trkpt>
      <trkpt lat="43.13561" lon="0.26154">
        <ele>281.6</ele>
        <time>2022-09-06T10:47:15Z</time>
      </trkpt>
      <trkpt lat="43.13582" lon="0.26151">
        <ele>281</ele>
        <time>2022-09-06T10:47:21Z</time>
      </trkpt>
      <trkpt lat="43.13605" lon="0.26151">
        <ele>280.2</ele>
        <time>2022-09-06T10:47:28Z</time>
      </trkpt>
      <trkpt lat="43.13607" lon="0.26151">
        <ele>279.8</ele>
        <time>2022-09-06T10:48:29Z</time>
      </trkpt>
      <trkpt lat="43.13619" lon="0.26151">
        <ele>279.6</ele>
        <time>2022-09-06T10:48:33Z</time>
      </trkpt>
      <trkpt lat="43.13637" lon="0.2615">
        <ele>279.2</ele>
        <time>2022-09-06T10:48:37Z</time>
      </trkpt>
      <trkpt lat="43.13642" lon="0.2615">
        <ele>279</ele>
        <time>2022-09-06T10:48:38Z</time>
      </trkpt>
      <trkpt lat="43.13661" lon="0.26149">
        <ele>278</ele>
        <time>2022-09-06T10:48:41Z</time>
      </trkpt>
      <trkpt lat="43.13668" lon="0.26151">
        <ele>277.8</ele>
        <time>2022-09-06T10:48:42Z</time>
      </trkpt>
      <trkpt lat="43.13675" lon="0.26153">
        <ele>277.4</ele>
        <time>2022-09-06T10:48:43Z</time>
      </trkpt>
      <trkpt lat="43.13696" lon="0.26162">
        <ele>276.8</ele>
        <time>2022-09-06T10:48:46Z</time>
      </trkpt>
      <trkpt lat="43.13716" lon="0.26172">
        <ele>276</ele>
        <time>2022-09-06T10:48:49Z</time>
      </trkpt>
      <trkpt lat="43.13737" lon="0.26183">
        <ele>275.6</ele>
        <time>2022-09-06T10:48:52Z</time>
      </trkpt>
      <trkpt lat="43.13752" lon="0.26191">
        <ele>274.2</ele>
        <time>2022-09-06T10:48:54Z</time>
      </trkpt>
      <trkpt lat="43.13769" lon="0.26197">
        <ele>273.4</ele>
        <time>2022-09-06T10:48:56Z</time>
      </trkpt>
      <trkpt lat="43.13778" lon="0.26198">
        <ele>273</ele>
        <time>2022-09-06T10:48:57Z</time>
      </trkpt>
      <trkpt lat="43.13795" lon="0.26195">
        <ele>272</ele>
        <time>2022-09-06T10:48:59Z</time>
      </trkpt>
      <trkpt lat="43.13803" lon="0.26191">
        <ele>271.8</ele>
        <time>2022-09-06T10:49:00Z</time>
      </trkpt>
      <trkpt lat="43.13811" lon="0.26187">
        <ele>271.4</ele>
        <time>2022-09-06T10:49:01Z</time>
      </trkpt>
      <trkpt lat="43.13819" lon="0.26185">
        <ele>271</ele>
        <time>2022-09-06T10:49:02Z</time>
      </trkpt>
      <trkpt lat="43.13828" lon="0.26184">
        <ele>270.4</ele>
        <time>2022-09-06T10:49:03Z</time>
      </trkpt>
      <trkpt lat="43.13855" lon="0.2618">
        <ele>269</ele>
        <time>2022-09-06T10:49:06Z</time>
      </trkpt>
      <trkpt lat="43.13864" lon="0.26179">
        <ele>267.8</ele>
        <time>2022-09-06T10:49:07Z</time>
      </trkpt>
      <trkpt lat="43.13874" lon="0.26177">
        <ele>267.2</ele>
        <time>2022-09-06T10:49:08Z</time>
      </trkpt>
      <trkpt lat="43.13885" lon="0.26176">
        <ele>266.4</ele>
        <time>2022-09-06T10:49:09Z</time>
      </trkpt>
      <trkpt lat="43.13905" lon="0.26177">
        <ele>265.6</ele>
        <time>2022-09-06T10:49:11Z</time>
      </trkpt>
      <trkpt lat="43.13916" lon="0.26179">
        <ele>265.2</ele>
        <time>2022-09-06T10:49:12Z</time>
      </trkpt>
      <trkpt lat="43.13938" lon="0.26185">
        <ele>263.8</ele>
        <time>2022-09-06T10:49:14Z</time>
      </trkpt>
      <trkpt lat="43.1396" lon="0.2619">
        <ele>262.8</ele>
        <time>2022-09-06T10:49:16Z</time>
      </trkpt>
      <trkpt lat="43.13971" lon="0.26191">
        <ele>262.2</ele>
        <time>2022-09-06T10:49:17Z</time>
      </trkpt>
      <trkpt lat="43.13981" lon="0.26191">
        <ele>261.4</ele>
        <time>2022-09-06T10:49:18Z</time>
      </trkpt>
      <trkpt lat="43.14003" lon="0.26188">
        <ele>259.8</ele>
        <time>2022-09-06T10:49:20Z</time>
      </trkpt>
      <trkpt lat="43.14013" lon="0.26187">
        <ele>259.4</ele>
        <time>2022-09-06T10:49:21Z</time>
      </trkpt>
      <trkpt lat="43.14033" lon="0.26185">
        <ele>258.6</ele>
        <time>2022-09-06T10:49:23Z</time>
      </trkpt>
      <trkpt lat="43.14062" lon="0.26183">
        <ele>257.6</ele>
        <time>2022-09-06T10:49:26Z</time>
      </trkpt>
      <trkpt lat="43.14081" lon="0.26182">
        <ele>256.8</ele>
        <time>2022-09-06T10:49:28Z</time>
      </trkpt>
      <trkpt lat="43.14107" lon="0.26181">
        <ele>256.4</ele>
        <time>2022-09-06T10:49:31Z</time>
      </trkpt>
      <trkpt lat="43.14131" lon="0.26181">
        <ele>256</ele>
        <time>2022-09-06T10:49:34Z</time>
      </trkpt>
      <trkpt lat="43.14167" lon="0.26187">
        <ele>255.4</ele>
        <time>2022-09-06T10:49:39Z</time>
      </trkpt>
      <trkpt lat="43.14174" lon="0.26189">
        <ele>255.2</ele>
        <time>2022-09-06T10:49:40Z</time>
      </trkpt>
      <trkpt lat="43.14209" lon="0.262">
        <ele>254.8</ele>
        <time>2022-09-06T10:49:46Z</time>
      </trkpt>
      <trkpt lat="43.14238" lon="0.26207">
        <ele>254.6</ele>
        <time>2022-09-06T10:49:52Z</time>
      </trkpt>
      <trkpt lat="43.14248" lon="0.26207">
        <ele>254.4</ele>
        <time>2022-09-06T10:49:55Z</time>
      </trkpt>
      <trkpt lat="43.14251" lon="0.26209">
        <ele>254.4</ele>
        <time>2022-09-06T10:49:56Z</time>
      </trkpt>
      <trkpt lat="43.14265" lon="0.26211">
        <ele>254.8</ele>
        <time>2022-09-06T10:50:01Z</time>
      </trkpt>
      <trkpt lat="43.14285" lon="0.26204">
        <ele>254.4</ele>
        <time>2022-09-06T10:50:08Z</time>
      </trkpt>
      <trkpt lat="43.14289" lon="0.26204">
        <ele>254.4</ele>
        <time>2022-09-06T10:50:10Z</time>
      </trkpt>
      <trkpt lat="43.14291" lon="0.26204">
        <ele>254.2</ele>
        <time>2022-09-06T10:50:11Z</time>
      </trkpt>
      <trkpt lat="43.14293" lon="0.26205">
        <ele>254</ele>
        <time>2022-09-06T10:50:13Z</time>
      </trkpt>
      <trkpt lat="43.14294" lon="0.26205">
        <ele>254</ele>
        <time>2022-09-06T10:50:14Z</time>
      </trkpt>
      <trkpt lat="43.14297" lon="0.26207">
        <ele>253.8</ele>
        <time>2022-09-06T10:50:18Z</time>
      </trkpt>
      <trkpt lat="43.14305" lon="0.26213">
        <ele>254.2</ele>
        <time>2022-09-06T10:54:21Z</time>
      </trkpt>
      <trkpt lat="43.14308" lon="0.26215">
        <ele>254.4</ele>
        <time>2022-09-06T10:54:22Z</time>
      </trkpt>
      <trkpt lat="43.14328" lon="0.26223">
        <ele>254.4</ele>
        <time>2022-09-06T10:54:28Z</time>
      </trkpt>
      <trkpt lat="43.14347" lon="0.26236">
        <ele>255</ele>
        <time>2022-09-06T10:54:34Z</time>
      </trkpt>
      <trkpt lat="43.14356" lon="0.26244">
        <ele>255.2</ele>
        <time>2022-09-06T10:54:37Z</time>
      </trkpt>
      <trkpt lat="43.1437" lon="0.26261">
        <ele>255.6</ele>
        <time>2022-09-06T10:54:42Z</time>
      </trkpt>
      <trkpt lat="43.14385" lon="0.26282">
        <ele>256</ele>
        <time>2022-09-06T10:54:48Z</time>
      </trkpt>
      <trkpt lat="43.14393" lon="0.26293">
        <ele>256.4</ele>
        <time>2022-09-06T10:54:51Z</time>
      </trkpt>
      <trkpt lat="43.14413" lon="0.26317">
        <ele>257</ele>
        <time>2022-09-06T10:54:58Z</time>
      </trkpt>
      <trkpt lat="43.14422" lon="0.26324">
        <ele>257.4</ele>
        <time>2022-09-06T10:55:01Z</time>
      </trkpt>
      <trkpt lat="43.14438" lon="0.26334">
        <ele>258</ele>
        <time>2022-09-06T10:55:06Z</time>
      </trkpt>
      <trkpt lat="43.14466" lon="0.26349">
        <ele>258.4</ele>
        <time>2022-09-06T10:55:14Z</time>
      </trkpt>
      <trkpt lat="43.14469" lon="0.26351">
        <ele>258.6</ele>
        <time>2022-09-06T10:55:15Z</time>
      </trkpt>
      <trkpt lat="43.14507" lon="0.2637">
        <ele>259.2</ele>
        <time>2022-09-06T10:55:26Z</time>
      </trkpt>
      <trkpt lat="43.14536" lon="0.26381">
        <ele>258.8</ele>
        <time>2022-09-06T10:55:33Z</time>
      </trkpt>
      <trkpt lat="43.14563" lon="0.26386">
        <ele>258.8</ele>
        <time>2022-09-06T10:55:38Z</time>
      </trkpt>
      <trkpt lat="43.14568" lon="0.26387">
        <ele>258.8</ele>
        <time>2022-09-06T10:55:39Z</time>
      </trkpt>
      <trkpt lat="43.14601" lon="0.26392">
        <ele>258.2</ele>
        <time>2022-09-06T10:55:45Z</time>
      </trkpt>
      <trkpt lat="43.14636" lon="0.26402">
        <ele>257.6</ele>
        <time>2022-09-06T10:55:51Z</time>
      </trkpt>
      <trkpt lat="43.14643" lon="0.26404">
        <ele>257.4</ele>
        <time>2022-09-06T10:55:52Z</time>
      </trkpt>
      <trkpt lat="43.14657" lon="0.26404">
        <ele>257.2</ele>
        <time>2022-09-06T10:55:54Z</time>
      </trkpt>
      <trkpt lat="43.14664" lon="0.26402">
        <ele>257</ele>
        <time>2022-09-06T10:55:55Z</time>
      </trkpt>
      <trkpt lat="43.14671" lon="0.264">
        <ele>256.2</ele>
        <time>2022-09-06T10:55:56Z</time>
      </trkpt>
      <trkpt lat="43.14694" lon="0.26386">
        <ele>255.2</ele>
        <time>2022-09-06T10:55:59Z</time>
      </trkpt>
      <trkpt lat="43.14701" lon="0.26382">
        <ele>255</ele>
        <time>2022-09-06T10:56:00Z</time>
      </trkpt>
      <trkpt lat="43.14737" lon="0.26361">
        <ele>254</ele>
        <time>2022-09-06T10:56:05Z</time>
      </trkpt>
      <trkpt lat="43.14744" lon="0.26358">
        <ele>254</ele>
        <time>2022-09-06T10:56:06Z</time>
      </trkpt>
      <trkpt lat="43.14781" lon="0.26344">
        <ele>254.4</ele>
        <time>2022-09-06T10:56:12Z</time>
      </trkpt>
      <trkpt lat="43.14812" lon="0.2633">
        <ele>254.6</ele>
        <time>2022-09-06T10:56:18Z</time>
      </trkpt>
      <trkpt lat="43.14853" lon="0.26307">
        <ele>253</ele>
        <time>2022-09-06T10:56:25Z</time>
      </trkpt>
      <trkpt lat="43.14859" lon="0.26304">
        <ele>252.8</ele>
        <time>2022-09-06T10:56:26Z</time>
      </trkpt>
      <trkpt lat="43.14894" lon="0.26291">
        <ele>252</ele>
        <time>2022-09-06T10:56:31Z</time>
      </trkpt>
      <trkpt lat="43.14901" lon="0.26289">
        <ele>251.8</ele>
        <time>2022-09-06T10:56:32Z</time>
      </trkpt>
      <trkpt lat="43.14947" lon="0.26278">
        <ele>250.8</ele>
        <time>2022-09-06T10:56:39Z</time>
      </trkpt>
      <trkpt lat="43.14954" lon="0.26277">
        <ele>250.6</ele>
        <time>2022-09-06T10:56:40Z</time>
      </trkpt>
      <trkpt lat="43.15006" lon="0.26265">
        <ele>250.8</ele>
        <time>2022-09-06T10:56:48Z</time>
      </trkpt>
      <trkpt lat="43.15042" lon="0.26254">
        <ele>250.6</ele>
        <time>2022-09-06T10:56:54Z</time>
      </trkpt>
      <trkpt lat="43.15083" lon="0.26242">
        <ele>250.8</ele>
        <time>2022-09-06T10:57:01Z</time>
      </trkpt>
      <trkpt lat="43.15123" lon="0.26221">
        <ele>250.4</ele>
        <time>2022-09-06T10:57:08Z</time>
      </trkpt>
      <trkpt lat="43.1517" lon="0.26181">
        <ele>250.2</ele>
        <time>2022-09-06T10:57:17Z</time>
      </trkpt>
      <trkpt lat="43.15192" lon="0.26153">
        <ele>249.6</ele>
        <time>2022-09-06T10:57:22Z</time>
      </trkpt>
      <trkpt lat="43.152" lon="0.26141">
        <ele>249.4</ele>
        <time>2022-09-06T10:57:24Z</time>
      </trkpt>
      <trkpt lat="43.15239" lon="0.26085">
        <ele>249</ele>
        <time>2022-09-06T10:57:33Z</time>
      </trkpt>
      <trkpt lat="43.15243" lon="0.26079">
        <ele>249</ele>
        <time>2022-09-06T10:57:34Z</time>
      </trkpt>
      <trkpt lat="43.15283" lon="0.26023">
        <ele>249</ele>
        <time>2022-09-06T10:57:43Z</time>
      </trkpt>
      <trkpt lat="43.15288" lon="0.26017">
        <ele>249</ele>
        <time>2022-09-06T10:57:44Z</time>
      </trkpt>
      <trkpt lat="43.15312" lon="0.25991">
        <ele>248.6</ele>
        <time>2022-09-06T10:57:49Z</time>
      </trkpt>
      <trkpt lat="43.1533" lon="0.25972">
        <ele>248.4</ele>
        <time>2022-09-06T10:57:53Z</time>
      </trkpt>
      <trkpt lat="43.15367" lon="0.25933">
        <ele>248</ele>
        <time>2022-09-06T10:58:01Z</time>
      </trkpt>
      <trkpt lat="43.15381" lon="0.25918">
        <ele>247.4</ele>
        <time>2022-09-06T10:58:04Z</time>
      </trkpt>
      <trkpt lat="43.15404" lon="0.25894">
        <ele>247</ele>
        <time>2022-09-06T10:58:09Z</time>
      </trkpt>
      <trkpt lat="43.15448" lon="0.25848">
        <ele>247.6</ele>
        <time>2022-09-06T10:58:18Z</time>
      </trkpt>
      <trkpt lat="43.15453" lon="0.25843">
        <ele>247.4</ele>
        <time>2022-09-06T10:58:19Z</time>
      </trkpt>
      <trkpt lat="43.15498" lon="0.25795">
        <ele>247.2</ele>
        <time>2022-09-06T10:58:28Z</time>
      </trkpt>
      <trkpt lat="43.15503" lon="0.2579">
        <ele>247.2</ele>
        <time>2022-09-06T10:58:29Z</time>
      </trkpt>
      <trkpt lat="43.15551" lon="0.25742">
        <ele>246.8</ele>
        <time>2022-09-06T10:58:38Z</time>
      </trkpt>
      <trkpt lat="43.15556" lon="0.25737">
        <ele>247</ele>
        <time>2022-09-06T10:58:39Z</time>
      </trkpt>
      <trkpt lat="43.15607" lon="0.25698">
        <ele>246.8</ele>
        <time>2022-09-06T10:58:48Z</time>
      </trkpt>
      <trkpt lat="43.15651" lon="0.25667">
        <ele>246.6</ele>
        <time>2022-09-06T10:58:56Z</time>
      </trkpt>
      <trkpt lat="43.15682" lon="0.25655">
        <ele>247</ele>
        <time>2022-09-06T10:59:02Z</time>
      </trkpt>
      <trkpt lat="43.15704" lon="0.25646">
        <ele>247.4</ele>
        <time>2022-09-06T10:59:08Z</time>
      </trkpt>
      <trkpt lat="43.15719" lon="0.25639">
        <ele>247.4</ele>
        <time>2022-09-06T10:59:14Z</time>
      </trkpt>
      <trkpt lat="43.15733" lon="0.25628">
        <ele>247.6</ele>
        <time>2022-09-06T10:59:20Z</time>
      </trkpt>
      <trkpt lat="43.15756" lon="0.25604">
        <ele>248</ele>
        <time>2022-09-06T10:59:27Z</time>
      </trkpt>
      <trkpt lat="43.15775" lon="0.25584">
        <ele>248.6</ele>
        <time>2022-09-06T10:59:32Z</time>
      </trkpt>
      <trkpt lat="43.15796" lon="0.25561">
        <ele>249.2</ele>
        <time>2022-09-06T10:59:38Z</time>
      </trkpt>
      <trkpt lat="43.15812" lon="0.25549">
        <ele>249.6</ele>
        <time>2022-09-06T10:59:42Z</time>
      </trkpt>
      <trkpt lat="43.15828" lon="0.2554">
        <ele>250</ele>
        <time>2022-09-06T10:59:46Z</time>
      </trkpt>
      <trkpt lat="43.15865" lon="0.25525">
        <ele>250.4</ele>
        <time>2022-09-06T10:59:55Z</time>
      </trkpt>
      <trkpt lat="43.15891" lon="0.25519">
        <ele>250.8</ele>
        <time>2022-09-06T11:00:01Z</time>
      </trkpt>
      <trkpt lat="43.15901" lon="0.25519">
        <ele>250.8</ele>
        <time>2022-09-06T11:00:03Z</time>
      </trkpt>
      <trkpt lat="43.15937" lon="0.25521">
        <ele>249.6</ele>
        <time>2022-09-06T11:00:11Z</time>
      </trkpt>
      <trkpt lat="43.15964" lon="0.25524">
        <ele>249.4</ele>
        <time>2022-09-06T11:00:17Z</time>
      </trkpt>
      <trkpt lat="43.15977" lon="0.25524">
        <ele>250.8</ele>
        <time>2022-09-06T11:00:20Z</time>
      </trkpt>
      <trkpt lat="43.16008" lon="0.25525">
        <ele>251.4</ele>
        <time>2022-09-06T11:00:27Z</time>
      </trkpt>
      <trkpt lat="43.16042" lon="0.25522">
        <ele>251.8</ele>
        <time>2022-09-06T11:00:35Z</time>
      </trkpt>
      <trkpt lat="43.1605" lon="0.25521">
        <ele>251.6</ele>
        <time>2022-09-06T11:00:37Z</time>
      </trkpt>
      <trkpt lat="43.1608" lon="0.25513">
        <ele>251.8</ele>
        <time>2022-09-06T11:00:44Z</time>
      </trkpt>
      <trkpt lat="43.16114" lon="0.25504">
        <ele>252.4</ele>
        <time>2022-09-06T11:00:52Z</time>
      </trkpt>
      <trkpt lat="43.16141" lon="0.25497">
        <ele>252.8</ele>
        <time>2022-09-06T11:00:59Z</time>
      </trkpt>
      <trkpt lat="43.16144" lon="0.25496">
        <ele>253</ele>
        <time>2022-09-06T11:01:00Z</time>
      </trkpt>
      <trkpt lat="43.1615" lon="0.25488">
        <ele>253.6</ele>
        <time>2022-09-06T11:01:04Z</time>
      </trkpt>
      <trkpt lat="43.16149" lon="0.2548">
        <ele>254</ele>
        <time>2022-09-06T11:01:07Z</time>
      </trkpt>
      <trkpt lat="43.16148" lon="0.25474">
        <ele>254</ele>
        <time>2022-09-06T11:01:09Z</time>
      </trkpt>
      <trkpt lat="43.16142" lon="0.25446">
        <ele>253.4</ele>
        <time>2022-09-06T11:01:16Z</time>
      </trkpt>
      <trkpt lat="43.16135" lon="0.25407">
        <ele>253.2</ele>
        <time>2022-09-06T11:01:24Z</time>
      </trkpt>
      <trkpt lat="43.16133" lon="0.25396">
        <ele>253</ele>
        <time>2022-09-06T11:01:26Z</time>
      </trkpt>
      <trkpt lat="43.16128" lon="0.25361">
        <ele>251.8</ele>
        <time>2022-09-06T11:01:32Z</time>
      </trkpt>
      <trkpt lat="43.16123" lon="0.25332">
        <ele>250.8</ele>
        <time>2022-09-06T11:01:37Z</time>
      </trkpt>
      <trkpt lat="43.16119" lon="0.25329">
        <ele>250.6</ele>
        <time>2022-09-06T11:01:38Z</time>
      </trkpt>
      <trkpt lat="43.16105" lon="0.25333">
        <ele>250.2</ele>
        <time>2022-09-06T11:01:41Z</time>
      </trkpt>
      <trkpt lat="43.16092" lon="0.25338">
        <ele>249.8</ele>
        <time>2022-09-06T11:01:44Z</time>
      </trkpt>
      <trkpt lat="43.16088" lon="0.25337">
        <ele>249.6</ele>
        <time>2022-09-06T11:01:45Z</time>
      </trkpt>
      <trkpt lat="43.16085" lon="0.25332">
        <ele>249.6</ele>
        <time>2022-09-06T11:01:46Z</time>
      </trkpt>
      <trkpt lat="43.16086" lon="0.25319">
        <ele>249.4</ele>
        <time>2022-09-06T11:01:48Z</time>
      </trkpt>
      <trkpt lat="43.16086" lon="0.25313">
        <ele>249.4</ele>
        <time>2022-09-06T11:01:49Z</time>
      </trkpt>
      <trkpt lat="43.16084" lon="0.25263">
        <ele>248.6</ele>
        <time>2022-09-06T11:01:57Z</time>
      </trkpt>
      <trkpt lat="43.16083" lon="0.25243">
        <ele>247.4</ele>
        <time>2022-09-06T11:02:00Z</time>
      </trkpt>
      <trkpt lat="43.1608" lon="0.25223">
        <ele>246.4</ele>
        <time>2022-09-06T11:02:03Z</time>
      </trkpt>
      <trkpt lat="43.16078" lon="0.25218">
        <ele>246</ele>
        <time>2022-09-06T11:02:04Z</time>
      </trkpt>
      <trkpt lat="43.16076" lon="0.25213">
        <ele>245.8</ele>
        <time>2022-09-06T11:02:05Z</time>
      </trkpt>
      <trkpt lat="43.16073" lon="0.25206">
        <ele>245.2</ele>
        <time>2022-09-06T11:02:07Z</time>
      </trkpt>
      <trkpt lat="43.16071" lon="0.252">
        <ele>244.8</ele>
        <time>2022-09-06T11:02:09Z</time>
      </trkpt>
      <trkpt lat="43.16068" lon="0.25196">
        <ele>244.2</ele>
        <time>2022-09-06T11:02:11Z</time>
      </trkpt>
      <trkpt lat="43.16064" lon="0.25193">
        <ele>243.8</ele>
        <time>2022-09-06T11:02:14Z</time>
      </trkpt>
      <trkpt lat="43.16065" lon="0.25194">
        <ele>244</ele>
        <time>2022-09-06T11:06:12Z</time>
      </trkpt>
      <trkpt lat="43.16075" lon="0.25208">
        <ele>244.8</ele>
        <time>2022-09-06T11:06:18Z</time>
      </trkpt>
      <trkpt lat="43.16078" lon="0.25216">
        <ele>245.2</ele>
        <time>2022-09-06T11:06:21Z</time>
      </trkpt>
      <trkpt lat="43.16082" lon="0.25229">
        <ele>245.8</ele>
        <time>2022-09-06T11:06:25Z</time>
      </trkpt>
      <trkpt lat="43.16084" lon="0.25241">
        <ele>246.4</ele>
        <time>2022-09-06T11:06:29Z</time>
      </trkpt>
      <trkpt lat="43.16085" lon="0.25256">
        <ele>247.2</ele>
        <time>2022-09-06T11:06:34Z</time>
      </trkpt>
      <trkpt lat="43.16085" lon="0.25262">
        <ele>247.4</ele>
        <time>2022-09-06T11:06:36Z</time>
      </trkpt>
      <trkpt lat="43.16086" lon="0.25286">
        <ele>248.2</ele>
        <time>2022-09-06T11:06:44Z</time>
      </trkpt>
      <trkpt lat="43.16087" lon="0.25299">
        <ele>248.4</ele>
        <time>2022-09-06T11:06:48Z</time>
      </trkpt>
      <trkpt lat="43.16088" lon="0.25312">
        <ele>248.8</ele>
        <time>2022-09-06T11:06:52Z</time>
      </trkpt>
      <trkpt lat="43.16089" lon="0.25337">
        <ele>249.4</ele>
        <time>2022-09-06T11:07:00Z</time>
      </trkpt>
      <trkpt lat="43.1609" lon="0.25339">
        <ele>249.4</ele>
        <time>2022-09-06T11:07:01Z</time>
      </trkpt>
      <trkpt lat="43.16095" lon="0.2534">
        <ele>249.4</ele>
        <time>2022-09-06T11:07:03Z</time>
      </trkpt>
      <trkpt lat="43.16097" lon="0.25339">
        <ele>249.6</ele>
        <time>2022-09-06T11:07:04Z</time>
      </trkpt>
      <trkpt lat="43.16102" lon="0.25337">
        <ele>249.6</ele>
        <time>2022-09-06T11:07:06Z</time>
      </trkpt>
      <trkpt lat="43.16114" lon="0.25332">
        <ele>250</ele>
        <time>2022-09-06T11:07:11Z</time>
      </trkpt>
      <trkpt lat="43.16121" lon="0.25331">
        <ele>250.4</ele>
        <time>2022-09-06T11:07:14Z</time>
      </trkpt>
      <trkpt lat="43.16124" lon="0.25335">
        <ele>250.6</ele>
        <time>2022-09-06T11:07:16Z</time>
      </trkpt>
      <trkpt lat="43.16126" lon="0.25338">
        <ele>250.4</ele>
        <time>2022-09-06T11:07:17Z</time>
      </trkpt>
      <trkpt lat="43.16127" lon="0.25348">
        <ele>250.6</ele>
        <time>2022-09-06T11:07:20Z</time>
      </trkpt>
      <trkpt lat="43.16129" lon="0.25355">
        <ele>250.6</ele>
        <time>2022-09-06T11:07:22Z</time>
      </trkpt>
      <trkpt lat="43.1613" lon="0.25371">
        <ele>251.6</ele>
        <time>2022-09-06T11:07:27Z</time>
      </trkpt>
      <trkpt lat="43.16132" lon="0.25381">
        <ele>252.2</ele>
        <time>2022-09-06T11:07:30Z</time>
      </trkpt>
      <trkpt lat="43.16134" lon="0.25396">
        <ele>252.6</ele>
        <time>2022-09-06T11:07:35Z</time>
      </trkpt>
      <trkpt lat="43.16135" lon="0.25399">
        <ele>252.8</ele>
        <time>2022-09-06T11:07:36Z</time>
      </trkpt>
      <trkpt lat="43.16139" lon="0.25428">
        <ele>253.4</ele>
        <time>2022-09-06T11:07:45Z</time>
      </trkpt>
      <trkpt lat="43.16141" lon="0.2544">
        <ele>253.6</ele>
        <time>2022-09-06T11:07:49Z</time>
      </trkpt>
      <trkpt lat="43.16144" lon="0.25453">
        <ele>253.6</ele>
        <time>2022-09-06T11:07:53Z</time>
      </trkpt>
      <trkpt lat="43.16149" lon="0.25477">
        <ele>254.4</ele>
        <time>2022-09-06T11:08:01Z</time>
      </trkpt>
      <trkpt lat="43.1615" lon="0.25482">
        <ele>254.8</ele>
        <time>2022-09-06T11:08:03Z</time>
      </trkpt>
      <trkpt lat="43.16153" lon="0.25488">
        <ele>254.8</ele>
        <time>2022-09-06T11:08:06Z</time>
      </trkpt>
      <trkpt lat="43.16156" lon="0.25489">
        <ele>254.8</ele>
        <time>2022-09-06T11:08:07Z</time>
      </trkpt>
      <trkpt lat="43.1617" lon="0.25491">
        <ele>255.4</ele>
        <time>2022-09-06T11:08:12Z</time>
      </trkpt>
      <trkpt lat="43.16194" lon="0.25491">
        <ele>255.8</ele>
        <time>2022-09-06T11:08:19Z</time>
      </trkpt>
      <trkpt lat="43.16198" lon="0.25491">
        <ele>255.8</ele>
        <time>2022-09-06T11:08:20Z</time>
      </trkpt>
      <trkpt lat="43.16231" lon="0.25493">
        <ele>256.6</ele>
        <time>2022-09-06T11:08:28Z</time>
      </trkpt>
      <trkpt lat="43.16243" lon="0.25494">
        <ele>256.8</ele>
        <time>2022-09-06T11:08:31Z</time>
      </trkpt>
      <trkpt lat="43.16264" lon="0.255">
        <ele>257.2</ele>
        <time>2022-09-06T11:08:36Z</time>
      </trkpt>
      <trkpt lat="43.16288" lon="0.25506">
        <ele>257.8</ele>
        <time>2022-09-06T11:08:42Z</time>
      </trkpt>
      <trkpt lat="43.16296" lon="0.25509">
        <ele>258</ele>
        <time>2022-09-06T11:08:44Z</time>
      </trkpt>
      <trkpt lat="43.16324" lon="0.25518">
        <ele>259</ele>
        <time>2022-09-06T11:08:51Z</time>
      </trkpt>
      <trkpt lat="43.16328" lon="0.25519">
        <ele>259.2</ele>
        <time>2022-09-06T11:08:52Z</time>
      </trkpt>
      <trkpt lat="43.16367" lon="0.25534">
        <ele>258.8</ele>
        <time>2022-09-06T11:09:02Z</time>
      </trkpt>
      <trkpt lat="43.16381" lon="0.25528">
        <ele>258.2</ele>
        <time>2022-09-06T11:09:06Z</time>
      </trkpt>
      <trkpt lat="43.16383" lon="0.25524">
        <ele>258.2</ele>
        <time>2022-09-06T11:09:07Z</time>
      </trkpt>
      <trkpt lat="43.16383" lon="0.25513">
        <ele>257.8</ele>
        <time>2022-09-06T11:09:09Z</time>
      </trkpt>
      <trkpt lat="43.16383" lon="0.25506">
        <ele>257.8</ele>
        <time>2022-09-06T11:09:10Z</time>
      </trkpt>
      <trkpt lat="43.16385" lon="0.25494">
        <ele>258</ele>
        <time>2022-09-06T11:09:12Z</time>
      </trkpt>
      <trkpt lat="43.16391" lon="0.25469">
        <ele>257.6</ele>
        <time>2022-09-06T11:09:16Z</time>
      </trkpt>
      <trkpt lat="43.16402" lon="0.25441">
        <ele>257.4</ele>
        <time>2022-09-06T11:09:21Z</time>
      </trkpt>
      <trkpt lat="43.16403" lon="0.25435">
        <ele>257.4</ele>
        <time>2022-09-06T11:09:22Z</time>
      </trkpt>
      <trkpt lat="43.16408" lon="0.25425">
        <ele>257.2</ele>
        <time>2022-09-06T11:09:24Z</time>
      </trkpt>
      <trkpt lat="43.16415" lon="0.25407">
        <ele>257.2</ele>
        <time>2022-09-06T11:09:27Z</time>
      </trkpt>
      <trkpt lat="43.1642" lon="0.25396">
        <ele>257</ele>
        <time>2022-09-06T11:09:29Z</time>
      </trkpt>
      <trkpt lat="43.16425" lon="0.25386">
        <ele>256.8</ele>
        <time>2022-09-06T11:09:31Z</time>
      </trkpt>
      <trkpt lat="43.1643" lon="0.25376">
        <ele>256.6</ele>
        <time>2022-09-06T11:09:33Z</time>
      </trkpt>
      <trkpt lat="43.16438" lon="0.2536">
        <ele>256.4</ele>
        <time>2022-09-06T11:09:36Z</time>
      </trkpt>
      <trkpt lat="43.16455" lon="0.25325">
        <ele>256</ele>
        <time>2022-09-06T11:09:42Z</time>
      </trkpt>
      <trkpt lat="43.16459" lon="0.2532">
        <ele>255.4</ele>
        <time>2022-09-06T11:09:43Z</time>
      </trkpt>
      <trkpt lat="43.16463" lon="0.25316">
        <ele>255.2</ele>
        <time>2022-09-06T11:09:44Z</time>
      </trkpt>
      <trkpt lat="43.1648" lon="0.25305">
        <ele>254.2</ele>
        <time>2022-09-06T11:09:47Z</time>
      </trkpt>
      <trkpt lat="43.16492" lon="0.25301">
        <ele>254.8</ele>
        <time>2022-09-06T11:09:49Z</time>
      </trkpt>
      <trkpt lat="43.16507" lon="0.25299">
        <ele>254.6</ele>
        <time>2022-09-06T11:09:51Z</time>
      </trkpt>
      <trkpt lat="43.16527" lon="0.25291">
        <ele>253</ele>
        <time>2022-09-06T11:09:54Z</time>
      </trkpt>
      <trkpt lat="43.16534" lon="0.25286">
        <ele>252.8</ele>
        <time>2022-09-06T11:09:55Z</time>
      </trkpt>
      <trkpt lat="43.16547" lon="0.25274">
        <ele>251.4</ele>
        <time>2022-09-06T11:09:57Z</time>
      </trkpt>
      <trkpt lat="43.1656" lon="0.25259">
        <ele>250.2</ele>
        <time>2022-09-06T11:09:59Z</time>
      </trkpt>
      <trkpt lat="43.16566" lon="0.25251">
        <ele>249.2</ele>
        <time>2022-09-06T11:10:00Z</time>
      </trkpt>
      <trkpt lat="43.16578" lon="0.25234">
        <ele>248.2</ele>
        <time>2022-09-06T11:10:02Z</time>
      </trkpt>
      <trkpt lat="43.16596" lon="0.25209">
        <ele>246.4</ele>
        <time>2022-09-06T11:10:05Z</time>
      </trkpt>
      <trkpt lat="43.16602" lon="0.25202">
        <ele>245.6</ele>
        <time>2022-09-06T11:10:06Z</time>
      </trkpt>
      <trkpt lat="43.16608" lon="0.25194">
        <ele>244.8</ele>
        <time>2022-09-06T11:10:07Z</time>
      </trkpt>
      <trkpt lat="43.16633" lon="0.25163">
        <ele>243.6</ele>
        <time>2022-09-06T11:10:11Z</time>
      </trkpt>
      <trkpt lat="43.1664" lon="0.25155">
        <ele>243.6</ele>
        <time>2022-09-06T11:10:12Z</time>
      </trkpt>
      <trkpt lat="43.16673" lon="0.25114">
        <ele>242.8</ele>
        <time>2022-09-06T11:10:18Z</time>
      </trkpt>
      <trkpt lat="43.16683" lon="0.25103">
        <ele>242.6</ele>
        <time>2022-09-06T11:10:20Z</time>
      </trkpt>
      <trkpt lat="43.16688" lon="0.25098">
        <ele>241</ele>
        <time>2022-09-06T11:10:21Z</time>
      </trkpt>
      <trkpt lat="43.16706" lon="0.25076">
        <ele>241.2</ele>
        <time>2022-09-06T11:10:25Z</time>
      </trkpt>
      <trkpt lat="43.16735" lon="0.25043">
        <ele>240.8</ele>
        <time>2022-09-06T11:10:32Z</time>
      </trkpt>
      <trkpt lat="43.1676" lon="0.25012">
        <ele>240.6</ele>
        <time>2022-09-06T11:10:39Z</time>
      </trkpt>
      <trkpt lat="43.16791" lon="0.24976">
        <ele>240</ele>
        <time>2022-09-06T11:10:47Z</time>
      </trkpt>
      <trkpt lat="43.16794" lon="0.24972">
        <ele>240</ele>
        <time>2022-09-06T11:10:48Z</time>
      </trkpt>
      <trkpt lat="43.16798" lon="0.24968">
        <ele>240</ele>
        <time>2022-09-06T11:10:49Z</time>
      </trkpt>
      <trkpt lat="43.16817" lon="0.24948">
        <ele>240</ele>
        <time>2022-09-06T11:10:55Z</time>
      </trkpt>
      <trkpt lat="43.16831" lon="0.2494">
        <ele>239.4</ele>
        <time>2022-09-06T11:11:00Z</time>
      </trkpt>
      <trkpt lat="43.16834" lon="0.24936">
        <ele>238.8</ele>
        <time>2022-09-06T11:11:02Z</time>
      </trkpt>
      <trkpt lat="43.16838" lon="0.24933">
        <ele>238.6</ele>
        <time>2022-09-06T11:11:05Z</time>
      </trkpt>
      <trkpt lat="43.16841" lon="0.24927">
        <ele>237.8</ele>
        <time>2022-09-06T11:11:09Z</time>
      </trkpt>
      <trkpt lat="43.16844" lon="0.24922">
        <ele>237.2</ele>
        <time>2022-09-06T11:11:12Z</time>
      </trkpt>
      <trkpt lat="43.16846" lon="0.24919">
        <ele>236.8</ele>
        <time>2022-09-06T11:11:14Z</time>
      </trkpt>
      <trkpt lat="43.1685" lon="0.24913">
        <ele>236.4</ele>
        <time>2022-09-06T11:11:18Z</time>
      </trkpt>
      <trkpt lat="43.16851" lon="0.24912">
        <ele>236.4</ele>
        <time>2022-09-06T11:11:19Z</time>
      </trkpt>
      <trkpt lat="43.16862" lon="0.24902">
        <ele>236.2</ele>
        <time>2022-09-06T11:11:27Z</time>
      </trkpt>
      <trkpt lat="43.16866" lon="0.24899">
        <ele>236.6</ele>
        <time>2022-09-06T11:11:30Z</time>
      </trkpt>
      <trkpt lat="43.16869" lon="0.24898">
        <ele>237</ele>
        <time>2022-09-06T11:11:32Z</time>
      </trkpt>
      <trkpt lat="43.16875" lon="0.24897">
        <ele>237.8</ele>
        <time>2022-09-06T11:11:36Z</time>
      </trkpt>
      <trkpt lat="43.16877" lon="0.24897">
        <ele>238</ele>
        <time>2022-09-06T11:11:37Z</time>
      </trkpt>
      <trkpt lat="43.16878" lon="0.24896">
        <ele>238.2</ele>
        <time>2022-09-06T11:11:38Z</time>
      </trkpt>
      <trkpt lat="43.16886" lon="0.24889">
        <ele>239</ele>
        <time>2022-09-06T11:11:44Z</time>
      </trkpt>
      <trkpt lat="43.16887" lon="0.24887">
        <ele>239.2</ele>
        <time>2022-09-06T11:11:45Z</time>
      </trkpt>
      <trkpt lat="43.16892" lon="0.24878">
        <ele>240.2</ele>
        <time>2022-09-06T11:11:49Z</time>
      </trkpt>
      <trkpt lat="43.16895" lon="0.24873">
        <ele>240.4</ele>
        <time>2022-09-06T11:11:52Z</time>
      </trkpt>
      <trkpt lat="43.16904" lon="0.24858">
        <ele>240.8</ele>
        <time>2022-09-06T11:12:00Z</time>
      </trkpt>
      <trkpt lat="43.16921" lon="0.2484">
        <ele>241.2</ele>
        <time>2022-09-06T11:12:09Z</time>
      </trkpt>
      <trkpt lat="43.16934" lon="0.24825">
        <ele>241.2</ele>
        <time>2022-09-06T11:12:16Z</time>
      </trkpt>
      <trkpt lat="43.1694" lon="0.24818">
        <ele>241.2</ele>
        <time>2022-09-06T11:12:19Z</time>
      </trkpt>
      <trkpt lat="43.16952" lon="0.24804">
        <ele>241.2</ele>
        <time>2022-09-06T11:12:25Z</time>
      </trkpt>
      <trkpt lat="43.16967" lon="0.2479">
        <ele>241.2</ele>
        <time>2022-09-06T11:12:32Z</time>
      </trkpt>
      <trkpt lat="43.16978" lon="0.24777">
        <ele>241.4</ele>
        <time>2022-09-06T11:12:38Z</time>
      </trkpt>
      <trkpt lat="43.16994" lon="0.24758">
        <ele>241.4</ele>
        <time>2022-09-06T11:12:45Z</time>
      </trkpt>
      <trkpt lat="43.17008" lon="0.24742">
        <ele>241.8</ele>
        <time>2022-09-06T11:12:51Z</time>
      </trkpt>
      <trkpt lat="43.17024" lon="0.24722">
        <ele>241.8</ele>
        <time>2022-09-06T11:12:58Z</time>
      </trkpt>
      <trkpt lat="43.17036" lon="0.24709">
        <ele>241.8</ele>
        <time>2022-09-06T11:13:03Z</time>
      </trkpt>
      <trkpt lat="43.17046" lon="0.24694">
        <ele>241.8</ele>
        <time>2022-09-06T11:13:08Z</time>
      </trkpt>
      <trkpt lat="43.17068" lon="0.24665">
        <ele>241.4</ele>
        <time>2022-09-06T11:13:16Z</time>
      </trkpt>
      <trkpt lat="43.17089" lon="0.24638">
        <ele>241.4</ele>
        <time>2022-09-06T11:13:23Z</time>
      </trkpt>
      <trkpt lat="43.17102" lon="0.24611">
        <ele>241.2</ele>
        <time>2022-09-06T11:13:29Z</time>
      </trkpt>
      <trkpt lat="43.171" lon="0.24584">
        <ele>241</ele>
        <time>2022-09-06T11:13:34Z</time>
      </trkpt>
      <trkpt lat="43.17093" lon="0.24544">
        <ele>241.2</ele>
        <time>2022-09-06T11:13:42Z</time>
      </trkpt>
      <trkpt lat="43.17086" lon="0.24503">
        <ele>241.6</ele>
        <time>2022-09-06T11:13:50Z</time>
      </trkpt>
      <trkpt lat="43.1708" lon="0.24462">
        <ele>242.2</ele>
        <time>2022-09-06T11:13:59Z</time>
      </trkpt>
      <trkpt lat="43.17085" lon="0.24458">
        <ele>242.2</ele>
        <time>2022-09-06T11:14:01Z</time>
      </trkpt>
      <trkpt lat="43.17088" lon="0.24457">
        <ele>242.4</ele>
        <time>2022-09-06T11:14:02Z</time>
      </trkpt>
      <trkpt lat="43.17106" lon="0.24448">
        <ele>243</ele>
        <time>2022-09-06T11:14:07Z</time>
      </trkpt>
      <trkpt lat="43.1711" lon="0.24445">
        <ele>242.8</ele>
        <time>2022-09-06T11:14:08Z</time>
      </trkpt>
      <trkpt lat="43.17123" lon="0.24428">
        <ele>242.6</ele>
        <time>2022-09-06T11:14:12Z</time>
      </trkpt>
      <trkpt lat="43.17148" lon="0.24387">
        <ele>242.2</ele>
        <time>2022-09-06T11:14:20Z</time>
      </trkpt>
      <trkpt lat="43.17174" lon="0.24339">
        <ele>242.6</ele>
        <time>2022-09-06T11:14:29Z</time>
      </trkpt>
      <trkpt lat="43.1718" lon="0.24329">
        <ele>242.8</ele>
        <time>2022-09-06T11:14:31Z</time>
      </trkpt>
      <trkpt lat="43.17199" lon="0.24298">
        <ele>243.4</ele>
        <time>2022-09-06T11:14:37Z</time>
      </trkpt>
      <trkpt lat="43.17212" lon="0.24278">
        <ele>243.6</ele>
        <time>2022-09-06T11:14:41Z</time>
      </trkpt>
      <trkpt lat="43.17244" lon="0.2423">
        <ele>244.2</ele>
        <time>2022-09-06T11:14:51Z</time>
      </trkpt>
      <trkpt lat="43.17267" lon="0.24198">
        <ele>244.4</ele>
        <time>2022-09-06T11:14:58Z</time>
      </trkpt>
      <trkpt lat="43.17284" lon="0.24167">
        <ele>244.4</ele>
        <time>2022-09-06T11:15:04Z</time>
      </trkpt>
      <trkpt lat="43.17286" lon="0.24161">
        <ele>244.2</ele>
        <time>2022-09-06T11:15:05Z</time>
      </trkpt>
      <trkpt lat="43.17287" lon="0.24156">
        <ele>244.4</ele>
        <time>2022-09-06T11:15:06Z</time>
      </trkpt>
      <trkpt lat="43.17292" lon="0.24138">
        <ele>245.6</ele>
        <time>2022-09-06T11:15:10Z</time>
      </trkpt>
      <trkpt lat="43.17294" lon="0.24133">
        <ele>245.8</ele>
        <time>2022-09-06T11:15:11Z</time>
      </trkpt>
      <trkpt lat="43.173" lon="0.2412">
        <ele>246.4</ele>
        <time>2022-09-06T11:15:16Z</time>
      </trkpt>
      <trkpt lat="43.17302" lon="0.24116">
        <ele>246.6</ele>
        <time>2022-09-06T11:15:18Z</time>
      </trkpt>
      <trkpt lat="43.17304" lon="0.24112">
        <ele>246.8</ele>
        <time>2022-09-06T11:15:20Z</time>
      </trkpt>
      <trkpt lat="43.17308" lon="0.24107">
        <ele>246.8</ele>
        <time>2022-09-06T11:15:22Z</time>
      </trkpt>
      <trkpt lat="43.17312" lon="0.24089">
        <ele>246.4</ele>
        <time>2022-09-06T11:15:26Z</time>
      </trkpt>
      <trkpt lat="43.17314" lon="0.24039">
        <ele>246.2</ele>
        <time>2022-09-06T11:15:34Z</time>
      </trkpt>
      <trkpt lat="43.17314" lon="0.24001">
        <ele>247.2</ele>
        <time>2022-09-06T11:15:41Z</time>
      </trkpt>
      <trkpt lat="43.17312" lon="0.23965">
        <ele>247</ele>
        <time>2022-09-06T11:15:48Z</time>
      </trkpt>
      <trkpt lat="43.17309" lon="0.23938">
        <ele>247</ele>
        <time>2022-09-06T11:15:53Z</time>
      </trkpt>
      <trkpt lat="43.17316" lon="0.23912">
        <ele>247.4</ele>
        <time>2022-09-06T11:15:58Z</time>
      </trkpt>
      <trkpt lat="43.17322" lon="0.23892">
        <ele>247.8</ele>
        <time>2022-09-06T11:16:02Z</time>
      </trkpt>
      <trkpt lat="43.17328" lon="0.23872">
        <ele>248.6</ele>
        <time>2022-09-06T11:16:06Z</time>
      </trkpt>
      <trkpt lat="43.17333" lon="0.23849">
        <ele>248.6</ele>
        <time>2022-09-06T11:16:10Z</time>
      </trkpt>
      <trkpt lat="43.17333" lon="0.23843">
        <ele>248.6</ele>
        <time>2022-09-06T11:16:11Z</time>
      </trkpt>
      <trkpt lat="43.17329" lon="0.23825">
        <ele>248.6</ele>
        <time>2022-09-06T11:16:14Z</time>
      </trkpt>
      <trkpt lat="43.17324" lon="0.23808">
        <ele>248.8</ele>
        <time>2022-09-06T11:16:17Z</time>
      </trkpt>
      <trkpt lat="43.1732" lon="0.23778">
        <ele>249.6</ele>
        <time>2022-09-06T11:16:23Z</time>
      </trkpt>
      <trkpt lat="43.17321" lon="0.23759">
        <ele>250</ele>
        <time>2022-09-06T11:16:27Z</time>
      </trkpt>
      <trkpt lat="43.17323" lon="0.23744">
        <ele>250.2</ele>
        <time>2022-09-06T11:16:30Z</time>
      </trkpt>
      <trkpt lat="43.17331" lon="0.23714">
        <ele>250.4</ele>
        <time>2022-09-06T11:16:37Z</time>
      </trkpt>
      <trkpt lat="43.17348" lon="0.23688">
        <ele>250.8</ele>
        <time>2022-09-06T11:16:44Z</time>
      </trkpt>
      <trkpt lat="43.17366" lon="0.23661">
        <ele>250.8</ele>
        <time>2022-09-06T11:16:51Z</time>
      </trkpt>
      <trkpt lat="43.1738" lon="0.2364">
        <ele>251</ele>
        <time>2022-09-06T11:16:56Z</time>
      </trkpt>
      <trkpt lat="43.17387" lon="0.23627">
        <ele>251</ele>
        <time>2022-09-06T11:16:59Z</time>
      </trkpt>
      <trkpt lat="43.17407" lon="0.23588">
        <ele>251</ele>
        <time>2022-09-06T11:17:08Z</time>
      </trkpt>
      <trkpt lat="43.17419" lon="0.23563">
        <ele>252</ele>
        <time>2022-09-06T11:17:14Z</time>
      </trkpt>
      <trkpt lat="43.17424" lon="0.23552">
        <ele>252.6</ele>
        <time>2022-09-06T11:17:17Z</time>
      </trkpt>
      <trkpt lat="43.17427" lon="0.23545">
        <ele>253</ele>
        <time>2022-09-06T11:17:19Z</time>
      </trkpt>
      <trkpt lat="43.17435" lon="0.23528">
        <ele>254.2</ele>
        <time>2022-09-06T11:17:25Z</time>
      </trkpt>
      <trkpt lat="43.17436" lon="0.23525">
        <ele>254.2</ele>
        <time>2022-09-06T11:17:26Z</time>
      </trkpt>
      <trkpt lat="43.17443" lon="0.23511">
        <ele>255.2</ele>
        <time>2022-09-06T11:17:33Z</time>
      </trkpt>
      <trkpt lat="43.17444" lon="0.23504">
        <ele>255.6</ele>
        <time>2022-09-06T11:17:54Z</time>
      </trkpt>
      <trkpt lat="43.17445" lon="0.23501">
        <ele>255.8</ele>
        <time>2022-09-06T11:17:55Z</time>
      </trkpt>
      <trkpt lat="43.17447" lon="0.23496">
        <ele>256.2</ele>
        <time>2022-09-06T11:17:57Z</time>
      </trkpt>
      <trkpt lat="43.17454" lon="0.23484">
        <ele>256.8</ele>
        <time>2022-09-06T11:18:02Z</time>
      </trkpt>
      <trkpt lat="43.17457" lon="0.23477">
        <ele>257.2</ele>
        <time>2022-09-06T11:18:05Z</time>
      </trkpt>
      <trkpt lat="43.17463" lon="0.23463">
        <ele>258.2</ele>
        <time>2022-09-06T11:18:11Z</time>
      </trkpt>
      <trkpt lat="43.17464" lon="0.23461">
        <ele>258.4</ele>
        <time>2022-09-06T11:18:12Z</time>
      </trkpt>
      <trkpt lat="43.17469" lon="0.23449">
        <ele>259.2</ele>
        <time>2022-09-06T11:18:17Z</time>
      </trkpt>
      <trkpt lat="43.1747" lon="0.23447">
        <ele>259.4</ele>
        <time>2022-09-06T11:18:18Z</time>
      </trkpt>
      <trkpt lat="43.17474" lon="0.23438">
        <ele>260.8</ele>
        <time>2022-09-06T11:18:22Z</time>
      </trkpt>
      <trkpt lat="43.17477" lon="0.23432">
        <ele>261.2</ele>
        <time>2022-09-06T11:18:25Z</time>
      </trkpt>
      <trkpt lat="43.17479" lon="0.23428">
        <ele>261.8</ele>
        <time>2022-09-06T11:18:27Z</time>
      </trkpt>
      <trkpt lat="43.17483" lon="0.23417">
        <ele>263</ele>
        <time>2022-09-06T11:18:32Z</time>
      </trkpt>
      <trkpt lat="43.17484" lon="0.23415">
        <ele>263</ele>
        <time>2022-09-06T11:18:33Z</time>
      </trkpt>
      <trkpt lat="43.17488" lon="0.23405">
        <ele>264.2</ele>
        <time>2022-09-06T11:18:38Z</time>
      </trkpt>
      <trkpt lat="43.17489" lon="0.23401">
        <ele>264.4</ele>
        <time>2022-09-06T11:18:40Z</time>
      </trkpt>
      <trkpt lat="43.17491" lon="0.2339">
        <ele>265.4</ele>
        <time>2022-09-06T11:18:46Z</time>
      </trkpt>
      <trkpt lat="43.17493" lon="0.23385">
        <ele>266</ele>
        <time>2022-09-06T11:18:49Z</time>
      </trkpt>
      <trkpt lat="43.17494" lon="0.23379">
        <ele>266.4</ele>
        <time>2022-09-06T11:18:52Z</time>
      </trkpt>
      <trkpt lat="43.17495" lon="0.23373">
        <ele>267</ele>
        <time>2022-09-06T11:18:55Z</time>
      </trkpt>
      <trkpt lat="43.17496" lon="0.23366">
        <ele>267.6</ele>
        <time>2022-09-06T11:18:58Z</time>
      </trkpt>
      <trkpt lat="43.17499" lon="0.23357">
        <ele>268.8</ele>
        <time>2022-09-06T11:19:03Z</time>
      </trkpt>
      <trkpt lat="43.175" lon="0.23353">
        <ele>269.2</ele>
        <time>2022-09-06T11:19:05Z</time>
      </trkpt>
      <trkpt lat="43.17502" lon="0.23347">
        <ele>270</ele>
        <time>2022-09-06T11:19:08Z</time>
      </trkpt>
      <trkpt lat="43.17506" lon="0.23336">
        <ele>271</ele>
        <time>2022-09-06T11:19:14Z</time>
      </trkpt>
      <trkpt lat="43.17509" lon="0.23325">
        <ele>271.4</ele>
        <time>2022-09-06T11:19:19Z</time>
      </trkpt>
      <trkpt lat="43.17515" lon="0.23304">
        <ele>271.6</ele>
        <time>2022-09-06T11:19:27Z</time>
      </trkpt>
      <trkpt lat="43.17523" lon="0.23281">
        <ele>270.8</ele>
        <time>2022-09-06T11:19:33Z</time>
      </trkpt>
      <trkpt lat="43.17526" lon="0.23271">
        <ele>269.8</ele>
        <time>2022-09-06T11:19:36Z</time>
      </trkpt>
      <trkpt lat="43.17526" lon="0.23265">
        <ele>269.8</ele>
        <time>2022-09-06T11:19:38Z</time>
      </trkpt>
      <trkpt lat="43.17525" lon="0.23262">
        <ele>269.6</ele>
        <time>2022-09-06T11:19:39Z</time>
      </trkpt>
      <trkpt lat="43.17519" lon="0.23253">
        <ele>269.6</ele>
        <time>2022-09-06T11:19:42Z</time>
      </trkpt>
      <trkpt lat="43.17513" lon="0.23245">
        <ele>270</ele>
        <time>2022-09-06T11:19:45Z</time>
      </trkpt>
      <trkpt lat="43.175" lon="0.23235">
        <ele>271</ele>
        <time>2022-09-06T11:19:50Z</time>
      </trkpt>
      <trkpt lat="43.17492" lon="0.2323">
        <ele>271.6</ele>
        <time>2022-09-06T11:19:53Z</time>
      </trkpt>
      <trkpt lat="43.17485" lon="0.23224">
        <ele>272.2</ele>
        <time>2022-09-06T11:19:56Z</time>
      </trkpt>
      <trkpt lat="43.17475" lon="0.23217">
        <ele>273.2</ele>
        <time>2022-09-06T11:20:00Z</time>
      </trkpt>
      <trkpt lat="43.1747" lon="0.23213">
        <ele>273.6</ele>
        <time>2022-09-06T11:20:02Z</time>
      </trkpt>
      <trkpt lat="43.17468" lon="0.23211">
        <ele>273.8</ele>
        <time>2022-09-06T11:20:03Z</time>
      </trkpt>
      <trkpt lat="43.17461" lon="0.23206">
        <ele>274.4</ele>
        <time>2022-09-06T11:20:06Z</time>
      </trkpt>
      <trkpt lat="43.17452" lon="0.23199">
        <ele>275</ele>
        <time>2022-09-06T11:20:10Z</time>
      </trkpt>
      <trkpt lat="43.17445" lon="0.23193">
        <ele>275.6</ele>
        <time>2022-09-06T11:20:13Z</time>
      </trkpt>
      <trkpt lat="43.17436" lon="0.23186">
        <ele>276</ele>
        <time>2022-09-06T11:20:17Z</time>
      </trkpt>
      <trkpt lat="43.17422" lon="0.23174">
        <ele>276.6</ele>
        <time>2022-09-06T11:20:23Z</time>
      </trkpt>
      <trkpt lat="43.17415" lon="0.23167">
        <ele>277</ele>
        <time>2022-09-06T11:20:26Z</time>
      </trkpt>
      <trkpt lat="43.17391" lon="0.23144">
        <ele>277.4</ele>
        <time>2022-09-06T11:20:36Z</time>
      </trkpt>
      <trkpt lat="43.1738" lon="0.23133">
        <ele>277.6</ele>
        <time>2022-09-06T11:20:41Z</time>
      </trkpt>
      <trkpt lat="43.17374" lon="0.23125">
        <ele>277.8</ele>
        <time>2022-09-06T11:20:44Z</time>
      </trkpt>
      <trkpt lat="43.17357" lon="0.23102">
        <ele>278.6</ele>
        <time>2022-09-06T11:20:52Z</time>
      </trkpt>
      <trkpt lat="43.17355" lon="0.23099">
        <ele>278.6</ele>
        <time>2022-09-06T11:20:53Z</time>
      </trkpt>
      <trkpt lat="43.17337" lon="0.23068">
        <ele>279.4</ele>
        <time>2022-09-06T11:21:02Z</time>
      </trkpt>
      <trkpt lat="43.17332" lon="0.23052">
        <ele>279.8</ele>
        <time>2022-09-06T11:21:06Z</time>
      </trkpt>
      <trkpt lat="43.17327" lon="0.23037">
        <ele>280.6</ele>
        <time>2022-09-06T11:21:10Z</time>
      </trkpt>
      <trkpt lat="43.17325" lon="0.23029">
        <ele>280.8</ele>
        <time>2022-09-06T11:21:12Z</time>
      </trkpt>
      <trkpt lat="43.17315" lon="0.23005">
        <ele>281.8</ele>
        <time>2022-09-06T11:21:19Z</time>
      </trkpt>
      <trkpt lat="43.17315" lon="0.23002">
        <ele>282</ele>
        <time>2022-09-06T11:21:20Z</time>
      </trkpt>
      <trkpt lat="43.17311" lon="0.22991">
        <ele>282.4</ele>
        <time>2022-09-06T11:21:25Z</time>
      </trkpt>
      <trkpt lat="43.17311" lon="0.22989">
        <ele>282.4</ele>
        <time>2022-09-06T11:21:26Z</time>
      </trkpt>
      <trkpt lat="43.17295" lon="0.22962">
        <ele>286.4</ele>
        <time>2022-09-06T12:20:26Z</time>
      </trkpt>
      <trkpt lat="43.17288" lon="0.22954">
        <ele>286.6</ele>
        <time>2022-09-06T12:20:31Z</time>
      </trkpt>
      <trkpt lat="43.17277" lon="0.22941">
        <ele>287</ele>
        <time>2022-09-06T12:20:39Z</time>
      </trkpt>
      <trkpt lat="43.17267" lon="0.22932">
        <ele>287.4</ele>
        <time>2022-09-06T12:20:46Z</time>
      </trkpt>
      <trkpt lat="43.17265" lon="0.22931">
        <ele>287.4</ele>
        <time>2022-09-06T12:20:47Z</time>
      </trkpt>
      <trkpt lat="43.17253" lon="0.22922">
        <ele>287.8</ele>
        <time>2022-09-06T12:20:55Z</time>
      </trkpt>
      <trkpt lat="43.17244" lon="0.22916">
        <ele>288.4</ele>
        <time>2022-09-06T12:21:01Z</time>
      </trkpt>
      <trkpt lat="43.17242" lon="0.22915">
        <ele>288.4</ele>
        <time>2022-09-06T12:21:02Z</time>
      </trkpt>
      <trkpt lat="43.17227" lon="0.22904">
        <ele>289.2</ele>
        <time>2022-09-06T12:21:11Z</time>
      </trkpt>
      <trkpt lat="43.17219" lon="0.22897">
        <ele>289.4</ele>
        <time>2022-09-06T12:21:15Z</time>
      </trkpt>
      <trkpt lat="43.17213" lon="0.2289">
        <ele>289.8</ele>
        <time>2022-09-06T12:21:18Z</time>
      </trkpt>
      <trkpt lat="43.17208" lon="0.2288">
        <ele>290.6</ele>
        <time>2022-09-06T12:21:22Z</time>
      </trkpt>
      <trkpt lat="43.172" lon="0.22865">
        <ele>291.4</ele>
        <time>2022-09-06T12:21:28Z</time>
      </trkpt>
      <trkpt lat="43.17198" lon="0.2286">
        <ele>291.6</ele>
        <time>2022-09-06T12:21:30Z</time>
      </trkpt>
      <trkpt lat="43.17185" lon="0.22841">
        <ele>292.4</ele>
        <time>2022-09-06T12:21:38Z</time>
      </trkpt>
      <trkpt lat="43.17183" lon="0.22836">
        <ele>292.8</ele>
        <time>2022-09-06T12:21:40Z</time>
      </trkpt>
      <trkpt lat="43.17172" lon="0.22819">
        <ele>293.8</ele>
        <time>2022-09-06T12:21:47Z</time>
      </trkpt>
      <trkpt lat="43.17169" lon="0.22814">
        <ele>294.2</ele>
        <time>2022-09-06T12:21:49Z</time>
      </trkpt>
      <trkpt lat="43.1716" lon="0.228">
        <ele>294.8</ele>
        <time>2022-09-06T12:21:55Z</time>
      </trkpt>
      <trkpt lat="43.17157" lon="0.22795">
        <ele>295.2</ele>
        <time>2022-09-06T12:21:57Z</time>
      </trkpt>
      <trkpt lat="43.17146" lon="0.22781">
        <ele>296</ele>
        <time>2022-09-06T12:22:03Z</time>
      </trkpt>
      <trkpt lat="43.17141" lon="0.22775">
        <ele>296.4</ele>
        <time>2022-09-06T12:22:06Z</time>
      </trkpt>
      <trkpt lat="43.1714" lon="0.22773">
        <ele>296.6</ele>
        <time>2022-09-06T12:22:07Z</time>
      </trkpt>
      <trkpt lat="43.17131" lon="0.22762">
        <ele>297</ele>
        <time>2022-09-06T12:22:12Z</time>
      </trkpt>
      <trkpt lat="43.17125" lon="0.22755">
        <ele>297.4</ele>
        <time>2022-09-06T12:22:15Z</time>
      </trkpt>
      <trkpt lat="43.17114" lon="0.2274">
        <ele>298</ele>
        <time>2022-09-06T12:22:21Z</time>
      </trkpt>
      <trkpt lat="43.17106" lon="0.22731">
        <ele>298.2</ele>
        <time>2022-09-06T12:22:25Z</time>
      </trkpt>
      <trkpt lat="43.17088" lon="0.22707">
        <ele>299.2</ele>
        <time>2022-09-06T12:22:34Z</time>
      </trkpt>
      <trkpt lat="43.17086" lon="0.22704">
        <ele>299.4</ele>
        <time>2022-09-06T12:22:35Z</time>
      </trkpt>
      <trkpt lat="43.1707" lon="0.22674">
        <ele>299.4</ele>
        <time>2022-09-06T12:22:45Z</time>
      </trkpt>
      <trkpt lat="43.1706" lon="0.22648">
        <ele>299.6</ele>
        <time>2022-09-06T12:22:53Z</time>
      </trkpt>
      <trkpt lat="43.17053" lon="0.2263">
        <ele>299.8</ele>
        <time>2022-09-06T12:22:58Z</time>
      </trkpt>
      <trkpt lat="43.17048" lon="0.22619">
        <ele>299.8</ele>
        <time>2022-09-06T12:23:01Z</time>
      </trkpt>
      <trkpt lat="43.17039" lon="0.22597">
        <ele>300.4</ele>
        <time>2022-09-06T12:23:07Z</time>
      </trkpt>
      <trkpt lat="43.17037" lon="0.22593">
        <ele>300.4</ele>
        <time>2022-09-06T12:23:08Z</time>
      </trkpt>
      <trkpt lat="43.17022" lon="0.22565">
        <ele>301.2</ele>
        <time>2022-09-06T12:23:16Z</time>
      </trkpt>
      <trkpt lat="43.17019" lon="0.22557">
        <ele>301.4</ele>
        <time>2022-09-06T12:23:18Z</time>
      </trkpt>
      <trkpt lat="43.1701" lon="0.2254">
        <ele>301.6</ele>
        <time>2022-09-06T12:23:23Z</time>
      </trkpt>
      <trkpt lat="43.16994" lon="0.2252">
        <ele>302</ele>
        <time>2022-09-06T12:23:30Z</time>
      </trkpt>
      <trkpt lat="43.16985" lon="0.22508">
        <ele>302.4</ele>
        <time>2022-09-06T12:23:34Z</time>
      </trkpt>
      <trkpt lat="43.16983" lon="0.22505">
        <ele>302.4</ele>
        <time>2022-09-06T12:23:35Z</time>
      </trkpt>
      <trkpt lat="43.16977" lon="0.22498">
        <ele>302.6</ele>
        <time>2022-09-06T12:23:37Z</time>
      </trkpt>
      <trkpt lat="43.16964" lon="0.22468">
        <ele>303.4</ele>
        <time>2022-09-06T12:23:44Z</time>
      </trkpt>
      <trkpt lat="43.16963" lon="0.22463">
        <ele>303.4</ele>
        <time>2022-09-06T12:23:45Z</time>
      </trkpt>
      <trkpt lat="43.16959" lon="0.22439">
        <ele>304.2</ele>
        <time>2022-09-06T12:23:50Z</time>
      </trkpt>
      <trkpt lat="43.16957" lon="0.2243">
        <ele>304.6</ele>
        <time>2022-09-06T12:23:52Z</time>
      </trkpt>
      <trkpt lat="43.1695" lon="0.22403">
        <ele>305.2</ele>
        <time>2022-09-06T12:23:58Z</time>
      </trkpt>
      <trkpt lat="43.16942" lon="0.22386">
        <ele>305.6</ele>
        <time>2022-09-06T12:24:02Z</time>
      </trkpt>
      <trkpt lat="43.16924" lon="0.2236">
        <ele>306.2</ele>
        <time>2022-09-06T12:24:09Z</time>
      </trkpt>
      <trkpt lat="43.16917" lon="0.22347">
        <ele>306.6</ele>
        <time>2022-09-06T12:24:12Z</time>
      </trkpt>
      <trkpt lat="43.1691" lon="0.22336">
        <ele>306.6</ele>
        <time>2022-09-06T12:24:15Z</time>
      </trkpt>
      <trkpt lat="43.16906" lon="0.22328">
        <ele>307</ele>
        <time>2022-09-06T12:24:17Z</time>
      </trkpt>
      <trkpt lat="43.16895" lon="0.22312">
        <ele>307.6</ele>
        <time>2022-09-06T12:24:21Z</time>
      </trkpt>
      <trkpt lat="43.16888" lon="0.223">
        <ele>307.6</ele>
        <time>2022-09-06T12:24:24Z</time>
      </trkpt>
      <trkpt lat="43.16872" lon="0.2228">
        <ele>307.8</ele>
        <time>2022-09-06T12:24:31Z</time>
      </trkpt>
      <trkpt lat="43.1686" lon="0.22256">
        <ele>307.4</ele>
        <time>2022-09-06T12:24:37Z</time>
      </trkpt>
      <trkpt lat="43.16854" lon="0.22222">
        <ele>306.6</ele>
        <time>2022-09-06T12:24:42Z</time>
      </trkpt>
      <trkpt lat="43.16848" lon="0.22197">
        <ele>306.2</ele>
        <time>2022-09-06T12:24:45Z</time>
      </trkpt>
      <trkpt lat="43.16843" lon="0.22176">
        <ele>305.6</ele>
        <time>2022-09-06T12:24:47Z</time>
      </trkpt>
      <trkpt lat="43.16836" lon="0.22145">
        <ele>304.2</ele>
        <time>2022-09-06T12:24:51Z</time>
      </trkpt>
      <trkpt lat="43.16832" lon="0.22125">
        <ele>302.8</ele>
        <time>2022-09-06T12:24:53Z</time>
      </trkpt>
      <trkpt lat="43.16829" lon="0.22116">
        <ele>302.4</ele>
        <time>2022-09-06T12:24:54Z</time>
      </trkpt>
      <trkpt lat="43.16818" lon="0.221">
        <ele>301.8</ele>
        <time>2022-09-06T12:24:56Z</time>
      </trkpt>
      <trkpt lat="43.16801" lon="0.22091">
        <ele>300.2</ele>
        <time>2022-09-06T12:24:59Z</time>
      </trkpt>
      <trkpt lat="43.16789" lon="0.22087">
        <ele>299</ele>
        <time>2022-09-06T12:25:01Z</time>
      </trkpt>
      <trkpt lat="43.16785" lon="0.2208">
        <ele>298.4</ele>
        <time>2022-09-06T12:25:02Z</time>
      </trkpt>
      <trkpt lat="43.16785" lon="0.22064">
        <ele>297.8</ele>
        <time>2022-09-06T12:25:04Z</time>
      </trkpt>
      <trkpt lat="43.16791" lon="0.22048">
        <ele>297.2</ele>
        <time>2022-09-06T12:25:06Z</time>
      </trkpt>
      <trkpt lat="43.16795" lon="0.22028">
        <ele>296.6</ele>
        <time>2022-09-06T12:25:08Z</time>
      </trkpt>
      <trkpt lat="43.16792" lon="0.21992">
        <ele>295.6</ele>
        <time>2022-09-06T12:25:11Z</time>
      </trkpt>
      <trkpt lat="43.16783" lon="0.21953">
        <ele>294.4</ele>
        <time>2022-09-06T12:25:14Z</time>
      </trkpt>
      <trkpt lat="43.16778" lon="0.2194">
        <ele>294.4</ele>
        <time>2022-09-06T12:25:15Z</time>
      </trkpt>
      <trkpt lat="43.16767" lon="0.21914">
        <ele>292.4</ele>
        <time>2022-09-06T12:25:17Z</time>
      </trkpt>
      <trkpt lat="43.16757" lon="0.21887">
        <ele>291.2</ele>
        <time>2022-09-06T12:25:19Z</time>
      </trkpt>
      <trkpt lat="43.16747" lon="0.2186">
        <ele>290</ele>
        <time>2022-09-06T12:25:21Z</time>
      </trkpt>
      <trkpt lat="43.16737" lon="0.21831">
        <ele>288.6</ele>
        <time>2022-09-06T12:25:23Z</time>
      </trkpt>
      <trkpt lat="43.16731" lon="0.21805">
        <ele>287</ele>
        <time>2022-09-06T12:25:25Z</time>
      </trkpt>
      <trkpt lat="43.16728" lon="0.21793">
        <ele>286.4</ele>
        <time>2022-09-06T12:25:26Z</time>
      </trkpt>
      <trkpt lat="43.16726" lon="0.21769">
        <ele>285.4</ele>
        <time>2022-09-06T12:25:28Z</time>
      </trkpt>
      <trkpt lat="43.16726" lon="0.21757">
        <ele>285</ele>
        <time>2022-09-06T12:25:29Z</time>
      </trkpt>
      <trkpt lat="43.16726" lon="0.21744">
        <ele>284.4</ele>
        <time>2022-09-06T12:25:30Z</time>
      </trkpt>
      <trkpt lat="43.16733" lon="0.21717">
        <ele>282.8</ele>
        <time>2022-09-06T12:25:32Z</time>
      </trkpt>
      <trkpt lat="43.16744" lon="0.21692">
        <ele>281</ele>
        <time>2022-09-06T12:25:34Z</time>
      </trkpt>
      <trkpt lat="43.16751" lon="0.2168">
        <ele>280.6</ele>
        <time>2022-09-06T12:25:35Z</time>
      </trkpt>
      <trkpt lat="43.16767" lon="0.21658">
        <ele>279.6</ele>
        <time>2022-09-06T12:25:37Z</time>
      </trkpt>
      <trkpt lat="43.16791" lon="0.21625">
        <ele>278.2</ele>
        <time>2022-09-06T12:25:40Z</time>
      </trkpt>
      <trkpt lat="43.16807" lon="0.21602">
        <ele>277</ele>
        <time>2022-09-06T12:25:42Z</time>
      </trkpt>
      <trkpt lat="43.16823" lon="0.2158">
        <ele>276</ele>
        <time>2022-09-06T12:25:44Z</time>
      </trkpt>
      <trkpt lat="43.16845" lon="0.21549">
        <ele>274.8</ele>
        <time>2022-09-06T12:25:47Z</time>
      </trkpt>
      <trkpt lat="43.16869" lon="0.21512">
        <ele>274.6</ele>
        <time>2022-09-06T12:25:51Z</time>
      </trkpt>
      <trkpt lat="43.16873" lon="0.21503">
        <ele>274.6</ele>
        <time>2022-09-06T12:25:52Z</time>
      </trkpt>
      <trkpt lat="43.16879" lon="0.21475">
        <ele>274.6</ele>
        <time>2022-09-06T12:25:55Z</time>
      </trkpt>
      <trkpt lat="43.16879" lon="0.21449">
        <ele>275</ele>
        <time>2022-09-06T12:25:58Z</time>
      </trkpt>
      <trkpt lat="43.16878" lon="0.21441">
        <ele>275.4</ele>
        <time>2022-09-06T12:25:59Z</time>
      </trkpt>
      <trkpt lat="43.16869" lon="0.21408">
        <ele>275.4</ele>
        <time>2022-09-06T12:26:04Z</time>
      </trkpt>
      <trkpt lat="43.16868" lon="0.21402">
        <ele>275.8</ele>
        <time>2022-09-06T12:26:05Z</time>
      </trkpt>
      <trkpt lat="43.16867" lon="0.21397">
        <ele>276</ele>
        <time>2022-09-06T12:26:06Z</time>
      </trkpt>
      <trkpt lat="43.1686" lon="0.21371">
        <ele>276.4</ele>
        <time>2022-09-06T12:26:11Z</time>
      </trkpt>
      <trkpt lat="43.16855" lon="0.21352">
        <ele>277</ele>
        <time>2022-09-06T12:26:15Z</time>
      </trkpt>
      <trkpt lat="43.16848" lon="0.21331">
        <ele>277.6</ele>
        <time>2022-09-06T12:26:20Z</time>
      </trkpt>
      <trkpt lat="43.16846" lon="0.21324">
        <ele>278</ele>
        <time>2022-09-06T12:26:22Z</time>
      </trkpt>
      <trkpt lat="43.16841" lon="0.21305">
        <ele>278.4</ele>
        <time>2022-09-06T12:26:27Z</time>
      </trkpt>
      <trkpt lat="43.16837" lon="0.21286">
        <ele>279</ele>
        <time>2022-09-06T12:26:32Z</time>
      </trkpt>
      <trkpt lat="43.16834" lon="0.21263">
        <ele>279.4</ele>
        <time>2022-09-06T12:26:38Z</time>
      </trkpt>
      <trkpt lat="43.1683" lon="0.21241">
        <ele>279.8</ele>
        <time>2022-09-06T12:26:45Z</time>
      </trkpt>
      <trkpt lat="43.16829" lon="0.21233">
        <ele>280.2</ele>
        <time>2022-09-06T12:26:49Z</time>
      </trkpt>
      <trkpt lat="43.16828" lon="0.21229">
        <ele>280.2</ele>
        <time>2022-09-06T12:26:51Z</time>
      </trkpt>
      <trkpt lat="43.16823" lon="0.21212">
        <ele>281</ele>
        <time>2022-09-06T12:26:58Z</time>
      </trkpt>
      <trkpt lat="43.16822" lon="0.2121">
        <ele>281.2</ele>
        <time>2022-09-06T12:26:59Z</time>
      </trkpt>
      <trkpt lat="43.16816" lon="0.21191">
        <ele>282.2</ele>
        <time>2022-09-06T12:27:07Z</time>
      </trkpt>
      <trkpt lat="43.16814" lon="0.21188">
        <ele>282.2</ele>
        <time>2022-09-06T12:27:08Z</time>
      </trkpt>
      <trkpt lat="43.16807" lon="0.21177">
        <ele>283</ele>
        <time>2022-09-06T12:27:14Z</time>
      </trkpt>
      <trkpt lat="43.16805" lon="0.21172">
        <ele>283.4</ele>
        <time>2022-09-06T12:27:16Z</time>
      </trkpt>
      <trkpt lat="43.16798" lon="0.21162">
        <ele>284.4</ele>
        <time>2022-09-06T12:27:21Z</time>
      </trkpt>
      <trkpt lat="43.16783" lon="0.21144">
        <ele>285.4</ele>
        <time>2022-09-06T12:27:31Z</time>
      </trkpt>
      <trkpt lat="43.16781" lon="0.2114">
        <ele>285.4</ele>
        <time>2022-09-06T12:27:33Z</time>
      </trkpt>
      <trkpt lat="43.16776" lon="0.21131">
        <ele>286</ele>
        <time>2022-09-06T12:27:37Z</time>
      </trkpt>
      <trkpt lat="43.1677" lon="0.21123">
        <ele>286.6</ele>
        <time>2022-09-06T12:27:41Z</time>
      </trkpt>
      <trkpt lat="43.16763" lon="0.21116">
        <ele>286.8</ele>
        <time>2022-09-06T12:27:45Z</time>
      </trkpt>
      <trkpt lat="43.16755" lon="0.21105">
        <ele>287.8</ele>
        <time>2022-09-06T12:27:51Z</time>
      </trkpt>
      <trkpt lat="43.1675" lon="0.21099">
        <ele>287.8</ele>
        <time>2022-09-06T12:27:54Z</time>
      </trkpt>
      <trkpt lat="43.16741" lon="0.21088">
        <ele>288.8</ele>
        <time>2022-09-06T12:28:00Z</time>
      </trkpt>
      <trkpt lat="43.16737" lon="0.21083">
        <ele>289</ele>
        <time>2022-09-06T12:28:03Z</time>
      </trkpt>
      <trkpt lat="43.16729" lon="0.21073">
        <ele>289.8</ele>
        <time>2022-09-06T12:28:08Z</time>
      </trkpt>
      <trkpt lat="43.16724" lon="0.21065">
        <ele>290.4</ele>
        <time>2022-09-06T12:28:12Z</time>
      </trkpt>
      <trkpt lat="43.16714" lon="0.21051">
        <ele>291</ele>
        <time>2022-09-06T12:28:19Z</time>
      </trkpt>
      <trkpt lat="43.16713" lon="0.21049">
        <ele>291</ele>
        <time>2022-09-06T12:28:20Z</time>
      </trkpt>
      <trkpt lat="43.16702" lon="0.21038">
        <ele>291.8</ele>
        <time>2022-09-06T12:28:26Z</time>
      </trkpt>
      <trkpt lat="43.16701" lon="0.21036">
        <ele>292</ele>
        <time>2022-09-06T12:28:27Z</time>
      </trkpt>
      <trkpt lat="43.16695" lon="0.21023">
        <ele>293.2</ele>
        <time>2022-09-06T12:28:32Z</time>
      </trkpt>
      <trkpt lat="43.16687" lon="0.21007">
        <ele>294.4</ele>
        <time>2022-09-06T12:28:39Z</time>
      </trkpt>
      <trkpt lat="43.16676" lon="0.20995">
        <ele>295.2</ele>
        <time>2022-09-06T12:28:46Z</time>
      </trkpt>
      <trkpt lat="43.16674" lon="0.2099">
        <ele>295.4</ele>
        <time>2022-09-06T12:28:48Z</time>
      </trkpt>
      <trkpt lat="43.16667" lon="0.20981">
        <ele>296</ele>
        <time>2022-09-06T12:28:53Z</time>
      </trkpt>
      <trkpt lat="43.16662" lon="0.20974">
        <ele>296.6</ele>
        <time>2022-09-06T12:28:57Z</time>
      </trkpt>
      <trkpt lat="43.16654" lon="0.20967">
        <ele>297</ele>
        <time>2022-09-06T12:29:02Z</time>
      </trkpt>
      <trkpt lat="43.16646" lon="0.20961">
        <ele>297.6</ele>
        <time>2022-09-06T12:29:07Z</time>
      </trkpt>
      <trkpt lat="43.16643" lon="0.20958">
        <ele>297.8</ele>
        <time>2022-09-06T12:29:09Z</time>
      </trkpt>
      <trkpt lat="43.16635" lon="0.20953">
        <ele>298.6</ele>
        <time>2022-09-06T12:29:14Z</time>
      </trkpt>
      <trkpt lat="43.16627" lon="0.20947">
        <ele>299.2</ele>
        <time>2022-09-06T12:29:18Z</time>
      </trkpt>
      <trkpt lat="43.16624" lon="0.20944">
        <ele>299.6</ele>
        <time>2022-09-06T12:29:20Z</time>
      </trkpt>
      <trkpt lat="43.16616" lon="0.20931">
        <ele>300</ele>
        <time>2022-09-06T12:29:26Z</time>
      </trkpt>
      <trkpt lat="43.16606" lon="0.20921">
        <ele>300.8</ele>
        <time>2022-09-06T12:29:32Z</time>
      </trkpt>
      <trkpt lat="43.16604" lon="0.2092">
        <ele>301</ele>
        <time>2022-09-06T12:29:33Z</time>
      </trkpt>
      <trkpt lat="43.16588" lon="0.20906">
        <ele>301.8</ele>
        <time>2022-09-06T12:29:42Z</time>
      </trkpt>
      <trkpt lat="43.16586" lon="0.20904">
        <ele>301.8</ele>
        <time>2022-09-06T12:29:43Z</time>
      </trkpt>
      <trkpt lat="43.16572" lon="0.20894">
        <ele>302.8</ele>
        <time>2022-09-06T12:29:51Z</time>
      </trkpt>
      <trkpt lat="43.1657" lon="0.20893">
        <ele>302.8</ele>
        <time>2022-09-06T12:29:52Z</time>
      </trkpt>
      <trkpt lat="43.16559" lon="0.20881">
        <ele>303.8</ele>
        <time>2022-09-06T12:29:59Z</time>
      </trkpt>
      <trkpt lat="43.16556" lon="0.20877">
        <ele>304</ele>
        <time>2022-09-06T12:30:01Z</time>
      </trkpt>
      <trkpt lat="43.16552" lon="0.20865">
        <ele>304.6</ele>
        <time>2022-09-06T12:30:06Z</time>
      </trkpt>
      <trkpt lat="43.16552" lon="0.20857">
        <ele>305</ele>
        <time>2022-09-06T12:30:09Z</time>
      </trkpt>
      <trkpt lat="43.16552" lon="0.20846">
        <ele>305.6</ele>
        <time>2022-09-06T12:30:13Z</time>
      </trkpt>
      <trkpt lat="43.16554" lon="0.20835">
        <ele>306</ele>
        <time>2022-09-06T12:30:17Z</time>
      </trkpt>
      <trkpt lat="43.16554" lon="0.2083">
        <ele>306.4</ele>
        <time>2022-09-06T12:30:19Z</time>
      </trkpt>
      <trkpt lat="43.16557" lon="0.2082">
        <ele>307.2</ele>
        <time>2022-09-06T12:30:23Z</time>
      </trkpt>
      <trkpt lat="43.16558" lon="0.20818">
        <ele>307.4</ele>
        <time>2022-09-06T12:30:24Z</time>
      </trkpt>
      <trkpt lat="43.16562" lon="0.20801">
        <ele>308</ele>
        <time>2022-09-06T12:30:30Z</time>
      </trkpt>
      <trkpt lat="43.16562" lon="0.20799">
        <ele>308.2</ele>
        <time>2022-09-06T12:30:31Z</time>
      </trkpt>
      <trkpt lat="43.16568" lon="0.20784">
        <ele>309.2</ele>
        <time>2022-09-06T12:30:37Z</time>
      </trkpt>
      <trkpt lat="43.16569" lon="0.20782">
        <ele>309.4</ele>
        <time>2022-09-06T12:30:38Z</time>
      </trkpt>
      <trkpt lat="43.16571" lon="0.20774">
        <ele>309.6</ele>
        <time>2022-09-06T12:30:42Z</time>
      </trkpt>
      <trkpt lat="43.16572" lon="0.2077">
        <ele>310</ele>
        <time>2022-09-06T12:30:44Z</time>
      </trkpt>
      <trkpt lat="43.16574" lon="0.20764">
        <ele>310.4</ele>
        <time>2022-09-06T12:30:47Z</time>
      </trkpt>
      <trkpt lat="43.16575" lon="0.20762">
        <ele>310.4</ele>
        <time>2022-09-06T12:30:48Z</time>
      </trkpt>
      <trkpt lat="43.16578" lon="0.20755">
        <ele>310.6</ele>
        <time>2022-09-06T12:30:51Z</time>
      </trkpt>
      <trkpt lat="43.16582" lon="0.2074">
        <ele>311.4</ele>
        <time>2022-09-06T12:30:57Z</time>
      </trkpt>
      <trkpt lat="43.16584" lon="0.20733">
        <ele>311.8</ele>
        <time>2022-09-06T12:31:00Z</time>
      </trkpt>
      <trkpt lat="43.16588" lon="0.20718">
        <ele>312.6</ele>
        <time>2022-09-06T12:31:06Z</time>
      </trkpt>
      <trkpt lat="43.16589" lon="0.20715">
        <ele>312.6</ele>
        <time>2022-09-06T12:31:07Z</time>
      </trkpt>
      <trkpt lat="43.16593" lon="0.20694">
        <ele>313.6</ele>
        <time>2022-09-06T12:31:15Z</time>
      </trkpt>
      <trkpt lat="43.16596" lon="0.20675">
        <ele>314.6</ele>
        <time>2022-09-06T12:31:22Z</time>
      </trkpt>
      <trkpt lat="43.16596" lon="0.2066">
        <ele>315.8</ele>
        <time>2022-09-06T12:31:28Z</time>
      </trkpt>
      <trkpt lat="43.16597" lon="0.20654">
        <ele>316</ele>
        <time>2022-09-06T12:31:30Z</time>
      </trkpt>
      <trkpt lat="43.16599" lon="0.20634">
        <ele>316.8</ele>
        <time>2022-09-06T12:31:37Z</time>
      </trkpt>
      <trkpt lat="43.16599" lon="0.20631">
        <ele>317</ele>
        <time>2022-09-06T12:31:38Z</time>
      </trkpt>
      <trkpt lat="43.16602" lon="0.20616">
        <ele>318</ele>
        <time>2022-09-06T12:31:43Z</time>
      </trkpt>
      <trkpt lat="43.16602" lon="0.20611">
        <ele>318.4</ele>
        <time>2022-09-06T12:31:45Z</time>
      </trkpt>
      <trkpt lat="43.16603" lon="0.206">
        <ele>318.8</ele>
        <time>2022-09-06T12:31:49Z</time>
      </trkpt>
      <trkpt lat="43.16605" lon="0.20596">
        <ele>319</ele>
        <time>2022-09-06T12:31:51Z</time>
      </trkpt>
      <trkpt lat="43.16605" lon="0.20593">
        <ele>319.2</ele>
        <time>2022-09-06T12:31:52Z</time>
      </trkpt>
      <trkpt lat="43.16605" lon="0.20583">
        <ele>319.8</ele>
        <time>2022-09-06T12:31:56Z</time>
      </trkpt>
      <trkpt lat="43.16607" lon="0.20576">
        <ele>320.2</ele>
        <time>2022-09-06T12:31:59Z</time>
      </trkpt>
      <trkpt lat="43.1661" lon="0.20566">
        <ele>320.8</ele>
        <time>2022-09-06T12:32:03Z</time>
      </trkpt>
      <trkpt lat="43.16612" lon="0.20555">
        <ele>321.2</ele>
        <time>2022-09-06T12:32:07Z</time>
      </trkpt>
      <trkpt lat="43.16613" lon="0.20547">
        <ele>321.6</ele>
        <time>2022-09-06T12:32:10Z</time>
      </trkpt>
      <trkpt lat="43.16618" lon="0.20532">
        <ele>322.2</ele>
        <time>2022-09-06T12:32:16Z</time>
      </trkpt>
      <trkpt lat="43.16618" lon="0.20529">
        <ele>322.4</ele>
        <time>2022-09-06T12:32:17Z</time>
      </trkpt>
      <trkpt lat="43.1662" lon="0.20514">
        <ele>323.4</ele>
        <time>2022-09-06T12:32:23Z</time>
      </trkpt>
      <trkpt lat="43.1662" lon="0.20512">
        <ele>323.4</ele>
        <time>2022-09-06T12:32:24Z</time>
      </trkpt>
      <trkpt lat="43.16621" lon="0.20511">
        <ele>323.6</ele>
        <time>2022-09-06T12:32:25Z</time>
      </trkpt>
      <trkpt lat="43.16623" lon="0.20502">
        <ele>324.4</ele>
        <time>2022-09-06T12:32:29Z</time>
      </trkpt>
      <trkpt lat="43.16624" lon="0.205">
        <ele>324.8</ele>
        <time>2022-09-06T12:32:30Z</time>
      </trkpt>
      <trkpt lat="43.16625" lon="0.20486">
        <ele>325.8</ele>
        <time>2022-09-06T12:32:36Z</time>
      </trkpt>
      <trkpt lat="43.16625" lon="0.20484">
        <ele>326</ele>
        <time>2022-09-06T12:32:37Z</time>
      </trkpt>
      <trkpt lat="43.16625" lon="0.20468">
        <ele>326.6</ele>
        <time>2022-09-06T12:32:44Z</time>
      </trkpt>
      <trkpt lat="43.16626" lon="0.2046">
        <ele>327</ele>
        <time>2022-09-06T12:32:47Z</time>
      </trkpt>
      <trkpt lat="43.16627" lon="0.20446">
        <ele>327.4</ele>
        <time>2022-09-06T12:32:52Z</time>
      </trkpt>
      <trkpt lat="43.16628" lon="0.20428">
        <ele>328</ele>
        <time>2022-09-06T12:32:58Z</time>
      </trkpt>
      <trkpt lat="43.16632" lon="0.20406">
        <ele>329</ele>
        <time>2022-09-06T12:33:06Z</time>
      </trkpt>
      <trkpt lat="43.16633" lon="0.20401">
        <ele>329</ele>
        <time>2022-09-06T12:33:08Z</time>
      </trkpt>
      <trkpt lat="43.16634" lon="0.20385">
        <ele>329.8</ele>
        <time>2022-09-06T12:33:14Z</time>
      </trkpt>
      <trkpt lat="43.16633" lon="0.20381">
        <ele>330</ele>
        <time>2022-09-06T12:33:16Z</time>
      </trkpt>
      <trkpt lat="43.16628" lon="0.20371">
        <ele>330.4</ele>
        <time>2022-09-06T12:33:20Z</time>
      </trkpt>
      <trkpt lat="43.16618" lon="0.20369">
        <ele>330.8</ele>
        <time>2022-09-06T12:33:26Z</time>
      </trkpt>
      <trkpt lat="43.16613" lon="0.20383">
        <ele>331.2</ele>
        <time>2022-09-06T12:33:31Z</time>
      </trkpt>
      <trkpt lat="43.1661" lon="0.204">
        <ele>332.2</ele>
        <time>2022-09-06T12:33:37Z</time>
      </trkpt>
      <trkpt lat="43.16609" lon="0.20403">
        <ele>332.2</ele>
        <time>2022-09-06T12:33:38Z</time>
      </trkpt>
      <trkpt lat="43.16603" lon="0.20417">
        <ele>333</ele>
        <time>2022-09-06T12:33:44Z</time>
      </trkpt>
      <trkpt lat="43.16603" lon="0.20418">
        <ele>333.2</ele>
        <time>2022-09-06T12:33:45Z</time>
      </trkpt>
      <trkpt lat="43.16602" lon="0.20421">
        <ele>333.4</ele>
        <time>2022-09-06T12:33:46Z</time>
      </trkpt>
      <trkpt lat="43.16599" lon="0.20435">
        <ele>333.8</ele>
        <time>2022-09-06T12:33:51Z</time>
      </trkpt>
      <trkpt lat="43.16595" lon="0.20447">
        <ele>334.2</ele>
        <time>2022-09-06T12:33:55Z</time>
      </trkpt>
      <trkpt lat="43.16594" lon="0.20449">
        <ele>334.4</ele>
        <time>2022-09-06T12:33:56Z</time>
      </trkpt>
      <trkpt lat="43.16592" lon="0.20454">
        <ele>334.6</ele>
        <time>2022-09-06T12:33:58Z</time>
      </trkpt>
      <trkpt lat="43.16584" lon="0.20469">
        <ele>335.4</ele>
        <time>2022-09-06T12:34:04Z</time>
      </trkpt>
      <trkpt lat="43.16583" lon="0.20471">
        <ele>335.4</ele>
        <time>2022-09-06T12:34:05Z</time>
      </trkpt>
      <trkpt lat="43.16576" lon="0.20484">
        <ele>336.2</ele>
        <time>2022-09-06T12:34:11Z</time>
      </trkpt>
      <trkpt lat="43.16572" lon="0.20489">
        <ele>336.6</ele>
        <time>2022-09-06T12:34:14Z</time>
      </trkpt>
      <trkpt lat="43.16568" lon="0.20497">
        <ele>337.2</ele>
        <time>2022-09-06T12:34:18Z</time>
      </trkpt>
      <trkpt lat="43.16565" lon="0.20503">
        <ele>337.6</ele>
        <time>2022-09-06T12:34:21Z</time>
      </trkpt>
      <trkpt lat="43.16559" lon="0.2051">
        <ele>338</ele>
        <time>2022-09-06T12:34:25Z</time>
      </trkpt>
      <trkpt lat="43.16554" lon="0.20521">
        <ele>338.6</ele>
        <time>2022-09-06T12:34:30Z</time>
      </trkpt>
      <trkpt lat="43.16553" lon="0.20523">
        <ele>338.8</ele>
        <time>2022-09-06T12:34:31Z</time>
      </trkpt>
      <trkpt lat="43.16547" lon="0.20534">
        <ele>339.4</ele>
        <time>2022-09-06T12:34:37Z</time>
      </trkpt>
      <trkpt lat="43.16545" lon="0.20538">
        <ele>339.6</ele>
        <time>2022-09-06T12:34:39Z</time>
      </trkpt>
      <trkpt lat="43.16542" lon="0.20545">
        <ele>340.2</ele>
        <time>2022-09-06T12:34:43Z</time>
      </trkpt>
      <trkpt lat="43.1654" lon="0.20554">
        <ele>340.8</ele>
        <time>2022-09-06T12:34:47Z</time>
      </trkpt>
      <trkpt lat="43.16538" lon="0.20555">
        <ele>341</ele>
        <time>2022-09-06T12:34:48Z</time>
      </trkpt>
      <trkpt lat="43.16536" lon="0.20557">
        <ele>341</ele>
        <time>2022-09-06T12:34:49Z</time>
      </trkpt>
      <trkpt lat="43.16528" lon="0.20573">
        <ele>341.8</ele>
        <time>2022-09-06T12:34:56Z</time>
      </trkpt>
      <trkpt lat="43.16527" lon="0.20575">
        <ele>342</ele>
        <time>2022-09-06T12:34:57Z</time>
      </trkpt>
      <trkpt lat="43.16525" lon="0.2058">
        <ele>342.2</ele>
        <time>2022-09-06T12:34:59Z</time>
      </trkpt>
      <trkpt lat="43.16521" lon="0.20587">
        <ele>342.4</ele>
        <time>2022-09-06T12:35:03Z</time>
      </trkpt>
      <trkpt lat="43.16516" lon="0.20596">
        <ele>343</ele>
        <time>2022-09-06T12:35:08Z</time>
      </trkpt>
      <trkpt lat="43.16513" lon="0.206">
        <ele>343.4</ele>
        <time>2022-09-06T12:35:10Z</time>
      </trkpt>
      <trkpt lat="43.16507" lon="0.2061">
        <ele>344.2</ele>
        <time>2022-09-06T12:35:16Z</time>
      </trkpt>
      <trkpt lat="43.16505" lon="0.20612">
        <ele>344.6</ele>
        <time>2022-09-06T12:35:18Z</time>
      </trkpt>
      <trkpt lat="43.16501" lon="0.20615">
        <ele>345</ele>
        <time>2022-09-06T12:35:21Z</time>
      </trkpt>
      <trkpt lat="43.16498" lon="0.20616">
        <ele>345.2</ele>
        <time>2022-09-06T12:35:23Z</time>
      </trkpt>
      <trkpt lat="43.16495" lon="0.20617">
        <ele>345.4</ele>
        <time>2022-09-06T12:35:24Z</time>
      </trkpt>
      <trkpt lat="43.1649" lon="0.20616">
        <ele>345.8</ele>
        <time>2022-09-06T12:35:27Z</time>
      </trkpt>
      <trkpt lat="43.16483" lon="0.20611">
        <ele>346.4</ele>
        <time>2022-09-06T12:35:31Z</time>
      </trkpt>
      <trkpt lat="43.16482" lon="0.2061">
        <ele>346.6</ele>
        <time>2022-09-06T12:35:32Z</time>
      </trkpt>
      <trkpt lat="43.16474" lon="0.20597">
        <ele>347.2</ele>
        <time>2022-09-06T12:35:39Z</time>
      </trkpt>
      <trkpt lat="43.16474" lon="0.20595">
        <ele>347.4</ele>
        <time>2022-09-06T12:35:40Z</time>
      </trkpt>
      <trkpt lat="43.16472" lon="0.20583">
        <ele>347.8</ele>
        <time>2022-09-06T12:35:45Z</time>
      </trkpt>
      <trkpt lat="43.16472" lon="0.2057">
        <ele>348.4</ele>
        <time>2022-09-06T12:35:50Z</time>
      </trkpt>
      <trkpt lat="43.16472" lon="0.20567">
        <ele>348.6</ele>
        <time>2022-09-06T12:35:51Z</time>
      </trkpt>
      <trkpt lat="43.16471" lon="0.20558">
        <ele>349</ele>
        <time>2022-09-06T12:35:54Z</time>
      </trkpt>
      <trkpt lat="43.16471" lon="0.20549">
        <ele>349.2</ele>
        <time>2022-09-06T12:35:57Z</time>
      </trkpt>
      <trkpt lat="43.1647" lon="0.20546">
        <ele>349.2</ele>
        <time>2022-09-06T12:35:58Z</time>
      </trkpt>
      <trkpt lat="43.16469" lon="0.20537">
        <ele>349.6</ele>
        <time>2022-09-06T12:36:01Z</time>
      </trkpt>
      <trkpt lat="43.16467" lon="0.20525">
        <ele>349.8</ele>
        <time>2022-09-06T12:36:05Z</time>
      </trkpt>
      <trkpt lat="43.16468" lon="0.20507">
        <ele>350.6</ele>
        <time>2022-09-06T12:36:11Z</time>
      </trkpt>
      <trkpt lat="43.16467" lon="0.20504">
        <ele>350.8</ele>
        <time>2022-09-06T12:36:12Z</time>
      </trkpt>
      <trkpt lat="43.16466" lon="0.20495">
        <ele>351.2</ele>
        <time>2022-09-06T12:36:15Z</time>
      </trkpt>
      <trkpt lat="43.16467" lon="0.20487">
        <ele>351.2</ele>
        <time>2022-09-06T12:36:18Z</time>
      </trkpt>
      <trkpt lat="43.16465" lon="0.20475">
        <ele>351.8</ele>
        <time>2022-09-06T12:36:22Z</time>
      </trkpt>
      <trkpt lat="43.16463" lon="0.20463">
        <ele>352.2</ele>
        <time>2022-09-06T12:36:26Z</time>
      </trkpt>
      <trkpt lat="43.16462" lon="0.20448">
        <ele>352.8</ele>
        <time>2022-09-06T12:36:31Z</time>
      </trkpt>
      <trkpt lat="43.1646" lon="0.20439">
        <ele>353.2</ele>
        <time>2022-09-06T12:36:34Z</time>
      </trkpt>
      <trkpt lat="43.16458" lon="0.20423">
        <ele>354</ele>
        <time>2022-09-06T12:36:40Z</time>
      </trkpt>
      <trkpt lat="43.16455" lon="0.20414">
        <ele>354.4</ele>
        <time>2022-09-06T12:36:43Z</time>
      </trkpt>
      <trkpt lat="43.16452" lon="0.20401">
        <ele>355</ele>
        <time>2022-09-06T12:36:48Z</time>
      </trkpt>
      <trkpt lat="43.1645" lon="0.20394">
        <ele>355.4</ele>
        <time>2022-09-06T12:36:51Z</time>
      </trkpt>
      <trkpt lat="43.16447" lon="0.20382">
        <ele>356</ele>
        <time>2022-09-06T12:36:56Z</time>
      </trkpt>
      <trkpt lat="43.16445" lon="0.20377">
        <ele>356.2</ele>
        <time>2022-09-06T12:36:58Z</time>
      </trkpt>
      <trkpt lat="43.16437" lon="0.20354">
        <ele>357.2</ele>
        <time>2022-09-06T12:37:08Z</time>
      </trkpt>
      <trkpt lat="43.16434" lon="0.20346">
        <ele>357.6</ele>
        <time>2022-09-06T12:37:12Z</time>
      </trkpt>
      <trkpt lat="43.16433" lon="0.20343">
        <ele>357.6</ele>
        <time>2022-09-06T12:37:14Z</time>
      </trkpt>
      <trkpt lat="43.16429" lon="0.20333">
        <ele>358.2</ele>
        <time>2022-09-06T12:37:18Z</time>
      </trkpt>
      <trkpt lat="43.16427" lon="0.20329">
        <ele>358.4</ele>
        <time>2022-09-06T12:37:20Z</time>
      </trkpt>
      <trkpt lat="43.16422" lon="0.20316">
        <ele>359.2</ele>
        <time>2022-09-06T12:37:27Z</time>
      </trkpt>
      <trkpt lat="43.16419" lon="0.20301">
        <ele>359.8</ele>
        <time>2022-09-06T12:37:33Z</time>
      </trkpt>
      <trkpt lat="43.16416" lon="0.2029">
        <ele>360.2</ele>
        <time>2022-09-06T12:37:38Z</time>
      </trkpt>
      <trkpt lat="43.16416" lon="0.20288">
        <ele>360.4</ele>
        <time>2022-09-06T12:37:39Z</time>
      </trkpt>
      <trkpt lat="43.16412" lon="0.20279">
        <ele>360.8</ele>
        <time>2022-09-06T12:37:43Z</time>
      </trkpt>
      <trkpt lat="43.16412" lon="0.20272">
        <ele>361</ele>
        <time>2022-09-06T12:37:46Z</time>
      </trkpt>
      <trkpt lat="43.16411" lon="0.20267">
        <ele>361.4</ele>
        <time>2022-09-06T12:37:48Z</time>
      </trkpt>
      <trkpt lat="43.1641" lon="0.20264">
        <ele>361.4</ele>
        <time>2022-09-06T12:37:49Z</time>
      </trkpt>
      <trkpt lat="43.16406" lon="0.20245">
        <ele>362</ele>
        <time>2022-09-06T12:37:56Z</time>
      </trkpt>
      <trkpt lat="43.16404" lon="0.20229">
        <ele>362.6</ele>
        <time>2022-09-06T12:38:02Z</time>
      </trkpt>
      <trkpt lat="43.16404" lon="0.20226">
        <ele>362.6</ele>
        <time>2022-09-06T12:38:03Z</time>
      </trkpt>
      <trkpt lat="43.16409" lon="0.20212">
        <ele>363.6</ele>
        <time>2022-09-06T12:38:10Z</time>
      </trkpt>
      <trkpt lat="43.16412" lon="0.20211">
        <ele>363.8</ele>
        <time>2022-09-06T12:38:12Z</time>
      </trkpt>
      <trkpt lat="43.16417" lon="0.20212">
        <ele>364.2</ele>
        <time>2022-09-06T12:38:15Z</time>
      </trkpt>
      <trkpt lat="43.16419" lon="0.20213">
        <ele>364.8</ele>
        <time>2022-09-06T12:38:17Z</time>
      </trkpt>
      <trkpt lat="43.1642" lon="0.20217">
        <ele>365.2</ele>
        <time>2022-09-06T12:38:20Z</time>
      </trkpt>
      <trkpt lat="43.16421" lon="0.20219">
        <ele>365.4</ele>
        <time>2022-09-06T12:38:21Z</time>
      </trkpt>
      <trkpt lat="43.16423" lon="0.20227">
        <ele>365.8</ele>
        <time>2022-09-06T12:38:25Z</time>
      </trkpt>
      <trkpt lat="43.16423" lon="0.20228">
        <ele>365.8</ele>
        <time>2022-09-06T12:38:26Z</time>
      </trkpt>
      <trkpt lat="43.16425" lon="0.20235">
        <ele>366.2</ele>
        <time>2022-09-06T12:38:29Z</time>
      </trkpt>
      <trkpt lat="43.16427" lon="0.2024">
        <ele>366.4</ele>
        <time>2022-09-06T12:38:32Z</time>
      </trkpt>
      <trkpt lat="43.16431" lon="0.20248">
        <ele>366.8</ele>
        <time>2022-09-06T12:38:36Z</time>
      </trkpt>
      <trkpt lat="43.16433" lon="0.20252">
        <ele>367.2</ele>
        <time>2022-09-06T12:38:38Z</time>
      </trkpt>
      <trkpt lat="43.16439" lon="0.20272">
        <ele>368</ele>
        <time>2022-09-06T12:38:45Z</time>
      </trkpt>
      <trkpt lat="43.16446" lon="0.20294">
        <ele>369</ele>
        <time>2022-09-06T12:38:53Z</time>
      </trkpt>
      <trkpt lat="43.16447" lon="0.20297">
        <ele>369</ele>
        <time>2022-09-06T12:38:54Z</time>
      </trkpt>
      <trkpt lat="43.16453" lon="0.20314">
        <ele>369.8</ele>
        <time>2022-09-06T12:39:00Z</time>
      </trkpt>
      <trkpt lat="43.16455" lon="0.2032">
        <ele>370.2</ele>
        <time>2022-09-06T12:39:02Z</time>
      </trkpt>
      <trkpt lat="43.16458" lon="0.20333">
        <ele>370.8</ele>
        <time>2022-09-06T12:39:07Z</time>
      </trkpt>
      <trkpt lat="43.16463" lon="0.20344">
        <ele>371.2</ele>
        <time>2022-09-06T12:39:11Z</time>
      </trkpt>
      <trkpt lat="43.16469" lon="0.20353">
        <ele>371.8</ele>
        <time>2022-09-06T12:39:15Z</time>
      </trkpt>
      <trkpt lat="43.16478" lon="0.20361">
        <ele>372.4</ele>
        <time>2022-09-06T12:39:19Z</time>
      </trkpt>
      <trkpt lat="43.16482" lon="0.20362">
        <ele>372.8</ele>
        <time>2022-09-06T12:39:21Z</time>
      </trkpt>
      <trkpt lat="43.16496" lon="0.20363">
        <ele>373.6</ele>
        <time>2022-09-06T12:39:27Z</time>
      </trkpt>
      <trkpt lat="43.16499" lon="0.20361">
        <ele>373.8</ele>
        <time>2022-09-06T12:39:28Z</time>
      </trkpt>
      <trkpt lat="43.16514" lon="0.20344">
        <ele>373.6</ele>
        <time>2022-09-06T12:39:36Z</time>
      </trkpt>
      <trkpt lat="43.16524" lon="0.20323">
        <ele>374.4</ele>
        <time>2022-09-06T12:39:45Z</time>
      </trkpt>
      <trkpt lat="43.16525" lon="0.20321">
        <ele>374.6</ele>
        <time>2022-09-06T12:39:46Z</time>
      </trkpt>
      <trkpt lat="43.16528" lon="0.20314">
        <ele>375</ele>
        <time>2022-09-06T12:39:49Z</time>
      </trkpt>
      <trkpt lat="43.1653" lon="0.20309">
        <ele>375.2</ele>
        <time>2022-09-06T12:39:51Z</time>
      </trkpt>
      <trkpt lat="43.16534" lon="0.203">
        <ele>375.8</ele>
        <time>2022-09-06T12:39:55Z</time>
      </trkpt>
      <trkpt lat="43.16538" lon="0.20289">
        <ele>376.2</ele>
        <time>2022-09-06T12:39:59Z</time>
      </trkpt>
      <trkpt lat="43.16544" lon="0.20274">
        <ele>376.8</ele>
        <time>2022-09-06T12:40:05Z</time>
      </trkpt>
      <trkpt lat="43.16546" lon="0.20268">
        <ele>377</ele>
        <time>2022-09-06T12:40:07Z</time>
      </trkpt>
      <trkpt lat="43.16555" lon="0.20245">
        <ele>378</ele>
        <time>2022-09-06T12:40:15Z</time>
      </trkpt>
      <trkpt lat="43.16556" lon="0.20242">
        <ele>378</ele>
        <time>2022-09-06T12:40:16Z</time>
      </trkpt>
      <trkpt lat="43.16564" lon="0.20215">
        <ele>378.8</ele>
        <time>2022-09-06T12:40:25Z</time>
      </trkpt>
      <trkpt lat="43.16565" lon="0.20212">
        <ele>379</ele>
        <time>2022-09-06T12:40:26Z</time>
      </trkpt>
      <trkpt lat="43.16571" lon="0.20195">
        <ele>379.8</ele>
        <time>2022-09-06T12:40:32Z</time>
      </trkpt>
      <trkpt lat="43.16573" lon="0.20189">
        <ele>380</ele>
        <time>2022-09-06T12:40:34Z</time>
      </trkpt>
      <trkpt lat="43.16578" lon="0.20173">
        <ele>381.2</ele>
        <time>2022-09-06T12:40:40Z</time>
      </trkpt>
      <trkpt lat="43.16582" lon="0.20153">
        <ele>382.2</ele>
        <time>2022-09-06T12:40:47Z</time>
      </trkpt>
      <trkpt lat="43.16583" lon="0.20151">
        <ele>382.2</ele>
        <time>2022-09-06T12:40:48Z</time>
      </trkpt>
      <trkpt lat="43.16585" lon="0.20132">
        <ele>382.8</ele>
        <time>2022-09-06T12:40:55Z</time>
      </trkpt>
      <trkpt lat="43.16585" lon="0.20124">
        <ele>382.8</ele>
        <time>2022-09-06T12:40:58Z</time>
      </trkpt>
      <trkpt lat="43.16587" lon="0.2012">
        <ele>383.2</ele>
        <time>2022-09-06T12:41:00Z</time>
      </trkpt>
      <trkpt lat="43.16587" lon="0.20117">
        <ele>383.4</ele>
        <time>2022-09-06T12:41:01Z</time>
      </trkpt>
      <trkpt lat="43.16587" lon="0.20109">
        <ele>383.6</ele>
        <time>2022-09-06T12:41:04Z</time>
      </trkpt>
      <trkpt lat="43.16589" lon="0.20097">
        <ele>383.8</ele>
        <time>2022-09-06T12:41:08Z</time>
      </trkpt>
      <trkpt lat="43.16589" lon="0.20089">
        <ele>384.4</ele>
        <time>2022-09-06T12:41:11Z</time>
      </trkpt>
      <trkpt lat="43.16589" lon="0.2008">
        <ele>384.6</ele>
        <time>2022-09-06T12:41:14Z</time>
      </trkpt>
      <trkpt lat="43.16589" lon="0.20071">
        <ele>385.4</ele>
        <time>2022-09-06T12:41:17Z</time>
      </trkpt>
      <trkpt lat="43.16589" lon="0.20056">
        <ele>385.6</ele>
        <time>2022-09-06T12:41:22Z</time>
      </trkpt>
      <trkpt lat="43.16589" lon="0.20032">
        <ele>386.6</ele>
        <time>2022-09-06T12:41:30Z</time>
      </trkpt>
      <trkpt lat="43.1659" lon="0.20021">
        <ele>387</ele>
        <time>2022-09-06T12:41:34Z</time>
      </trkpt>
      <trkpt lat="43.1659" lon="0.20012">
        <ele>387.4</ele>
        <time>2022-09-06T12:41:37Z</time>
      </trkpt>
      <trkpt lat="43.16588" lon="0.20004">
        <ele>387.6</ele>
        <time>2022-09-06T12:41:40Z</time>
      </trkpt>
      <trkpt lat="43.16588" lon="0.20001">
        <ele>387.6</ele>
        <time>2022-09-06T12:41:41Z</time>
      </trkpt>
      <trkpt lat="43.1659" lon="0.19996">
        <ele>388</ele>
        <time>2022-09-06T12:41:43Z</time>
      </trkpt>
      <trkpt lat="43.16589" lon="0.19982">
        <ele>388.6</ele>
        <time>2022-09-06T12:41:48Z</time>
      </trkpt>
      <trkpt lat="43.16588" lon="0.19979">
        <ele>388.8</ele>
        <time>2022-09-06T12:41:49Z</time>
      </trkpt>
      <trkpt lat="43.16589" lon="0.19974">
        <ele>389</ele>
        <time>2022-09-06T12:41:51Z</time>
      </trkpt>
      <trkpt lat="43.1659" lon="0.19965">
        <ele>389.4</ele>
        <time>2022-09-06T12:41:54Z</time>
      </trkpt>
      <trkpt lat="43.16589" lon="0.19957">
        <ele>389.6</ele>
        <time>2022-09-06T12:41:57Z</time>
      </trkpt>
      <trkpt lat="43.16589" lon="0.19949">
        <ele>390</ele>
        <time>2022-09-06T12:42:00Z</time>
      </trkpt>
      <trkpt lat="43.16586" lon="0.19931">
        <ele>390.8</ele>
        <time>2022-09-06T12:42:07Z</time>
      </trkpt>
      <trkpt lat="43.16586" lon="0.19918">
        <ele>391.4</ele>
        <time>2022-09-06T12:42:12Z</time>
      </trkpt>
      <trkpt lat="43.16585" lon="0.19915">
        <ele>391.4</ele>
        <time>2022-09-06T12:42:13Z</time>
      </trkpt>
      <trkpt lat="43.16584" lon="0.19905">
        <ele>392</ele>
        <time>2022-09-06T12:42:17Z</time>
      </trkpt>
      <trkpt lat="43.16582" lon="0.19897">
        <ele>392</ele>
        <time>2022-09-06T12:42:20Z</time>
      </trkpt>
      <trkpt lat="43.16578" lon="0.19879">
        <ele>392.8</ele>
        <time>2022-09-06T12:42:27Z</time>
      </trkpt>
      <trkpt lat="43.16576" lon="0.19868">
        <ele>393.2</ele>
        <time>2022-09-06T12:42:31Z</time>
      </trkpt>
      <trkpt lat="43.16574" lon="0.19864">
        <ele>393.4</ele>
        <time>2022-09-06T12:42:33Z</time>
      </trkpt>
      <trkpt lat="43.16569" lon="0.19842">
        <ele>394.2</ele>
        <time>2022-09-06T12:42:41Z</time>
      </trkpt>
      <trkpt lat="43.16568" lon="0.1984">
        <ele>394.4</ele>
        <time>2022-09-06T12:42:42Z</time>
      </trkpt>
      <trkpt lat="43.16564" lon="0.19821">
        <ele>395.4</ele>
        <time>2022-09-06T12:42:49Z</time>
      </trkpt>
      <trkpt lat="43.16564" lon="0.19805">
        <ele>396</ele>
        <time>2022-09-06T12:42:55Z</time>
      </trkpt>
      <trkpt lat="43.16563" lon="0.19795">
        <ele>396.6</ele>
        <time>2022-09-06T12:42:59Z</time>
      </trkpt>
      <trkpt lat="43.16564" lon="0.19781">
        <ele>397.2</ele>
        <time>2022-09-06T12:43:04Z</time>
      </trkpt>
      <trkpt lat="43.16566" lon="0.1977">
        <ele>397.6</ele>
        <time>2022-09-06T12:43:08Z</time>
      </trkpt>
      <trkpt lat="43.16567" lon="0.19762">
        <ele>398</ele>
        <time>2022-09-06T12:43:11Z</time>
      </trkpt>
      <trkpt lat="43.16568" lon="0.19749">
        <ele>398.8</ele>
        <time>2022-09-06T12:43:16Z</time>
      </trkpt>
      <trkpt lat="43.16567" lon="0.19745">
        <ele>399</ele>
        <time>2022-09-06T12:43:18Z</time>
      </trkpt>
      <trkpt lat="43.16568" lon="0.19743">
        <ele>399.2</ele>
        <time>2022-09-06T12:43:19Z</time>
      </trkpt>
      <trkpt lat="43.16571" lon="0.19736">
        <ele>399.6</ele>
        <time>2022-09-06T12:43:22Z</time>
      </trkpt>
      <trkpt lat="43.16572" lon="0.19734">
        <ele>399.6</ele>
        <time>2022-09-06T12:43:23Z</time>
      </trkpt>
      <trkpt lat="43.16572" lon="0.19731">
        <ele>399.8</ele>
        <time>2022-09-06T12:43:24Z</time>
      </trkpt>
      <trkpt lat="43.16575" lon="0.19713">
        <ele>400.8</ele>
        <time>2022-09-06T12:43:31Z</time>
      </trkpt>
      <trkpt lat="43.16575" lon="0.1971">
        <ele>400.8</ele>
        <time>2022-09-06T12:43:32Z</time>
      </trkpt>
      <trkpt lat="43.16578" lon="0.19689">
        <ele>401.6</ele>
        <time>2022-09-06T12:43:39Z</time>
      </trkpt>
      <trkpt lat="43.16578" lon="0.19683">
        <ele>402</ele>
        <time>2022-09-06T12:43:41Z</time>
      </trkpt>
      <trkpt lat="43.16579" lon="0.19662">
        <ele>403</ele>
        <time>2022-09-06T12:43:48Z</time>
      </trkpt>
      <trkpt lat="43.16579" lon="0.1964">
        <ele>404</ele>
        <time>2022-09-06T12:43:56Z</time>
      </trkpt>
      <trkpt lat="43.1658" lon="0.19624">
        <ele>404.6</ele>
        <time>2022-09-06T12:44:02Z</time>
      </trkpt>
      <trkpt lat="43.16578" lon="0.19613">
        <ele>405</ele>
        <time>2022-09-06T12:44:06Z</time>
      </trkpt>
      <trkpt lat="43.16578" lon="0.19601">
        <ele>405.6</ele>
        <time>2022-09-06T12:44:10Z</time>
      </trkpt>
      <trkpt lat="43.16577" lon="0.1959">
        <ele>406.2</ele>
        <time>2022-09-06T12:44:14Z</time>
      </trkpt>
      <trkpt lat="43.16575" lon="0.1957">
        <ele>406.8</ele>
        <time>2022-09-06T12:44:21Z</time>
      </trkpt>
      <trkpt lat="43.16572" lon="0.19559">
        <ele>407.2</ele>
        <time>2022-09-06T12:44:25Z</time>
      </trkpt>
      <trkpt lat="43.16569" lon="0.19554">
        <ele>407.6</ele>
        <time>2022-09-06T12:44:27Z</time>
      </trkpt>
      <trkpt lat="43.16562" lon="0.19537">
        <ele>408.4</ele>
        <time>2022-09-06T12:44:34Z</time>
      </trkpt>
      <trkpt lat="43.16559" lon="0.19535">
        <ele>408.4</ele>
        <time>2022-09-06T12:44:35Z</time>
      </trkpt>
      <trkpt lat="43.16549" lon="0.19538">
        <ele>409</ele>
        <time>2022-09-06T12:44:40Z</time>
      </trkpt>
      <trkpt lat="43.16544" lon="0.19544">
        <ele>409.4</ele>
        <time>2022-09-06T12:44:43Z</time>
      </trkpt>
      <trkpt lat="43.16543" lon="0.1955">
        <ele>409.8</ele>
        <time>2022-09-06T12:44:45Z</time>
      </trkpt>
      <trkpt lat="43.16539" lon="0.1956">
        <ele>410.6</ele>
        <time>2022-09-06T12:44:49Z</time>
      </trkpt>
      <trkpt lat="43.16539" lon="0.19563">
        <ele>410.8</ele>
        <time>2022-09-06T12:44:50Z</time>
      </trkpt>
      <trkpt lat="43.16539" lon="0.1959">
        <ele>411.6</ele>
        <time>2022-09-06T12:44:58Z</time>
      </trkpt>
      <trkpt lat="43.16539" lon="0.19595">
        <ele>411.8</ele>
        <time>2022-09-06T12:44:59Z</time>
      </trkpt>
      <trkpt lat="43.16535" lon="0.19612">
        <ele>412</ele>
        <time>2022-09-06T12:45:04Z</time>
      </trkpt>
      <trkpt lat="43.16532" lon="0.19638">
        <ele>412.6</ele>
        <time>2022-09-06T12:45:12Z</time>
      </trkpt>
      <trkpt lat="43.16531" lon="0.19644">
        <ele>413</ele>
        <time>2022-09-06T12:45:14Z</time>
      </trkpt>
      <trkpt lat="43.16527" lon="0.19661">
        <ele>413.8</ele>
        <time>2022-09-06T12:45:20Z</time>
      </trkpt>
      <trkpt lat="43.16526" lon="0.19667">
        <ele>414</ele>
        <time>2022-09-06T12:45:22Z</time>
      </trkpt>
      <trkpt lat="43.16522" lon="0.19686">
        <ele>414.4</ele>
        <time>2022-09-06T12:45:28Z</time>
      </trkpt>
      <trkpt lat="43.16515" lon="0.19705">
        <ele>415</ele>
        <time>2022-09-06T12:45:35Z</time>
      </trkpt>
      <trkpt lat="43.16513" lon="0.19707">
        <ele>415</ele>
        <time>2022-09-06T12:45:36Z</time>
      </trkpt>
      <trkpt lat="43.16502" lon="0.19709">
        <ele>415.4</ele>
        <time>2022-09-06T12:45:41Z</time>
      </trkpt>
      <trkpt lat="43.165" lon="0.19707">
        <ele>415.6</ele>
        <time>2022-09-06T12:45:42Z</time>
      </trkpt>
      <trkpt lat="43.16495" lon="0.19701">
        <ele>416.2</ele>
        <time>2022-09-06T12:45:45Z</time>
      </trkpt>
      <trkpt lat="43.16494" lon="0.19698">
        <ele>416.4</ele>
        <time>2022-09-06T12:45:46Z</time>
      </trkpt>
      <trkpt lat="43.16489" lon="0.19682">
        <ele>416.8</ele>
        <time>2022-09-06T12:45:52Z</time>
      </trkpt>
      <trkpt lat="43.16488" lon="0.19674">
        <ele>417.2</ele>
        <time>2022-09-06T12:45:55Z</time>
      </trkpt>
      <trkpt lat="43.16488" lon="0.19666">
        <ele>417.4</ele>
        <time>2022-09-06T12:45:58Z</time>
      </trkpt>
      <trkpt lat="43.16483" lon="0.19649">
        <ele>418.2</ele>
        <time>2022-09-06T12:46:04Z</time>
      </trkpt>
      <trkpt lat="43.16482" lon="0.19643">
        <ele>418.4</ele>
        <time>2022-09-06T12:46:06Z</time>
      </trkpt>
      <trkpt lat="43.16478" lon="0.19625">
        <ele>419.4</ele>
        <time>2022-09-06T12:46:12Z</time>
      </trkpt>
      <trkpt lat="43.16476" lon="0.19619">
        <ele>419.6</ele>
        <time>2022-09-06T12:46:14Z</time>
      </trkpt>
      <trkpt lat="43.1647" lon="0.19605">
        <ele>420.4</ele>
        <time>2022-09-06T12:46:19Z</time>
      </trkpt>
      <trkpt lat="43.16468" lon="0.19597">
        <ele>421</ele>
        <time>2022-09-06T12:46:22Z</time>
      </trkpt>
      <trkpt lat="43.16465" lon="0.19588">
        <ele>421.6</ele>
        <time>2022-09-06T12:46:25Z</time>
      </trkpt>
      <trkpt lat="43.16458" lon="0.19571">
        <ele>422.8</ele>
        <time>2022-09-06T12:46:31Z</time>
      </trkpt>
      <trkpt lat="43.16457" lon="0.19569">
        <ele>423</ele>
        <time>2022-09-06T12:46:32Z</time>
      </trkpt>
      <trkpt lat="43.1645" lon="0.19551">
        <ele>423.8</ele>
        <time>2022-09-06T12:46:39Z</time>
      </trkpt>
      <trkpt lat="43.16449" lon="0.19549">
        <ele>423.8</ele>
        <time>2022-09-06T12:46:40Z</time>
      </trkpt>
      <trkpt lat="43.16442" lon="0.19534">
        <ele>424.8</ele>
        <time>2022-09-06T12:46:47Z</time>
      </trkpt>
      <trkpt lat="43.16434" lon="0.19524">
        <ele>425.2</ele>
        <time>2022-09-06T12:46:53Z</time>
      </trkpt>
      <trkpt lat="43.16431" lon="0.19517">
        <ele>425.8</ele>
        <time>2022-09-06T12:46:56Z</time>
      </trkpt>
      <trkpt lat="43.16427" lon="0.19511">
        <ele>426.2</ele>
        <time>2022-09-06T12:46:59Z</time>
      </trkpt>
      <trkpt lat="43.16425" lon="0.19504">
        <ele>426.8</ele>
        <time>2022-09-06T12:47:02Z</time>
      </trkpt>
      <trkpt lat="43.1642" lon="0.19494">
        <ele>427.6</ele>
        <time>2022-09-06T12:47:07Z</time>
      </trkpt>
      <trkpt lat="43.16419" lon="0.19487">
        <ele>428</ele>
        <time>2022-09-06T12:47:10Z</time>
      </trkpt>
      <trkpt lat="43.16418" lon="0.1948">
        <ele>428.4</ele>
        <time>2022-09-06T12:47:13Z</time>
      </trkpt>
      <trkpt lat="43.16413" lon="0.19471">
        <ele>429</ele>
        <time>2022-09-06T12:47:18Z</time>
      </trkpt>
      <trkpt lat="43.16408" lon="0.19458">
        <ele>429.6</ele>
        <time>2022-09-06T12:47:24Z</time>
      </trkpt>
      <trkpt lat="43.16406" lon="0.19451">
        <ele>430</ele>
        <time>2022-09-06T12:47:27Z</time>
      </trkpt>
      <trkpt lat="43.16405" lon="0.19445">
        <ele>430.4</ele>
        <time>2022-09-06T12:47:30Z</time>
      </trkpt>
      <trkpt lat="43.16405" lon="0.19442">
        <ele>430.6</ele>
        <time>2022-09-06T12:47:31Z</time>
      </trkpt>
      <trkpt lat="43.16404" lon="0.19432">
        <ele>431.2</ele>
        <time>2022-09-06T12:47:35Z</time>
      </trkpt>
      <trkpt lat="43.16403" lon="0.19424">
        <ele>431.4</ele>
        <time>2022-09-06T12:47:38Z</time>
      </trkpt>
      <trkpt lat="43.16402" lon="0.19417">
        <ele>432.2</ele>
        <time>2022-09-06T12:47:41Z</time>
      </trkpt>
      <trkpt lat="43.16402" lon="0.19405">
        <ele>432.6</ele>
        <time>2022-09-06T12:47:46Z</time>
      </trkpt>
      <trkpt lat="43.16401" lon="0.19388">
        <ele>433</ele>
        <time>2022-09-06T12:47:54Z</time>
      </trkpt>
      <trkpt lat="43.16401" lon="0.19386">
        <ele>433.2</ele>
        <time>2022-09-06T12:47:55Z</time>
      </trkpt>
      <trkpt lat="43.16399" lon="0.19365">
        <ele>434</ele>
        <time>2022-09-06T12:48:03Z</time>
      </trkpt>
      <trkpt lat="43.16399" lon="0.19362">
        <ele>434.2</ele>
        <time>2022-09-06T12:48:04Z</time>
      </trkpt>
      <trkpt lat="43.16397" lon="0.19352">
        <ele>435</ele>
        <time>2022-09-06T12:48:09Z</time>
      </trkpt>
      <trkpt lat="43.16396" lon="0.19346">
        <ele>435.4</ele>
        <time>2022-09-06T12:48:12Z</time>
      </trkpt>
      <trkpt lat="43.16395" lon="0.19333">
        <ele>435.8</ele>
        <time>2022-09-06T12:48:17Z</time>
      </trkpt>
      <trkpt lat="43.16392" lon="0.19312">
        <ele>436.6</ele>
        <time>2022-09-06T12:48:24Z</time>
      </trkpt>
      <trkpt lat="43.1639" lon="0.19285">
        <ele>437</ele>
        <time>2022-09-06T12:48:32Z</time>
      </trkpt>
      <trkpt lat="43.16387" lon="0.19269">
        <ele>437.6</ele>
        <time>2022-09-06T12:48:37Z</time>
      </trkpt>
      <trkpt lat="43.16386" lon="0.1926">
        <ele>437.8</ele>
        <time>2022-09-06T12:48:40Z</time>
      </trkpt>
      <trkpt lat="43.16384" lon="0.19238">
        <ele>438.6</ele>
        <time>2022-09-06T12:48:47Z</time>
      </trkpt>
      <trkpt lat="43.16382" lon="0.19221">
        <ele>438.6</ele>
        <time>2022-09-06T12:48:52Z</time>
      </trkpt>
      <trkpt lat="43.16382" lon="0.19208">
        <ele>439.2</ele>
        <time>2022-09-06T12:48:56Z</time>
      </trkpt>
      <trkpt lat="43.16379" lon="0.19183">
        <ele>439.4</ele>
        <time>2022-09-06T12:49:03Z</time>
      </trkpt>
      <trkpt lat="43.16377" lon="0.19165">
        <ele>439.8</ele>
        <time>2022-09-06T12:49:08Z</time>
      </trkpt>
      <trkpt lat="43.16376" lon="0.19158">
        <ele>439.8</ele>
        <time>2022-09-06T12:49:10Z</time>
      </trkpt>
      <trkpt lat="43.16369" lon="0.19128">
        <ele>440.2</ele>
        <time>2022-09-06T12:49:18Z</time>
      </trkpt>
      <trkpt lat="43.16366" lon="0.19121">
        <ele>440.8</ele>
        <time>2022-09-06T12:49:20Z</time>
      </trkpt>
      <trkpt lat="43.16354" lon="0.19099">
        <ele>441</ele>
        <time>2022-09-06T12:49:26Z</time>
      </trkpt>
      <trkpt lat="43.16336" lon="0.19083">
        <ele>441.4</ele>
        <time>2022-09-06T12:49:33Z</time>
      </trkpt>
      <trkpt lat="43.16311" lon="0.19069">
        <ele>441.6</ele>
        <time>2022-09-06T12:49:41Z</time>
      </trkpt>
      <trkpt lat="43.16303" lon="0.19064">
        <ele>441.8</ele>
        <time>2022-09-06T12:49:44Z</time>
      </trkpt>
      <trkpt lat="43.16282" lon="0.19052">
        <ele>442.8</ele>
        <time>2022-09-06T12:49:51Z</time>
      </trkpt>
      <trkpt lat="43.16259" lon="0.19035">
        <ele>443</ele>
        <time>2022-09-06T12:49:59Z</time>
      </trkpt>
      <trkpt lat="43.16255" lon="0.1903">
        <ele>443</ele>
        <time>2022-09-06T12:50:01Z</time>
      </trkpt>
      <trkpt lat="43.16239" lon="0.19006">
        <ele>443.8</ele>
        <time>2022-09-06T12:50:09Z</time>
      </trkpt>
      <trkpt lat="43.16238" lon="0.18999">
        <ele>444</ele>
        <time>2022-09-06T12:50:11Z</time>
      </trkpt>
      <trkpt lat="43.16237" lon="0.18997">
        <ele>444</ele>
        <time>2022-09-06T12:50:12Z</time>
      </trkpt>
      <trkpt lat="43.16235" lon="0.18996">
        <ele>444</ele>
        <time>2022-09-06T12:50:13Z</time>
      </trkpt>
      <trkpt lat="43.1623" lon="0.18994">
        <ele>444.2</ele>
        <time>2022-09-06T12:50:16Z</time>
      </trkpt>
      <trkpt lat="43.16227" lon="0.18992">
        <ele>444</ele>
        <time>2022-09-06T12:50:20Z</time>
      </trkpt>
      <trkpt lat="43.1623" lon="0.18994">
        <ele>445</ele>
        <time>2022-09-06T12:57:16Z</time>
      </trkpt>
      <trkpt lat="43.16234" lon="0.18996">
        <ele>445</ele>
        <time>2022-09-06T12:57:18Z</time>
      </trkpt>
      <trkpt lat="43.16237" lon="0.18997">
        <ele>445</ele>
        <time>2022-09-06T12:57:20Z</time>
      </trkpt>
      <trkpt lat="43.16242" lon="0.18994">
        <ele>445.4</ele>
        <time>2022-09-06T12:57:23Z</time>
      </trkpt>
      <trkpt lat="43.16244" lon="0.18989">
        <ele>445.2</ele>
        <time>2022-09-06T12:57:26Z</time>
      </trkpt>
      <trkpt lat="43.16247" lon="0.18983">
        <ele>445.2</ele>
        <time>2022-09-06T12:57:39Z</time>
      </trkpt>
      <trkpt lat="43.16248" lon="0.18979">
        <ele>445.2</ele>
        <time>2022-09-06T12:57:41Z</time>
      </trkpt>
      <trkpt lat="43.16254" lon="0.18961">
        <ele>446.2</ele>
        <time>2022-09-06T12:57:48Z</time>
      </trkpt>
      <trkpt lat="43.16255" lon="0.18955">
        <ele>446.4</ele>
        <time>2022-09-06T12:57:50Z</time>
      </trkpt>
      <trkpt lat="43.16259" lon="0.1893">
        <ele>446.6</ele>
        <time>2022-09-06T12:57:58Z</time>
      </trkpt>
      <trkpt lat="43.16252" lon="0.18912">
        <ele>446.6</ele>
        <time>2022-09-06T12:58:04Z</time>
      </trkpt>
      <trkpt lat="43.16234" lon="0.18903">
        <ele>446.2</ele>
        <time>2022-09-06T12:58:11Z</time>
      </trkpt>
      <trkpt lat="43.16207" lon="0.18893">
        <ele>446.6</ele>
        <time>2022-09-06T12:58:21Z</time>
      </trkpt>
      <trkpt lat="43.16191" lon="0.18886">
        <ele>447.2</ele>
        <time>2022-09-06T12:58:27Z</time>
      </trkpt>
      <trkpt lat="43.16186" lon="0.18883">
        <ele>447.2</ele>
        <time>2022-09-06T12:58:29Z</time>
      </trkpt>
      <trkpt lat="43.16172" lon="0.18876">
        <ele>447.6</ele>
        <time>2022-09-06T12:58:34Z</time>
      </trkpt>
      <trkpt lat="43.16147" lon="0.18859">
        <ele>447.8</ele>
        <time>2022-09-06T12:58:43Z</time>
      </trkpt>
      <trkpt lat="43.1614" lon="0.18853">
        <ele>448.2</ele>
        <time>2022-09-06T12:58:46Z</time>
      </trkpt>
      <trkpt lat="43.16127" lon="0.18843">
        <ele>449</ele>
        <time>2022-09-06T12:58:51Z</time>
      </trkpt>
      <trkpt lat="43.16105" lon="0.18822">
        <ele>449.4</ele>
        <time>2022-09-06T12:59:01Z</time>
      </trkpt>
      <trkpt lat="43.16106" lon="0.18806">
        <ele>449.2</ele>
        <time>2022-09-06T12:59:06Z</time>
      </trkpt>
      <trkpt lat="43.16117" lon="0.18777">
        <ele>448.2</ele>
        <time>2022-09-06T12:59:13Z</time>
      </trkpt>
      <trkpt lat="43.1613" lon="0.18744">
        <ele>447.4</ele>
        <time>2022-09-06T12:59:18Z</time>
      </trkpt>
      <trkpt lat="43.16134" lon="0.18735">
        <ele>447.2</ele>
        <time>2022-09-06T12:59:19Z</time>
      </trkpt>
      <trkpt lat="43.16141" lon="0.18715">
        <ele>445.8</ele>
        <time>2022-09-06T12:59:21Z</time>
      </trkpt>
      <trkpt lat="43.16145" lon="0.18705">
        <ele>445.6</ele>
        <time>2022-09-06T12:59:22Z</time>
      </trkpt>
      <trkpt lat="43.16153" lon="0.18683">
        <ele>444.2</ele>
        <time>2022-09-06T12:59:24Z</time>
      </trkpt>
      <trkpt lat="43.16157" lon="0.18672">
        <ele>443</ele>
        <time>2022-09-06T12:59:25Z</time>
      </trkpt>
      <trkpt lat="43.16165" lon="0.18651">
        <ele>442</ele>
        <time>2022-09-06T12:59:27Z</time>
      </trkpt>
      <trkpt lat="43.16174" lon="0.18629">
        <ele>440.4</ele>
        <time>2022-09-06T12:59:29Z</time>
      </trkpt>
      <trkpt lat="43.16178" lon="0.18617">
        <ele>439.8</ele>
        <time>2022-09-06T12:59:30Z</time>
      </trkpt>
      <trkpt lat="43.16189" lon="0.18592">
        <ele>439</ele>
        <time>2022-09-06T12:59:32Z</time>
      </trkpt>
      <trkpt lat="43.16196" lon="0.18581">
        <ele>437.8</ele>
        <time>2022-09-06T12:59:33Z</time>
      </trkpt>
      <trkpt lat="43.16202" lon="0.18569">
        <ele>436.2</ele>
        <time>2022-09-06T12:59:34Z</time>
      </trkpt>
      <trkpt lat="43.16208" lon="0.18558">
        <ele>434.8</ele>
        <time>2022-09-06T12:59:35Z</time>
      </trkpt>
      <trkpt lat="43.16214" lon="0.18547">
        <ele>433.6</ele>
        <time>2022-09-06T12:59:36Z</time>
      </trkpt>
      <trkpt lat="43.1622" lon="0.18536">
        <ele>432.4</ele>
        <time>2022-09-06T12:59:37Z</time>
      </trkpt>
      <trkpt lat="43.16226" lon="0.18526">
        <ele>431.4</ele>
        <time>2022-09-06T12:59:38Z</time>
      </trkpt>
      <trkpt lat="43.16232" lon="0.18517">
        <ele>430</ele>
        <time>2022-09-06T12:59:39Z</time>
      </trkpt>
      <trkpt lat="43.16237" lon="0.18509">
        <ele>428.8</ele>
        <time>2022-09-06T12:59:40Z</time>
      </trkpt>
      <trkpt lat="43.16242" lon="0.18503">
        <ele>427.4</ele>
        <time>2022-09-06T12:59:41Z</time>
      </trkpt>
      <trkpt lat="43.16246" lon="0.18498">
        <ele>425.8</ele>
        <time>2022-09-06T12:59:42Z</time>
      </trkpt>
      <trkpt lat="43.1625" lon="0.18492">
        <ele>424.6</ele>
        <time>2022-09-06T12:59:43Z</time>
      </trkpt>
      <trkpt lat="43.16254" lon="0.18487">
        <ele>422.8</ele>
        <time>2022-09-06T12:59:44Z</time>
      </trkpt>
      <trkpt lat="43.16261" lon="0.1848">
        <ele>421.2</ele>
        <time>2022-09-06T12:59:46Z</time>
      </trkpt>
      <trkpt lat="43.16265" lon="0.18477">
        <ele>420.6</ele>
        <time>2022-09-06T12:59:47Z</time>
      </trkpt>
      <trkpt lat="43.16268" lon="0.18474">
        <ele>420</ele>
        <time>2022-09-06T12:59:48Z</time>
      </trkpt>
      <trkpt lat="43.16274" lon="0.18467">
        <ele>418.8</ele>
        <time>2022-09-06T12:59:50Z</time>
      </trkpt>
      <trkpt lat="43.16275" lon="0.18462">
        <ele>418.2</ele>
        <time>2022-09-06T12:59:51Z</time>
      </trkpt>
      <trkpt lat="43.16272" lon="0.18448">
        <ele>417.4</ele>
        <time>2022-09-06T12:59:53Z</time>
      </trkpt>
      <trkpt lat="43.16269" lon="0.18442">
        <ele>417</ele>
        <time>2022-09-06T12:59:54Z</time>
      </trkpt>
      <trkpt lat="43.16266" lon="0.18436">
        <ele>416.4</ele>
        <time>2022-09-06T12:59:55Z</time>
      </trkpt>
      <trkpt lat="43.16263" lon="0.18425">
        <ele>415.6</ele>
        <time>2022-09-06T12:59:57Z</time>
      </trkpt>
      <trkpt lat="43.16262" lon="0.1842">
        <ele>415.2</ele>
        <time>2022-09-06T12:59:58Z</time>
      </trkpt>
      <trkpt lat="43.16263" lon="0.18414">
        <ele>414.6</ele>
        <time>2022-09-06T12:59:59Z</time>
      </trkpt>
      <trkpt lat="43.16267" lon="0.18404">
        <ele>414</ele>
        <time>2022-09-06T13:00:01Z</time>
      </trkpt>
      <trkpt lat="43.1627" lon="0.18401">
        <ele>413.8</ele>
        <time>2022-09-06T13:00:02Z</time>
      </trkpt>
      <trkpt lat="43.16281" lon="0.18399">
        <ele>413.6</ele>
        <time>2022-09-06T13:00:05Z</time>
      </trkpt>
      <trkpt lat="43.16284" lon="0.184">
        <ele>413.8</ele>
        <time>2022-09-06T13:00:06Z</time>
      </trkpt>
      <trkpt lat="43.16299" lon="0.18408">
        <ele>414</ele>
        <time>2022-09-06T13:00:11Z</time>
      </trkpt>
      <trkpt lat="43.16321" lon="0.18409">
        <ele>414.4</ele>
        <time>2022-09-06T13:00:17Z</time>
      </trkpt>
      <trkpt lat="43.16333" lon="0.18398">
        <ele>415</ele>
        <time>2022-09-06T13:00:21Z</time>
      </trkpt>
      <trkpt lat="43.16334" lon="0.18394">
        <ele>415</ele>
        <time>2022-09-06T13:00:22Z</time>
      </trkpt>
      <trkpt lat="43.16338" lon="0.18377">
        <ele>415.8</ele>
        <time>2022-09-06T13:00:26Z</time>
      </trkpt>
      <trkpt lat="43.16338" lon="0.18359">
        <ele>416.2</ele>
        <time>2022-09-06T13:00:31Z</time>
      </trkpt>
      <trkpt lat="43.16337" lon="0.18352">
        <ele>416.6</ele>
        <time>2022-09-06T13:00:33Z</time>
      </trkpt>
      <trkpt lat="43.16335" lon="0.18335">
        <ele>417.2</ele>
        <time>2022-09-06T13:00:38Z</time>
      </trkpt>
      <trkpt lat="43.16335" lon="0.18326">
        <ele>417.8</ele>
        <time>2022-09-06T13:00:41Z</time>
      </trkpt>
      <trkpt lat="43.16332" lon="0.1831">
        <ele>418.2</ele>
        <time>2022-09-06T13:00:47Z</time>
      </trkpt>
      <trkpt lat="43.16332" lon="0.18304">
        <ele>418.4</ele>
        <time>2022-09-06T13:00:49Z</time>
      </trkpt>
      <trkpt lat="43.1633" lon="0.18282">
        <ele>419.4</ele>
        <time>2022-09-06T13:00:57Z</time>
      </trkpt>
      <trkpt lat="43.1633" lon="0.18276">
        <ele>419.6</ele>
        <time>2022-09-06T13:00:59Z</time>
      </trkpt>
      <trkpt lat="43.16329" lon="0.18259">
        <ele>420.4</ele>
        <time>2022-09-06T13:01:06Z</time>
      </trkpt>
      <trkpt lat="43.16329" lon="0.18257">
        <ele>420.4</ele>
        <time>2022-09-06T13:01:07Z</time>
      </trkpt>
      <trkpt lat="43.16328" lon="0.18243">
        <ele>421.2</ele>
        <time>2022-09-06T13:01:13Z</time>
      </trkpt>
      <trkpt lat="43.16327" lon="0.18235">
        <ele>421.6</ele>
        <time>2022-09-06T13:01:16Z</time>
      </trkpt>
      <trkpt lat="43.16328" lon="0.18223">
        <ele>422.2</ele>
        <time>2022-09-06T13:01:21Z</time>
      </trkpt>
      <trkpt lat="43.1633" lon="0.18216">
        <ele>422.6</ele>
        <time>2022-09-06T13:01:24Z</time>
      </trkpt>
      <trkpt lat="43.16329" lon="0.18206">
        <ele>423</ele>
        <time>2022-09-06T13:01:28Z</time>
      </trkpt>
      <trkpt lat="43.16332" lon="0.18194">
        <ele>423.4</ele>
        <time>2022-09-06T13:01:33Z</time>
      </trkpt>
      <trkpt lat="43.16333" lon="0.18186">
        <ele>423.8</ele>
        <time>2022-09-06T13:01:36Z</time>
      </trkpt>
      <trkpt lat="43.16333" lon="0.18179">
        <ele>424.2</ele>
        <time>2022-09-06T13:01:39Z</time>
      </trkpt>
      <trkpt lat="43.16336" lon="0.18166">
        <ele>424.8</ele>
        <time>2022-09-06T13:01:44Z</time>
      </trkpt>
      <trkpt lat="43.16336" lon="0.18164">
        <ele>424.8</ele>
        <time>2022-09-06T13:01:45Z</time>
      </trkpt>
      <trkpt lat="43.16334" lon="0.18148">
        <ele>425.4</ele>
        <time>2022-09-06T13:01:51Z</time>
      </trkpt>
      <trkpt lat="43.16334" lon="0.18136">
        <ele>425.8</ele>
        <time>2022-09-06T13:01:56Z</time>
      </trkpt>
      <trkpt lat="43.16332" lon="0.18131">
        <ele>426</ele>
        <time>2022-09-06T13:01:58Z</time>
      </trkpt>
      <trkpt lat="43.16332" lon="0.18116">
        <ele>426.8</ele>
        <time>2022-09-06T13:02:04Z</time>
      </trkpt>
      <trkpt lat="43.16329" lon="0.18109">
        <ele>427</ele>
        <time>2022-09-06T13:02:07Z</time>
      </trkpt>
      <trkpt lat="43.16328" lon="0.18102">
        <ele>427.4</ele>
        <time>2022-09-06T13:02:10Z</time>
      </trkpt>
      <trkpt lat="43.16326" lon="0.18085">
        <ele>428</ele>
        <time>2022-09-06T13:02:16Z</time>
      </trkpt>
      <trkpt lat="43.16324" lon="0.18081">
        <ele>428.4</ele>
        <time>2022-09-06T13:02:18Z</time>
      </trkpt>
      <trkpt lat="43.16322" lon="0.18064">
        <ele>429.2</ele>
        <time>2022-09-06T13:02:24Z</time>
      </trkpt>
      <trkpt lat="43.16317" lon="0.18043">
        <ele>430.2</ele>
        <time>2022-09-06T13:02:32Z</time>
      </trkpt>
      <trkpt lat="43.16316" lon="0.18038">
        <ele>430.4</ele>
        <time>2022-09-06T13:02:34Z</time>
      </trkpt>
      <trkpt lat="43.16313" lon="0.18023">
        <ele>431.4</ele>
        <time>2022-09-06T13:02:40Z</time>
      </trkpt>
      <trkpt lat="43.16313" lon="0.18018">
        <ele>431.6</ele>
        <time>2022-09-06T13:02:42Z</time>
      </trkpt>
      <trkpt lat="43.16316" lon="0.18005">
        <ele>432.6</ele>
        <time>2022-09-06T13:02:47Z</time>
      </trkpt>
      <trkpt lat="43.16317" lon="0.18003">
        <ele>432.8</ele>
        <time>2022-09-06T13:02:48Z</time>
      </trkpt>
      <trkpt lat="43.16326" lon="0.17991">
        <ele>433.6</ele>
        <time>2022-09-06T13:02:54Z</time>
      </trkpt>
      <trkpt lat="43.16329" lon="0.17988">
        <ele>434</ele>
        <time>2022-09-06T13:02:56Z</time>
      </trkpt>
      <trkpt lat="43.16341" lon="0.17981">
        <ele>434.6</ele>
        <time>2022-09-06T13:03:02Z</time>
      </trkpt>
      <trkpt lat="43.16345" lon="0.17978">
        <ele>434.8</ele>
        <time>2022-09-06T13:03:04Z</time>
      </trkpt>
      <trkpt lat="43.16363" lon="0.17965">
        <ele>435.6</ele>
        <time>2022-09-06T13:03:13Z</time>
      </trkpt>
      <trkpt lat="43.16385" lon="0.17952">
        <ele>436.2</ele>
        <time>2022-09-06T13:03:22Z</time>
      </trkpt>
      <trkpt lat="43.16408" lon="0.17938">
        <ele>436.2</ele>
        <time>2022-09-06T13:03:31Z</time>
      </trkpt>
      <trkpt lat="43.16432" lon="0.17922">
        <ele>435.8</ele>
        <time>2022-09-06T13:03:39Z</time>
      </trkpt>
      <trkpt lat="43.16458" lon="0.17905">
        <ele>436</ele>
        <time>2022-09-06T13:03:46Z</time>
      </trkpt>
      <trkpt lat="43.16478" lon="0.17895">
        <ele>435.4</ele>
        <time>2022-09-06T13:03:51Z</time>
      </trkpt>
      <trkpt lat="43.16489" lon="0.1789">
        <ele>435.4</ele>
        <time>2022-09-06T13:03:54Z</time>
      </trkpt>
      <trkpt lat="43.1652" lon="0.17878">
        <ele>435.2</ele>
        <time>2022-09-06T13:04:01Z</time>
      </trkpt>
      <trkpt lat="43.16564" lon="0.17867">
        <ele>435.8</ele>
        <time>2022-09-06T13:04:10Z</time>
      </trkpt>
      <trkpt lat="43.16596" lon="0.17863">
        <ele>436.4</ele>
        <time>2022-09-06T13:04:18Z</time>
      </trkpt>
      <trkpt lat="43.16603" lon="0.17862">
        <ele>436.6</ele>
        <time>2022-09-06T13:04:20Z</time>
      </trkpt>
      <trkpt lat="43.1662" lon="0.17859">
        <ele>437</ele>
        <time>2022-09-06T13:04:25Z</time>
      </trkpt>
      <trkpt lat="43.16648" lon="0.17852">
        <ele>436.6</ele>
        <time>2022-09-06T13:04:33Z</time>
      </trkpt>
      <trkpt lat="43.1666" lon="0.1785">
        <ele>436.6</ele>
        <time>2022-09-06T13:04:36Z</time>
      </trkpt>
      <trkpt lat="43.16672" lon="0.17844">
        <ele>436.2</ele>
        <time>2022-09-06T13:04:39Z</time>
      </trkpt>
      <trkpt lat="43.16675" lon="0.17841">
        <ele>436.2</ele>
        <time>2022-09-06T13:04:40Z</time>
      </trkpt>
      <trkpt lat="43.16689" lon="0.1782">
        <ele>435.8</ele>
        <time>2022-09-06T13:04:45Z</time>
      </trkpt>
      <trkpt lat="43.16691" lon="0.17815">
        <ele>435.8</ele>
        <time>2022-09-06T13:04:46Z</time>
      </trkpt>
      <trkpt lat="43.16696" lon="0.17801">
        <ele>435.8</ele>
        <time>2022-09-06T13:04:50Z</time>
      </trkpt>
      <trkpt lat="43.16706" lon="0.17784">
        <ele>435.8</ele>
        <time>2022-09-06T13:04:57Z</time>
      </trkpt>
      <trkpt lat="43.16716" lon="0.17774">
        <ele>435.6</ele>
        <time>2022-09-06T13:05:02Z</time>
      </trkpt>
      <trkpt lat="43.16719" lon="0.1777">
        <ele>435.4</ele>
        <time>2022-09-06T13:05:04Z</time>
      </trkpt>
      <trkpt lat="43.16729" lon="0.17764">
        <ele>435</ele>
        <time>2022-09-06T13:05:08Z</time>
      </trkpt>
      <trkpt lat="43.16752" lon="0.17753">
        <ele>435</ele>
        <time>2022-09-06T13:05:13Z</time>
      </trkpt>
      <trkpt lat="43.16764" lon="0.17751">
        <ele>434.4</ele>
        <time>2022-09-06T13:05:15Z</time>
      </trkpt>
      <trkpt lat="43.16783" lon="0.17751">
        <ele>433.4</ele>
        <time>2022-09-06T13:05:18Z</time>
      </trkpt>
      <trkpt lat="43.16789" lon="0.17751">
        <ele>433.2</ele>
        <time>2022-09-06T13:05:19Z</time>
      </trkpt>
      <trkpt lat="43.16816" lon="0.17751">
        <ele>432.2</ele>
        <time>2022-09-06T13:05:23Z</time>
      </trkpt>
      <trkpt lat="43.16823" lon="0.1775">
        <ele>431.6</ele>
        <time>2022-09-06T13:05:24Z</time>
      </trkpt>
      <trkpt lat="43.16829" lon="0.1775">
        <ele>431.2</ele>
        <time>2022-09-06T13:05:25Z</time>
      </trkpt>
      <trkpt lat="43.16836" lon="0.17751">
        <ele>430.8</ele>
        <time>2022-09-06T13:05:26Z</time>
      </trkpt>
      <trkpt lat="43.16859" lon="0.17749">
        <ele>429.8</ele>
        <time>2022-09-06T13:05:30Z</time>
      </trkpt>
      <trkpt lat="43.16863" lon="0.17748">
        <ele>429.6</ele>
        <time>2022-09-06T13:05:31Z</time>
      </trkpt>
      <trkpt lat="43.16881" lon="0.17748">
        <ele>429</ele>
        <time>2022-09-06T13:05:36Z</time>
      </trkpt>
      <trkpt lat="43.16886" lon="0.17749">
        <ele>428.6</ele>
        <time>2022-09-06T13:05:38Z</time>
      </trkpt>
      <trkpt lat="43.16889" lon="0.17753">
        <ele>428.6</ele>
        <time>2022-09-06T13:05:40Z</time>
      </trkpt>
      <trkpt lat="43.16898" lon="0.17758">
        <ele>428.4</ele>
        <time>2022-09-06T13:05:46Z</time>
      </trkpt>
      <trkpt lat="43.16901" lon="0.17746">
        <ele>428.6</ele>
        <time>2022-09-06T13:13:43Z</time>
      </trkpt>
      <trkpt lat="43.16899" lon="0.1774">
        <ele>428.6</ele>
        <time>2022-09-06T13:13:45Z</time>
      </trkpt>
      <trkpt lat="43.16899" lon="0.1772">
        <ele>428.2</ele>
        <time>2022-09-06T13:13:49Z</time>
      </trkpt>
      <trkpt lat="43.16897" lon="0.1769">
        <ele>427.2</ele>
        <time>2022-09-06T13:13:53Z</time>
      </trkpt>
      <trkpt lat="43.16896" lon="0.17682">
        <ele>427</ele>
        <time>2022-09-06T13:13:54Z</time>
      </trkpt>
      <trkpt lat="43.16893" lon="0.17665">
        <ele>426.2</ele>
        <time>2022-09-06T13:13:56Z</time>
      </trkpt>
      <trkpt lat="43.1689" lon="0.17656">
        <ele>425.6</ele>
        <time>2022-09-06T13:13:57Z</time>
      </trkpt>
      <trkpt lat="43.16882" lon="0.1764">
        <ele>425</ele>
        <time>2022-09-06T13:13:59Z</time>
      </trkpt>
      <trkpt lat="43.16872" lon="0.17625">
        <ele>423.8</ele>
        <time>2022-09-06T13:14:01Z</time>
      </trkpt>
      <trkpt lat="43.16866" lon="0.17617">
        <ele>423.2</ele>
        <time>2022-09-06T13:14:02Z</time>
      </trkpt>
      <trkpt lat="43.16859" lon="0.17608">
        <ele>422.8</ele>
        <time>2022-09-06T13:14:03Z</time>
      </trkpt>
      <trkpt lat="43.16848" lon="0.1759">
        <ele>421.8</ele>
        <time>2022-09-06T13:14:05Z</time>
      </trkpt>
      <trkpt lat="43.16843" lon="0.1758">
        <ele>421.6</ele>
        <time>2022-09-06T13:14:06Z</time>
      </trkpt>
      <trkpt lat="43.16839" lon="0.17568">
        <ele>421.2</ele>
        <time>2022-09-06T13:14:07Z</time>
      </trkpt>
      <trkpt lat="43.16832" lon="0.17544">
        <ele>420.2</ele>
        <time>2022-09-06T13:14:09Z</time>
      </trkpt>
      <trkpt lat="43.16831" lon="0.17517">
        <ele>419</ele>
        <time>2022-09-06T13:14:11Z</time>
      </trkpt>
      <trkpt lat="43.16831" lon="0.17503">
        <ele>417.8</ele>
        <time>2022-09-06T13:14:12Z</time>
      </trkpt>
      <trkpt lat="43.16831" lon="0.17489">
        <ele>417.2</ele>
        <time>2022-09-06T13:14:13Z</time>
      </trkpt>
      <trkpt lat="43.16834" lon="0.1746">
        <ele>416.8</ele>
        <time>2022-09-06T13:14:15Z</time>
      </trkpt>
      <trkpt lat="43.16836" lon="0.17445">
        <ele>416</ele>
        <time>2022-09-06T13:14:16Z</time>
      </trkpt>
      <trkpt lat="43.16839" lon="0.1743">
        <ele>415</ele>
        <time>2022-09-06T13:14:17Z</time>
      </trkpt>
      <trkpt lat="43.16846" lon="0.17401">
        <ele>413.6</ele>
        <time>2022-09-06T13:14:19Z</time>
      </trkpt>
      <trkpt lat="43.1685" lon="0.17386">
        <ele>412.6</ele>
        <time>2022-09-06T13:14:20Z</time>
      </trkpt>
      <trkpt lat="43.16855" lon="0.17372">
        <ele>411.6</ele>
        <time>2022-09-06T13:14:21Z</time>
      </trkpt>
      <trkpt lat="43.16864" lon="0.17343">
        <ele>410.2</ele>
        <time>2022-09-06T13:14:23Z</time>
      </trkpt>
      <trkpt lat="43.16873" lon="0.17314">
        <ele>408.6</ele>
        <time>2022-09-06T13:14:25Z</time>
      </trkpt>
      <trkpt lat="43.16877" lon="0.173">
        <ele>408.2</ele>
        <time>2022-09-06T13:14:26Z</time>
      </trkpt>
      <trkpt lat="43.16881" lon="0.17286">
        <ele>407.2</ele>
        <time>2022-09-06T13:14:27Z</time>
      </trkpt>
      <trkpt lat="43.16888" lon="0.17257">
        <ele>405.6</ele>
        <time>2022-09-06T13:14:29Z</time>
      </trkpt>
      <trkpt lat="43.1689" lon="0.17242">
        <ele>404.4</ele>
        <time>2022-09-06T13:14:30Z</time>
      </trkpt>
      <trkpt lat="43.16891" lon="0.17226">
        <ele>403.4</ele>
        <time>2022-09-06T13:14:31Z</time>
      </trkpt>
      <trkpt lat="43.16891" lon="0.17211">
        <ele>402.4</ele>
        <time>2022-09-06T13:14:32Z</time>
      </trkpt>
      <trkpt lat="43.16887" lon="0.17179">
        <ele>400</ele>
        <time>2022-09-06T13:14:34Z</time>
      </trkpt>
      <trkpt lat="43.16885" lon="0.17163">
        <ele>398.8</ele>
        <time>2022-09-06T13:14:35Z</time>
      </trkpt>
      <trkpt lat="43.16882" lon="0.17149">
        <ele>397.4</ele>
        <time>2022-09-06T13:14:36Z</time>
      </trkpt>
      <trkpt lat="43.1688" lon="0.17135">
        <ele>395.8</ele>
        <time>2022-09-06T13:14:37Z</time>
      </trkpt>
      <trkpt lat="43.16878" lon="0.17122">
        <ele>394.6</ele>
        <time>2022-09-06T13:14:38Z</time>
      </trkpt>
      <trkpt lat="43.16873" lon="0.17109">
        <ele>393.8</ele>
        <time>2022-09-06T13:14:39Z</time>
      </trkpt>
      <trkpt lat="43.16867" lon="0.17098">
        <ele>393.4</ele>
        <time>2022-09-06T13:14:40Z</time>
      </trkpt>
      <trkpt lat="43.16851" lon="0.17078">
        <ele>392.6</ele>
        <time>2022-09-06T13:14:42Z</time>
      </trkpt>
      <trkpt lat="43.16842" lon="0.17069">
        <ele>392.4</ele>
        <time>2022-09-06T13:14:43Z</time>
      </trkpt>
      <trkpt lat="43.16825" lon="0.17056">
        <ele>390.8</ele>
        <time>2022-09-06T13:14:45Z</time>
      </trkpt>
      <trkpt lat="43.16817" lon="0.17051">
        <ele>389.6</ele>
        <time>2022-09-06T13:14:46Z</time>
      </trkpt>
      <trkpt lat="43.1681" lon="0.17045">
        <ele>388.6</ele>
        <time>2022-09-06T13:14:47Z</time>
      </trkpt>
      <trkpt lat="43.16803" lon="0.17038">
        <ele>387.8</ele>
        <time>2022-09-06T13:14:48Z</time>
      </trkpt>
      <trkpt lat="43.16799" lon="0.1703">
        <ele>387</ele>
        <time>2022-09-06T13:14:49Z</time>
      </trkpt>
      <trkpt lat="43.16796" lon="0.17014">
        <ele>385.6</ele>
        <time>2022-09-06T13:14:51Z</time>
      </trkpt>
      <trkpt lat="43.16798" lon="0.17005">
        <ele>385</ele>
        <time>2022-09-06T13:14:52Z</time>
      </trkpt>
      <trkpt lat="43.168" lon="0.16997">
        <ele>384.6</ele>
        <time>2022-09-06T13:14:53Z</time>
      </trkpt>
      <trkpt lat="43.16812" lon="0.16976">
        <ele>383.6</ele>
        <time>2022-09-06T13:14:55Z</time>
      </trkpt>
      <trkpt lat="43.16821" lon="0.16965">
        <ele>383</ele>
        <time>2022-09-06T13:14:56Z</time>
      </trkpt>
      <trkpt lat="43.16844" lon="0.16954">
        <ele>381.2</ele>
        <time>2022-09-06T13:14:58Z</time>
      </trkpt>
      <trkpt lat="43.16868" lon="0.16947">
        <ele>379.6</ele>
        <time>2022-09-06T13:15:00Z</time>
      </trkpt>
      <trkpt lat="43.1688" lon="0.16946">
        <ele>378.8</ele>
        <time>2022-09-06T13:15:01Z</time>
      </trkpt>
      <trkpt lat="43.16891" lon="0.16945">
        <ele>378</ele>
        <time>2022-09-06T13:15:02Z</time>
      </trkpt>
      <trkpt lat="43.16901" lon="0.16943">
        <ele>377.4</ele>
        <time>2022-09-06T13:15:03Z</time>
      </trkpt>
      <trkpt lat="43.16912" lon="0.16939">
        <ele>377</ele>
        <time>2022-09-06T13:15:04Z</time>
      </trkpt>
      <trkpt lat="43.16922" lon="0.16933">
        <ele>376.4</ele>
        <time>2022-09-06T13:15:05Z</time>
      </trkpt>
      <trkpt lat="43.16932" lon="0.16924">
        <ele>375.8</ele>
        <time>2022-09-06T13:15:06Z</time>
      </trkpt>
      <trkpt lat="43.1695" lon="0.16905">
        <ele>375</ele>
        <time>2022-09-06T13:15:08Z</time>
      </trkpt>
      <trkpt lat="43.16959" lon="0.16896">
        <ele>374</ele>
        <time>2022-09-06T13:15:09Z</time>
      </trkpt>
      <trkpt lat="43.16967" lon="0.16888">
        <ele>373</ele>
        <time>2022-09-06T13:15:10Z</time>
      </trkpt>
      <trkpt lat="43.16974" lon="0.1688">
        <ele>371.8</ele>
        <time>2022-09-06T13:15:11Z</time>
      </trkpt>
      <trkpt lat="43.16981" lon="0.16872">
        <ele>371</ele>
        <time>2022-09-06T13:15:12Z</time>
      </trkpt>
      <trkpt lat="43.16986" lon="0.16865">
        <ele>370.4</ele>
        <time>2022-09-06T13:15:13Z</time>
      </trkpt>
      <trkpt lat="43.16989" lon="0.16849">
        <ele>369.2</ele>
        <time>2022-09-06T13:15:15Z</time>
      </trkpt>
      <trkpt lat="43.16984" lon="0.16828">
        <ele>367.8</ele>
        <time>2022-09-06T13:15:18Z</time>
      </trkpt>
      <trkpt lat="43.16979" lon="0.16808">
        <ele>366.6</ele>
        <time>2022-09-06T13:15:20Z</time>
      </trkpt>
      <trkpt lat="43.16977" lon="0.16794">
        <ele>366</ele>
        <time>2022-09-06T13:15:22Z</time>
      </trkpt>
      <trkpt lat="43.16974" lon="0.1678">
        <ele>364.6</ele>
        <time>2022-09-06T13:15:23Z</time>
      </trkpt>
      <trkpt lat="43.1697" lon="0.16765">
        <ele>364.2</ele>
        <time>2022-09-06T13:15:24Z</time>
      </trkpt>
      <trkpt lat="43.16963" lon="0.1675">
        <ele>363.4</ele>
        <time>2022-09-06T13:15:25Z</time>
      </trkpt>
      <trkpt lat="43.16949" lon="0.16723">
        <ele>362</ele>
        <time>2022-09-06T13:15:27Z</time>
      </trkpt>
      <trkpt lat="43.16936" lon="0.16699">
        <ele>360.4</ele>
        <time>2022-09-06T13:15:29Z</time>
      </trkpt>
      <trkpt lat="43.16931" lon="0.16688">
        <ele>359.2</ele>
        <time>2022-09-06T13:15:30Z</time>
      </trkpt>
      <trkpt lat="43.16927" lon="0.16679">
        <ele>358.2</ele>
        <time>2022-09-06T13:15:31Z</time>
      </trkpt>
      <trkpt lat="43.16926" lon="0.16668">
        <ele>357.2</ele>
        <time>2022-09-06T13:15:32Z</time>
      </trkpt>
      <trkpt lat="43.16928" lon="0.16657">
        <ele>356.4</ele>
        <time>2022-09-06T13:15:33Z</time>
      </trkpt>
      <trkpt lat="43.16932" lon="0.16646">
        <ele>355.8</ele>
        <time>2022-09-06T13:15:34Z</time>
      </trkpt>
      <trkpt lat="43.16938" lon="0.16636">
        <ele>355.4</ele>
        <time>2022-09-06T13:15:35Z</time>
      </trkpt>
      <trkpt lat="43.16955" lon="0.16625">
        <ele>355</ele>
        <time>2022-09-06T13:15:37Z</time>
      </trkpt>
      <trkpt lat="43.16965" lon="0.16621">
        <ele>355</ele>
        <time>2022-09-06T13:15:38Z</time>
      </trkpt>
      <trkpt lat="43.16983" lon="0.1661">
        <ele>354.4</ele>
        <time>2022-09-06T13:15:40Z</time>
      </trkpt>
      <trkpt lat="43.16991" lon="0.16602">
        <ele>353.4</ele>
        <time>2022-09-06T13:15:41Z</time>
      </trkpt>
      <trkpt lat="43.16999" lon="0.16593">
        <ele>352</ele>
        <time>2022-09-06T13:15:42Z</time>
      </trkpt>
      <trkpt lat="43.17007" lon="0.16584">
        <ele>350.8</ele>
        <time>2022-09-06T13:15:43Z</time>
      </trkpt>
      <trkpt lat="43.1702" lon="0.16564">
        <ele>349.4</ele>
        <time>2022-09-06T13:15:45Z</time>
      </trkpt>
      <trkpt lat="43.17025" lon="0.16553">
        <ele>348.4</ele>
        <time>2022-09-06T13:15:46Z</time>
      </trkpt>
      <trkpt lat="43.17028" lon="0.16541">
        <ele>347</ele>
        <time>2022-09-06T13:15:47Z</time>
      </trkpt>
      <trkpt lat="43.17025" lon="0.16519">
        <ele>345.8</ele>
        <time>2022-09-06T13:15:49Z</time>
      </trkpt>
      <trkpt lat="43.17013" lon="0.16503">
        <ele>344.6</ele>
        <time>2022-09-06T13:15:51Z</time>
      </trkpt>
      <trkpt lat="43.16994" lon="0.16489">
        <ele>343.2</ele>
        <time>2022-09-06T13:15:54Z</time>
      </trkpt>
      <trkpt lat="43.16989" lon="0.16484">
        <ele>342.6</ele>
        <time>2022-09-06T13:15:55Z</time>
      </trkpt>
      <trkpt lat="43.16988" lon="0.16477">
        <ele>342</ele>
        <time>2022-09-06T13:15:56Z</time>
      </trkpt>
      <trkpt lat="43.16989" lon="0.16469">
        <ele>341.4</ele>
        <time>2022-09-06T13:15:57Z</time>
      </trkpt>
      <trkpt lat="43.16991" lon="0.16461">
        <ele>341</ele>
        <time>2022-09-06T13:15:58Z</time>
      </trkpt>
      <trkpt lat="43.16995" lon="0.16449">
        <ele>340</ele>
        <time>2022-09-06T13:16:00Z</time>
      </trkpt>
      <trkpt lat="43.16998" lon="0.16445">
        <ele>339.8</ele>
        <time>2022-09-06T13:16:01Z</time>
      </trkpt>
      <trkpt lat="43.1701" lon="0.1644">
        <ele>338.8</ele>
        <time>2022-09-06T13:16:04Z</time>
      </trkpt>
      <trkpt lat="43.17026" lon="0.1645">
        <ele>338.2</ele>
        <time>2022-09-06T13:16:06Z</time>
      </trkpt>
      <trkpt lat="43.17035" lon="0.16457">
        <ele>337.6</ele>
        <time>2022-09-06T13:16:07Z</time>
      </trkpt>
      <trkpt lat="43.17055" lon="0.16472">
        <ele>336.6</ele>
        <time>2022-09-06T13:16:09Z</time>
      </trkpt>
      <trkpt lat="43.17066" lon="0.16478">
        <ele>335.8</ele>
        <time>2022-09-06T13:16:10Z</time>
      </trkpt>
      <trkpt lat="43.17077" lon="0.16484">
        <ele>335</ele>
        <time>2022-09-06T13:16:11Z</time>
      </trkpt>
      <trkpt lat="43.17121" lon="0.16503">
        <ele>333.6</ele>
        <time>2022-09-06T13:16:15Z</time>
      </trkpt>
      <trkpt lat="43.17156" lon="0.16524">
        <ele>332.4</ele>
        <time>2022-09-06T13:16:18Z</time>
      </trkpt>
      <trkpt lat="43.17167" lon="0.16531">
        <ele>331.2</ele>
        <time>2022-09-06T13:16:19Z</time>
      </trkpt>
      <trkpt lat="43.17179" lon="0.16538">
        <ele>330</ele>
        <time>2022-09-06T13:16:20Z</time>
      </trkpt>
      <trkpt lat="43.17203" lon="0.16551">
        <ele>328.6</ele>
        <time>2022-09-06T13:16:22Z</time>
      </trkpt>
      <trkpt lat="43.17227" lon="0.16566">
        <ele>327</ele>
        <time>2022-09-06T13:16:24Z</time>
      </trkpt>
      <trkpt lat="43.17237" lon="0.16573">
        <ele>326.6</ele>
        <time>2022-09-06T13:16:25Z</time>
      </trkpt>
      <trkpt lat="43.17255" lon="0.16591">
        <ele>326.6</ele>
        <time>2022-09-06T13:16:27Z</time>
      </trkpt>
      <trkpt lat="43.17263" lon="0.16599">
        <ele>326.4</ele>
        <time>2022-09-06T13:16:28Z</time>
      </trkpt>
      <trkpt lat="43.17269" lon="0.16608">
        <ele>326.4</ele>
        <time>2022-09-06T13:16:29Z</time>
      </trkpt>
      <trkpt lat="43.1728" lon="0.16627">
        <ele>326.8</ele>
        <time>2022-09-06T13:16:31Z</time>
      </trkpt>
      <trkpt lat="43.17307" lon="0.16675">
        <ele>327</ele>
        <time>2022-09-06T13:16:37Z</time>
      </trkpt>
      <trkpt lat="43.17335" lon="0.16723">
        <ele>327</ele>
        <time>2022-09-06T13:16:44Z</time>
      </trkpt>
      <trkpt lat="43.17363" lon="0.16773">
        <ele>327.2</ele>
        <time>2022-09-06T13:16:52Z</time>
      </trkpt>
      <trkpt lat="43.17393" lon="0.16814">
        <ele>327.4</ele>
        <time>2022-09-06T13:17:00Z</time>
      </trkpt>
      <trkpt lat="43.17427" lon="0.16853">
        <ele>326.8</ele>
        <time>2022-09-06T13:17:08Z</time>
      </trkpt>
      <trkpt lat="43.17447" lon="0.16881">
        <ele>326.4</ele>
        <time>2022-09-06T13:17:13Z</time>
      </trkpt>
      <trkpt lat="43.17457" lon="0.16898">
        <ele>326.4</ele>
        <time>2022-09-06T13:17:16Z</time>
      </trkpt>
      <trkpt lat="43.17484" lon="0.16947">
        <ele>326.6</ele>
        <time>2022-09-06T13:17:24Z</time>
      </trkpt>
      <trkpt lat="43.17497" lon="0.1697">
        <ele>327.2</ele>
        <time>2022-09-06T13:17:29Z</time>
      </trkpt>
      <trkpt lat="43.17509" lon="0.16987">
        <ele>328</ele>
        <time>2022-09-06T13:17:34Z</time>
      </trkpt>
      <trkpt lat="43.17519" lon="0.17">
        <ele>328.8</ele>
        <time>2022-09-06T13:17:38Z</time>
      </trkpt>
      <trkpt lat="43.17524" lon="0.17006">
        <ele>329</ele>
        <time>2022-09-06T13:17:40Z</time>
      </trkpt>
      <trkpt lat="43.17539" lon="0.17023">
        <ele>330.2</ele>
        <time>2022-09-06T13:17:46Z</time>
      </trkpt>
      <trkpt lat="43.17549" lon="0.17031">
        <ele>331.4</ele>
        <time>2022-09-06T13:17:50Z</time>
      </trkpt>
      <trkpt lat="43.17559" lon="0.17037">
        <ele>331.6</ele>
        <time>2022-09-06T13:17:54Z</time>
      </trkpt>
      <trkpt lat="43.17574" lon="0.17043">
        <ele>332.4</ele>
        <time>2022-09-06T13:18:00Z</time>
      </trkpt>
      <trkpt lat="43.17577" lon="0.17044">
        <ele>332.6</ele>
        <time>2022-09-06T13:18:01Z</time>
      </trkpt>
      <trkpt lat="43.17584" lon="0.17047">
        <ele>333.4</ele>
        <time>2022-09-06T13:18:04Z</time>
      </trkpt>
      <trkpt lat="43.17595" lon="0.17049">
        <ele>333.4</ele>
        <time>2022-09-06T13:18:08Z</time>
      </trkpt>
      <trkpt lat="43.17613" lon="0.17053">
        <ele>334.4</ele>
        <time>2022-09-06T13:18:15Z</time>
      </trkpt>
      <trkpt lat="43.17615" lon="0.17053">
        <ele>334.6</ele>
        <time>2022-09-06T13:18:16Z</time>
      </trkpt>
      <trkpt lat="43.17621" lon="0.17054">
        <ele>335.6</ele>
        <time>2022-09-06T13:18:19Z</time>
      </trkpt>
      <trkpt lat="43.17629" lon="0.17055">
        <ele>335.8</ele>
        <time>2022-09-06T13:18:23Z</time>
      </trkpt>
      <trkpt lat="43.17644" lon="0.17056">
        <ele>336.6</ele>
        <time>2022-09-06T13:18:30Z</time>
      </trkpt>
      <trkpt lat="43.17658" lon="0.17056">
        <ele>337.4</ele>
        <time>2022-09-06T13:18:37Z</time>
      </trkpt>
      <trkpt lat="43.17665" lon="0.17055">
        <ele>337.8</ele>
        <time>2022-09-06T13:18:40Z</time>
      </trkpt>
      <trkpt lat="43.17674" lon="0.17054">
        <ele>338</ele>
        <time>2022-09-06T13:18:44Z</time>
      </trkpt>
      <trkpt lat="43.17683" lon="0.17052">
        <ele>338.8</ele>
        <time>2022-09-06T13:18:48Z</time>
      </trkpt>
      <trkpt lat="43.17689" lon="0.1705">
        <ele>339</ele>
        <time>2022-09-06T13:18:51Z</time>
      </trkpt>
      <trkpt lat="43.17706" lon="0.17048">
        <ele>339.4</ele>
        <time>2022-09-06T13:18:58Z</time>
      </trkpt>
      <trkpt lat="43.17727" lon="0.17044">
        <ele>339.8</ele>
        <time>2022-09-06T13:19:06Z</time>
      </trkpt>
      <trkpt lat="43.17755" lon="0.17039">
        <ele>339.8</ele>
        <time>2022-09-06T13:19:15Z</time>
      </trkpt>
      <trkpt lat="43.17779" lon="0.17035">
        <ele>339.6</ele>
        <time>2022-09-06T13:19:22Z</time>
      </trkpt>
      <trkpt lat="43.17806" lon="0.1703">
        <ele>339.4</ele>
        <time>2022-09-06T13:19:29Z</time>
      </trkpt>
      <trkpt lat="43.17826" lon="0.17025">
        <ele>339.2</ele>
        <time>2022-09-06T13:19:34Z</time>
      </trkpt>
      <trkpt lat="43.17834" lon="0.17024">
        <ele>338.6</ele>
        <time>2022-09-06T13:19:36Z</time>
      </trkpt>
      <trkpt lat="43.1786" lon="0.1702">
        <ele>337.6</ele>
        <time>2022-09-06T13:19:42Z</time>
      </trkpt>
      <trkpt lat="43.17865" lon="0.17019">
        <ele>337.6</ele>
        <time>2022-09-06T13:19:43Z</time>
      </trkpt>
      <trkpt lat="43.1789" lon="0.17015">
        <ele>336.6</ele>
        <time>2022-09-06T13:19:48Z</time>
      </trkpt>
      <trkpt lat="43.17901" lon="0.17014">
        <ele>336.4</ele>
        <time>2022-09-06T13:19:50Z</time>
      </trkpt>
      <trkpt lat="43.17906" lon="0.17015">
        <ele>336.2</ele>
        <time>2022-09-06T13:19:51Z</time>
      </trkpt>
      <trkpt lat="43.17928" lon="0.17019">
        <ele>336</ele>
        <time>2022-09-06T13:19:55Z</time>
      </trkpt>
      <trkpt lat="43.17938" lon="0.17023">
        <ele>336</ele>
        <time>2022-09-06T13:19:57Z</time>
      </trkpt>
      <trkpt lat="43.17959" lon="0.17032">
        <ele>335.6</ele>
        <time>2022-09-06T13:20:01Z</time>
      </trkpt>
      <trkpt lat="43.17979" lon="0.17041">
        <ele>335.2</ele>
        <time>2022-09-06T13:20:05Z</time>
      </trkpt>
      <trkpt lat="43.18001" lon="0.17049">
        <ele>334.4</ele>
        <time>2022-09-06T13:20:09Z</time>
      </trkpt>
      <trkpt lat="43.18024" lon="0.17059">
        <ele>334</ele>
        <time>2022-09-06T13:20:13Z</time>
      </trkpt>
      <trkpt lat="43.18071" lon="0.17078">
        <ele>333.4</ele>
        <time>2022-09-06T13:20:21Z</time>
      </trkpt>
      <trkpt lat="43.18124" lon="0.17101">
        <ele>332.8</ele>
        <time>2022-09-06T13:20:30Z</time>
      </trkpt>
      <trkpt lat="43.18153" lon="0.17116">
        <ele>332</ele>
        <time>2022-09-06T13:20:35Z</time>
      </trkpt>
      <trkpt lat="43.18181" lon="0.1713">
        <ele>331.4</ele>
        <time>2022-09-06T13:20:40Z</time>
      </trkpt>
      <trkpt lat="43.18197" lon="0.17139">
        <ele>331</ele>
        <time>2022-09-06T13:20:43Z</time>
      </trkpt>
      <trkpt lat="43.18224" lon="0.17153">
        <ele>331</ele>
        <time>2022-09-06T13:20:48Z</time>
      </trkpt>
      <trkpt lat="43.18279" lon="0.1718">
        <ele>330.2</ele>
        <time>2022-09-06T13:20:58Z</time>
      </trkpt>
      <trkpt lat="43.18284" lon="0.17183">
        <ele>330</ele>
        <time>2022-09-06T13:20:59Z</time>
      </trkpt>
      <trkpt lat="43.1829" lon="0.17185">
        <ele>330</ele>
        <time>2022-09-06T13:21:00Z</time>
      </trkpt>
      <trkpt lat="43.18328" lon="0.17202">
        <ele>329.2</ele>
        <time>2022-09-06T13:21:07Z</time>
      </trkpt>
      <trkpt lat="43.18362" lon="0.17204">
        <ele>329</ele>
        <time>2022-09-06T13:21:13Z</time>
      </trkpt>
      <trkpt lat="43.18401" lon="0.17204">
        <ele>329</ele>
        <time>2022-09-06T13:21:20Z</time>
      </trkpt>
      <trkpt lat="43.18413" lon="0.17205">
        <ele>329</ele>
        <time>2022-09-06T13:21:22Z</time>
      </trkpt>
      <trkpt lat="43.18436" lon="0.17209">
        <ele>328.4</ele>
        <time>2022-09-06T13:21:26Z</time>
      </trkpt>
      <trkpt lat="43.18453" lon="0.17215">
        <ele>328</ele>
        <time>2022-09-06T13:21:29Z</time>
      </trkpt>
      <trkpt lat="43.18464" lon="0.17219">
        <ele>327.8</ele>
        <time>2022-09-06T13:21:31Z</time>
      </trkpt>
      <trkpt lat="43.1848" lon="0.17226">
        <ele>327.8</ele>
        <time>2022-09-06T13:21:34Z</time>
      </trkpt>
      <trkpt lat="43.18513" lon="0.17249">
        <ele>327.2</ele>
        <time>2022-09-06T13:21:41Z</time>
      </trkpt>
      <trkpt lat="43.18525" lon="0.17257">
        <ele>327.2</ele>
        <time>2022-09-06T13:21:44Z</time>
      </trkpt>
      <trkpt lat="43.18534" lon="0.1726">
        <ele>327.2</ele>
        <time>2022-09-06T13:21:46Z</time>
      </trkpt>
      <trkpt lat="43.18538" lon="0.17262">
        <ele>327.2</ele>
        <time>2022-09-06T13:21:47Z</time>
      </trkpt>
      <trkpt lat="43.18564" lon="0.17264">
        <ele>327.6</ele>
        <time>2022-09-06T13:21:53Z</time>
      </trkpt>
      <trkpt lat="43.18603" lon="0.17263">
        <ele>327.8</ele>
        <time>2022-09-06T13:22:02Z</time>
      </trkpt>
      <trkpt lat="43.18633" lon="0.17252">
        <ele>328.2</ele>
        <time>2022-09-06T13:22:09Z</time>
      </trkpt>
      <trkpt lat="43.18653" lon="0.1724">
        <ele>329</ele>
        <time>2022-09-06T13:22:14Z</time>
      </trkpt>
      <trkpt lat="43.18664" lon="0.17236">
        <ele>329.4</ele>
        <time>2022-09-06T13:22:17Z</time>
      </trkpt>
      <trkpt lat="43.18679" lon="0.1723">
        <ele>330</ele>
        <time>2022-09-06T13:22:21Z</time>
      </trkpt>
      <trkpt lat="43.18693" lon="0.17228">
        <ele>330.8</ele>
        <time>2022-09-06T13:22:25Z</time>
      </trkpt>
      <trkpt lat="43.18724" lon="0.17225">
        <ele>331</ele>
        <time>2022-09-06T13:22:34Z</time>
      </trkpt>
      <trkpt lat="43.18756" lon="0.17225">
        <ele>331.4</ele>
        <time>2022-09-06T13:22:43Z</time>
      </trkpt>
      <trkpt lat="43.18778" lon="0.17222">
        <ele>331.2</ele>
        <time>2022-09-06T13:22:48Z</time>
      </trkpt>
      <trkpt lat="43.18783" lon="0.17224">
        <ele>331</ele>
        <time>2022-09-06T13:22:49Z</time>
      </trkpt>
      <trkpt lat="43.18799" lon="0.17224">
        <ele>330.8</ele>
        <time>2022-09-06T13:22:52Z</time>
      </trkpt>
      <trkpt lat="43.1881" lon="0.17223">
        <ele>330.6</ele>
        <time>2022-09-06T13:22:54Z</time>
      </trkpt>
      <trkpt lat="43.18851" lon="0.17214">
        <ele>330.8</ele>
        <time>2022-09-06T13:23:02Z</time>
      </trkpt>
      <trkpt lat="43.18866" lon="0.1721">
        <ele>330</ele>
        <time>2022-09-06T13:23:05Z</time>
      </trkpt>
      <trkpt lat="43.1889" lon="0.17201">
        <ele>330.2</ele>
        <time>2022-09-06T13:23:10Z</time>
      </trkpt>
      <trkpt lat="43.18928" lon="0.1718">
        <ele>329.4</ele>
        <time>2022-09-06T13:23:18Z</time>
      </trkpt>
      <trkpt lat="43.18959" lon="0.17174">
        <ele>329.8</ele>
        <time>2022-09-06T13:23:24Z</time>
      </trkpt>
      <trkpt lat="43.18993" lon="0.17178">
        <ele>330</ele>
        <time>2022-09-06T13:23:31Z</time>
      </trkpt>
      <trkpt lat="43.19023" lon="0.17183">
        <ele>330</ele>
        <time>2022-09-06T13:23:38Z</time>
      </trkpt>
      <trkpt lat="43.19036" lon="0.17181">
        <ele>330</ele>
        <time>2022-09-06T13:23:42Z</time>
      </trkpt>
      <trkpt lat="43.19038" lon="0.17177">
        <ele>330</ele>
        <time>2022-09-06T13:23:43Z</time>
      </trkpt>
      <trkpt lat="43.19035" lon="0.17161">
        <ele>329.6</ele>
        <time>2022-09-06T13:23:47Z</time>
      </trkpt>
      <trkpt lat="43.19032" lon="0.17152">
        <ele>329.8</ele>
        <time>2022-09-06T13:23:50Z</time>
      </trkpt>
      <trkpt lat="43.19034" lon="0.17146">
        <ele>330.2</ele>
        <time>2022-09-06T13:23:52Z</time>
      </trkpt>
      <trkpt lat="43.19036" lon="0.17148">
        <ele>330.2</ele>
        <time>2022-09-06T13:23:55Z</time>
      </trkpt>
      <trkpt lat="43.19037" lon="0.17157">
        <ele>330.4</ele>
        <time>2022-09-06T13:30:53Z</time>
      </trkpt>
      <trkpt lat="43.1904" lon="0.17175">
        <ele>330</ele>
        <time>2022-09-06T13:30:57Z</time>
      </trkpt>
      <trkpt lat="43.19049" lon="0.17187">
        <ele>330</ele>
        <time>2022-09-06T13:31:02Z</time>
      </trkpt>
      <trkpt lat="43.19066" lon="0.17194">
        <ele>329.8</ele>
        <time>2022-09-06T13:31:07Z</time>
      </trkpt>
      <trkpt lat="43.19087" lon="0.17213">
        <ele>329.4</ele>
        <time>2022-09-06T13:31:14Z</time>
      </trkpt>
      <trkpt lat="43.19115" lon="0.17242">
        <ele>329</ele>
        <time>2022-09-06T13:31:22Z</time>
      </trkpt>
      <trkpt lat="43.19118" lon="0.17247">
        <ele>329</ele>
        <time>2022-09-06T13:31:23Z</time>
      </trkpt>
      <trkpt lat="43.1914" lon="0.17282">
        <ele>328.2</ele>
        <time>2022-09-06T13:31:30Z</time>
      </trkpt>
      <trkpt lat="43.19154" lon="0.17304">
        <ele>328</ele>
        <time>2022-09-06T13:31:34Z</time>
      </trkpt>
      <trkpt lat="43.19166" lon="0.17328">
        <ele>327.8</ele>
        <time>2022-09-06T13:31:38Z</time>
      </trkpt>
      <trkpt lat="43.19169" lon="0.17333">
        <ele>327.6</ele>
        <time>2022-09-06T13:31:39Z</time>
      </trkpt>
      <trkpt lat="43.19196" lon="0.17377">
        <ele>327.4</ele>
        <time>2022-09-06T13:31:47Z</time>
      </trkpt>
      <trkpt lat="43.1921" lon="0.17397">
        <ele>327</ele>
        <time>2022-09-06T13:31:51Z</time>
      </trkpt>
      <trkpt lat="43.1922" lon="0.17413">
        <ele>326.8</ele>
        <time>2022-09-06T13:31:54Z</time>
      </trkpt>
      <trkpt lat="43.19235" lon="0.17433">
        <ele>325.8</ele>
        <time>2022-09-06T13:31:58Z</time>
      </trkpt>
      <trkpt lat="43.1925" lon="0.17455">
        <ele>325.6</ele>
        <time>2022-09-06T13:32:02Z</time>
      </trkpt>
      <trkpt lat="43.19254" lon="0.1746">
        <ele>325.4</ele>
        <time>2022-09-06T13:32:03Z</time>
      </trkpt>
      <trkpt lat="43.1927" lon="0.17466">
        <ele>325.2</ele>
        <time>2022-09-06T13:32:06Z</time>
      </trkpt>
      <trkpt lat="43.19276" lon="0.17467">
        <ele>325</ele>
        <time>2022-09-06T13:32:07Z</time>
      </trkpt>
      <trkpt lat="43.19281" lon="0.17469">
        <ele>324.8</ele>
        <time>2022-09-06T13:32:08Z</time>
      </trkpt>
      <trkpt lat="43.19296" lon="0.17477">
        <ele>324.6</ele>
        <time>2022-09-06T13:32:11Z</time>
      </trkpt>
      <trkpt lat="43.19338" lon="0.1749">
        <ele>324.4</ele>
        <time>2022-09-06T13:32:19Z</time>
      </trkpt>
      <trkpt lat="43.19365" lon="0.17492">
        <ele>323.8</ele>
        <time>2022-09-06T13:32:24Z</time>
      </trkpt>
      <trkpt lat="43.19381" lon="0.17493">
        <ele>323.6</ele>
        <time>2022-09-06T13:32:27Z</time>
      </trkpt>
      <trkpt lat="43.19435" lon="0.17495">
        <ele>323.2</ele>
        <time>2022-09-06T13:32:37Z</time>
      </trkpt>
      <trkpt lat="43.1947" lon="0.17496">
        <ele>322.6</ele>
        <time>2022-09-06T13:32:44Z</time>
      </trkpt>
      <trkpt lat="43.1948" lon="0.17497">
        <ele>322.6</ele>
        <time>2022-09-06T13:32:46Z</time>
      </trkpt>
      <trkpt lat="43.19515" lon="0.17504">
        <ele>322.2</ele>
        <time>2022-09-06T13:32:54Z</time>
      </trkpt>
      <trkpt lat="43.19524" lon="0.17506">
        <ele>322.6</ele>
        <time>2022-09-06T13:32:58Z</time>
      </trkpt>
      <trkpt lat="43.19543" lon="0.17501">
        <ele>322.2</ele>
        <time>2022-09-06T13:33:04Z</time>
      </trkpt>
      <trkpt lat="43.19548" lon="0.175">
        <ele>322</ele>
        <time>2022-09-06T13:33:05Z</time>
      </trkpt>
      <trkpt lat="43.19557" lon="0.175">
        <ele>321.6</ele>
        <time>2022-09-06T13:33:07Z</time>
      </trkpt>
      <trkpt lat="43.19568" lon="0.17499">
        <ele>321</ele>
        <time>2022-09-06T13:33:09Z</time>
      </trkpt>
      <trkpt lat="43.1959" lon="0.17497">
        <ele>320.6</ele>
        <time>2022-09-06T13:33:13Z</time>
      </trkpt>
      <trkpt lat="43.19601" lon="0.17497">
        <ele>320.6</ele>
        <time>2022-09-06T13:33:15Z</time>
      </trkpt>
      <trkpt lat="43.19617" lon="0.17496">
        <ele>320</ele>
        <time>2022-09-06T13:33:18Z</time>
      </trkpt>
      <trkpt lat="43.19638" lon="0.17496">
        <ele>319.6</ele>
        <time>2022-09-06T13:33:22Z</time>
      </trkpt>
      <trkpt lat="43.19666" lon="0.17495">
        <ele>319.4</ele>
        <time>2022-09-06T13:33:28Z</time>
      </trkpt>
      <trkpt lat="43.19671" lon="0.17495">
        <ele>319.4</ele>
        <time>2022-09-06T13:33:29Z</time>
      </trkpt>
      <trkpt lat="43.19718" lon="0.17494">
        <ele>318.8</ele>
        <time>2022-09-06T13:33:39Z</time>
      </trkpt>
      <trkpt lat="43.19723" lon="0.17494">
        <ele>318.6</ele>
        <time>2022-09-06T13:33:40Z</time>
      </trkpt>
      <trkpt lat="43.19763" lon="0.17491">
        <ele>318.4</ele>
        <time>2022-09-06T13:33:48Z</time>
      </trkpt>
      <trkpt lat="43.19779" lon="0.17485">
        <ele>318</ele>
        <time>2022-09-06T13:33:51Z</time>
      </trkpt>
      <trkpt lat="43.19789" lon="0.17478">
        <ele>318</ele>
        <time>2022-09-06T13:33:53Z</time>
      </trkpt>
      <trkpt lat="43.19798" lon="0.17468">
        <ele>317.8</ele>
        <time>2022-09-06T13:33:55Z</time>
      </trkpt>
      <trkpt lat="43.19809" lon="0.1745">
        <ele>317.6</ele>
        <time>2022-09-06T13:33:58Z</time>
      </trkpt>
      <trkpt lat="43.19811" lon="0.17442">
        <ele>317.4</ele>
        <time>2022-09-06T13:33:59Z</time>
      </trkpt>
      <trkpt lat="43.19818" lon="0.17419">
        <ele>317</ele>
        <time>2022-09-06T13:34:02Z</time>
      </trkpt>
      <trkpt lat="43.19821" lon="0.17403">
        <ele>316.4</ele>
        <time>2022-09-06T13:34:04Z</time>
      </trkpt>
      <trkpt lat="43.19827" lon="0.17376">
        <ele>315.4</ele>
        <time>2022-09-06T13:34:07Z</time>
      </trkpt>
      <trkpt lat="43.19828" lon="0.17366">
        <ele>315</ele>
        <time>2022-09-06T13:34:08Z</time>
      </trkpt>
      <trkpt lat="43.19833" lon="0.17346">
        <ele>314.6</ele>
        <time>2022-09-06T13:34:10Z</time>
      </trkpt>
      <trkpt lat="43.19837" lon="0.17336">
        <ele>314.4</ele>
        <time>2022-09-06T13:34:11Z</time>
      </trkpt>
      <trkpt lat="43.19844" lon="0.17317">
        <ele>313.8</ele>
        <time>2022-09-06T13:34:13Z</time>
      </trkpt>
      <trkpt lat="43.19851" lon="0.17296">
        <ele>313.2</ele>
        <time>2022-09-06T13:34:15Z</time>
      </trkpt>
      <trkpt lat="43.19863" lon="0.17259">
        <ele>312</ele>
        <time>2022-09-06T13:34:19Z</time>
      </trkpt>
      <trkpt lat="43.19881" lon="0.17221">
        <ele>310.8</ele>
        <time>2022-09-06T13:34:24Z</time>
      </trkpt>
      <trkpt lat="43.19885" lon="0.17215">
        <ele>310.6</ele>
        <time>2022-09-06T13:34:25Z</time>
      </trkpt>
      <trkpt lat="43.19892" lon="0.17206">
        <ele>310.4</ele>
        <time>2022-09-06T13:34:27Z</time>
      </trkpt>
      <trkpt lat="43.19897" lon="0.17199">
        <ele>310</ele>
        <time>2022-09-06T13:34:29Z</time>
      </trkpt>
      <trkpt lat="43.19902" lon="0.17194">
        <ele>309.8</ele>
        <time>2022-09-06T13:34:31Z</time>
      </trkpt>
      <trkpt lat="43.19903" lon="0.17189">
        <ele>309.8</ele>
        <time>2022-09-06T13:34:33Z</time>
      </trkpt>
      <trkpt lat="43.19896" lon="0.17192">
        <ele>310</ele>
        <time>2022-09-06T13:34:36Z</time>
      </trkpt>
      <trkpt lat="43.19894" lon="0.17195">
        <ele>310</ele>
        <time>2022-09-06T13:34:37Z</time>
      </trkpt>
      <trkpt lat="43.19883" lon="0.17209">
        <ele>310</ele>
        <time>2022-09-06T13:34:41Z</time>
      </trkpt>
      <trkpt lat="43.19871" lon="0.17231">
        <ele>310</ele>
        <time>2022-09-06T13:34:47Z</time>
      </trkpt>
      <trkpt lat="43.19864" lon="0.17244">
        <ele>310.2</ele>
        <time>2022-09-06T13:34:53Z</time>
      </trkpt>
      <trkpt lat="43.19863" lon="0.17236">
        <ele>308.4</ele>
        <time>2022-09-06T13:36:39Z</time>
      </trkpt>
      <trkpt lat="43.19869" lon="0.17209">
        <ele>307.8</ele>
        <time>2022-09-06T13:36:44Z</time>
      </trkpt>
      <trkpt lat="43.1987" lon="0.17204">
        <ele>307.4</ele>
        <time>2022-09-06T13:36:45Z</time>
      </trkpt>
      <trkpt lat="43.19875" lon="0.17182">
        <ele>306.4</ele>
        <time>2022-09-06T13:36:50Z</time>
      </trkpt>
      <trkpt lat="43.19876" lon="0.17177">
        <ele>306.2</ele>
        <time>2022-09-06T13:36:51Z</time>
      </trkpt>
      <trkpt lat="43.19881" lon="0.17161">
        <ele>305.8</ele>
        <time>2022-09-06T13:36:55Z</time>
      </trkpt>
      <trkpt lat="43.19888" lon="0.17151">
        <ele>305.2</ele>
        <time>2022-09-06T13:36:58Z</time>
      </trkpt>
      <trkpt lat="43.19898" lon="0.17144">
        <ele>304.8</ele>
        <time>2022-09-06T13:37:01Z</time>
      </trkpt>
      <trkpt lat="43.19913" lon="0.17134">
        <ele>304.6</ele>
        <time>2022-09-06T13:37:06Z</time>
      </trkpt>
      <trkpt lat="43.19929" lon="0.17124">
        <ele>305</ele>
        <time>2022-09-06T13:37:13Z</time>
      </trkpt>
      <trkpt lat="43.19939" lon="0.17119">
        <ele>305.6</ele>
        <time>2022-09-06T13:37:19Z</time>
      </trkpt>
      <trkpt lat="43.19946" lon="0.17116">
        <ele>306</ele>
        <time>2022-09-06T13:37:23Z</time>
      </trkpt>
      <trkpt lat="43.1995" lon="0.17114">
        <ele>306.2</ele>
        <time>2022-09-06T13:37:25Z</time>
      </trkpt>
      <trkpt lat="43.19951" lon="0.17113">
        <ele>306.2</ele>
        <time>2022-09-06T13:37:26Z</time>
      </trkpt>
      <trkpt lat="43.19961" lon="0.17103">
        <ele>307.4</ele>
        <time>2022-09-06T13:37:33Z</time>
      </trkpt>
      <trkpt lat="43.19967" lon="0.17087">
        <ele>308.4</ele>
        <time>2022-09-06T13:37:40Z</time>
      </trkpt>
      <trkpt lat="43.19968" lon="0.17085">
        <ele>308.6</ele>
        <time>2022-09-06T13:37:41Z</time>
      </trkpt>
      <trkpt lat="43.19973" lon="0.17068">
        <ele>309</ele>
        <time>2022-09-06T13:37:48Z</time>
      </trkpt>
      <trkpt lat="43.19974" lon="0.17054">
        <ele>309.2</ele>
        <time>2022-09-06T13:37:55Z</time>
      </trkpt>
      <trkpt lat="43.1998" lon="0.17046">
        <ele>309.6</ele>
        <time>2022-09-06T13:38:00Z</time>
      </trkpt>
      <trkpt lat="43.19984" lon="0.17025">
        <ele>310.2</ele>
        <time>2022-09-06T13:38:07Z</time>
      </trkpt>
      <trkpt lat="43.19982" lon="0.17005">
        <ele>310.6</ele>
        <time>2022-09-06T13:38:13Z</time>
      </trkpt>
      <trkpt lat="43.19979" lon="0.16983">
        <ele>311.6</ele>
        <time>2022-09-06T13:38:20Z</time>
      </trkpt>
      <trkpt lat="43.19978" lon="0.16973">
        <ele>311.8</ele>
        <time>2022-09-06T13:38:23Z</time>
      </trkpt>
      <trkpt lat="43.19977" lon="0.16959">
        <ele>312</ele>
        <time>2022-09-06T13:38:27Z</time>
      </trkpt>
      <trkpt lat="43.19976" lon="0.16936">
        <ele>312.6</ele>
        <time>2022-09-06T13:38:33Z</time>
      </trkpt>
      <trkpt lat="43.19975" lon="0.16927">
        <ele>312.8</ele>
        <time>2022-09-06T13:38:35Z</time>
      </trkpt>
      <trkpt lat="43.19969" lon="0.16898">
        <ele>312.8</ele>
        <time>2022-09-06T13:38:42Z</time>
      </trkpt>
      <trkpt lat="43.19955" lon="0.16868">
        <ele>313.4</ele>
        <time>2022-09-06T13:38:51Z</time>
      </trkpt>
      <trkpt lat="43.19949" lon="0.16853">
        <ele>313.8</ele>
        <time>2022-09-06T13:38:55Z</time>
      </trkpt>
      <trkpt lat="43.19938" lon="0.16828">
        <ele>314.2</ele>
        <time>2022-09-06T13:39:02Z</time>
      </trkpt>
      <trkpt lat="43.19927" lon="0.16803">
        <ele>314.6</ele>
        <time>2022-09-06T13:39:09Z</time>
      </trkpt>
      <trkpt lat="43.19913" lon="0.16769">
        <ele>314.6</ele>
        <time>2022-09-06T13:39:18Z</time>
      </trkpt>
      <trkpt lat="43.19901" lon="0.16743">
        <ele>314.6</ele>
        <time>2022-09-06T13:39:25Z</time>
      </trkpt>
      <trkpt lat="43.19888" lon="0.16716">
        <ele>314.8</ele>
        <time>2022-09-06T13:39:32Z</time>
      </trkpt>
      <trkpt lat="43.19886" lon="0.16712">
        <ele>315</ele>
        <time>2022-09-06T13:39:33Z</time>
      </trkpt>
      <trkpt lat="43.19869" lon="0.16673">
        <ele>315.2</ele>
        <time>2022-09-06T13:39:43Z</time>
      </trkpt>
      <trkpt lat="43.1985" lon="0.16636">
        <ele>315.6</ele>
        <time>2022-09-06T13:39:53Z</time>
      </trkpt>
      <trkpt lat="43.19842" lon="0.16624">
        <ele>316</ele>
        <time>2022-09-06T13:39:57Z</time>
      </trkpt>
      <trkpt lat="43.19831" lon="0.16608">
        <ele>316.4</ele>
        <time>2022-09-06T13:40:02Z</time>
      </trkpt>
      <trkpt lat="43.19815" lon="0.16582">
        <ele>316.8</ele>
        <time>2022-09-06T13:40:10Z</time>
      </trkpt>
      <trkpt lat="43.19813" lon="0.16579">
        <ele>317.2</ele>
        <time>2022-09-06T13:40:11Z</time>
      </trkpt>
      <trkpt lat="43.19805" lon="0.16567">
        <ele>317.6</ele>
        <time>2022-09-06T13:40:16Z</time>
      </trkpt>
      <trkpt lat="43.19801" lon="0.1656">
        <ele>318.2</ele>
        <time>2022-09-06T13:40:19Z</time>
      </trkpt>
      <trkpt lat="43.19792" lon="0.1654">
        <ele>319</ele>
        <time>2022-09-06T13:40:27Z</time>
      </trkpt>
      <trkpt lat="43.19789" lon="0.16531">
        <ele>319.2</ele>
        <time>2022-09-06T13:40:30Z</time>
      </trkpt>
      <trkpt lat="43.19787" lon="0.16514">
        <ele>319.4</ele>
        <time>2022-09-06T13:40:34Z</time>
      </trkpt>
      <trkpt lat="43.19779" lon="0.16474">
        <ele>319.8</ele>
        <time>2022-09-06T13:40:44Z</time>
      </trkpt>
      <trkpt lat="43.19778" lon="0.1647">
        <ele>320.2</ele>
        <time>2022-09-06T13:40:45Z</time>
      </trkpt>
      <trkpt lat="43.19774" lon="0.16441">
        <ele>321</ele>
        <time>2022-09-06T13:40:52Z</time>
      </trkpt>
      <trkpt lat="43.19771" lon="0.16422">
        <ele>321.4</ele>
        <time>2022-09-06T13:40:57Z</time>
      </trkpt>
      <trkpt lat="43.19769" lon="0.16411">
        <ele>321.6</ele>
        <time>2022-09-06T13:41:00Z</time>
      </trkpt>
      <trkpt lat="43.19764" lon="0.16381">
        <ele>322.4</ele>
        <time>2022-09-06T13:41:08Z</time>
      </trkpt>
      <trkpt lat="43.19762" lon="0.16367">
        <ele>322.4</ele>
        <time>2022-09-06T13:41:12Z</time>
      </trkpt>
      <trkpt lat="43.19759" lon="0.16353">
        <ele>322.4</ele>
        <time>2022-09-06T13:41:16Z</time>
      </trkpt>
      <trkpt lat="43.19755" lon="0.16328">
        <ele>322.8</ele>
        <time>2022-09-06T13:41:23Z</time>
      </trkpt>
      <trkpt lat="43.1975" lon="0.16301">
        <ele>323.4</ele>
        <time>2022-09-06T13:41:31Z</time>
      </trkpt>
      <trkpt lat="43.19747" lon="0.1628">
        <ele>324</ele>
        <time>2022-09-06T13:41:37Z</time>
      </trkpt>
      <trkpt lat="43.19743" lon="0.16251">
        <ele>324</ele>
        <time>2022-09-06T13:41:45Z</time>
      </trkpt>
      <trkpt lat="43.1974" lon="0.16238">
        <ele>324.4</ele>
        <time>2022-09-06T13:41:49Z</time>
      </trkpt>
      <trkpt lat="43.19737" lon="0.16229">
        <ele>324.8</ele>
        <time>2022-09-06T13:41:52Z</time>
      </trkpt>
      <trkpt lat="43.19731" lon="0.16197">
        <ele>325.4</ele>
        <time>2022-09-06T13:42:01Z</time>
      </trkpt>
      <trkpt lat="43.19731" lon="0.16193">
        <ele>325.4</ele>
        <time>2022-09-06T13:42:02Z</time>
      </trkpt>
      <trkpt lat="43.19725" lon="0.16158">
        <ele>326.2</ele>
        <time>2022-09-06T13:42:12Z</time>
      </trkpt>
      <trkpt lat="43.19721" lon="0.16141">
        <ele>326.6</ele>
        <time>2022-09-06T13:42:17Z</time>
      </trkpt>
      <trkpt lat="43.19719" lon="0.16131">
        <ele>326.8</ele>
        <time>2022-09-06T13:42:20Z</time>
      </trkpt>
      <trkpt lat="43.19711" lon="0.16116">
        <ele>327.2</ele>
        <time>2022-09-06T13:42:26Z</time>
      </trkpt>
      <trkpt lat="43.19695" lon="0.16108">
        <ele>327.4</ele>
        <time>2022-09-06T13:42:34Z</time>
      </trkpt>
      <trkpt lat="43.19687" lon="0.16105">
        <ele>327.6</ele>
        <time>2022-09-06T13:42:38Z</time>
      </trkpt>
      <trkpt lat="43.19678" lon="0.16101">
        <ele>327.6</ele>
        <time>2022-09-06T13:42:42Z</time>
      </trkpt>
      <trkpt lat="43.1967" lon="0.16097">
        <ele>328.2</ele>
        <time>2022-09-06T13:42:47Z</time>
      </trkpt>
      <trkpt lat="43.19662" lon="0.16091">
        <ele>328.8</ele>
        <time>2022-09-06T13:43:15Z</time>
      </trkpt>
      <trkpt lat="43.19649" lon="0.16079">
        <ele>328.6</ele>
        <time>2022-09-06T13:43:21Z</time>
      </trkpt>
      <trkpt lat="43.19644" lon="0.16074">
        <ele>328.6</ele>
        <time>2022-09-06T13:43:23Z</time>
      </trkpt>
      <trkpt lat="43.19628" lon="0.16059">
        <ele>328.6</ele>
        <time>2022-09-06T13:43:29Z</time>
      </trkpt>
      <trkpt lat="43.19602" lon="0.16035">
        <ele>329</ele>
        <time>2022-09-06T13:43:38Z</time>
      </trkpt>
      <trkpt lat="43.19571" lon="0.16005">
        <ele>329.6</ele>
        <time>2022-09-06T13:43:49Z</time>
      </trkpt>
      <trkpt lat="43.19563" lon="0.15996">
        <ele>329.8</ele>
        <time>2022-09-06T13:43:52Z</time>
      </trkpt>
      <trkpt lat="43.1955" lon="0.15978">
        <ele>330.4</ele>
        <time>2022-09-06T13:43:57Z</time>
      </trkpt>
      <trkpt lat="43.19533" lon="0.15952">
        <ele>330.8</ele>
        <time>2022-09-06T13:44:04Z</time>
      </trkpt>
      <trkpt lat="43.19526" lon="0.15941">
        <ele>331</ele>
        <time>2022-09-06T13:44:07Z</time>
      </trkpt>
      <trkpt lat="43.19502" lon="0.15904">
        <ele>332</ele>
        <time>2022-09-06T13:44:17Z</time>
      </trkpt>
      <trkpt lat="43.19486" lon="0.15879">
        <ele>333</ele>
        <time>2022-09-06T13:44:24Z</time>
      </trkpt>
      <trkpt lat="43.19475" lon="0.15861">
        <ele>333.4</ele>
        <time>2022-09-06T13:44:29Z</time>
      </trkpt>
      <trkpt lat="43.19461" lon="0.15836">
        <ele>334.2</ele>
        <time>2022-09-06T13:44:36Z</time>
      </trkpt>
      <trkpt lat="43.19457" lon="0.15828">
        <ele>334.2</ele>
        <time>2022-09-06T13:44:38Z</time>
      </trkpt>
      <trkpt lat="43.19444" lon="0.158">
        <ele>335</ele>
        <time>2022-09-06T13:44:46Z</time>
      </trkpt>
      <trkpt lat="43.19441" lon="0.15793">
        <ele>335.2</ele>
        <time>2022-09-06T13:44:48Z</time>
      </trkpt>
      <trkpt lat="43.19429" lon="0.15769">
        <ele>335.6</ele>
        <time>2022-09-06T13:44:55Z</time>
      </trkpt>
      <trkpt lat="43.19419" lon="0.15748">
        <ele>336.2</ele>
        <time>2022-09-06T13:45:01Z</time>
      </trkpt>
      <trkpt lat="43.19412" lon="0.15734">
        <ele>336.2</ele>
        <time>2022-09-06T13:45:05Z</time>
      </trkpt>
      <trkpt lat="43.19406" lon="0.1571">
        <ele>337</ele>
        <time>2022-09-06T13:45:12Z</time>
      </trkpt>
      <trkpt lat="43.19407" lon="0.15701">
        <ele>337.2</ele>
        <time>2022-09-06T13:45:16Z</time>
      </trkpt>
      <trkpt lat="43.19406" lon="0.15699">
        <ele>337.4</ele>
        <time>2022-09-06T13:45:17Z</time>
      </trkpt>
      <trkpt lat="43.19398" lon="0.15685">
        <ele>337.6</ele>
        <time>2022-09-06T13:45:23Z</time>
      </trkpt>
      <trkpt lat="43.19397" lon="0.15665">
        <ele>337.8</ele>
        <time>2022-09-06T13:45:30Z</time>
      </trkpt>
      <trkpt lat="43.19399" lon="0.15647">
        <ele>338.2</ele>
        <time>2022-09-06T13:45:35Z</time>
      </trkpt>
      <trkpt lat="43.194" lon="0.15636">
        <ele>338.2</ele>
        <time>2022-09-06T13:45:38Z</time>
      </trkpt>
      <trkpt lat="43.19403" lon="0.15599">
        <ele>339</ele>
        <time>2022-09-06T13:45:48Z</time>
      </trkpt>
      <trkpt lat="43.19404" lon="0.15588">
        <ele>339.4</ele>
        <time>2022-09-06T13:45:51Z</time>
      </trkpt>
      <trkpt lat="43.19407" lon="0.15565">
        <ele>339.8</ele>
        <time>2022-09-06T13:45:57Z</time>
      </trkpt>
      <trkpt lat="43.19408" lon="0.15552">
        <ele>340.4</ele>
        <time>2022-09-06T13:46:00Z</time>
      </trkpt>
      <trkpt lat="43.19411" lon="0.15524">
        <ele>341</ele>
        <time>2022-09-06T13:46:07Z</time>
      </trkpt>
      <trkpt lat="43.19413" lon="0.15495">
        <ele>341.4</ele>
        <time>2022-09-06T13:46:14Z</time>
      </trkpt>
      <trkpt lat="43.19415" lon="0.15483">
        <ele>341.6</ele>
        <time>2022-09-06T13:46:17Z</time>
      </trkpt>
      <trkpt lat="43.19418" lon="0.15449">
        <ele>342.6</ele>
        <time>2022-09-06T13:46:25Z</time>
      </trkpt>
      <trkpt lat="43.19418" lon="0.15444">
        <ele>342.6</ele>
        <time>2022-09-06T13:46:26Z</time>
      </trkpt>
      <trkpt lat="43.19422" lon="0.15406">
        <ele>343.6</ele>
        <time>2022-09-06T13:46:35Z</time>
      </trkpt>
      <trkpt lat="43.19423" lon="0.15402">
        <ele>343.8</ele>
        <time>2022-09-06T13:46:36Z</time>
      </trkpt>
      <trkpt lat="43.19424" lon="0.15371">
        <ele>344.8</ele>
        <time>2022-09-06T13:46:44Z</time>
      </trkpt>
      <trkpt lat="43.1942" lon="0.15345">
        <ele>345.8</ele>
        <time>2022-09-06T13:46:52Z</time>
      </trkpt>
      <trkpt lat="43.19415" lon="0.15328">
        <ele>346.8</ele>
        <time>2022-09-06T13:46:58Z</time>
      </trkpt>
      <trkpt lat="43.19414" lon="0.15313">
        <ele>347.2</ele>
        <time>2022-09-06T13:47:03Z</time>
      </trkpt>
      <trkpt lat="43.19411" lon="0.15298">
        <ele>347.8</ele>
        <time>2022-09-06T13:47:08Z</time>
      </trkpt>
      <trkpt lat="43.1941" lon="0.15296">
        <ele>348</ele>
        <time>2022-09-06T13:47:09Z</time>
      </trkpt>
      <trkpt lat="43.19407" lon="0.15284">
        <ele>349</ele>
        <time>2022-09-06T13:47:14Z</time>
      </trkpt>
      <trkpt lat="43.19405" lon="0.15277">
        <ele>349.2</ele>
        <time>2022-09-06T13:47:17Z</time>
      </trkpt>
      <trkpt lat="43.19403" lon="0.15264">
        <ele>350</ele>
        <time>2022-09-06T13:47:22Z</time>
      </trkpt>
      <trkpt lat="43.19403" lon="0.15255">
        <ele>350.6</ele>
        <time>2022-09-06T13:47:26Z</time>
      </trkpt>
      <trkpt lat="43.19402" lon="0.15246">
        <ele>351.2</ele>
        <time>2022-09-06T13:47:30Z</time>
      </trkpt>
      <trkpt lat="43.19402" lon="0.15239">
        <ele>351.8</ele>
        <time>2022-09-06T13:47:33Z</time>
      </trkpt>
      <trkpt lat="43.19403" lon="0.15233">
        <ele>352.2</ele>
        <time>2022-09-06T13:47:36Z</time>
      </trkpt>
      <trkpt lat="43.19404" lon="0.15221">
        <ele>353.2</ele>
        <time>2022-09-06T13:47:41Z</time>
      </trkpt>
      <trkpt lat="43.19404" lon="0.15218">
        <ele>353.4</ele>
        <time>2022-09-06T13:47:42Z</time>
      </trkpt>
      <trkpt lat="43.19404" lon="0.15204">
        <ele>354.4</ele>
        <time>2022-09-06T13:47:48Z</time>
      </trkpt>
      <trkpt lat="43.19404" lon="0.15202">
        <ele>354.4</ele>
        <time>2022-09-06T13:47:49Z</time>
      </trkpt>
      <trkpt lat="43.19404" lon="0.15185">
        <ele>355.6</ele>
        <time>2022-09-06T13:47:56Z</time>
      </trkpt>
      <trkpt lat="43.19404" lon="0.15167">
        <ele>356.4</ele>
        <time>2022-09-06T13:48:03Z</time>
      </trkpt>
      <trkpt lat="43.19404" lon="0.15165">
        <ele>356.6</ele>
        <time>2022-09-06T13:48:04Z</time>
      </trkpt>
      <trkpt lat="43.19405" lon="0.15152">
        <ele>357</ele>
        <time>2022-09-06T13:48:09Z</time>
      </trkpt>
      <trkpt lat="43.19405" lon="0.15142">
        <ele>357.6</ele>
        <time>2022-09-06T13:48:13Z</time>
      </trkpt>
      <trkpt lat="43.19406" lon="0.15135">
        <ele>358.2</ele>
        <time>2022-09-06T13:48:16Z</time>
      </trkpt>
      <trkpt lat="43.19406" lon="0.15123">
        <ele>358.8</ele>
        <time>2022-09-06T13:48:21Z</time>
      </trkpt>
      <trkpt lat="43.19406" lon="0.15117">
        <ele>359.6</ele>
        <time>2022-09-06T13:48:23Z</time>
      </trkpt>
      <trkpt lat="43.19407" lon="0.1511">
        <ele>359.8</ele>
        <time>2022-09-06T13:48:26Z</time>
      </trkpt>
      <trkpt lat="43.19407" lon="0.15105">
        <ele>360</ele>
        <time>2022-09-06T13:48:28Z</time>
      </trkpt>
      <trkpt lat="43.19403" lon="0.15094">
        <ele>360.8</ele>
        <time>2022-09-06T13:48:33Z</time>
      </trkpt>
      <trkpt lat="43.19395" lon="0.15079">
        <ele>361.8</ele>
        <time>2022-09-06T13:48:40Z</time>
      </trkpt>
      <trkpt lat="43.19393" lon="0.15075">
        <ele>362</ele>
        <time>2022-09-06T13:48:42Z</time>
      </trkpt>
      <trkpt lat="43.19388" lon="0.15065">
        <ele>362.2</ele>
        <time>2022-09-06T13:48:47Z</time>
      </trkpt>
      <trkpt lat="43.19381" lon="0.15048">
        <ele>363</ele>
        <time>2022-09-06T13:48:54Z</time>
      </trkpt>
      <trkpt lat="43.1938" lon="0.15045">
        <ele>363</ele>
        <time>2022-09-06T13:48:55Z</time>
      </trkpt>
      <trkpt lat="43.19373" lon="0.15028">
        <ele>363.2</ele>
        <time>2022-09-06T13:49:01Z</time>
      </trkpt>
      <trkpt lat="43.1936" lon="0.15004">
        <ele>363.8</ele>
        <time>2022-09-06T13:49:10Z</time>
      </trkpt>
      <trkpt lat="43.1935" lon="0.14985">
        <ele>363.8</ele>
        <time>2022-09-06T13:49:17Z</time>
      </trkpt>
      <trkpt lat="43.19346" lon="0.1498">
        <ele>364</ele>
        <time>2022-09-06T13:49:19Z</time>
      </trkpt>
      <trkpt lat="43.19332" lon="0.14964">
        <ele>363.4</ele>
        <time>2022-09-06T13:49:24Z</time>
      </trkpt>
      <trkpt lat="43.19323" lon="0.14956">
        <ele>362.8</ele>
        <time>2022-09-06T13:49:26Z</time>
      </trkpt>
      <trkpt lat="43.19309" lon="0.1494">
        <ele>362.4</ele>
        <time>2022-09-06T13:49:29Z</time>
      </trkpt>
      <trkpt lat="43.19298" lon="0.14931">
        <ele>361.8</ele>
        <time>2022-09-06T13:49:31Z</time>
      </trkpt>
      <trkpt lat="43.19279" lon="0.14916">
        <ele>360.4</ele>
        <time>2022-09-06T13:49:34Z</time>
      </trkpt>
      <trkpt lat="43.19254" lon="0.14886">
        <ele>360.2</ele>
        <time>2022-09-06T13:49:39Z</time>
      </trkpt>
      <trkpt lat="43.19238" lon="0.14862">
        <ele>361.2</ele>
        <time>2022-09-06T13:49:44Z</time>
      </trkpt>
      <trkpt lat="43.19236" lon="0.14858">
        <ele>361.6</ele>
        <time>2022-09-06T13:49:45Z</time>
      </trkpt>
      <trkpt lat="43.19226" lon="0.14837">
        <ele>362.6</ele>
        <time>2022-09-06T13:49:51Z</time>
      </trkpt>
      <trkpt lat="43.19216" lon="0.14809">
        <ele>363.6</ele>
        <time>2022-09-06T13:49:59Z</time>
      </trkpt>
      <trkpt lat="43.19214" lon="0.14802">
        <ele>363.8</ele>
        <time>2022-09-06T13:50:01Z</time>
      </trkpt>
      <trkpt lat="43.19206" lon="0.14781">
        <ele>364.8</ele>
        <time>2022-09-06T13:50:07Z</time>
      </trkpt>
      <trkpt lat="43.19205" lon="0.14777">
        <ele>365</ele>
        <time>2022-09-06T13:50:08Z</time>
      </trkpt>
      <trkpt lat="43.19199" lon="0.14757">
        <ele>365.8</ele>
        <time>2022-09-06T13:50:14Z</time>
      </trkpt>
      <trkpt lat="43.19196" lon="0.14746">
        <ele>366</ele>
        <time>2022-09-06T13:50:17Z</time>
      </trkpt>
      <trkpt lat="43.1919" lon="0.14708">
        <ele>366.4</ele>
        <time>2022-09-06T13:50:27Z</time>
      </trkpt>
      <trkpt lat="43.19187" lon="0.14676">
        <ele>366.8</ele>
        <time>2022-09-06T13:50:36Z</time>
      </trkpt>
      <trkpt lat="43.19186" lon="0.14672">
        <ele>366.8</ele>
        <time>2022-09-06T13:50:37Z</time>
      </trkpt>
      <trkpt lat="43.1918" lon="0.14662">
        <ele>366.6</ele>
        <time>2022-09-06T13:50:40Z</time>
      </trkpt>
      <trkpt lat="43.19177" lon="0.14658">
        <ele>366.4</ele>
        <time>2022-09-06T13:50:41Z</time>
      </trkpt>
      <trkpt lat="43.19165" lon="0.14643">
        <ele>365.8</ele>
        <time>2022-09-06T13:50:44Z</time>
      </trkpt>
      <trkpt lat="43.1916" lon="0.14636">
        <ele>365.4</ele>
        <time>2022-09-06T13:50:45Z</time>
      </trkpt>
      <trkpt lat="43.19151" lon="0.14623">
        <ele>364.4</ele>
        <time>2022-09-06T13:50:47Z</time>
      </trkpt>
      <trkpt lat="43.19134" lon="0.14598">
        <ele>363.8</ele>
        <time>2022-09-06T13:50:51Z</time>
      </trkpt>
      <trkpt lat="43.19131" lon="0.14582">
        <ele>363.4</ele>
        <time>2022-09-06T13:50:54Z</time>
      </trkpt>
      <trkpt lat="43.19135" lon="0.14571">
        <ele>364.2</ele>
        <time>2022-09-06T13:50:58Z</time>
      </trkpt>
      <trkpt lat="43.19136" lon="0.14569">
        <ele>364.4</ele>
        <time>2022-09-06T13:50:59Z</time>
      </trkpt>
      <trkpt lat="43.19146" lon="0.14556">
        <ele>365</ele>
        <time>2022-09-06T13:51:05Z</time>
      </trkpt>
      <trkpt lat="43.1915" lon="0.14552">
        <ele>365.6</ele>
        <time>2022-09-06T13:51:07Z</time>
      </trkpt>
      <trkpt lat="43.19158" lon="0.14542">
        <ele>365.8</ele>
        <time>2022-09-06T13:51:11Z</time>
      </trkpt>
      <trkpt lat="43.19174" lon="0.14521">
        <ele>366.6</ele>
        <time>2022-09-06T13:51:18Z</time>
      </trkpt>
      <trkpt lat="43.19176" lon="0.14518">
        <ele>366.8</ele>
        <time>2022-09-06T13:51:19Z</time>
      </trkpt>
      <trkpt lat="43.19186" lon="0.14504">
        <ele>367.6</ele>
        <time>2022-09-06T13:51:24Z</time>
      </trkpt>
      <trkpt lat="43.1919" lon="0.14497">
        <ele>368</ele>
        <time>2022-09-06T13:51:27Z</time>
      </trkpt>
      <trkpt lat="43.19201" lon="0.14482">
        <ele>368.8</ele>
        <time>2022-09-06T13:51:33Z</time>
      </trkpt>
      <trkpt lat="43.19206" lon="0.14477">
        <ele>369.2</ele>
        <time>2022-09-06T13:51:35Z</time>
      </trkpt>
      <trkpt lat="43.19215" lon="0.14465">
        <ele>369.8</ele>
        <time>2022-09-06T13:51:39Z</time>
      </trkpt>
      <trkpt lat="43.19224" lon="0.14454">
        <ele>370.8</ele>
        <time>2022-09-06T13:51:43Z</time>
      </trkpt>
      <trkpt lat="43.1923" lon="0.14446">
        <ele>371</ele>
        <time>2022-09-06T13:51:46Z</time>
      </trkpt>
      <trkpt lat="43.19238" lon="0.14436">
        <ele>371.4</ele>
        <time>2022-09-06T13:51:50Z</time>
      </trkpt>
      <trkpt lat="43.1925" lon="0.1442">
        <ele>372</ele>
        <time>2022-09-06T13:51:56Z</time>
      </trkpt>
      <trkpt lat="43.19256" lon="0.14411">
        <ele>372.4</ele>
        <time>2022-09-06T13:51:59Z</time>
      </trkpt>
      <trkpt lat="43.19272" lon="0.14389">
        <ele>373</ele>
        <time>2022-09-06T13:52:07Z</time>
      </trkpt>
      <trkpt lat="43.19281" lon="0.14379">
        <ele>373.2</ele>
        <time>2022-09-06T13:52:11Z</time>
      </trkpt>
      <trkpt lat="43.19289" lon="0.1437">
        <ele>373.4</ele>
        <time>2022-09-06T13:52:15Z</time>
      </trkpt>
      <trkpt lat="43.19297" lon="0.14361">
        <ele>374.2</ele>
        <time>2022-09-06T13:52:19Z</time>
      </trkpt>
      <trkpt lat="43.19305" lon="0.14353">
        <ele>374.6</ele>
        <time>2022-09-06T13:52:23Z</time>
      </trkpt>
      <trkpt lat="43.1932" lon="0.14336">
        <ele>375.6</ele>
        <time>2022-09-06T13:52:30Z</time>
      </trkpt>
      <trkpt lat="43.19327" lon="0.14329">
        <ele>375</ele>
        <time>2022-09-06T13:52:33Z</time>
      </trkpt>
      <trkpt lat="43.1935" lon="0.14306">
        <ele>375.2</ele>
        <time>2022-09-06T13:52:43Z</time>
      </trkpt>
      <trkpt lat="43.19373" lon="0.14288">
        <ele>375.8</ele>
        <time>2022-09-06T13:52:52Z</time>
      </trkpt>
      <trkpt lat="43.19387" lon="0.1427">
        <ele>376.2</ele>
        <time>2022-09-06T13:52:59Z</time>
      </trkpt>
      <trkpt lat="43.19392" lon="0.1426">
        <ele>376.6</ele>
        <time>2022-09-06T13:53:02Z</time>
      </trkpt>
      <trkpt lat="43.19402" lon="0.14242">
        <ele>376.8</ele>
        <time>2022-09-06T13:53:08Z</time>
      </trkpt>
      <trkpt lat="43.19419" lon="0.14208">
        <ele>377.6</ele>
        <time>2022-09-06T13:53:19Z</time>
      </trkpt>
      <trkpt lat="43.19421" lon="0.14205">
        <ele>377.8</ele>
        <time>2022-09-06T13:53:20Z</time>
      </trkpt>
      <trkpt lat="43.19432" lon="0.14182">
        <ele>378.2</ele>
        <time>2022-09-06T13:53:27Z</time>
      </trkpt>
      <trkpt lat="43.19443" lon="0.14166">
        <ele>378.4</ele>
        <time>2022-09-06T13:53:33Z</time>
      </trkpt>
      <trkpt lat="43.19454" lon="0.1415">
        <ele>378.8</ele>
        <time>2022-09-06T13:53:39Z</time>
      </trkpt>
      <trkpt lat="43.19459" lon="0.14144">
        <ele>379.2</ele>
        <time>2022-09-06T13:53:42Z</time>
      </trkpt>
      <trkpt lat="43.19469" lon="0.14128">
        <ele>380</ele>
        <time>2022-09-06T13:53:49Z</time>
      </trkpt>
      <trkpt lat="43.1947" lon="0.14126">
        <ele>380</ele>
        <time>2022-09-06T13:53:50Z</time>
      </trkpt>
      <trkpt lat="43.19477" lon="0.14107">
        <ele>381</ele>
        <time>2022-09-06T13:53:57Z</time>
      </trkpt>
      <trkpt lat="43.19478" lon="0.14101">
        <ele>381.4</ele>
        <time>2022-09-06T13:53:59Z</time>
      </trkpt>
      <trkpt lat="43.19483" lon="0.14087">
        <ele>382</ele>
        <time>2022-09-06T13:54:05Z</time>
      </trkpt>
      <trkpt lat="43.19486" lon="0.14082">
        <ele>382.4</ele>
        <time>2022-09-06T13:54:07Z</time>
      </trkpt>
      <trkpt lat="43.19491" lon="0.14074">
        <ele>383.2</ele>
        <time>2022-09-06T13:54:11Z</time>
      </trkpt>
      <trkpt lat="43.19495" lon="0.14065">
        <ele>383.8</ele>
        <time>2022-09-06T13:54:15Z</time>
      </trkpt>
      <trkpt lat="43.19501" lon="0.14054">
        <ele>384.2</ele>
        <time>2022-09-06T13:54:19Z</time>
      </trkpt>
      <trkpt lat="43.19506" lon="0.14044">
        <ele>384.8</ele>
        <time>2022-09-06T13:54:23Z</time>
      </trkpt>
      <trkpt lat="43.19518" lon="0.14018">
        <ele>385.2</ele>
        <time>2022-09-06T13:54:32Z</time>
      </trkpt>
      <trkpt lat="43.19519" lon="0.14015">
        <ele>385.2</ele>
        <time>2022-09-06T13:54:33Z</time>
      </trkpt>
      <trkpt lat="43.19528" lon="0.13994">
        <ele>385.8</ele>
        <time>2022-09-06T13:54:40Z</time>
      </trkpt>
      <trkpt lat="43.19538" lon="0.13973">
        <ele>386.2</ele>
        <time>2022-09-06T13:54:47Z</time>
      </trkpt>
      <trkpt lat="43.19539" lon="0.1397">
        <ele>386.4</ele>
        <time>2022-09-06T13:54:48Z</time>
      </trkpt>
      <trkpt lat="43.19547" lon="0.1395">
        <ele>387.2</ele>
        <time>2022-09-06T13:54:55Z</time>
      </trkpt>
      <trkpt lat="43.19549" lon="0.1394">
        <ele>387.4</ele>
        <time>2022-09-06T13:54:58Z</time>
      </trkpt>
      <trkpt lat="43.19557" lon="0.13913">
        <ele>388</ele>
        <time>2022-09-06T13:55:06Z</time>
      </trkpt>
      <trkpt lat="43.19566" lon="0.13887">
        <ele>387.8</ele>
        <time>2022-09-06T13:55:14Z</time>
      </trkpt>
      <trkpt lat="43.19581" lon="0.13848">
        <ele>388.4</ele>
        <time>2022-09-06T13:55:25Z</time>
      </trkpt>
      <trkpt lat="43.19594" lon="0.13829">
        <ele>389.2</ele>
        <time>2022-09-06T13:55:32Z</time>
      </trkpt>
      <trkpt lat="43.19602" lon="0.13823">
        <ele>389.8</ele>
        <time>2022-09-06T13:55:36Z</time>
      </trkpt>
      <trkpt lat="43.19605" lon="0.13821">
        <ele>390</ele>
        <time>2022-09-06T13:55:38Z</time>
      </trkpt>
      <trkpt lat="43.19621" lon="0.13812">
        <ele>390.8</ele>
        <time>2022-09-06T13:55:46Z</time>
      </trkpt>
      <trkpt lat="43.19632" lon="0.13806">
        <ele>391.8</ele>
        <time>2022-09-06T13:55:53Z</time>
      </trkpt>
      <trkpt lat="43.19634" lon="0.13805">
        <ele>392</ele>
        <time>2022-09-06T13:55:54Z</time>
      </trkpt>
      <trkpt lat="43.19637" lon="0.13804">
        <ele>392.4</ele>
        <time>2022-09-06T13:55:56Z</time>
      </trkpt>
      <trkpt lat="43.19641" lon="0.13802">
        <ele>392.8</ele>
        <time>2022-09-06T13:55:59Z</time>
      </trkpt>
      <trkpt lat="43.19643" lon="0.13801">
        <ele>393</ele>
        <time>2022-09-06T13:56:00Z</time>
      </trkpt>
      <trkpt lat="43.19644" lon="0.138">
        <ele>393</ele>
        <time>2022-09-06T13:56:01Z</time>
      </trkpt>
      <trkpt lat="43.19656" lon="0.13793">
        <ele>393.8</ele>
        <time>2022-09-06T13:56:07Z</time>
      </trkpt>
      <trkpt lat="43.19659" lon="0.13791">
        <ele>394</ele>
        <time>2022-09-06T13:56:09Z</time>
      </trkpt>
      <trkpt lat="43.19666" lon="0.13783">
        <ele>394.4</ele>
        <time>2022-09-06T13:56:14Z</time>
      </trkpt>
      <trkpt lat="43.19677" lon="0.13771">
        <ele>395.2</ele>
        <time>2022-09-06T13:56:21Z</time>
      </trkpt>
      <trkpt lat="43.19681" lon="0.13766">
        <ele>395.2</ele>
        <time>2022-09-06T13:56:23Z</time>
      </trkpt>
      <trkpt lat="43.19694" lon="0.13753">
        <ele>396.2</ele>
        <time>2022-09-06T13:56:30Z</time>
      </trkpt>
      <trkpt lat="43.19697" lon="0.13749">
        <ele>396.4</ele>
        <time>2022-09-06T13:56:32Z</time>
      </trkpt>
      <trkpt lat="43.19713" lon="0.13727">
        <ele>397</ele>
        <time>2022-09-06T13:56:41Z</time>
      </trkpt>
      <trkpt lat="43.19716" lon="0.13721">
        <ele>397.2</ele>
        <time>2022-09-06T13:56:43Z</time>
      </trkpt>
      <trkpt lat="43.19731" lon="0.13696">
        <ele>398</ele>
        <time>2022-09-06T13:56:52Z</time>
      </trkpt>
      <trkpt lat="43.19733" lon="0.13693">
        <ele>398.2</ele>
        <time>2022-09-06T13:56:53Z</time>
      </trkpt>
      <trkpt lat="43.19746" lon="0.13669">
        <ele>398</ele>
        <time>2022-09-06T13:57:01Z</time>
      </trkpt>
      <trkpt lat="43.19761" lon="0.13642">
        <ele>398.6</ele>
        <time>2022-09-06T13:57:10Z</time>
      </trkpt>
      <trkpt lat="43.19769" lon="0.13625">
        <ele>399.4</ele>
        <time>2022-09-06T13:57:16Z</time>
      </trkpt>
      <trkpt lat="43.19772" lon="0.13618">
        <ele>399.4</ele>
        <time>2022-09-06T13:57:18Z</time>
      </trkpt>
      <trkpt lat="43.19785" lon="0.13587">
        <ele>400.4</ele>
        <time>2022-09-06T13:57:28Z</time>
      </trkpt>
      <trkpt lat="43.19787" lon="0.13584">
        <ele>400.6</ele>
        <time>2022-09-06T13:57:29Z</time>
      </trkpt>
      <trkpt lat="43.19799" lon="0.13557">
        <ele>400.6</ele>
        <time>2022-09-06T13:57:37Z</time>
      </trkpt>
      <trkpt lat="43.19808" lon="0.13536">
        <ele>400.8</ele>
        <time>2022-09-06T13:57:43Z</time>
      </trkpt>
      <trkpt lat="43.19824" lon="0.13516">
        <ele>401</ele>
        <time>2022-09-06T13:57:50Z</time>
      </trkpt>
      <trkpt lat="43.1984" lon="0.13519">
        <ele>401.2</ele>
        <time>2022-09-06T13:57:55Z</time>
      </trkpt>
      <trkpt lat="43.19851" lon="0.13524">
        <ele>401.6</ele>
        <time>2022-09-06T13:57:59Z</time>
      </trkpt>
      <trkpt lat="43.19859" lon="0.13527">
        <ele>402.2</ele>
        <time>2022-09-06T13:58:02Z</time>
      </trkpt>
      <trkpt lat="43.19868" lon="0.13529">
        <ele>402.6</ele>
        <time>2022-09-06T13:58:06Z</time>
      </trkpt>
      <trkpt lat="43.19874" lon="0.13528">
        <ele>403.2</ele>
        <time>2022-09-06T13:58:09Z</time>
      </trkpt>
      <trkpt lat="43.1988" lon="0.13525">
        <ele>403.8</ele>
        <time>2022-09-06T13:58:12Z</time>
      </trkpt>
      <trkpt lat="43.1989" lon="0.13517">
        <ele>404.4</ele>
        <time>2022-09-06T13:58:17Z</time>
      </trkpt>
      <trkpt lat="43.19897" lon="0.13509">
        <ele>404.8</ele>
        <time>2022-09-06T13:58:21Z</time>
      </trkpt>
      <trkpt lat="43.19905" lon="0.13494">
        <ele>405.8</ele>
        <time>2022-09-06T13:58:27Z</time>
      </trkpt>
      <trkpt lat="43.19907" lon="0.13488">
        <ele>406</ele>
        <time>2022-09-06T13:58:29Z</time>
      </trkpt>
      <trkpt lat="43.19913" lon="0.13472">
        <ele>406.4</ele>
        <time>2022-09-06T13:58:35Z</time>
      </trkpt>
      <trkpt lat="43.19925" lon="0.13445">
        <ele>407</ele>
        <time>2022-09-06T13:58:44Z</time>
      </trkpt>
      <trkpt lat="43.19939" lon="0.13409">
        <ele>407.4</ele>
        <time>2022-09-06T13:58:55Z</time>
      </trkpt>
      <trkpt lat="43.19953" lon="0.13375">
        <ele>407.2</ele>
        <time>2022-09-06T13:59:04Z</time>
      </trkpt>
      <trkpt lat="43.19961" lon="0.13355">
        <ele>407.2</ele>
        <time>2022-09-06T13:59:09Z</time>
      </trkpt>
      <trkpt lat="43.19974" lon="0.13318">
        <ele>407</ele>
        <time>2022-09-06T13:59:17Z</time>
      </trkpt>
      <trkpt lat="43.19982" lon="0.13278">
        <ele>406</ele>
        <time>2022-09-06T13:59:25Z</time>
      </trkpt>
      <trkpt lat="43.19987" lon="0.13238">
        <ele>406</ele>
        <time>2022-09-06T13:59:32Z</time>
      </trkpt>
      <trkpt lat="43.19993" lon="0.13198">
        <ele>406</ele>
        <time>2022-09-06T13:59:39Z</time>
      </trkpt>
      <trkpt lat="43.19996" lon="0.13176">
        <ele>406.2</ele>
        <time>2022-09-06T13:59:44Z</time>
      </trkpt>
      <trkpt lat="43.20001" lon="0.13152">
        <ele>406.4</ele>
        <time>2022-09-06T13:59:50Z</time>
      </trkpt>
      <trkpt lat="43.20006" lon="0.1313">
        <ele>406.4</ele>
        <time>2022-09-06T13:59:56Z</time>
      </trkpt>
      <trkpt lat="43.2001" lon="0.1312">
        <ele>406</ele>
        <time>2022-09-06T14:00:28Z</time>
      </trkpt>
      <trkpt lat="43.20014" lon="0.13114">
        <ele>405.8</ele>
        <time>2022-09-06T14:00:30Z</time>
      </trkpt>
      <trkpt lat="43.20022" lon="0.13096">
        <ele>405</ele>
        <time>2022-09-06T14:00:34Z</time>
      </trkpt>
      <trkpt lat="43.20023" lon="0.13091">
        <ele>404.8</ele>
        <time>2022-09-06T14:00:35Z</time>
      </trkpt>
      <trkpt lat="43.20025" lon="0.13085">
        <ele>404.6</ele>
        <time>2022-09-06T14:00:39Z</time>
      </trkpt>
      <trkpt lat="43.20025" lon="0.13099">
        <ele>404.6</ele>
        <time>2022-09-06T14:05:06Z</time>
      </trkpt>
      <trkpt lat="43.20026" lon="0.13101">
        <ele>404.6</ele>
        <time>2022-09-06T14:05:07Z</time>
      </trkpt>
      <trkpt lat="43.20036" lon="0.131">
        <ele>404.2</ele>
        <time>2022-09-06T14:05:10Z</time>
      </trkpt>
      <trkpt lat="43.2004" lon="0.13099">
        <ele>404</ele>
        <time>2022-09-06T14:05:11Z</time>
      </trkpt>
      <trkpt lat="43.20044" lon="0.13098">
        <ele>403.8</ele>
        <time>2022-09-06T14:05:12Z</time>
      </trkpt>
      <trkpt lat="43.20055" lon="0.13095">
        <ele>402.6</ele>
        <time>2022-09-06T14:05:15Z</time>
      </trkpt>
      <trkpt lat="43.20067" lon="0.13097">
        <ele>402</ele>
        <time>2022-09-06T14:05:20Z</time>
      </trkpt>
      <trkpt lat="43.20082" lon="0.13096">
        <ele>402</ele>
        <time>2022-09-06T14:05:25Z</time>
      </trkpt>
      <trkpt lat="43.20106" lon="0.13098">
        <ele>402.8</ele>
        <time>2022-09-06T14:05:33Z</time>
      </trkpt>
      <trkpt lat="43.20127" lon="0.13098">
        <ele>403.6</ele>
        <time>2022-09-06T14:05:41Z</time>
      </trkpt>
      <trkpt lat="43.20139" lon="0.1309">
        <ele>404</ele>
        <time>2022-09-06T14:05:47Z</time>
      </trkpt>
      <trkpt lat="43.20152" lon="0.13076">
        <ele>403.6</ele>
        <time>2022-09-06T14:05:53Z</time>
      </trkpt>
      <trkpt lat="43.20164" lon="0.13058">
        <ele>402.6</ele>
        <time>2022-09-06T14:05:57Z</time>
      </trkpt>
      <trkpt lat="43.20167" lon="0.13053">
        <ele>402.2</ele>
        <time>2022-09-06T14:05:58Z</time>
      </trkpt>
      <trkpt lat="43.20174" lon="0.13043">
        <ele>401.4</ele>
        <time>2022-09-06T14:06:00Z</time>
      </trkpt>
      <trkpt lat="43.2018" lon="0.13034">
        <ele>400</ele>
        <time>2022-09-06T14:06:02Z</time>
      </trkpt>
      <trkpt lat="43.20183" lon="0.1303">
        <ele>399.2</ele>
        <time>2022-09-06T14:06:03Z</time>
      </trkpt>
      <trkpt lat="43.20185" lon="0.13027">
        <ele>398.6</ele>
        <time>2022-09-06T14:06:04Z</time>
      </trkpt>
      <trkpt lat="43.20189" lon="0.13023">
        <ele>398</ele>
        <time>2022-09-06T14:06:06Z</time>
      </trkpt>
      <trkpt lat="43.20192" lon="0.13021">
        <ele>397.6</ele>
        <time>2022-09-06T14:06:07Z</time>
      </trkpt>
      <trkpt lat="43.20201" lon="0.13016">
        <ele>396.6</ele>
        <time>2022-09-06T14:06:11Z</time>
      </trkpt>
      <trkpt lat="43.20202" lon="0.13015">
        <ele>396.4</ele>
        <time>2022-09-06T14:06:12Z</time>
      </trkpt>
      <trkpt lat="43.20207" lon="0.13012">
        <ele>396</ele>
        <time>2022-09-06T14:06:16Z</time>
      </trkpt>
      <trkpt lat="43.20216" lon="0.13012">
        <ele>395.6</ele>
        <time>2022-09-06T14:06:20Z</time>
      </trkpt>
      <trkpt lat="43.2022" lon="0.13012">
        <ele>395.4</ele>
        <time>2022-09-06T14:06:21Z</time>
      </trkpt>
      <trkpt lat="43.20235" lon="0.13014">
        <ele>395</ele>
        <time>2022-09-06T14:06:24Z</time>
      </trkpt>
      <trkpt lat="43.20241" lon="0.13016">
        <ele>394.8</ele>
        <time>2022-09-06T14:06:25Z</time>
      </trkpt>
      <trkpt lat="43.20257" lon="0.13022">
        <ele>394.2</ele>
        <time>2022-09-06T14:06:28Z</time>
      </trkpt>
      <trkpt lat="43.20272" lon="0.13026">
        <ele>393</ele>
        <time>2022-09-06T14:06:30Z</time>
      </trkpt>
      <trkpt lat="43.20287" lon="0.1303">
        <ele>391.6</ele>
        <time>2022-09-06T14:06:32Z</time>
      </trkpt>
      <trkpt lat="43.20303" lon="0.13033">
        <ele>390.4</ele>
        <time>2022-09-06T14:06:34Z</time>
      </trkpt>
      <trkpt lat="43.20319" lon="0.13033">
        <ele>389</ele>
        <time>2022-09-06T14:06:36Z</time>
      </trkpt>
      <trkpt lat="43.20333" lon="0.1303">
        <ele>387.8</ele>
        <time>2022-09-06T14:06:38Z</time>
      </trkpt>
      <trkpt lat="43.20346" lon="0.13022">
        <ele>386.2</ele>
        <time>2022-09-06T14:06:40Z</time>
      </trkpt>
      <trkpt lat="43.20357" lon="0.13011">
        <ele>384.6</ele>
        <time>2022-09-06T14:06:42Z</time>
      </trkpt>
      <trkpt lat="43.20366" lon="0.12994">
        <ele>383.4</ele>
        <time>2022-09-06T14:06:44Z</time>
      </trkpt>
      <trkpt lat="43.20374" lon="0.12965">
        <ele>382</ele>
        <time>2022-09-06T14:06:47Z</time>
      </trkpt>
      <trkpt lat="43.20377" lon="0.12954">
        <ele>381.6</ele>
        <time>2022-09-06T14:06:48Z</time>
      </trkpt>
      <trkpt lat="43.20379" lon="0.12942">
        <ele>381</ele>
        <time>2022-09-06T14:06:49Z</time>
      </trkpt>
      <trkpt lat="43.20381" lon="0.1293">
        <ele>379.6</ele>
        <time>2022-09-06T14:06:50Z</time>
      </trkpt>
      <trkpt lat="43.20385" lon="0.12904">
        <ele>378.2</ele>
        <time>2022-09-06T14:06:52Z</time>
      </trkpt>
      <trkpt lat="43.20386" lon="0.12891">
        <ele>377</ele>
        <time>2022-09-06T14:06:53Z</time>
      </trkpt>
      <trkpt lat="43.20388" lon="0.12877">
        <ele>376.4</ele>
        <time>2022-09-06T14:06:54Z</time>
      </trkpt>
      <trkpt lat="43.2039" lon="0.12864">
        <ele>375.2</ele>
        <time>2022-09-06T14:06:55Z</time>
      </trkpt>
      <trkpt lat="43.20393" lon="0.1284">
        <ele>373.2</ele>
        <time>2022-09-06T14:06:57Z</time>
      </trkpt>
      <trkpt lat="43.20396" lon="0.12817">
        <ele>371.4</ele>
        <time>2022-09-06T14:06:59Z</time>
      </trkpt>
      <trkpt lat="43.20397" lon="0.12806">
        <ele>370.4</ele>
        <time>2022-09-06T14:07:00Z</time>
      </trkpt>
      <trkpt lat="43.20398" lon="0.12785">
        <ele>369</ele>
        <time>2022-09-06T14:07:02Z</time>
      </trkpt>
      <trkpt lat="43.20398" lon="0.12774">
        <ele>368.6</ele>
        <time>2022-09-06T14:07:03Z</time>
      </trkpt>
      <trkpt lat="43.20396" lon="0.12755">
        <ele>367.4</ele>
        <time>2022-09-06T14:07:05Z</time>
      </trkpt>
      <trkpt lat="43.20394" lon="0.12736">
        <ele>366</ele>
        <time>2022-09-06T14:07:07Z</time>
      </trkpt>
      <trkpt lat="43.20393" lon="0.12716">
        <ele>364.8</ele>
        <time>2022-09-06T14:07:09Z</time>
      </trkpt>
      <trkpt lat="43.20393" lon="0.12696">
        <ele>363.8</ele>
        <time>2022-09-06T14:07:11Z</time>
      </trkpt>
      <trkpt lat="43.20394" lon="0.12686">
        <ele>363.4</ele>
        <time>2022-09-06T14:07:12Z</time>
      </trkpt>
      <trkpt lat="43.20395" lon="0.12676">
        <ele>362.8</ele>
        <time>2022-09-06T14:07:13Z</time>
      </trkpt>
      <trkpt lat="43.20396" lon="0.12664">
        <ele>361.2</ele>
        <time>2022-09-06T14:07:14Z</time>
      </trkpt>
      <trkpt lat="43.20397" lon="0.12641">
        <ele>359.6</ele>
        <time>2022-09-06T14:07:16Z</time>
      </trkpt>
      <trkpt lat="43.20397" lon="0.1263">
        <ele>358.8</ele>
        <time>2022-09-06T14:07:17Z</time>
      </trkpt>
      <trkpt lat="43.20398" lon="0.12618">
        <ele>358</ele>
        <time>2022-09-06T14:07:18Z</time>
      </trkpt>
      <trkpt lat="43.20399" lon="0.12597">
        <ele>356.2</ele>
        <time>2022-09-06T14:07:20Z</time>
      </trkpt>
      <trkpt lat="43.20401" lon="0.12578">
        <ele>354.6</ele>
        <time>2022-09-06T14:07:22Z</time>
      </trkpt>
      <trkpt lat="43.20403" lon="0.1256">
        <ele>353.2</ele>
        <time>2022-09-06T14:07:24Z</time>
      </trkpt>
      <trkpt lat="43.20404" lon="0.12542">
        <ele>351.8</ele>
        <time>2022-09-06T14:07:26Z</time>
      </trkpt>
      <trkpt lat="43.20404" lon="0.12533">
        <ele>350.8</ele>
        <time>2022-09-06T14:07:27Z</time>
      </trkpt>
      <trkpt lat="43.20404" lon="0.12523">
        <ele>350</ele>
        <time>2022-09-06T14:07:28Z</time>
      </trkpt>
      <trkpt lat="43.20404" lon="0.12504">
        <ele>348.6</ele>
        <time>2022-09-06T14:07:30Z</time>
      </trkpt>
      <trkpt lat="43.20404" lon="0.12487">
        <ele>347.4</ele>
        <time>2022-09-06T14:07:32Z</time>
      </trkpt>
      <trkpt lat="43.20404" lon="0.12472">
        <ele>346.2</ele>
        <time>2022-09-06T14:07:34Z</time>
      </trkpt>
      <trkpt lat="43.20405" lon="0.12459">
        <ele>345</ele>
        <time>2022-09-06T14:07:36Z</time>
      </trkpt>
      <trkpt lat="43.20405" lon="0.12446">
        <ele>343.4</ele>
        <time>2022-09-06T14:07:38Z</time>
      </trkpt>
      <trkpt lat="43.20406" lon="0.12439">
        <ele>342.8</ele>
        <time>2022-09-06T14:07:39Z</time>
      </trkpt>
      <trkpt lat="43.20406" lon="0.12425">
        <ele>342</ele>
        <time>2022-09-06T14:07:41Z</time>
      </trkpt>
      <trkpt lat="43.20407" lon="0.12411">
        <ele>341</ele>
        <time>2022-09-06T14:07:43Z</time>
      </trkpt>
      <trkpt lat="43.2041" lon="0.124">
        <ele>340</ele>
        <time>2022-09-06T14:07:45Z</time>
      </trkpt>
      <trkpt lat="43.20412" lon="0.12395">
        <ele>339.6</ele>
        <time>2022-09-06T14:07:46Z</time>
      </trkpt>
      <trkpt lat="43.20415" lon="0.12381">
        <ele>338.8</ele>
        <time>2022-09-06T14:07:49Z</time>
      </trkpt>
      <trkpt lat="43.20418" lon="0.12375">
        <ele>338.6</ele>
        <time>2022-09-06T14:07:50Z</time>
      </trkpt>
      <trkpt lat="43.20421" lon="0.1237">
        <ele>338.2</ele>
        <time>2022-09-06T14:07:51Z</time>
      </trkpt>
      <trkpt lat="43.2043" lon="0.12355">
        <ele>337.6</ele>
        <time>2022-09-06T14:07:54Z</time>
      </trkpt>
      <trkpt lat="43.20432" lon="0.12351">
        <ele>337.2</ele>
        <time>2022-09-06T14:07:55Z</time>
      </trkpt>
      <trkpt lat="43.20435" lon="0.12347">
        <ele>336.6</ele>
        <time>2022-09-06T14:07:57Z</time>
      </trkpt>
      <trkpt lat="43.20436" lon="0.12345">
        <ele>336.2</ele>
        <time>2022-09-06T14:07:58Z</time>
      </trkpt>
      <trkpt lat="43.20443" lon="0.12333">
        <ele>336</ele>
        <time>2022-09-06T14:08:03Z</time>
      </trkpt>
      <trkpt lat="43.20454" lon="0.12322">
        <ele>335.2</ele>
        <time>2022-09-06T14:08:07Z</time>
      </trkpt>
      <trkpt lat="43.20459" lon="0.12316">
        <ele>335</ele>
        <time>2022-09-06T14:08:09Z</time>
      </trkpt>
      <trkpt lat="43.20462" lon="0.12308">
        <ele>334.6</ele>
        <time>2022-09-06T14:08:11Z</time>
      </trkpt>
      <trkpt lat="43.20461" lon="0.12298">
        <ele>334.8</ele>
        <time>2022-09-06T14:08:13Z</time>
      </trkpt>
      <trkpt lat="43.2046" lon="0.12279">
        <ele>334</ele>
        <time>2022-09-06T14:08:16Z</time>
      </trkpt>
      <trkpt lat="43.20461" lon="0.12271">
        <ele>333.8</ele>
        <time>2022-09-06T14:08:17Z</time>
      </trkpt>
      <trkpt lat="43.20462" lon="0.12262">
        <ele>333.6</ele>
        <time>2022-09-06T14:08:18Z</time>
      </trkpt>
      <trkpt lat="43.20464" lon="0.12245">
        <ele>333</ele>
        <time>2022-09-06T14:08:20Z</time>
      </trkpt>
      <trkpt lat="43.20468" lon="0.12216">
        <ele>332</ele>
        <time>2022-09-06T14:08:23Z</time>
      </trkpt>
      <trkpt lat="43.2047" lon="0.12207">
        <ele>331.8</ele>
        <time>2022-09-06T14:08:24Z</time>
      </trkpt>
      <trkpt lat="43.20472" lon="0.12191">
        <ele>330.2</ele>
        <time>2022-09-06T14:08:26Z</time>
      </trkpt>
      <trkpt lat="43.20475" lon="0.12179">
        <ele>329.8</ele>
        <time>2022-09-06T14:08:28Z</time>
      </trkpt>
      <trkpt lat="43.20478" lon="0.12153">
        <ele>329.6</ele>
        <time>2022-09-06T14:08:32Z</time>
      </trkpt>
      <trkpt lat="43.2048" lon="0.12146">
        <ele>329.2</ele>
        <time>2022-09-06T14:08:33Z</time>
      </trkpt>
      <trkpt lat="43.20492" lon="0.12097">
        <ele>328.4</ele>
        <time>2022-09-06T14:08:40Z</time>
      </trkpt>
      <trkpt lat="43.20496" lon="0.12083">
        <ele>328</ele>
        <time>2022-09-06T14:08:42Z</time>
      </trkpt>
      <trkpt lat="43.20507" lon="0.12041">
        <ele>327.2</ele>
        <time>2022-09-06T14:08:48Z</time>
      </trkpt>
      <trkpt lat="43.2051" lon="0.12026">
        <ele>327</ele>
        <time>2022-09-06T14:08:50Z</time>
      </trkpt>
      <trkpt lat="43.20525" lon="0.11964">
        <ele>326.4</ele>
        <time>2022-09-06T14:08:58Z</time>
      </trkpt>
      <trkpt lat="43.20534" lon="0.11931">
        <ele>326</ele>
        <time>2022-09-06T14:09:02Z</time>
      </trkpt>
      <trkpt lat="43.20546" lon="0.11879">
        <ele>325.4</ele>
        <time>2022-09-06T14:09:08Z</time>
      </trkpt>
      <trkpt lat="43.20553" lon="0.11853">
        <ele>325</ele>
        <time>2022-09-06T14:09:11Z</time>
      </trkpt>
      <trkpt lat="43.20568" lon="0.11787">
        <ele>324.2</ele>
        <time>2022-09-06T14:09:19Z</time>
      </trkpt>
      <trkpt lat="43.20572" lon="0.11729">
        <ele>323.8</ele>
        <time>2022-09-06T14:09:26Z</time>
      </trkpt>
      <trkpt lat="43.20571" lon="0.11712">
        <ele>323.6</ele>
        <time>2022-09-06T14:09:28Z</time>
      </trkpt>
      <trkpt lat="43.20568" lon="0.11689">
        <ele>324.2</ele>
        <time>2022-09-06T14:09:31Z</time>
      </trkpt>
      <trkpt lat="43.20554" lon="0.11637">
        <ele>323.2</ele>
        <time>2022-09-06T14:09:38Z</time>
      </trkpt>
      <trkpt lat="43.20547" lon="0.11624">
        <ele>323.2</ele>
        <time>2022-09-06T14:09:40Z</time>
      </trkpt>
      <trkpt lat="43.20536" lon="0.11607">
        <ele>323.4</ele>
        <time>2022-09-06T14:09:43Z</time>
      </trkpt>
      <trkpt lat="43.20512" lon="0.11558">
        <ele>323.6</ele>
        <time>2022-09-06T14:09:51Z</time>
      </trkpt>
      <trkpt lat="43.20504" lon="0.1153">
        <ele>323.6</ele>
        <time>2022-09-06T14:09:55Z</time>
      </trkpt>
      <trkpt lat="43.205" lon="0.11509">
        <ele>323.2</ele>
        <time>2022-09-06T14:09:58Z</time>
      </trkpt>
      <trkpt lat="43.20498" lon="0.11495">
        <ele>322.8</ele>
        <time>2022-09-06T14:10:00Z</time>
      </trkpt>
      <trkpt lat="43.20496" lon="0.11474">
        <ele>323.4</ele>
        <time>2022-09-06T14:10:03Z</time>
      </trkpt>
      <trkpt lat="43.20499" lon="0.11462">
        <ele>323.4</ele>
        <time>2022-09-06T14:10:05Z</time>
      </trkpt>
      <trkpt lat="43.20497" lon="0.11443">
        <ele>322.8</ele>
        <time>2022-09-06T14:10:08Z</time>
      </trkpt>
      <trkpt lat="43.20491" lon="0.11433">
        <ele>322.8</ele>
        <time>2022-09-06T14:10:10Z</time>
      </trkpt>
      <trkpt lat="43.20488" lon="0.11427">
        <ele>323</ele>
        <time>2022-09-06T14:10:11Z</time>
      </trkpt>
      <trkpt lat="43.20486" lon="0.11421">
        <ele>323.2</ele>
        <time>2022-09-06T14:10:12Z</time>
      </trkpt>
      <trkpt lat="43.20479" lon="0.11373">
        <ele>323</ele>
        <time>2022-09-06T14:10:19Z</time>
      </trkpt>
      <trkpt lat="43.20469" lon="0.11307">
        <ele>323.2</ele>
        <time>2022-09-06T14:10:29Z</time>
      </trkpt>
      <trkpt lat="43.20458" lon="0.11242">
        <ele>323.4</ele>
        <time>2022-09-06T14:10:38Z</time>
      </trkpt>
      <trkpt lat="43.20449" lon="0.11184">
        <ele>323.8</ele>
        <time>2022-09-06T14:10:46Z</time>
      </trkpt>
      <trkpt lat="43.20442" lon="0.11106">
        <ele>323.4</ele>
        <time>2022-09-06T14:10:57Z</time>
      </trkpt>
      <trkpt lat="43.20443" lon="0.11091">
        <ele>323.6</ele>
        <time>2022-09-06T14:10:59Z</time>
      </trkpt>
      <trkpt lat="43.20445" lon="0.11077">
        <ele>323.4</ele>
        <time>2022-09-06T14:11:01Z</time>
      </trkpt>
      <trkpt lat="43.20448" lon="0.11072">
        <ele>323.2</ele>
        <time>2022-09-06T14:11:02Z</time>
      </trkpt>
      <trkpt lat="43.20463" lon="0.11058">
        <ele>323</ele>
        <time>2022-09-06T14:11:06Z</time>
      </trkpt>
      <trkpt lat="43.20464" lon="0.11048">
        <ele>323</ele>
        <time>2022-09-06T14:11:08Z</time>
      </trkpt>
      <trkpt lat="43.20464" lon="0.11043">
        <ele>323.2</ele>
        <time>2022-09-06T14:11:09Z</time>
      </trkpt>
      <trkpt lat="43.20462" lon="0.11033">
        <ele>323</ele>
        <time>2022-09-06T14:11:11Z</time>
      </trkpt>
      <trkpt lat="43.2046" lon="0.11029">
        <ele>322.8</ele>
        <time>2022-09-06T14:11:12Z</time>
      </trkpt>
      <trkpt lat="43.20456" lon="0.11026">
        <ele>322.6</ele>
        <time>2022-09-06T14:11:13Z</time>
      </trkpt>
      <trkpt lat="43.20437" lon="0.1101">
        <ele>322.8</ele>
        <time>2022-09-06T14:11:20Z</time>
      </trkpt>
      <trkpt lat="43.20434" lon="0.11005">
        <ele>322.6</ele>
        <time>2022-09-06T14:11:37Z</time>
      </trkpt>
      <trkpt lat="43.20433" lon="0.10999">
        <ele>323</ele>
        <time>2022-09-06T14:11:39Z</time>
      </trkpt>
      <trkpt lat="43.20429" lon="0.10976">
        <ele>323.8</ele>
        <time>2022-09-06T14:11:44Z</time>
      </trkpt>
      <trkpt lat="43.20423" lon="0.10951">
        <ele>324</ele>
        <time>2022-09-06T14:11:49Z</time>
      </trkpt>
      <trkpt lat="43.20422" lon="0.1094">
        <ele>323.8</ele>
        <time>2022-09-06T14:11:51Z</time>
      </trkpt>
      <trkpt lat="43.20414" lon="0.10875">
        <ele>323.6</ele>
        <time>2022-09-06T14:12:01Z</time>
      </trkpt>
      <trkpt lat="43.20406" lon="0.10806">
        <ele>323.6</ele>
        <time>2022-09-06T14:12:11Z</time>
      </trkpt>
      <trkpt lat="43.20398" lon="0.10732">
        <ele>323.4</ele>
        <time>2022-09-06T14:12:21Z</time>
      </trkpt>
      <trkpt lat="43.20391" lon="0.10671">
        <ele>323.4</ele>
        <time>2022-09-06T14:12:29Z</time>
      </trkpt>
      <trkpt lat="43.20383" lon="0.10604">
        <ele>324</ele>
        <time>2022-09-06T14:12:38Z</time>
      </trkpt>
      <trkpt lat="43.20375" lon="0.10529">
        <ele>323.6</ele>
        <time>2022-09-06T14:12:48Z</time>
      </trkpt>
      <trkpt lat="43.20367" lon="0.10451">
        <ele>323.6</ele>
        <time>2022-09-06T14:12:58Z</time>
      </trkpt>
      <trkpt lat="43.20361" lon="0.10377">
        <ele>323.2</ele>
        <time>2022-09-06T14:13:08Z</time>
      </trkpt>
      <trkpt lat="43.20361" lon="0.10336">
        <ele>323.6</ele>
        <time>2022-09-06T14:13:14Z</time>
      </trkpt>
      <trkpt lat="43.20363" lon="0.1033">
        <ele>323.2</ele>
        <time>2022-09-06T14:13:15Z</time>
      </trkpt>
      <trkpt lat="43.20365" lon="0.10317">
        <ele>323.2</ele>
        <time>2022-09-06T14:13:17Z</time>
      </trkpt>
      <trkpt lat="43.20365" lon="0.10295">
        <ele>323.4</ele>
        <time>2022-09-06T14:13:20Z</time>
      </trkpt>
      <trkpt lat="43.20363" lon="0.10236">
        <ele>323.4</ele>
        <time>2022-09-06T14:13:28Z</time>
      </trkpt>
      <trkpt lat="43.20358" lon="0.10171">
        <ele>323.4</ele>
        <time>2022-09-06T14:13:37Z</time>
      </trkpt>
      <trkpt lat="43.20354" lon="0.10108">
        <ele>323.2</ele>
        <time>2022-09-06T14:13:46Z</time>
      </trkpt>
      <trkpt lat="43.20353" lon="0.10074">
        <ele>323.6</ele>
        <time>2022-09-06T14:13:52Z</time>
      </trkpt>
      <trkpt lat="43.20351" lon="0.10039">
        <ele>323.4</ele>
        <time>2022-09-06T14:13:58Z</time>
      </trkpt>
      <trkpt lat="43.20351" lon="0.10027">
        <ele>323.2</ele>
        <time>2022-09-06T14:14:00Z</time>
      </trkpt>
      <trkpt lat="43.20355" lon="0.10011">
        <ele>322.6</ele>
        <time>2022-09-06T14:14:03Z</time>
      </trkpt>
      <trkpt lat="43.20369" lon="0.09997">
        <ele>323</ele>
        <time>2022-09-06T14:14:07Z</time>
      </trkpt>
      <trkpt lat="43.20373" lon="0.09994">
        <ele>323</ele>
        <time>2022-09-06T14:14:08Z</time>
      </trkpt>
      <trkpt lat="43.20377" lon="0.09992">
        <ele>322.8</ele>
        <time>2022-09-06T14:14:09Z</time>
      </trkpt>
      <trkpt lat="43.20393" lon="0.09984">
        <ele>322.2</ele>
        <time>2022-09-06T14:14:13Z</time>
      </trkpt>
      <trkpt lat="43.20407" lon="0.09978">
        <ele>322</ele>
        <time>2022-09-06T14:14:18Z</time>
      </trkpt>
      <trkpt lat="43.20414" lon="0.09962">
        <ele>321.8</ele>
        <time>2022-09-06T14:14:23Z</time>
      </trkpt>
      <trkpt lat="43.20413" lon="0.09956">
        <ele>321.6</ele>
        <time>2022-09-06T14:14:27Z</time>
      </trkpt>
      <trkpt lat="43.20409" lon="0.09952">
        <ele>322</ele>
        <time>2022-09-06T14:14:34Z</time>
      </trkpt>
      <trkpt lat="43.20407" lon="0.09946">
        <ele>322.2</ele>
        <time>2022-09-06T14:14:36Z</time>
      </trkpt>
      <trkpt lat="43.20403" lon="0.09935">
        <ele>322.4</ele>
        <time>2022-09-06T14:14:39Z</time>
      </trkpt>
      <trkpt lat="43.20398" lon="0.09922">
        <ele>322.6</ele>
        <time>2022-09-06T14:14:42Z</time>
      </trkpt>
      <trkpt lat="43.20398" lon="0.09901">
        <ele>322.4</ele>
        <time>2022-09-06T14:14:46Z</time>
      </trkpt>
      <trkpt lat="43.20396" lon="0.09851">
        <ele>322</ele>
        <time>2022-09-06T14:14:54Z</time>
      </trkpt>
      <trkpt lat="43.20397" lon="0.09831">
        <ele>321.6</ele>
        <time>2022-09-06T14:14:57Z</time>
      </trkpt>
      <trkpt lat="43.204" lon="0.0981">
        <ele>321.2</ele>
        <time>2022-09-06T14:15:00Z</time>
      </trkpt>
      <trkpt lat="43.20405" lon="0.09786">
        <ele>320.4</ele>
        <time>2022-09-06T14:15:03Z</time>
      </trkpt>
      <trkpt lat="43.20409" lon="0.09767">
        <ele>319.8</ele>
        <time>2022-09-06T14:15:05Z</time>
      </trkpt>
      <trkpt lat="43.20414" lon="0.09747">
        <ele>319</ele>
        <time>2022-09-06T14:15:07Z</time>
      </trkpt>
      <trkpt lat="43.20424" lon="0.09703">
        <ele>318.6</ele>
        <time>2022-09-06T14:15:12Z</time>
      </trkpt>
      <trkpt lat="43.20427" lon="0.09687">
        <ele>318</ele>
        <time>2022-09-06T14:15:14Z</time>
      </trkpt>
      <trkpt lat="43.20431" lon="0.0966">
        <ele>317.8</ele>
        <time>2022-09-06T14:15:18Z</time>
      </trkpt>
      <trkpt lat="43.20438" lon="0.09629">
        <ele>318.2</ele>
        <time>2022-09-06T14:15:23Z</time>
      </trkpt>
      <trkpt lat="43.20438" lon="0.09623">
        <ele>318.4</ele>
        <time>2022-09-06T14:15:24Z</time>
      </trkpt>
      <trkpt lat="43.2043" lon="0.096">
        <ele>317.6</ele>
        <time>2022-09-06T14:15:28Z</time>
      </trkpt>
      <trkpt lat="43.20418" lon="0.09569">
        <ele>317.2</ele>
        <time>2022-09-06T14:15:33Z</time>
      </trkpt>
      <trkpt lat="43.20416" lon="0.09555">
        <ele>317.2</ele>
        <time>2022-09-06T14:15:35Z</time>
      </trkpt>
      <trkpt lat="43.20414" lon="0.09534">
        <ele>317.6</ele>
        <time>2022-09-06T14:15:38Z</time>
      </trkpt>
      <trkpt lat="43.2041" lon="0.09521">
        <ele>317.8</ele>
        <time>2022-09-06T14:15:40Z</time>
      </trkpt>
      <trkpt lat="43.20403" lon="0.09495">
        <ele>317.8</ele>
        <time>2022-09-06T14:15:44Z</time>
      </trkpt>
      <trkpt lat="43.20389" lon="0.09448">
        <ele>318</ele>
        <time>2022-09-06T14:15:52Z</time>
      </trkpt>
      <trkpt lat="43.20382" lon="0.09414">
        <ele>318.2</ele>
        <time>2022-09-06T14:15:59Z</time>
      </trkpt>
      <trkpt lat="43.20379" lon="0.09401">
        <ele>317</ele>
        <time>2022-09-06T14:16:03Z</time>
      </trkpt>
      <trkpt lat="43.20379" lon="0.09399">
        <ele>316.8</ele>
        <time>2022-09-06T14:16:04Z</time>
      </trkpt>
      <trkpt lat="43.20386" lon="0.09398">
        <ele>316.8</ele>
        <time>2022-09-06T14:17:35Z</time>
      </trkpt>
      <trkpt lat="43.20399" lon="0.09403">
        <ele>316</ele>
        <time>2022-09-06T14:17:39Z</time>
      </trkpt>
      <trkpt lat="43.20402" lon="0.09403">
        <ele>315.8</ele>
        <time>2022-09-06T14:17:40Z</time>
      </trkpt>
      <trkpt lat="43.20425" lon="0.09408">
        <ele>315.6</ele>
        <time>2022-09-06T14:17:46Z</time>
      </trkpt>
      <trkpt lat="43.20449" lon="0.09412">
        <ele>315.4</ele>
        <time>2022-09-06T14:17:53Z</time>
      </trkpt>
      <trkpt lat="43.20465" lon="0.09408">
        <ele>315.2</ele>
        <time>2022-09-06T14:17:59Z</time>
      </trkpt>
      <trkpt lat="43.20473" lon="0.09399">
        <ele>314.8</ele>
        <time>2022-09-06T14:18:05Z</time>
      </trkpt>
      <trkpt lat="43.20474" lon="0.09398">
        <ele>314.8</ele>
        <time>2022-09-06T14:18:06Z</time>
      </trkpt>
      <trkpt lat="43.20479" lon="0.094">
        <ele>314.8</ele>
        <time>2022-09-06T14:20:49Z</time>
      </trkpt>
      <trkpt lat="43.20481" lon="0.09401">
        <ele>314.8</ele>
        <time>2022-09-06T14:20:50Z</time>
      </trkpt>
      <trkpt lat="43.205" lon="0.09419">
        <ele>314.8</ele>
        <time>2022-09-06T14:20:59Z</time>
      </trkpt>
      <trkpt lat="43.20519" lon="0.09424">
        <ele>314.4</ele>
        <time>2022-09-06T14:21:05Z</time>
      </trkpt>
      <trkpt lat="43.20546" lon="0.09428">
        <ele>314.2</ele>
        <time>2022-09-06T14:21:13Z</time>
      </trkpt>
      <trkpt lat="43.20576" lon="0.09431">
        <ele>314.2</ele>
        <time>2022-09-06T14:21:21Z</time>
      </trkpt>
      <trkpt lat="43.20586" lon="0.09431">
        <ele>313.8</ele>
        <time>2022-09-06T14:21:24Z</time>
      </trkpt>
      <trkpt lat="43.20595" lon="0.09435">
        <ele>313.8</ele>
        <time>2022-09-06T14:21:27Z</time>
      </trkpt>
      <trkpt lat="43.20621" lon="0.09443">
        <ele>313.8</ele>
        <time>2022-09-06T14:21:35Z</time>
      </trkpt>
      <trkpt lat="43.20647" lon="0.09449">
        <ele>313.2</ele>
        <time>2022-09-06T14:21:44Z</time>
      </trkpt>
      <trkpt lat="43.20654" lon="0.09446">
        <ele>313.2</ele>
        <time>2022-09-06T14:21:48Z</time>
      </trkpt>
      <trkpt lat="43.20655" lon="0.09446">
        <ele>313.2</ele>
        <time>2022-09-06T14:21:49Z</time>
      </trkpt>
      <trkpt lat="43.2066" lon="0.09441">
        <ele>313.4</ele>
        <time>2022-09-06T14:21:54Z</time>
      </trkpt>
      <trkpt lat="43.20672" lon="0.09436">
        <ele>313.2</ele>
        <time>2022-09-06T14:22:00Z</time>
      </trkpt>
      <trkpt lat="43.20685" lon="0.0944">
        <ele>312.8</ele>
        <time>2022-09-06T14:22:06Z</time>
      </trkpt>
      <trkpt lat="43.20705" lon="0.09444">
        <ele>312.8</ele>
        <time>2022-09-06T14:22:12Z</time>
      </trkpt>
      <trkpt lat="43.20731" lon="0.09448">
        <ele>313</ele>
        <time>2022-09-06T14:22:19Z</time>
      </trkpt>
      <trkpt lat="43.20762" lon="0.09455">
        <ele>312.8</ele>
        <time>2022-09-06T14:22:28Z</time>
      </trkpt>
      <trkpt lat="43.20773" lon="0.09473">
        <ele>312.6</ele>
        <time>2022-09-06T14:22:33Z</time>
      </trkpt>
      <trkpt lat="43.20772" lon="0.09495">
        <ele>312.8</ele>
        <time>2022-09-06T14:22:38Z</time>
      </trkpt>
      <trkpt lat="43.20773" lon="0.09516">
        <ele>313.4</ele>
        <time>2022-09-06T14:22:44Z</time>
      </trkpt>
      <trkpt lat="43.20781" lon="0.09525">
        <ele>313.6</ele>
        <time>2022-09-06T14:22:49Z</time>
      </trkpt>
      <trkpt lat="43.20795" lon="0.09522">
        <ele>313.4</ele>
        <time>2022-09-06T14:22:53Z</time>
      </trkpt>
      <trkpt lat="43.2083" lon="0.09512">
        <ele>313</ele>
        <time>2022-09-06T14:23:01Z</time>
      </trkpt>
      <trkpt lat="43.20872" lon="0.09503">
        <ele>313</ele>
        <time>2022-09-06T14:23:09Z</time>
      </trkpt>
      <trkpt lat="43.20917" lon="0.09489">
        <ele>312.6</ele>
        <time>2022-09-06T14:23:18Z</time>
      </trkpt>
      <trkpt lat="43.20958" lon="0.09476">
        <ele>312.4</ele>
        <time>2022-09-06T14:23:26Z</time>
      </trkpt>
      <trkpt lat="43.21015" lon="0.09461">
        <ele>312</ele>
        <time>2022-09-06T14:23:37Z</time>
      </trkpt>
      <trkpt lat="43.21033" lon="0.09454">
        <ele>311.8</ele>
        <time>2022-09-06T14:23:41Z</time>
      </trkpt>
      <trkpt lat="43.21047" lon="0.0945">
        <ele>311.8</ele>
        <time>2022-09-06T14:23:44Z</time>
      </trkpt>
      <trkpt lat="43.21065" lon="0.09447">
        <ele>311.4</ele>
        <time>2022-09-06T14:23:48Z</time>
      </trkpt>
      <trkpt lat="43.2107" lon="0.09438">
        <ele>311.4</ele>
        <time>2022-09-06T14:23:50Z</time>
      </trkpt>
      <trkpt lat="43.2108" lon="0.09422">
        <ele>311.2</ele>
        <time>2022-09-06T14:23:54Z</time>
      </trkpt>
      <trkpt lat="43.21084" lon="0.09401">
        <ele>311</ele>
        <time>2022-09-06T14:23:59Z</time>
      </trkpt>
      <trkpt lat="43.21088" lon="0.09376">
        <ele>310.6</ele>
        <time>2022-09-06T14:24:05Z</time>
      </trkpt>
      <trkpt lat="43.21089" lon="0.09372">
        <ele>310.6</ele>
        <time>2022-09-06T14:24:06Z</time>
      </trkpt>
      <trkpt lat="43.2109" lon="0.09348">
        <ele>310.2</ele>
        <time>2022-09-06T14:24:12Z</time>
      </trkpt>
      <trkpt lat="43.2109" lon="0.09325">
        <ele>310</ele>
        <time>2022-09-06T14:24:19Z</time>
      </trkpt>
      <trkpt lat="43.21093" lon="0.09306">
        <ele>309.6</ele>
        <time>2022-09-06T14:24:26Z</time>
      </trkpt>
      <trkpt lat="43.21089" lon="0.0929">
        <ele>309.6</ele>
        <time>2022-09-06T14:24:32Z</time>
      </trkpt>
      <trkpt lat="43.21095" lon="0.09282">
        <ele>309.2</ele>
        <time>2022-09-06T14:24:36Z</time>
      </trkpt>
      <trkpt lat="43.21098" lon="0.0928">
        <ele>309.2</ele>
        <time>2022-09-06T14:24:37Z</time>
      </trkpt>
      <trkpt lat="43.21111" lon="0.09276">
        <ele>309.4</ele>
        <time>2022-09-06T14:24:42Z</time>
      </trkpt>
      <trkpt lat="43.21124" lon="0.09277">
        <ele>309.2</ele>
        <time>2022-09-06T14:24:47Z</time>
      </trkpt>
      <trkpt lat="43.21133" lon="0.0928">
        <ele>309</ele>
        <time>2022-09-06T14:24:52Z</time>
      </trkpt>
      <trkpt lat="43.21144" lon="0.09285">
        <ele>308.8</ele>
        <time>2022-09-06T14:24:58Z</time>
      </trkpt>
      <trkpt lat="43.21156" lon="0.09282">
        <ele>309.2</ele>
        <time>2022-09-06T14:25:04Z</time>
      </trkpt>
      <trkpt lat="43.21166" lon="0.09267">
        <ele>309.6</ele>
        <time>2022-09-06T14:25:09Z</time>
      </trkpt>
      <trkpt lat="43.21172" lon="0.09252">
        <ele>308.6</ele>
        <time>2022-09-06T14:25:12Z</time>
      </trkpt>
      <trkpt lat="43.21173" lon="0.09246">
        <ele>308.4</ele>
        <time>2022-09-06T14:25:13Z</time>
      </trkpt>
      <trkpt lat="43.21177" lon="0.09229">
        <ele>307.6</ele>
        <time>2022-09-06T14:25:16Z</time>
      </trkpt>
      <trkpt lat="43.21179" lon="0.09224">
        <ele>307.6</ele>
        <time>2022-09-06T14:25:17Z</time>
      </trkpt>
      <trkpt lat="43.21184" lon="0.09216">
        <ele>308</ele>
        <time>2022-09-06T14:25:19Z</time>
      </trkpt>
      <trkpt lat="43.21193" lon="0.09207">
        <ele>307.8</ele>
        <time>2022-09-06T14:25:22Z</time>
      </trkpt>
      <trkpt lat="43.21202" lon="0.09199">
        <ele>308.6</ele>
        <time>2022-09-06T14:25:25Z</time>
      </trkpt>
      <trkpt lat="43.21221" lon="0.09187">
        <ele>308</ele>
        <time>2022-09-06T14:25:31Z</time>
      </trkpt>
      <trkpt lat="43.21237" lon="0.09175">
        <ele>307.6</ele>
        <time>2022-09-06T14:25:36Z</time>
      </trkpt>
      <trkpt lat="43.21241" lon="0.09173">
        <ele>307.2</ele>
        <time>2022-09-06T14:25:37Z</time>
      </trkpt>
      <trkpt lat="43.2125" lon="0.09173">
        <ele>306.4</ele>
        <time>2022-09-06T14:25:39Z</time>
      </trkpt>
      <trkpt lat="43.21264" lon="0.09172">
        <ele>306.2</ele>
        <time>2022-09-06T14:25:42Z</time>
      </trkpt>
      <trkpt lat="43.21297" lon="0.0917">
        <ele>306</ele>
        <time>2022-09-06T14:25:49Z</time>
      </trkpt>
      <trkpt lat="43.21328" lon="0.09164">
        <ele>305.6</ele>
        <time>2022-09-06T14:25:55Z</time>
      </trkpt>
      <trkpt lat="43.21333" lon="0.09164">
        <ele>305.4</ele>
        <time>2022-09-06T14:25:56Z</time>
      </trkpt>
      <trkpt lat="43.21342" lon="0.09163">
        <ele>305.4</ele>
        <time>2022-09-06T14:25:58Z</time>
      </trkpt>
      <trkpt lat="43.21357" lon="0.09165">
        <ele>305.4</ele>
        <time>2022-09-06T14:26:01Z</time>
      </trkpt>
      <trkpt lat="43.21361" lon="0.09167">
        <ele>305.4</ele>
        <time>2022-09-06T14:26:02Z</time>
      </trkpt>
      <trkpt lat="43.21387" lon="0.09175">
        <ele>304.6</ele>
        <time>2022-09-06T14:26:07Z</time>
      </trkpt>
      <trkpt lat="43.21414" lon="0.09185">
        <ele>304.8</ele>
        <time>2022-09-06T14:26:13Z</time>
      </trkpt>
      <trkpt lat="43.21422" lon="0.09191">
        <ele>304.6</ele>
        <time>2022-09-06T14:26:15Z</time>
      </trkpt>
      <trkpt lat="43.21426" lon="0.09195">
        <ele>304.4</ele>
        <time>2022-09-06T14:26:16Z</time>
      </trkpt>
      <trkpt lat="43.21464" lon="0.09223">
        <ele>303.8</ele>
        <time>2022-09-06T14:26:25Z</time>
      </trkpt>
      <trkpt lat="43.2149" lon="0.09251">
        <ele>303.8</ele>
        <time>2022-09-06T14:26:32Z</time>
      </trkpt>
      <trkpt lat="43.21502" lon="0.0926">
        <ele>303.8</ele>
        <time>2022-09-06T14:26:35Z</time>
      </trkpt>
      <trkpt lat="43.21511" lon="0.09265">
        <ele>303.6</ele>
        <time>2022-09-06T14:26:37Z</time>
      </trkpt>
      <trkpt lat="43.21515" lon="0.09268">
        <ele>303.6</ele>
        <time>2022-09-06T14:26:38Z</time>
      </trkpt>
      <trkpt lat="43.21527" lon="0.09278">
        <ele>303.4</ele>
        <time>2022-09-06T14:26:41Z</time>
      </trkpt>
      <trkpt lat="43.21531" lon="0.0928">
        <ele>303.4</ele>
        <time>2022-09-06T14:26:42Z</time>
      </trkpt>
      <trkpt lat="43.21546" lon="0.09297">
        <ele>303.2</ele>
        <time>2022-09-06T14:26:46Z</time>
      </trkpt>
      <trkpt lat="43.21559" lon="0.09312">
        <ele>303.4</ele>
        <time>2022-09-06T14:26:50Z</time>
      </trkpt>
      <trkpt lat="43.2157" lon="0.09321">
        <ele>303.6</ele>
        <time>2022-09-06T14:26:53Z</time>
      </trkpt>
      <trkpt lat="43.21599" lon="0.09345">
        <ele>303.6</ele>
        <time>2022-09-06T14:27:01Z</time>
      </trkpt>
      <trkpt lat="43.21621" lon="0.09357">
        <ele>304</ele>
        <time>2022-09-06T14:27:07Z</time>
      </trkpt>
      <trkpt lat="43.21644" lon="0.09374">
        <ele>303.8</ele>
        <time>2022-09-06T14:27:13Z</time>
      </trkpt>
      <trkpt lat="43.21679" lon="0.09394">
        <ele>303</ele>
        <time>2022-09-06T14:27:20Z</time>
      </trkpt>
      <trkpt lat="43.21689" lon="0.09399">
        <ele>303.2</ele>
        <time>2022-09-06T14:27:22Z</time>
      </trkpt>
      <trkpt lat="43.21706" lon="0.09403">
        <ele>303.4</ele>
        <time>2022-09-06T14:27:25Z</time>
      </trkpt>
      <trkpt lat="43.21711" lon="0.09403">
        <ele>303.4</ele>
        <time>2022-09-06T14:27:26Z</time>
      </trkpt>
      <trkpt lat="43.21742" lon="0.0941">
        <ele>304.2</ele>
        <time>2022-09-06T14:27:32Z</time>
      </trkpt>
      <trkpt lat="43.2176" lon="0.09414">
        <ele>304.4</ele>
        <time>2022-09-06T14:27:36Z</time>
      </trkpt>
      <trkpt lat="43.21777" lon="0.09416">
        <ele>305.2</ele>
        <time>2022-09-06T14:27:40Z</time>
      </trkpt>
      <trkpt lat="43.21785" lon="0.09415">
        <ele>305.4</ele>
        <time>2022-09-06T14:27:42Z</time>
      </trkpt>
      <trkpt lat="43.21799" lon="0.09415">
        <ele>305.4</ele>
        <time>2022-09-06T14:27:46Z</time>
      </trkpt>
      <trkpt lat="43.21825" lon="0.09415">
        <ele>305.2</ele>
        <time>2022-09-06T14:27:54Z</time>
      </trkpt>
      <trkpt lat="43.2185" lon="0.09417">
        <ele>304.8</ele>
        <time>2022-09-06T14:28:00Z</time>
      </trkpt>
      <trkpt lat="43.21864" lon="0.09416">
        <ele>304.4</ele>
        <time>2022-09-06T14:28:03Z</time>
      </trkpt>
      <trkpt lat="43.21879" lon="0.09416">
        <ele>303.8</ele>
        <time>2022-09-06T14:28:06Z</time>
      </trkpt>
      <trkpt lat="43.21909" lon="0.09422">
        <ele>303.2</ele>
        <time>2022-09-06T14:28:11Z</time>
      </trkpt>
      <trkpt lat="43.21934" lon="0.09425">
        <ele>302.4</ele>
        <time>2022-09-06T14:28:15Z</time>
      </trkpt>
      <trkpt lat="43.2194" lon="0.09424">
        <ele>302</ele>
        <time>2022-09-06T14:28:16Z</time>
      </trkpt>
      <trkpt lat="43.21972" lon="0.09418">
        <ele>300.8</ele>
        <time>2022-09-06T14:28:21Z</time>
      </trkpt>
      <trkpt lat="43.21986" lon="0.09415">
        <ele>299.6</ele>
        <time>2022-09-06T14:28:24Z</time>
      </trkpt>
      <trkpt lat="43.21995" lon="0.09414">
        <ele>299.2</ele>
        <time>2022-09-06T14:28:26Z</time>
      </trkpt>
      <trkpt lat="43.22017" lon="0.09404">
        <ele>299</ele>
        <time>2022-09-06T14:28:33Z</time>
      </trkpt>
      <trkpt lat="43.22028" lon="0.09398">
        <ele>299</ele>
        <time>2022-09-06T14:28:40Z</time>
      </trkpt>
      <trkpt lat="43.22024" lon="0.094">
        <ele>298.8</ele>
        <time>2022-09-06T14:29:32Z</time>
      </trkpt>
      <trkpt lat="43.22011" lon="0.09408">
        <ele>299</ele>
        <time>2022-09-06T14:29:38Z</time>
      </trkpt>
      <trkpt lat="43.21986" lon="0.09415">
        <ele>299.4</ele>
        <time>2022-09-06T14:29:46Z</time>
      </trkpt>
      <trkpt lat="43.21971" lon="0.09419">
        <ele>299.8</ele>
        <time>2022-09-06T14:29:52Z</time>
      </trkpt>
      <trkpt lat="43.21954" lon="0.09427">
        <ele>300.4</ele>
        <time>2022-09-06T14:34:51Z</time>
      </trkpt>
      <trkpt lat="43.21949" lon="0.09427">
        <ele>300.6</ele>
        <time>2022-09-06T14:34:53Z</time>
      </trkpt>
      <trkpt lat="43.21933" lon="0.09429">
        <ele>301.2</ele>
        <time>2022-09-06T14:34:59Z</time>
      </trkpt>
      <trkpt lat="43.21924" lon="0.09428">
        <ele>301.8</ele>
        <time>2022-09-06T14:35:02Z</time>
      </trkpt>
      <trkpt lat="43.21913" lon="0.09426">
        <ele>302.2</ele>
        <time>2022-09-06T14:35:06Z</time>
      </trkpt>
      <trkpt lat="43.21899" lon="0.09423">
        <ele>302.8</ele>
        <time>2022-09-06T14:35:11Z</time>
      </trkpt>
      <trkpt lat="43.21894" lon="0.09422">
        <ele>303</ele>
        <time>2022-09-06T14:35:13Z</time>
      </trkpt>
      <trkpt lat="43.21875" lon="0.09418">
        <ele>303.8</ele>
        <time>2022-09-06T14:35:20Z</time>
      </trkpt>
      <trkpt lat="43.21872" lon="0.09417">
        <ele>303.8</ele>
        <time>2022-09-06T14:35:21Z</time>
      </trkpt>
      <trkpt lat="43.21856" lon="0.09419">
        <ele>304.8</ele>
        <time>2022-09-06T14:35:27Z</time>
      </trkpt>
      <trkpt lat="43.21853" lon="0.09419">
        <ele>304.8</ele>
        <time>2022-09-06T14:35:28Z</time>
      </trkpt>
      <trkpt lat="43.21834" lon="0.09416">
        <ele>305.2</ele>
        <time>2022-09-06T14:35:35Z</time>
      </trkpt>
      <trkpt lat="43.21824" lon="0.09415">
        <ele>306</ele>
        <time>2022-09-06T14:35:39Z</time>
      </trkpt>
      <trkpt lat="43.21814" lon="0.09414">
        <ele>306</ele>
        <time>2022-09-06T14:35:43Z</time>
      </trkpt>
      <trkpt lat="43.21794" lon="0.09415">
        <ele>305.8</ele>
        <time>2022-09-06T14:35:50Z</time>
      </trkpt>
      <trkpt lat="43.21765" lon="0.09415">
        <ele>305.6</ele>
        <time>2022-09-06T14:35:58Z</time>
      </trkpt>
      <trkpt lat="43.21746" lon="0.09411">
        <ele>305</ele>
        <time>2022-09-06T14:36:02Z</time>
      </trkpt>
      <trkpt lat="43.21736" lon="0.09408">
        <ele>304.6</ele>
        <time>2022-09-06T14:36:04Z</time>
      </trkpt>
      <trkpt lat="43.217" lon="0.09399">
        <ele>303.8</ele>
        <time>2022-09-06T14:36:11Z</time>
      </trkpt>
      <trkpt lat="43.21666" lon="0.09386">
        <ele>304</ele>
        <time>2022-09-06T14:36:18Z</time>
      </trkpt>
      <trkpt lat="43.2164" lon="0.09369">
        <ele>303.8</ele>
        <time>2022-09-06T14:36:24Z</time>
      </trkpt>
      <trkpt lat="43.21631" lon="0.09361">
        <ele>304.2</ele>
        <time>2022-09-06T14:36:28Z</time>
      </trkpt>
      <trkpt lat="43.21633" lon="0.09364">
        <ele>304.4</ele>
        <time>2022-09-06T14:36:38Z</time>
      </trkpt>
      <trkpt lat="43.21641" lon="0.09374">
        <ele>304.2</ele>
        <time>2022-09-06T14:36:42Z</time>
      </trkpt>
      <trkpt lat="43.21641" lon="0.09376">
        <ele>304.2</ele>
        <time>2022-09-06T14:36:43Z</time>
      </trkpt>
      <trkpt lat="43.21641" lon="0.09381">
        <ele>303.6</ele>
        <time>2022-09-06T14:36:47Z</time>
      </trkpt>
      <trkpt lat="43.21643" lon="0.09378">
        <ele>303.6</ele>
        <time>2022-09-06T14:37:16Z</time>
      </trkpt>
      <trkpt lat="43.21641" lon="0.09373">
        <ele>303.6</ele>
        <time>2022-09-06T14:37:18Z</time>
      </trkpt>
      <trkpt lat="43.21635" lon="0.09366">
        <ele>304</ele>
        <time>2022-09-06T14:37:21Z</time>
      </trkpt>
      <trkpt lat="43.21631" lon="0.09362">
        <ele>304.2</ele>
        <time>2022-09-06T14:37:23Z</time>
      </trkpt>
      <trkpt lat="43.21621" lon="0.09355">
        <ele>304.6</ele>
        <time>2022-09-06T14:37:28Z</time>
      </trkpt>
      <trkpt lat="43.21603" lon="0.09346">
        <ele>304.2</ele>
        <time>2022-09-06T14:37:34Z</time>
      </trkpt>
      <trkpt lat="43.21581" lon="0.09328">
        <ele>304.4</ele>
        <time>2022-09-06T14:37:41Z</time>
      </trkpt>
      <trkpt lat="43.21557" lon="0.09309">
        <ele>304.2</ele>
        <time>2022-09-06T14:37:49Z</time>
      </trkpt>
      <trkpt lat="43.21537" lon="0.09288">
        <ele>304</ele>
        <time>2022-09-06T14:37:56Z</time>
      </trkpt>
      <trkpt lat="43.21521" lon="0.09266">
        <ele>304</ele>
        <time>2022-09-06T14:38:03Z</time>
      </trkpt>
      <trkpt lat="43.21515" lon="0.09264">
        <ele>304</ele>
        <time>2022-09-06T14:38:04Z</time>
      </trkpt>
      <trkpt lat="43.21507" lon="0.09263">
        <ele>303.8</ele>
        <time>2022-09-06T14:38:06Z</time>
      </trkpt>
      <trkpt lat="43.21499" lon="0.09273">
        <ele>304</ele>
        <time>2022-09-06T14:38:10Z</time>
      </trkpt>
      <trkpt lat="43.21497" lon="0.09278">
        <ele>304.2</ele>
        <time>2022-09-06T14:38:12Z</time>
      </trkpt>
      <trkpt lat="43.21489" lon="0.0929">
        <ele>304.4</ele>
        <time>2022-09-06T14:38:16Z</time>
      </trkpt>
      <trkpt lat="43.21482" lon="0.09307">
        <ele>304.8</ele>
        <time>2022-09-06T14:38:21Z</time>
      </trkpt>
      <trkpt lat="43.21481" lon="0.0931">
        <ele>305</ele>
        <time>2022-09-06T14:38:22Z</time>
      </trkpt>
      <trkpt lat="43.21472" lon="0.09326">
        <ele>305.4</ele>
        <time>2022-09-06T14:38:27Z</time>
      </trkpt>
      <trkpt lat="43.2146" lon="0.09352">
        <ele>305.6</ele>
        <time>2022-09-06T14:38:34Z</time>
      </trkpt>
      <trkpt lat="43.21456" lon="0.09372">
        <ele>306</ele>
        <time>2022-09-06T14:38:38Z</time>
      </trkpt>
      <trkpt lat="43.21455" lon="0.09381">
        <ele>306.2</ele>
        <time>2022-09-06T14:38:40Z</time>
      </trkpt>
      <trkpt lat="43.21454" lon="0.09385">
        <ele>306.2</ele>
        <time>2022-09-06T14:38:41Z</time>
      </trkpt>
      <trkpt lat="43.21454" lon="0.09387">
        <ele>306.6</ele>
        <time>2022-09-06T14:38:42Z</time>
      </trkpt>
      <trkpt lat="43.21452" lon="0.09396">
        <ele>306.8</ele>
        <time>2022-09-06T14:38:45Z</time>
      </trkpt>
      <trkpt lat="43.21451" lon="0.09399">
        <ele>306.8</ele>
        <time>2022-09-06T14:38:46Z</time>
      </trkpt>
      <trkpt lat="43.21447" lon="0.09412">
        <ele>306.8</ele>
        <time>2022-09-06T14:38:51Z</time>
      </trkpt>
      <trkpt lat="43.21445" lon="0.09414">
        <ele>306.6</ele>
        <time>2022-09-06T14:38:52Z</time>
      </trkpt>
      <trkpt lat="43.21438" lon="0.09415">
        <ele>306.6</ele>
        <time>2022-09-06T14:38:55Z</time>
      </trkpt>
      <trkpt lat="43.21435" lon="0.09416">
        <ele>306.8</ele>
        <time>2022-09-06T14:38:56Z</time>
      </trkpt>
      <trkpt lat="43.21434" lon="0.09419">
        <ele>307</ele>
        <time>2022-09-06T14:38:57Z</time>
      </trkpt>
      <trkpt lat="43.21433" lon="0.09423">
        <ele>307</ele>
        <time>2022-09-06T14:38:58Z</time>
      </trkpt>
      <trkpt lat="43.21431" lon="0.09431">
        <ele>307</ele>
        <time>2022-09-06T14:39:00Z</time>
      </trkpt>
      <trkpt lat="43.21428" lon="0.09452">
        <ele>307</ele>
        <time>2022-09-06T14:39:04Z</time>
      </trkpt>
      <trkpt lat="43.21417" lon="0.09484">
        <ele>307.6</ele>
        <time>2022-09-06T14:39:11Z</time>
      </trkpt>
      <trkpt lat="43.21408" lon="0.095">
        <ele>308.4</ele>
        <time>2022-09-06T14:39:16Z</time>
      </trkpt>
      <trkpt lat="43.21406" lon="0.09503">
        <ele>308.6</ele>
        <time>2022-09-06T14:39:17Z</time>
      </trkpt>
      <trkpt lat="43.21397" lon="0.09516">
        <ele>309.2</ele>
        <time>2022-09-06T14:39:23Z</time>
      </trkpt>
      <trkpt lat="43.21397" lon="0.09517">
        <ele>309.4</ele>
        <time>2022-09-06T14:39:24Z</time>
      </trkpt>
      <trkpt lat="43.21397" lon="0.09522">
        <ele>309.4</ele>
        <time>2022-09-06T14:39:26Z</time>
      </trkpt>
      <trkpt lat="43.21396" lon="0.09534">
        <ele>309.4</ele>
        <time>2022-09-06T14:39:30Z</time>
      </trkpt>
      <trkpt lat="43.21393" lon="0.09538">
        <ele>309.6</ele>
        <time>2022-09-06T14:39:32Z</time>
      </trkpt>
      <trkpt lat="43.21389" lon="0.09539">
        <ele>309.6</ele>
        <time>2022-09-06T14:39:34Z</time>
      </trkpt>
      <trkpt lat="43.21385" lon="0.09539">
        <ele>309.6</ele>
        <time>2022-09-06T14:39:36Z</time>
      </trkpt>
      <trkpt lat="43.21378" lon="0.09539">
        <ele>309.8</ele>
        <time>2022-09-06T14:39:40Z</time>
      </trkpt>
      <trkpt lat="43.21369" lon="0.09539">
        <ele>310.4</ele>
        <time>2022-09-06T14:39:43Z</time>
      </trkpt>
      <trkpt lat="43.21367" lon="0.09541">
        <ele>310.4</ele>
        <time>2022-09-06T14:39:44Z</time>
      </trkpt>
      <trkpt lat="43.21364" lon="0.09545">
        <ele>310.4</ele>
        <time>2022-09-06T14:39:45Z</time>
      </trkpt>
      <trkpt lat="43.21365" lon="0.09559">
        <ele>310.4</ele>
        <time>2022-09-06T14:39:48Z</time>
      </trkpt>
      <trkpt lat="43.21374" lon="0.09568">
        <ele>310.4</ele>
        <time>2022-09-06T14:39:51Z</time>
      </trkpt>
      <trkpt lat="43.21378" lon="0.09571">
        <ele>310.2</ele>
        <time>2022-09-06T14:39:52Z</time>
      </trkpt>
      <trkpt lat="43.21384" lon="0.0958">
        <ele>310</ele>
        <time>2022-09-06T14:39:54Z</time>
      </trkpt>
      <trkpt lat="43.21406" lon="0.09632">
        <ele>311.2</ele>
        <time>2022-09-06T14:40:03Z</time>
      </trkpt>
      <trkpt lat="43.21411" lon="0.09643">
        <ele>312</ele>
        <time>2022-09-06T14:40:05Z</time>
      </trkpt>
      <trkpt lat="43.21424" lon="0.09672">
        <ele>312.2</ele>
        <time>2022-09-06T14:40:11Z</time>
      </trkpt>
      <trkpt lat="43.21433" lon="0.09699">
        <ele>313.2</ele>
        <time>2022-09-06T14:40:17Z</time>
      </trkpt>
      <trkpt lat="43.21434" lon="0.09704">
        <ele>313.4</ele>
        <time>2022-09-06T14:40:18Z</time>
      </trkpt>
      <trkpt lat="43.21444" lon="0.09719">
        <ele>313.6</ele>
        <time>2022-09-06T14:40:22Z</time>
      </trkpt>
      <trkpt lat="43.21447" lon="0.09721">
        <ele>313.6</ele>
        <time>2022-09-06T14:40:23Z</time>
      </trkpt>
      <trkpt lat="43.2146" lon="0.09722">
        <ele>314</ele>
        <time>2022-09-06T14:40:26Z</time>
      </trkpt>
      <trkpt lat="43.21468" lon="0.0972">
        <ele>313.6</ele>
        <time>2022-09-06T14:40:28Z</time>
      </trkpt>
      <trkpt lat="43.21495" lon="0.09711">
        <ele>313.4</ele>
        <time>2022-09-06T14:40:34Z</time>
      </trkpt>
      <trkpt lat="43.21541" lon="0.09699">
        <ele>313.2</ele>
        <time>2022-09-06T14:40:44Z</time>
      </trkpt>
      <trkpt lat="43.21569" lon="0.09688">
        <ele>313.2</ele>
        <time>2022-09-06T14:40:51Z</time>
      </trkpt>
      <trkpt lat="43.21599" lon="0.09676">
        <ele>313.8</ele>
        <time>2022-09-06T14:40:57Z</time>
      </trkpt>
      <trkpt lat="43.2165" lon="0.09646">
        <ele>312.8</ele>
        <time>2022-09-06T14:41:06Z</time>
      </trkpt>
      <trkpt lat="43.21684" lon="0.09626">
        <ele>312.2</ele>
        <time>2022-09-06T14:41:12Z</time>
      </trkpt>
      <trkpt lat="43.21712" lon="0.09611">
        <ele>311.8</ele>
        <time>2022-09-06T14:41:17Z</time>
      </trkpt>
      <trkpt lat="43.21747" lon="0.09596">
        <ele>311.8</ele>
        <time>2022-09-06T14:41:23Z</time>
      </trkpt>
      <trkpt lat="43.21784" lon="0.09586">
        <ele>311</ele>
        <time>2022-09-06T14:41:29Z</time>
      </trkpt>
      <trkpt lat="43.21796" lon="0.09583">
        <ele>310.6</ele>
        <time>2022-09-06T14:41:31Z</time>
      </trkpt>
      <trkpt lat="43.21845" lon="0.09578">
        <ele>310.4</ele>
        <time>2022-09-06T14:41:39Z</time>
      </trkpt>
      <trkpt lat="43.21858" lon="0.09577">
        <ele>309.6</ele>
        <time>2022-09-06T14:41:41Z</time>
      </trkpt>
      <trkpt lat="43.21907" lon="0.09574">
        <ele>309.4</ele>
        <time>2022-09-06T14:41:49Z</time>
      </trkpt>
      <trkpt lat="43.21925" lon="0.09582">
        <ele>309.6</ele>
        <time>2022-09-06T14:41:52Z</time>
      </trkpt>
      <trkpt lat="43.21937" lon="0.09582">
        <ele>309</ele>
        <time>2022-09-06T14:41:54Z</time>
      </trkpt>
      <trkpt lat="43.21954" lon="0.09569">
        <ele>308.6</ele>
        <time>2022-09-06T14:41:57Z</time>
      </trkpt>
      <trkpt lat="43.21965" lon="0.0956">
        <ele>308.4</ele>
        <time>2022-09-06T14:41:59Z</time>
      </trkpt>
      <trkpt lat="43.21986" lon="0.09553">
        <ele>307.4</ele>
        <time>2022-09-06T14:42:02Z</time>
      </trkpt>
      <trkpt lat="43.21993" lon="0.09552">
        <ele>307.8</ele>
        <time>2022-09-06T14:42:03Z</time>
      </trkpt>
      <trkpt lat="43.22029" lon="0.09539">
        <ele>306.8</ele>
        <time>2022-09-06T14:42:08Z</time>
      </trkpt>
      <trkpt lat="43.22043" lon="0.09534">
        <ele>306.4</ele>
        <time>2022-09-06T14:42:10Z</time>
      </trkpt>
      <trkpt lat="43.22079" lon="0.09522">
        <ele>306</ele>
        <time>2022-09-06T14:42:15Z</time>
      </trkpt>
      <trkpt lat="43.22093" lon="0.09517">
        <ele>305.2</ele>
        <time>2022-09-06T14:42:17Z</time>
      </trkpt>
      <trkpt lat="43.22141" lon="0.09502">
        <ele>304.6</ele>
        <time>2022-09-06T14:42:24Z</time>
      </trkpt>
      <trkpt lat="43.22166" lon="0.09493">
        <ele>304.2</ele>
        <time>2022-09-06T14:42:28Z</time>
      </trkpt>
      <trkpt lat="43.22185" lon="0.09486">
        <ele>303.6</ele>
        <time>2022-09-06T14:42:31Z</time>
      </trkpt>
      <trkpt lat="43.22228" lon="0.09473">
        <ele>303.8</ele>
        <time>2022-09-06T14:42:38Z</time>
      </trkpt>
      <trkpt lat="43.22284" lon="0.09454">
        <ele>303.8</ele>
        <time>2022-09-06T14:42:47Z</time>
      </trkpt>
      <trkpt lat="43.22289" lon="0.09452">
        <ele>303.8</ele>
        <time>2022-09-06T14:42:48Z</time>
      </trkpt>
      <trkpt lat="43.22324" lon="0.09442">
        <ele>303</ele>
        <time>2022-09-06T14:42:54Z</time>
      </trkpt>
      <trkpt lat="43.22334" lon="0.0944">
        <ele>303.2</ele>
        <time>2022-09-06T14:42:56Z</time>
      </trkpt>
      <trkpt lat="43.22354" lon="0.09436">
        <ele>303</ele>
        <time>2022-09-06T14:43:00Z</time>
      </trkpt>
      <trkpt lat="43.22364" lon="0.09436">
        <ele>303</ele>
        <time>2022-09-06T14:43:02Z</time>
      </trkpt>
      <trkpt lat="43.22387" lon="0.09441">
        <ele>303.4</ele>
        <time>2022-09-06T14:43:07Z</time>
      </trkpt>
      <trkpt lat="43.22391" lon="0.0944">
        <ele>303.4</ele>
        <time>2022-09-06T14:43:08Z</time>
      </trkpt>
      <trkpt lat="43.224" lon="0.09427">
        <ele>303.8</ele>
        <time>2022-09-06T14:43:11Z</time>
      </trkpt>
      <trkpt lat="43.22396" lon="0.09408">
        <ele>303.2</ele>
        <time>2022-09-06T14:43:14Z</time>
      </trkpt>
      <trkpt lat="43.22389" lon="0.09377">
        <ele>302.8</ele>
        <time>2022-09-06T14:43:18Z</time>
      </trkpt>
      <trkpt lat="43.22387" lon="0.09369">
        <ele>302.6</ele>
        <time>2022-09-06T14:43:19Z</time>
      </trkpt>
      <trkpt lat="43.22375" lon="0.09331">
        <ele>302</ele>
        <time>2022-09-06T14:43:24Z</time>
      </trkpt>
      <trkpt lat="43.22372" lon="0.09323">
        <ele>301.8</ele>
        <time>2022-09-06T14:43:25Z</time>
      </trkpt>
      <trkpt lat="43.22352" lon="0.09274">
        <ele>301.6</ele>
        <time>2022-09-06T14:43:32Z</time>
      </trkpt>
      <trkpt lat="43.22332" lon="0.09224">
        <ele>301.2</ele>
        <time>2022-09-06T14:43:40Z</time>
      </trkpt>
      <trkpt lat="43.22317" lon="0.09187">
        <ele>301.4</ele>
        <time>2022-09-06T14:43:47Z</time>
      </trkpt>
      <trkpt lat="43.22317" lon="0.09182">
        <ele>301.2</ele>
        <time>2022-09-06T14:43:48Z</time>
      </trkpt>
      <trkpt lat="43.22319" lon="0.09179">
        <ele>300.8</ele>
        <time>2022-09-06T14:43:49Z</time>
      </trkpt>
      <trkpt lat="43.22322" lon="0.09178">
        <ele>300.4</ele>
        <time>2022-09-06T14:43:50Z</time>
      </trkpt>
      <trkpt lat="43.22329" lon="0.09184">
        <ele>299.8</ele>
        <time>2022-09-06T14:43:53Z</time>
      </trkpt>
      <trkpt lat="43.22339" lon="0.0918">
        <ele>299.6</ele>
        <time>2022-09-06T14:43:57Z</time>
      </trkpt>
      <trkpt lat="43.22357" lon="0.09173">
        <ele>299.6</ele>
        <time>2022-09-06T14:49:38Z</time>
      </trkpt>
      <trkpt lat="43.22361" lon="0.09169">
        <ele>299.6</ele>
        <time>2022-09-06T14:49:40Z</time>
      </trkpt>
      <trkpt lat="43.22373" lon="0.09162">
        <ele>300</ele>
        <time>2022-09-06T14:49:44Z</time>
      </trkpt>
      <trkpt lat="43.22397" lon="0.09156">
        <ele>299.6</ele>
        <time>2022-09-06T14:49:51Z</time>
      </trkpt>
      <trkpt lat="43.22413" lon="0.0915">
        <ele>299.4</ele>
        <time>2022-09-06T14:49:56Z</time>
      </trkpt>
      <trkpt lat="43.22432" lon="0.09143">
        <ele>299.2</ele>
        <time>2022-09-06T14:50:02Z</time>
      </trkpt>
      <trkpt lat="43.22449" lon="0.09136">
        <ele>299.6</ele>
        <time>2022-09-06T14:50:08Z</time>
      </trkpt>
      <trkpt lat="43.2247" lon="0.09127">
        <ele>299.4</ele>
        <time>2022-09-06T14:50:15Z</time>
      </trkpt>
      <trkpt lat="43.2249" lon="0.09118">
        <ele>298.8</ele>
        <time>2022-09-06T14:50:21Z</time>
      </trkpt>
      <trkpt lat="43.22512" lon="0.09109">
        <ele>298.6</ele>
        <time>2022-09-06T14:50:27Z</time>
      </trkpt>
      <trkpt lat="43.2252" lon="0.09106">
        <ele>298.6</ele>
        <time>2022-09-06T14:50:29Z</time>
      </trkpt>
      <trkpt lat="43.22548" lon="0.09093">
        <ele>298.6</ele>
        <time>2022-09-06T14:50:37Z</time>
      </trkpt>
      <trkpt lat="43.22581" lon="0.09079">
        <ele>298.2</ele>
        <time>2022-09-06T14:50:46Z</time>
      </trkpt>
      <trkpt lat="43.22604" lon="0.0907">
        <ele>298.4</ele>
        <time>2022-09-06T14:50:52Z</time>
      </trkpt>
      <trkpt lat="43.22631" lon="0.09059">
        <ele>298.2</ele>
        <time>2022-09-06T14:50:59Z</time>
      </trkpt>
      <trkpt lat="43.22661" lon="0.09045">
        <ele>297.8</ele>
        <time>2022-09-06T14:51:07Z</time>
      </trkpt>
      <trkpt lat="43.22674" lon="0.09039">
        <ele>297.4</ele>
        <time>2022-09-06T14:51:11Z</time>
      </trkpt>
      <trkpt lat="43.22683" lon="0.09034">
        <ele>297.2</ele>
        <time>2022-09-06T14:51:14Z</time>
      </trkpt>
      <trkpt lat="43.22697" lon="0.09028">
        <ele>297</ele>
        <time>2022-09-06T14:51:20Z</time>
      </trkpt>
      <trkpt lat="43.22708" lon="0.09023">
        <ele>297.2</ele>
        <time>2022-09-06T14:51:26Z</time>
      </trkpt>
      <trkpt lat="43.22722" lon="0.09016">
        <ele>297.2</ele>
        <time>2022-09-06T14:51:32Z</time>
      </trkpt>
      <trkpt lat="43.22745" lon="0.09008">
        <ele>297</ele>
        <time>2022-09-06T14:51:39Z</time>
      </trkpt>
      <trkpt lat="43.22758" lon="0.09004">
        <ele>296.4</ele>
        <time>2022-09-06T14:51:42Z</time>
      </trkpt>
      <trkpt lat="43.22762" lon="0.09002">
        <ele>296</ele>
        <time>2022-09-06T14:51:43Z</time>
      </trkpt>
      <trkpt lat="43.22772" lon="0.08997">
        <ele>296</ele>
        <time>2022-09-06T14:51:45Z</time>
      </trkpt>
      <trkpt lat="43.22797" lon="0.08987">
        <ele>295.4</ele>
        <time>2022-09-06T14:51:50Z</time>
      </trkpt>
      <trkpt lat="43.22808" lon="0.08984">
        <ele>295.4</ele>
        <time>2022-09-06T14:51:52Z</time>
      </trkpt>
      <trkpt lat="43.22847" lon="0.08972">
        <ele>294.8</ele>
        <time>2022-09-06T14:51:59Z</time>
      </trkpt>
      <trkpt lat="43.22869" lon="0.08966">
        <ele>294.4</ele>
        <time>2022-09-06T14:52:03Z</time>
      </trkpt>
      <trkpt lat="43.22889" lon="0.0896">
        <ele>293.8</ele>
        <time>2022-09-06T14:52:07Z</time>
      </trkpt>
      <trkpt lat="43.22918" lon="0.08943">
        <ele>293.8</ele>
        <time>2022-09-06T14:52:13Z</time>
      </trkpt>
      <trkpt lat="43.2293" lon="0.08931">
        <ele>293.6</ele>
        <time>2022-09-06T14:52:16Z</time>
      </trkpt>
      <trkpt lat="43.22944" lon="0.08915">
        <ele>293.8</ele>
        <time>2022-09-06T14:52:20Z</time>
      </trkpt>
      <trkpt lat="43.22958" lon="0.08882">
        <ele>293.8</ele>
        <time>2022-09-06T14:52:27Z</time>
      </trkpt>
      <trkpt lat="43.22959" lon="0.08857">
        <ele>293.8</ele>
        <time>2022-09-06T14:52:32Z</time>
      </trkpt>
      <trkpt lat="43.22957" lon="0.0885">
        <ele>293.6</ele>
        <time>2022-09-06T14:52:36Z</time>
      </trkpt>
      <trkpt lat="43.22956" lon="0.08859">
        <ele>293.8</ele>
        <time>2022-09-06T14:52:40Z</time>
      </trkpt>
      <trkpt lat="43.22967" lon="0.08869">
        <ele>293.8</ele>
        <time>2022-09-06T14:52:45Z</time>
      </trkpt>
      <trkpt lat="43.22974" lon="0.08855">
        <ele>294</ele>
        <time>2022-09-06T14:52:49Z</time>
      </trkpt>
      <trkpt lat="43.22985" lon="0.08828">
        <ele>294</ele>
        <time>2022-09-06T14:52:56Z</time>
      </trkpt>
      <trkpt lat="43.22988" lon="0.08819">
        <ele>294</ele>
        <time>2022-09-06T14:52:59Z</time>
      </trkpt>
      <trkpt lat="43.22987" lon="0.08813">
        <ele>294.4</ele>
        <time>2022-09-06T14:53:01Z</time>
      </trkpt>
      <trkpt lat="43.22983" lon="0.08806">
        <ele>294.4</ele>
        <time>2022-09-06T14:53:06Z</time>
      </trkpt>
      <trkpt lat="43.22981" lon="0.08802">
        <ele>294.4</ele>
        <time>2022-09-06T14:53:15Z</time>
      </trkpt>
      <trkpt lat="43.2298" lon="0.08796">
        <ele>294.6</ele>
        <time>2022-09-06T14:53:17Z</time>
      </trkpt>
      <trkpt lat="43.22978" lon="0.08792">
        <ele>294.8</ele>
        <time>2022-09-06T14:53:19Z</time>
      </trkpt>
      <trkpt lat="43.22972" lon="0.08792">
        <ele>294.8</ele>
        <time>2022-09-06T14:53:21Z</time>
      </trkpt>
      <trkpt lat="43.22966" lon="0.08794">
        <ele>294.8</ele>
        <time>2022-09-06T14:53:23Z</time>
      </trkpt>
      <trkpt lat="43.22951" lon="0.088">
        <ele>295</ele>
        <time>2022-09-06T14:53:27Z</time>
      </trkpt>
      <trkpt lat="43.22927" lon="0.08815">
        <ele>295.4</ele>
        <time>2022-09-06T14:53:34Z</time>
      </trkpt>
      <trkpt lat="43.22924" lon="0.08818">
        <ele>295.4</ele>
        <time>2022-09-06T14:53:35Z</time>
      </trkpt>
      <trkpt lat="43.22902" lon="0.08834">
        <ele>296.6</ele>
        <time>2022-09-06T14:53:42Z</time>
      </trkpt>
      <trkpt lat="43.22899" lon="0.08835">
        <ele>296.6</ele>
        <time>2022-09-06T14:53:43Z</time>
      </trkpt>
      <trkpt lat="43.22885" lon="0.0883">
        <ele>296.8</ele>
        <time>2022-09-06T14:53:48Z</time>
      </trkpt>
      <trkpt lat="43.22872" lon="0.08817">
        <ele>297.2</ele>
        <time>2022-09-06T14:53:52Z</time>
      </trkpt>
      <trkpt lat="43.22868" lon="0.08807">
        <ele>297</ele>
        <time>2022-09-06T14:53:54Z</time>
      </trkpt>
      <trkpt lat="43.22864" lon="0.08784">
        <ele>297</ele>
        <time>2022-09-06T14:53:58Z</time>
      </trkpt>
      <trkpt lat="43.22863" lon="0.08778">
        <ele>297</ele>
        <time>2022-09-06T14:53:59Z</time>
      </trkpt>
      <trkpt lat="43.2286" lon="0.08727">
        <ele>297.4</ele>
        <time>2022-09-06T14:54:07Z</time>
      </trkpt>
      <trkpt lat="43.2286" lon="0.08679">
        <ele>296.8</ele>
        <time>2022-09-06T14:54:16Z</time>
      </trkpt>
      <trkpt lat="43.22862" lon="0.08646">
        <ele>296.8</ele>
        <time>2022-09-06T14:54:23Z</time>
      </trkpt>
      <trkpt lat="43.22865" lon="0.08606">
        <ele>297</ele>
        <time>2022-09-06T14:54:29Z</time>
      </trkpt>
      <trkpt lat="43.22869" lon="0.08577">
        <ele>296.8</ele>
        <time>2022-09-06T14:54:33Z</time>
      </trkpt>
      <trkpt lat="43.22872" lon="0.08563">
        <ele>296.4</ele>
        <time>2022-09-06T14:54:35Z</time>
      </trkpt>
      <trkpt lat="43.22884" lon="0.08526">
        <ele>296.4</ele>
        <time>2022-09-06T14:54:41Z</time>
      </trkpt>
      <trkpt lat="43.22894" lon="0.08506">
        <ele>296.2</ele>
        <time>2022-09-06T14:54:46Z</time>
      </trkpt>
      <trkpt lat="43.22902" lon="0.08498">
        <ele>296</ele>
        <time>2022-09-06T14:54:51Z</time>
      </trkpt>
      <trkpt lat="43.22912" lon="0.08492">
        <ele>295.8</ele>
        <time>2022-09-06T14:54:56Z</time>
      </trkpt>
      <trkpt lat="43.22917" lon="0.08488">
        <ele>295.6</ele>
        <time>2022-09-06T14:54:59Z</time>
      </trkpt>
      <trkpt lat="43.2292" lon="0.08486">
        <ele>295.4</ele>
        <time>2022-09-06T14:55:00Z</time>
      </trkpt>
      <trkpt lat="43.22928" lon="0.0847">
        <ele>295.8</ele>
        <time>2022-09-06T14:55:04Z</time>
      </trkpt>
      <trkpt lat="43.22929" lon="0.08464">
        <ele>296</ele>
        <time>2022-09-06T14:55:05Z</time>
      </trkpt>
      <trkpt lat="43.22925" lon="0.08445">
        <ele>296</ele>
        <time>2022-09-06T14:55:08Z</time>
      </trkpt>
      <trkpt lat="43.22923" lon="0.08438">
        <ele>296.4</ele>
        <time>2022-09-06T14:55:09Z</time>
      </trkpt>
      <trkpt lat="43.2292" lon="0.08426">
        <ele>296.8</ele>
        <time>2022-09-06T14:55:11Z</time>
      </trkpt>
      <trkpt lat="43.2291" lon="0.08394">
        <ele>296.6</ele>
        <time>2022-09-06T14:55:16Z</time>
      </trkpt>
      <trkpt lat="43.22897" lon="0.08351">
        <ele>296.4</ele>
        <time>2022-09-06T14:55:23Z</time>
      </trkpt>
      <trkpt lat="43.22886" lon="0.08315">
        <ele>296.8</ele>
        <time>2022-09-06T14:55:29Z</time>
      </trkpt>
      <trkpt lat="43.22885" lon="0.0831">
        <ele>296.8</ele>
        <time>2022-09-06T14:55:30Z</time>
      </trkpt>
      <trkpt lat="43.22885" lon="0.08291">
        <ele>296.8</ele>
        <time>2022-09-06T14:55:33Z</time>
      </trkpt>
      <trkpt lat="43.22886" lon="0.08278">
        <ele>297</ele>
        <time>2022-09-06T14:55:35Z</time>
      </trkpt>
      <trkpt lat="43.22887" lon="0.08272">
        <ele>297</ele>
        <time>2022-09-06T14:55:36Z</time>
      </trkpt>
      <trkpt lat="43.22888" lon="0.08252">
        <ele>296.6</ele>
        <time>2022-09-06T14:55:39Z</time>
      </trkpt>
      <trkpt lat="43.22891" lon="0.08234">
        <ele>296.4</ele>
        <time>2022-09-06T14:55:42Z</time>
      </trkpt>
      <trkpt lat="43.22894" lon="0.08199">
        <ele>296.8</ele>
        <time>2022-09-06T14:55:48Z</time>
      </trkpt>
      <trkpt lat="43.22894" lon="0.08193">
        <ele>296.6</ele>
        <time>2022-09-06T14:55:49Z</time>
      </trkpt>
      <trkpt lat="43.22895" lon="0.08168">
        <ele>296.4</ele>
        <time>2022-09-06T14:55:53Z</time>
      </trkpt>
      <trkpt lat="43.22896" lon="0.0815">
        <ele>296.4</ele>
        <time>2022-09-06T14:55:56Z</time>
      </trkpt>
      <trkpt lat="43.22898" lon="0.08136">
        <ele>296</ele>
        <time>2022-09-06T14:55:59Z</time>
      </trkpt>
      <trkpt lat="43.22898" lon="0.08133">
        <ele>295.8</ele>
        <time>2022-09-06T14:56:00Z</time>
      </trkpt>
      <trkpt lat="43.22899" lon="0.08132">
        <ele>295.4</ele>
        <time>2022-09-06T14:56:02Z</time>
      </trkpt>
      <trkpt lat="43.22898" lon="0.08127">
        <ele>295.6</ele>
        <time>2022-09-06T14:56:25Z</time>
      </trkpt>
      <trkpt lat="43.22898" lon="0.0812">
        <ele>295.8</ele>
        <time>2022-09-06T14:56:27Z</time>
      </trkpt>
      <trkpt lat="43.22896" lon="0.08093">
        <ele>295.8</ele>
        <time>2022-09-06T14:56:32Z</time>
      </trkpt>
      <trkpt lat="43.22897" lon="0.08059">
        <ele>296</ele>
        <time>2022-09-06T14:56:38Z</time>
      </trkpt>
      <trkpt lat="43.22897" lon="0.08053">
        <ele>296</ele>
        <time>2022-09-06T14:56:39Z</time>
      </trkpt>
      <trkpt lat="43.22899" lon="0.08028">
        <ele>296</ele>
        <time>2022-09-06T14:56:44Z</time>
      </trkpt>
      <trkpt lat="43.22898" lon="0.08021">
        <ele>296</ele>
        <time>2022-09-06T14:56:45Z</time>
      </trkpt>
      <trkpt lat="43.229" lon="0.07977">
        <ele>296</ele>
        <time>2022-09-06T14:56:52Z</time>
      </trkpt>
      <trkpt lat="43.229" lon="0.07947">
        <ele>296.8</ele>
        <time>2022-09-06T14:56:57Z</time>
      </trkpt>
      <trkpt lat="43.22899" lon="0.07942">
        <ele>297</ele>
        <time>2022-09-06T14:56:58Z</time>
      </trkpt>
      <trkpt lat="43.22897" lon="0.07936">
        <ele>296.8</ele>
        <time>2022-09-06T14:56:59Z</time>
      </trkpt>
      <trkpt lat="43.22891" lon="0.07919">
        <ele>295.8</ele>
        <time>2022-09-06T14:57:02Z</time>
      </trkpt>
      <trkpt lat="43.22881" lon="0.07898">
        <ele>295.4</ele>
        <time>2022-09-06T14:57:06Z</time>
      </trkpt>
      <trkpt lat="43.2287" lon="0.07872">
        <ele>295.2</ele>
        <time>2022-09-06T14:57:12Z</time>
      </trkpt>
      <trkpt lat="43.22868" lon="0.07866">
        <ele>295</ele>
        <time>2022-09-06T14:57:17Z</time>
      </trkpt>
      <trkpt lat="43.22865" lon="0.07861">
        <ele>295</ele>
        <time>2022-09-06T14:57:22Z</time>
      </trkpt>
      <trkpt lat="43.22861" lon="0.07863">
        <ele>295</ele>
        <time>2022-09-06T14:57:24Z</time>
      </trkpt>
      <trkpt lat="43.22855" lon="0.07861">
        <ele>295.2</ele>
        <time>2022-09-06T14:57:28Z</time>
      </trkpt>
      <trkpt lat="43.22852" lon="0.07855">
        <ele>295</ele>
        <time>2022-09-06T14:57:31Z</time>
      </trkpt>
      <trkpt lat="43.22851" lon="0.07856">
        <ele>295</ele>
        <time>2022-09-06T14:57:34Z</time>
      </trkpt>
      <trkpt lat="43.2285" lon="0.07853">
        <ele>295.2</ele>
        <time>2022-09-06T14:57:37Z</time>
      </trkpt>
      <trkpt lat="43.2285" lon="0.07852">
        <ele>295.2</ele>
        <time>2022-09-06T14:57:38Z</time>
      </trkpt>
      <trkpt lat="43.22847" lon="0.07841">
        <ele>295</ele>
        <time>2022-09-06T14:57:42Z</time>
      </trkpt>
      <trkpt lat="43.22845" lon="0.0783">
        <ele>295</ele>
        <time>2022-09-06T14:57:46Z</time>
      </trkpt>
      <trkpt lat="43.22841" lon="0.07812">
        <ele>295</ele>
        <time>2022-09-06T14:57:53Z</time>
      </trkpt>
      <trkpt lat="43.22836" lon="0.07791">
        <ele>294.8</ele>
        <time>2022-09-06T14:58:00Z</time>
      </trkpt>
      <trkpt lat="43.22833" lon="0.07769">
        <ele>295.6</ele>
        <time>2022-09-06T15:18:09Z</time>
      </trkpt>
      <trkpt lat="43.22833" lon="0.07767">
        <ele>295.6</ele>
        <time>2022-09-06T15:18:10Z</time>
      </trkpt>
      <trkpt lat="43.22833" lon="0.07755">
        <ele>295.6</ele>
        <time>2022-09-06T15:18:15Z</time>
      </trkpt>
      <trkpt lat="43.22834" lon="0.0774">
        <ele>295.8</ele>
        <time>2022-09-06T15:18:20Z</time>
      </trkpt>
      <trkpt lat="43.22835" lon="0.07729">
        <ele>295.8</ele>
        <time>2022-09-06T15:18:25Z</time>
      </trkpt>
      <trkpt lat="43.22836" lon="0.07722">
        <ele>295.8</ele>
        <time>2022-09-06T15:18:27Z</time>
      </trkpt>
      <trkpt lat="43.22836" lon="0.07713">
        <ele>295.6</ele>
        <time>2022-09-06T15:18:29Z</time>
      </trkpt>
      <trkpt lat="43.22834" lon="0.077">
        <ele>295.6</ele>
        <time>2022-09-06T15:18:32Z</time>
      </trkpt>
      <trkpt lat="43.22835" lon="0.07691">
        <ele>295.8</ele>
        <time>2022-09-06T15:18:34Z</time>
      </trkpt>
      <trkpt lat="43.22835" lon="0.07666">
        <ele>295.8</ele>
        <time>2022-09-06T15:18:41Z</time>
      </trkpt>
      <trkpt lat="43.22834" lon="0.0765">
        <ele>295.8</ele>
        <time>2022-09-06T15:18:46Z</time>
      </trkpt>
      <trkpt lat="43.22832" lon="0.07623">
        <ele>295.6</ele>
        <time>2022-09-06T15:18:54Z</time>
      </trkpt>
      <trkpt lat="43.2283" lon="0.07601">
        <ele>295.6</ele>
        <time>2022-09-06T15:19:01Z</time>
      </trkpt>
      <trkpt lat="43.22823" lon="0.0759">
        <ele>295.6</ele>
        <time>2022-09-06T15:19:06Z</time>
      </trkpt>
      <trkpt lat="43.22808" lon="0.07578">
        <ele>295.6</ele>
        <time>2022-09-06T15:19:13Z</time>
      </trkpt>
      <trkpt lat="43.22798" lon="0.07581">
        <ele>295.6</ele>
        <time>2022-09-06T15:19:18Z</time>
      </trkpt>
      <trkpt lat="43.22793" lon="0.07573">
        <ele>295.6</ele>
        <time>2022-09-06T15:19:31Z</time>
      </trkpt>
      <trkpt lat="43.22791" lon="0.07567">
        <ele>295.6</ele>
        <time>2022-09-06T15:19:33Z</time>
      </trkpt>
      <trkpt lat="43.22789" lon="0.07558">
        <ele>295.8</ele>
        <time>2022-09-06T15:19:37Z</time>
      </trkpt>
      <trkpt lat="43.22789" lon="0.07558">
        <ele>295.6</ele>
        <time>2022-09-06T15:19:38Z</time>
      </trkpt>
      <trkpt lat="43.22789" lon="0.07551">
        <ele>295.8</ele>
        <time>2022-09-06T15:19:45Z</time>
      </trkpt>
      <trkpt lat="43.22786" lon="0.07548">
        <ele>295.8</ele>
        <time>2022-09-06T15:19:46Z</time>
      </trkpt>
      <trkpt lat="43.2277" lon="0.07531">
        <ele>295.8</ele>
        <time>2022-09-06T15:19:52Z</time>
      </trkpt>
      <trkpt lat="43.22745" lon="0.07504">
        <ele>296</ele>
        <time>2022-09-06T15:20:00Z</time>
      </trkpt>
      <trkpt lat="43.22741" lon="0.07502">
        <ele>296</ele>
        <time>2022-09-06T15:20:01Z</time>
      </trkpt>
      <trkpt lat="43.22718" lon="0.07495">
        <ele>296</ele>
        <time>2022-09-06T15:20:07Z</time>
      </trkpt>
      <trkpt lat="43.22675" lon="0.07488">
        <ele>296.6</ele>
        <time>2022-09-06T15:20:18Z</time>
      </trkpt>
      <trkpt lat="43.22652" lon="0.07484">
        <ele>296.8</ele>
        <time>2022-09-06T15:20:24Z</time>
      </trkpt>
      <trkpt lat="43.22637" lon="0.07481">
        <ele>297</ele>
        <time>2022-09-06T15:20:28Z</time>
      </trkpt>
      <trkpt lat="43.22615" lon="0.0747">
        <ele>297.4</ele>
        <time>2022-09-06T15:20:34Z</time>
      </trkpt>
      <trkpt lat="43.22607" lon="0.07451">
        <ele>297.6</ele>
        <time>2022-09-06T15:20:38Z</time>
      </trkpt>
      <trkpt lat="43.22605" lon="0.0744">
        <ele>297.8</ele>
        <time>2022-09-06T15:20:40Z</time>
      </trkpt>
      <trkpt lat="43.22603" lon="0.07418">
        <ele>297.8</ele>
        <time>2022-09-06T15:20:44Z</time>
      </trkpt>
      <trkpt lat="43.22602" lon="0.07407">
        <ele>297.8</ele>
        <time>2022-09-06T15:20:46Z</time>
      </trkpt>
      <trkpt lat="43.22598" lon="0.07371">
        <ele>298.2</ele>
        <time>2022-09-06T15:20:52Z</time>
      </trkpt>
      <trkpt lat="43.22594" lon="0.07354">
        <ele>298.2</ele>
        <time>2022-09-06T15:20:55Z</time>
      </trkpt>
      <trkpt lat="43.22586" lon="0.07339">
        <ele>298.4</ele>
        <time>2022-09-06T15:20:58Z</time>
      </trkpt>
      <trkpt lat="43.22579" lon="0.07322">
        <ele>298</ele>
        <time>2022-09-06T15:21:01Z</time>
      </trkpt>
      <trkpt lat="43.22569" lon="0.073">
        <ele>298.2</ele>
        <time>2022-09-06T15:21:05Z</time>
      </trkpt>
      <trkpt lat="43.22548" lon="0.07246">
        <ele>298.4</ele>
        <time>2022-09-06T15:21:15Z</time>
      </trkpt>
      <trkpt lat="43.2253" lon="0.07201">
        <ele>298.2</ele>
        <time>2022-09-06T15:21:23Z</time>
      </trkpt>
      <trkpt lat="43.2251" lon="0.07161">
        <ele>298.2</ele>
        <time>2022-09-06T15:21:30Z</time>
      </trkpt>
      <trkpt lat="43.22488" lon="0.07115">
        <ele>298.2</ele>
        <time>2022-09-06T15:21:38Z</time>
      </trkpt>
      <trkpt lat="43.22464" lon="0.0707">
        <ele>298.2</ele>
        <time>2022-09-06T15:21:46Z</time>
      </trkpt>
      <trkpt lat="43.22456" lon="0.07054">
        <ele>298.4</ele>
        <time>2022-09-06T15:21:49Z</time>
      </trkpt>
      <trkpt lat="43.2245" lon="0.07046">
        <ele>298.2</ele>
        <time>2022-09-06T15:21:51Z</time>
      </trkpt>
      <trkpt lat="43.22432" lon="0.07021">
        <ele>298</ele>
        <time>2022-09-06T15:21:58Z</time>
      </trkpt>
      <trkpt lat="43.22419" lon="0.07002">
        <ele>298.2</ele>
        <time>2022-09-06T15:22:05Z</time>
      </trkpt>
      <trkpt lat="43.22409" lon="0.0699">
        <ele>298.2</ele>
        <time>2022-09-06T15:22:11Z</time>
      </trkpt>
      <trkpt lat="43.22407" lon="0.06974">
        <ele>298.6</ele>
        <time>2022-09-06T15:22:15Z</time>
      </trkpt>
      <trkpt lat="43.22406" lon="0.06952">
        <ele>298.8</ele>
        <time>2022-09-06T15:22:19Z</time>
      </trkpt>
      <trkpt lat="43.22407" lon="0.0694">
        <ele>298.8</ele>
        <time>2022-09-06T15:22:21Z</time>
      </trkpt>
      <trkpt lat="43.22407" lon="0.06934">
        <ele>299</ele>
        <time>2022-09-06T15:22:22Z</time>
      </trkpt>
      <trkpt lat="43.22409" lon="0.06905">
        <ele>299.2</ele>
        <time>2022-09-06T15:22:27Z</time>
      </trkpt>
      <trkpt lat="43.22413" lon="0.06867">
        <ele>299</ele>
        <time>2022-09-06T15:22:33Z</time>
      </trkpt>
      <trkpt lat="43.22417" lon="0.06834">
        <ele>298.4</ele>
        <time>2022-09-06T15:22:39Z</time>
      </trkpt>
      <trkpt lat="43.22417" lon="0.06827">
        <ele>298.4</ele>
        <time>2022-09-06T15:22:43Z</time>
      </trkpt>
      <trkpt lat="43.22415" lon="0.06824">
        <ele>298.4</ele>
        <time>2022-09-06T15:22:44Z</time>
      </trkpt>
      <trkpt lat="43.22408" lon="0.06824">
        <ele>298.8</ele>
        <time>2022-09-06T15:22:46Z</time>
      </trkpt>
      <trkpt lat="43.22393" lon="0.06816">
        <ele>298.8</ele>
        <time>2022-09-06T15:22:50Z</time>
      </trkpt>
      <trkpt lat="43.22355" lon="0.0679">
        <ele>299.2</ele>
        <time>2022-09-06T15:22:59Z</time>
      </trkpt>
      <trkpt lat="43.22329" lon="0.06767">
        <ele>299.2</ele>
        <time>2022-09-06T15:23:06Z</time>
      </trkpt>
      <trkpt lat="43.22326" lon="0.06762">
        <ele>299.2</ele>
        <time>2022-09-06T15:23:07Z</time>
      </trkpt>
      <trkpt lat="43.22314" lon="0.06734">
        <ele>299.2</ele>
        <time>2022-09-06T15:23:12Z</time>
      </trkpt>
      <trkpt lat="43.22309" lon="0.06723">
        <ele>299.6</ele>
        <time>2022-09-06T15:23:14Z</time>
      </trkpt>
      <trkpt lat="43.22304" lon="0.06713">
        <ele>299.2</ele>
        <time>2022-09-06T15:23:16Z</time>
      </trkpt>
      <trkpt lat="43.22293" lon="0.06693">
        <ele>299.4</ele>
        <time>2022-09-06T15:23:20Z</time>
      </trkpt>
      <trkpt lat="43.22286" lon="0.06684">
        <ele>299.2</ele>
        <time>2022-09-06T15:23:22Z</time>
      </trkpt>
      <trkpt lat="43.22279" lon="0.06674">
        <ele>299.4</ele>
        <time>2022-09-06T15:23:24Z</time>
      </trkpt>
      <trkpt lat="43.22275" lon="0.06669">
        <ele>299.6</ele>
        <time>2022-09-06T15:23:25Z</time>
      </trkpt>
      <trkpt lat="43.22245" lon="0.06638">
        <ele>299.6</ele>
        <time>2022-09-06T15:23:32Z</time>
      </trkpt>
      <trkpt lat="43.22205" lon="0.06598">
        <ele>299.6</ele>
        <time>2022-09-06T15:23:41Z</time>
      </trkpt>
      <trkpt lat="43.22171" lon="0.06564">
        <ele>299.8</ele>
        <time>2022-09-06T15:23:49Z</time>
      </trkpt>
      <trkpt lat="43.2214" lon="0.06535">
        <ele>299.6</ele>
        <time>2022-09-06T15:23:56Z</time>
      </trkpt>
      <trkpt lat="43.22113" lon="0.06507">
        <ele>299.6</ele>
        <time>2022-09-06T15:24:03Z</time>
      </trkpt>
      <trkpt lat="43.22075" lon="0.06472">
        <ele>299.8</ele>
        <time>2022-09-06T15:24:12Z</time>
      </trkpt>
      <trkpt lat="43.22068" lon="0.06462">
        <ele>300.2</ele>
        <time>2022-09-06T15:24:14Z</time>
      </trkpt>
      <trkpt lat="43.22049" lon="0.06438">
        <ele>300.2</ele>
        <time>2022-09-06T15:24:19Z</time>
      </trkpt>
      <trkpt lat="43.22022" lon="0.06401">
        <ele>299.6</ele>
        <time>2022-09-06T15:24:27Z</time>
      </trkpt>
      <trkpt lat="43.21994" lon="0.0636">
        <ele>300.4</ele>
        <time>2022-09-06T15:24:35Z</time>
      </trkpt>
      <trkpt lat="43.21984" lon="0.06343">
        <ele>300.4</ele>
        <time>2022-09-06T15:24:38Z</time>
      </trkpt>
      <trkpt lat="43.21971" lon="0.06321">
        <ele>300.6</ele>
        <time>2022-09-06T15:24:42Z</time>
      </trkpt>
      <trkpt lat="43.21946" lon="0.06276">
        <ele>300.6</ele>
        <time>2022-09-06T15:24:50Z</time>
      </trkpt>
      <trkpt lat="43.21918" lon="0.06228">
        <ele>300.6</ele>
        <time>2022-09-06T15:24:58Z</time>
      </trkpt>
      <trkpt lat="43.21893" lon="0.06187">
        <ele>300.6</ele>
        <time>2022-09-06T15:25:05Z</time>
      </trkpt>
      <trkpt lat="43.21862" lon="0.06145">
        <ele>300.4</ele>
        <time>2022-09-06T15:25:13Z</time>
      </trkpt>
      <trkpt lat="43.21849" lon="0.06129">
        <ele>300.8</ele>
        <time>2022-09-06T15:25:16Z</time>
      </trkpt>
      <trkpt lat="43.21837" lon="0.06114">
        <ele>300.6</ele>
        <time>2022-09-06T15:25:19Z</time>
      </trkpt>
      <trkpt lat="43.21828" lon="0.06105">
        <ele>301.2</ele>
        <time>2022-09-06T15:25:21Z</time>
      </trkpt>
      <trkpt lat="43.21801" lon="0.06079">
        <ele>301</ele>
        <time>2022-09-06T15:25:27Z</time>
      </trkpt>
      <trkpt lat="43.21792" lon="0.06072">
        <ele>301.2</ele>
        <time>2022-09-06T15:25:29Z</time>
      </trkpt>
      <trkpt lat="43.21754" lon="0.06044">
        <ele>301</ele>
        <time>2022-09-06T15:25:37Z</time>
      </trkpt>
      <trkpt lat="43.21721" lon="0.06026">
        <ele>301.4</ele>
        <time>2022-09-06T15:25:44Z</time>
      </trkpt>
      <trkpt lat="43.21692" lon="0.06011">
        <ele>301.6</ele>
        <time>2022-09-06T15:25:50Z</time>
      </trkpt>
      <trkpt lat="43.21655" lon="0.05993">
        <ele>301.8</ele>
        <time>2022-09-06T15:25:58Z</time>
      </trkpt>
      <trkpt lat="43.21634" lon="0.0598">
        <ele>302.4</ele>
        <time>2022-09-06T15:26:03Z</time>
      </trkpt>
      <trkpt lat="43.21619" lon="0.05969">
        <ele>302.6</ele>
        <time>2022-09-06T15:26:07Z</time>
      </trkpt>
      <trkpt lat="43.21591" lon="0.05944">
        <ele>303.2</ele>
        <time>2022-09-06T15:26:16Z</time>
      </trkpt>
      <trkpt lat="43.21567" lon="0.05921">
        <ele>303.6</ele>
        <time>2022-09-06T15:26:23Z</time>
      </trkpt>
      <trkpt lat="43.2156" lon="0.05915">
        <ele>303.8</ele>
        <time>2022-09-06T15:26:25Z</time>
      </trkpt>
      <trkpt lat="43.2153" lon="0.0589">
        <ele>304</ele>
        <time>2022-09-06T15:26:33Z</time>
      </trkpt>
      <trkpt lat="43.2151" lon="0.05877">
        <ele>304.6</ele>
        <time>2022-09-06T15:26:38Z</time>
      </trkpt>
      <trkpt lat="43.21502" lon="0.05873">
        <ele>304.6</ele>
        <time>2022-09-06T15:26:40Z</time>
      </trkpt>
      <trkpt lat="43.21463" lon="0.05857">
        <ele>304.6</ele>
        <time>2022-09-06T15:26:49Z</time>
      </trkpt>
      <trkpt lat="43.21426" lon="0.05851">
        <ele>304.8</ele>
        <time>2022-09-06T15:26:57Z</time>
      </trkpt>
      <trkpt lat="43.21385" lon="0.05851">
        <ele>305.2</ele>
        <time>2022-09-06T15:27:06Z</time>
      </trkpt>
      <trkpt lat="43.21353" lon="0.05855">
        <ele>305.6</ele>
        <time>2022-09-06T15:27:13Z</time>
      </trkpt>
      <trkpt lat="43.21348" lon="0.05856">
        <ele>305.6</ele>
        <time>2022-09-06T15:27:14Z</time>
      </trkpt>
      <trkpt lat="43.21311" lon="0.05858">
        <ele>306</ele>
        <time>2022-09-06T15:27:22Z</time>
      </trkpt>
      <trkpt lat="43.21277" lon="0.05856">
        <ele>306.4</ele>
        <time>2022-09-06T15:27:29Z</time>
      </trkpt>
      <trkpt lat="43.21267" lon="0.05855">
        <ele>306.6</ele>
        <time>2022-09-06T15:27:31Z</time>
      </trkpt>
      <trkpt lat="43.21233" lon="0.05853">
        <ele>306.8</ele>
        <time>2022-09-06T15:27:38Z</time>
      </trkpt>
      <trkpt lat="43.21214" lon="0.05852">
        <ele>307.8</ele>
        <time>2022-09-06T15:27:42Z</time>
      </trkpt>
      <trkpt lat="43.21201" lon="0.05852">
        <ele>308</ele>
        <time>2022-09-06T15:27:45Z</time>
      </trkpt>
      <trkpt lat="43.2118" lon="0.05853">
        <ele>309</ele>
        <time>2022-09-06T15:27:50Z</time>
      </trkpt>
      <trkpt lat="43.21168" lon="0.05854">
        <ele>309.6</ele>
        <time>2022-09-06T15:27:53Z</time>
      </trkpt>
      <trkpt lat="43.21139" lon="0.05857">
        <ele>310.2</ele>
        <time>2022-09-06T15:28:02Z</time>
      </trkpt>
      <trkpt lat="43.21119" lon="0.05861">
        <ele>311.2</ele>
        <time>2022-09-06T15:28:09Z</time>
      </trkpt>
      <trkpt lat="43.21116" lon="0.05862">
        <ele>311.4</ele>
        <time>2022-09-06T15:28:10Z</time>
      </trkpt>
      <trkpt lat="43.21095" lon="0.05866">
        <ele>312.2</ele>
        <time>2022-09-06T15:28:17Z</time>
      </trkpt>
      <trkpt lat="43.21071" lon="0.0587">
        <ele>313.2</ele>
        <time>2022-09-06T15:28:26Z</time>
      </trkpt>
      <trkpt lat="43.21047" lon="0.05875">
        <ele>314.4</ele>
        <time>2022-09-06T15:28:34Z</time>
      </trkpt>
      <trkpt lat="43.21024" lon="0.05878">
        <ele>314.8</ele>
        <time>2022-09-06T15:28:42Z</time>
      </trkpt>
      <trkpt lat="43.20997" lon="0.05883">
        <ele>315.4</ele>
        <time>2022-09-06T15:28:50Z</time>
      </trkpt>
      <trkpt lat="43.20993" lon="0.05884">
        <ele>315.4</ele>
        <time>2022-09-06T15:28:51Z</time>
      </trkpt>
      <trkpt lat="43.20962" lon="0.05888">
        <ele>314.8</ele>
        <time>2022-09-06T15:28:59Z</time>
      </trkpt>
      <trkpt lat="43.20931" lon="0.05894">
        <ele>314.2</ele>
        <time>2022-09-06T15:29:06Z</time>
      </trkpt>
      <trkpt lat="43.20901" lon="0.05899">
        <ele>313.2</ele>
        <time>2022-09-06T15:29:11Z</time>
      </trkpt>
      <trkpt lat="43.20895" lon="0.059">
        <ele>313</ele>
        <time>2022-09-06T15:29:12Z</time>
      </trkpt>
      <trkpt lat="43.2086" lon="0.05904">
        <ele>312.2</ele>
        <time>2022-09-06T15:29:17Z</time>
      </trkpt>
      <trkpt lat="43.20852" lon="0.05905">
        <ele>312.4</ele>
        <time>2022-09-06T15:29:18Z</time>
      </trkpt>
      <trkpt lat="43.20801" lon="0.05904">
        <ele>311.2</ele>
        <time>2022-09-06T15:29:25Z</time>
      </trkpt>
      <trkpt lat="43.20793" lon="0.05903">
        <ele>310.8</ele>
        <time>2022-09-06T15:29:26Z</time>
      </trkpt>
      <trkpt lat="43.20755" lon="0.05892">
        <ele>310.8</ele>
        <time>2022-09-06T15:29:32Z</time>
      </trkpt>
      <trkpt lat="43.20707" lon="0.0588">
        <ele>311.2</ele>
        <time>2022-09-06T15:29:40Z</time>
      </trkpt>
      <trkpt lat="43.20658" lon="0.05872">
        <ele>311.4</ele>
        <time>2022-09-06T15:29:49Z</time>
      </trkpt>
      <trkpt lat="43.20617" lon="0.0587">
        <ele>311.6</ele>
        <time>2022-09-06T15:29:57Z</time>
      </trkpt>
      <trkpt lat="43.20612" lon="0.0587">
        <ele>312</ele>
        <time>2022-09-06T15:29:58Z</time>
      </trkpt>
      <trkpt lat="43.20587" lon="0.05868">
        <ele>311.8</ele>
        <time>2022-09-06T15:30:03Z</time>
      </trkpt>
      <trkpt lat="43.20572" lon="0.05866">
        <ele>312.2</ele>
        <time>2022-09-06T15:30:06Z</time>
      </trkpt>
      <trkpt lat="43.20543" lon="0.05863">
        <ele>312.6</ele>
        <time>2022-09-06T15:30:12Z</time>
      </trkpt>
      <trkpt lat="43.20511" lon="0.05861">
        <ele>312.8</ele>
        <time>2022-09-06T15:30:19Z</time>
      </trkpt>
      <trkpt lat="43.20473" lon="0.05851">
        <ele>312.8</ele>
        <time>2022-09-06T15:30:27Z</time>
      </trkpt>
      <trkpt lat="43.2044" lon="0.05842">
        <ele>313.2</ele>
        <time>2022-09-06T15:30:34Z</time>
      </trkpt>
      <trkpt lat="43.20435" lon="0.05841">
        <ele>313.2</ele>
        <time>2022-09-06T15:30:35Z</time>
      </trkpt>
      <trkpt lat="43.20398" lon="0.05835">
        <ele>314</ele>
        <time>2022-09-06T15:30:43Z</time>
      </trkpt>
      <trkpt lat="43.2039" lon="0.05835">
        <ele>314.4</ele>
        <time>2022-09-06T15:30:45Z</time>
      </trkpt>
      <trkpt lat="43.20349" lon="0.05834">
        <ele>314.6</ele>
        <time>2022-09-06T15:30:54Z</time>
      </trkpt>
      <trkpt lat="43.20319" lon="0.05834">
        <ele>314.8</ele>
        <time>2022-09-06T15:31:01Z</time>
      </trkpt>
      <trkpt lat="43.20287" lon="0.05835">
        <ele>315</ele>
        <time>2022-09-06T15:31:08Z</time>
      </trkpt>
      <trkpt lat="43.20267" lon="0.05834">
        <ele>315</ele>
        <time>2022-09-06T15:31:13Z</time>
      </trkpt>
      <trkpt lat="43.20251" lon="0.05832">
        <ele>315.4</ele>
        <time>2022-09-06T15:31:19Z</time>
      </trkpt>
      <trkpt lat="43.20245" lon="0.05832">
        <ele>315.6</ele>
        <time>2022-09-06T15:31:22Z</time>
      </trkpt>
      <trkpt lat="43.20244" lon="0.05831">
        <ele>315.8</ele>
        <time>2022-09-06T15:31:23Z</time>
      </trkpt>
      <trkpt lat="43.20241" lon="0.05829">
        <ele>315.6</ele>
        <time>2022-09-06T15:31:25Z</time>
      </trkpt>
      <trkpt lat="43.20237" lon="0.05816">
        <ele>315.8</ele>
        <time>2022-09-06T15:31:30Z</time>
      </trkpt>
      <trkpt lat="43.20229" lon="0.05793">
        <ele>316</ele>
        <time>2022-09-06T15:31:35Z</time>
      </trkpt>
      <trkpt lat="43.20212" lon="0.05787">
        <ele>316</ele>
        <time>2022-09-06T15:31:39Z</time>
      </trkpt>
      <trkpt lat="43.2019" lon="0.05788">
        <ele>315.6</ele>
        <time>2022-09-06T15:31:44Z</time>
      </trkpt>
      <trkpt lat="43.20164" lon="0.0578">
        <ele>315.4</ele>
        <time>2022-09-06T15:31:50Z</time>
      </trkpt>
      <trkpt lat="43.20145" lon="0.05772">
        <ele>315.4</ele>
        <time>2022-09-06T15:31:56Z</time>
      </trkpt>
      <trkpt lat="43.20122" lon="0.05762">
        <ele>315.4</ele>
        <time>2022-09-06T15:32:03Z</time>
      </trkpt>
      <trkpt lat="43.20099" lon="0.0575">
        <ele>315.2</ele>
        <time>2022-09-06T15:32:09Z</time>
      </trkpt>
      <trkpt lat="43.20082" lon="0.05741">
        <ele>315.2</ele>
        <time>2022-09-06T15:32:13Z</time>
      </trkpt>
      <trkpt lat="43.20068" lon="0.05735">
        <ele>315.2</ele>
        <time>2022-09-06T15:32:16Z</time>
      </trkpt>
      <trkpt lat="43.20045" lon="0.05724">
        <ele>314.8</ele>
        <time>2022-09-06T15:32:21Z</time>
      </trkpt>
      <trkpt lat="43.20037" lon="0.0572">
        <ele>315</ele>
        <time>2022-09-06T15:32:23Z</time>
      </trkpt>
      <trkpt lat="43.20028" lon="0.05718">
        <ele>315</ele>
        <time>2022-09-06T15:32:25Z</time>
      </trkpt>
      <trkpt lat="43.20018" lon="0.05718">
        <ele>315</ele>
        <time>2022-09-06T15:32:27Z</time>
      </trkpt>
      <trkpt lat="43.20008" lon="0.05718">
        <ele>314.6</ele>
        <time>2022-09-06T15:32:29Z</time>
      </trkpt>
      <trkpt lat="43.19984" lon="0.05717">
        <ele>314.2</ele>
        <time>2022-09-06T15:32:34Z</time>
      </trkpt>
      <trkpt lat="43.1995" lon="0.05717">
        <ele>313.8</ele>
        <time>2022-09-06T15:32:41Z</time>
      </trkpt>
      <trkpt lat="43.19922" lon="0.05716">
        <ele>313.8</ele>
        <time>2022-09-06T15:32:47Z</time>
      </trkpt>
      <trkpt lat="43.19911" lon="0.05715">
        <ele>313.6</ele>
        <time>2022-09-06T15:32:51Z</time>
      </trkpt>
      <trkpt lat="43.19896" lon="0.05725">
        <ele>314</ele>
        <time>2022-09-06T15:32:56Z</time>
      </trkpt>
      <trkpt lat="43.19885" lon="0.05733">
        <ele>313.6</ele>
        <time>2022-09-06T15:32:59Z</time>
      </trkpt>
      <trkpt lat="43.19867" lon="0.05745">
        <ele>313.8</ele>
        <time>2022-09-06T15:33:04Z</time>
      </trkpt>
      <trkpt lat="43.19837" lon="0.05764">
        <ele>313.8</ele>
        <time>2022-09-06T15:33:12Z</time>
      </trkpt>
      <trkpt lat="43.19817" lon="0.05777">
        <ele>314.2</ele>
        <time>2022-09-06T15:33:18Z</time>
      </trkpt>
      <trkpt lat="43.19813" lon="0.05777">
        <ele>314.2</ele>
        <time>2022-09-06T15:33:19Z</time>
      </trkpt>
      <trkpt lat="43.19789" lon="0.05781">
        <ele>314.6</ele>
        <time>2022-09-06T15:33:26Z</time>
      </trkpt>
      <trkpt lat="43.19785" lon="0.05783">
        <ele>314.6</ele>
        <time>2022-09-06T15:33:27Z</time>
      </trkpt>
      <trkpt lat="43.19759" lon="0.058">
        <ele>315</ele>
        <time>2022-09-06T15:33:35Z</time>
      </trkpt>
      <trkpt lat="43.19751" lon="0.05804">
        <ele>315.2</ele>
        <time>2022-09-06T15:33:38Z</time>
      </trkpt>
      <trkpt lat="43.19749" lon="0.05802">
        <ele>315.4</ele>
        <time>2022-09-06T15:33:39Z</time>
      </trkpt>
      <trkpt lat="43.19745" lon="0.05796">
        <ele>315.8</ele>
        <time>2022-09-06T15:33:41Z</time>
      </trkpt>
      <trkpt lat="43.19738" lon="0.05791">
        <ele>315.8</ele>
        <time>2022-09-06T15:33:44Z</time>
      </trkpt>
      <trkpt lat="43.19735" lon="0.05789">
        <ele>316</ele>
        <time>2022-09-06T15:33:45Z</time>
      </trkpt>
      <trkpt lat="43.19722" lon="0.0578">
        <ele>316.8</ele>
        <time>2022-09-06T15:33:50Z</time>
      </trkpt>
      <trkpt lat="43.19715" lon="0.05776">
        <ele>316.8</ele>
        <time>2022-09-06T15:33:53Z</time>
      </trkpt>
      <trkpt lat="43.19691" lon="0.05768">
        <ele>317.4</ele>
        <time>2022-09-06T15:34:02Z</time>
      </trkpt>
      <trkpt lat="43.19685" lon="0.05767">
        <ele>317.8</ele>
        <time>2022-09-06T15:34:04Z</time>
      </trkpt>
      <trkpt lat="43.19668" lon="0.05764">
        <ele>318.4</ele>
        <time>2022-09-06T15:34:10Z</time>
      </trkpt>
      <trkpt lat="43.19654" lon="0.05761">
        <ele>319</ele>
        <time>2022-09-06T15:34:15Z</time>
      </trkpt>
      <trkpt lat="43.19652" lon="0.0576">
        <ele>319</ele>
        <time>2022-09-06T15:34:16Z</time>
      </trkpt>
      <trkpt lat="43.19634" lon="0.05755">
        <ele>319.4</ele>
        <time>2022-09-06T15:34:22Z</time>
      </trkpt>
      <trkpt lat="43.19622" lon="0.05752">
        <ele>320</ele>
        <time>2022-09-06T15:34:26Z</time>
      </trkpt>
      <trkpt lat="43.19613" lon="0.05752">
        <ele>320.2</ele>
        <time>2022-09-06T15:34:29Z</time>
      </trkpt>
      <trkpt lat="43.19593" lon="0.05748">
        <ele>321</ele>
        <time>2022-09-06T15:34:37Z</time>
      </trkpt>
      <trkpt lat="43.19588" lon="0.05747">
        <ele>321</ele>
        <time>2022-09-06T15:34:39Z</time>
      </trkpt>
      <trkpt lat="43.19569" lon="0.05746">
        <ele>321.4</ele>
        <time>2022-09-06T15:34:45Z</time>
      </trkpt>
      <trkpt lat="43.19541" lon="0.05739">
        <ele>321.8</ele>
        <time>2022-09-06T15:34:53Z</time>
      </trkpt>
      <trkpt lat="43.19529" lon="0.05731">
        <ele>322.2</ele>
        <time>2022-09-06T15:34:57Z</time>
      </trkpt>
      <trkpt lat="43.19521" lon="0.05723">
        <ele>322.4</ele>
        <time>2022-09-06T15:35:00Z</time>
      </trkpt>
      <trkpt lat="43.19497" lon="0.05707">
        <ele>322.4</ele>
        <time>2022-09-06T15:35:08Z</time>
      </trkpt>
      <trkpt lat="43.19486" lon="0.05701">
        <ele>322.8</ele>
        <time>2022-09-06T15:35:13Z</time>
      </trkpt>
      <trkpt lat="43.19471" lon="0.05705">
        <ele>323.2</ele>
        <time>2022-09-06T15:35:18Z</time>
      </trkpt>
      <trkpt lat="43.19455" lon="0.05726">
        <ele>323.8</ele>
        <time>2022-09-06T15:35:24Z</time>
      </trkpt>
      <trkpt lat="43.19444" lon="0.05744">
        <ele>323.8</ele>
        <time>2022-09-06T15:35:30Z</time>
      </trkpt>
      <trkpt lat="43.1944" lon="0.05741">
        <ele>324</ele>
        <time>2022-09-06T15:35:33Z</time>
      </trkpt>
      <trkpt lat="43.19436" lon="0.05737">
        <ele>324.4</ele>
        <time>2022-09-06T15:35:37Z</time>
      </trkpt>
    </trkseg>
  </trk>
</gpx>